<?xml version="1.0" encoding="UTF-8" standalone="no" ?>
<gpx xmlns="http://www.topografix.com/GPX/1/1" xmlns:xsi="http://www.w3.org/2001/XMLSchema-instance" xsi:schemaLocation="http://www.topografix.com/GPX/1/1 http://www.topografix.com/GPX/1/1/gpx.xsd" version="1.1" creator="VisuGPX - https://www.visugpx.com">
  <metadata>
    <name>Pornichet 22/04/2021</name>
    <desc><![CDATA[Sortie VTT du jeudi 22 avril 2021]]></desc>
  </metadata>
  <trk>
    <name><![CDATA[Pornichet Cyclisme]]></name>
    <trkseg>
      <trkpt lat="47.26397" lon="-2.31575">
        <ele>9.3</ele>
        <time>2021-04-22T07:10:32.000Z</time>
      </trkpt>
      <trkpt lat="47.26395" lon="-2.31587">
        <ele>9.2</ele>
        <time>2021-04-22T07:10:35.000Z</time>
      </trkpt>
      <trkpt lat="47.26395" lon="-2.31592">
        <ele>-0.40000000596046</ele>
        <time>2021-04-22T07:10:36.000Z</time>
      </trkpt>
      <trkpt lat="47.26394" lon="-2.31597">
        <ele>-0.80000001192093</ele>
        <time>2021-04-22T07:10:37.000Z</time>
      </trkpt>
      <trkpt lat="47.26394" lon="-2.31602">
        <ele>-1.2000000476837</ele>
        <time>2021-04-22T07:10:38.000Z</time>
      </trkpt>
      <trkpt lat="47.26393" lon="-2.31612">
        <ele>-1.2000000476837</ele>
        <time>2021-04-22T07:10:40.000Z</time>
      </trkpt>
      <trkpt lat="47.26392" lon="-2.31647">
        <ele>-1.2000000476837</ele>
        <time>2021-04-22T07:10:46.000Z</time>
      </trkpt>
      <trkpt lat="47.26391" lon="-2.31669">
        <ele>-1.2000000476837</ele>
        <time>2021-04-22T07:10:51.000Z</time>
      </trkpt>
      <trkpt lat="47.26389" lon="-2.31672">
        <ele>-1.2000000476837</ele>
        <time>2021-04-22T07:10:52.000Z</time>
      </trkpt>
      <trkpt lat="47.26381" lon="-2.31677">
        <ele>-1.2000000476837</ele>
        <time>2021-04-22T07:10:55.000Z</time>
      </trkpt>
      <trkpt lat="47.26376" lon="-2.31679">
        <ele>-1.2000000476837</ele>
        <time>2021-04-22T07:10:57.000Z</time>
      </trkpt>
      <trkpt lat="47.2637" lon="-2.31682">
        <ele>-1.2000000476837</ele>
        <time>2021-04-22T07:11:00.000Z</time>
      </trkpt>
      <trkpt lat="47.26364" lon="-2.31686">
        <ele>-1.3999999761581</ele>
        <time>2021-04-22T07:11:02.000Z</time>
      </trkpt>
      <trkpt lat="47.26361" lon="-2.31688">
        <ele>-1.6000000238419</ele>
        <time>2021-04-22T07:11:03.000Z</time>
      </trkpt>
      <trkpt lat="47.26357" lon="-2.3169">
        <ele>-1.7999999523163</ele>
        <time>2021-04-22T07:11:04.000Z</time>
      </trkpt>
      <trkpt lat="47.26353" lon="-2.31692">
        <ele>-1.7999999523163</ele>
        <time>2021-04-22T07:11:05.000Z</time>
      </trkpt>
      <trkpt lat="47.2635" lon="-2.31694">
        <ele>-2</ele>
        <time>2021-04-22T07:11:06.000Z</time>
      </trkpt>
      <trkpt lat="47.26334" lon="-2.31703">
        <ele>-2</ele>
        <time>2021-04-22T07:11:10.000Z</time>
      </trkpt>
      <trkpt lat="47.26324" lon="-2.31707">
        <ele>-2</ele>
        <time>2021-04-22T07:11:12.000Z</time>
      </trkpt>
      <trkpt lat="47.26315" lon="-2.31713">
        <ele>-2</ele>
        <time>2021-04-22T07:11:14.000Z</time>
      </trkpt>
      <trkpt lat="47.26305" lon="-2.31719">
        <ele>-2</ele>
        <time>2021-04-22T07:11:16.000Z</time>
      </trkpt>
      <trkpt lat="47.26297" lon="-2.31725">
        <ele>-2</ele>
        <time>2021-04-22T07:11:18.000Z</time>
      </trkpt>
      <trkpt lat="47.26294" lon="-2.31729">
        <ele>-2.4000000953674</ele>
        <time>2021-04-22T07:11:19.000Z</time>
      </trkpt>
      <trkpt lat="47.26292" lon="-2.31734">
        <ele>-3</ele>
        <time>2021-04-22T07:11:20.000Z</time>
      </trkpt>
      <trkpt lat="47.26292" lon="-2.3174">
        <ele>-3.4000000953674</ele>
        <time>2021-04-22T07:11:21.000Z</time>
      </trkpt>
      <trkpt lat="47.26292" lon="-2.31746">
        <ele>-3.7999999523163</ele>
        <time>2021-04-22T07:11:22.000Z</time>
      </trkpt>
      <trkpt lat="47.26293" lon="-2.31751">
        <ele>-4.1999998092651</ele>
        <time>2021-04-22T07:11:23.000Z</time>
      </trkpt>
      <trkpt lat="47.26294" lon="-2.31757">
        <ele>-4.1999998092651</ele>
        <time>2021-04-22T07:11:24.000Z</time>
      </trkpt>
      <trkpt lat="47.26295" lon="-2.31763">
        <ele>-4.1999998092651</ele>
        <time>2021-04-22T07:11:25.000Z</time>
      </trkpt>
      <trkpt lat="47.26296" lon="-2.31776">
        <ele>-4.1999998092651</ele>
        <time>2021-04-22T07:11:27.000Z</time>
      </trkpt>
      <trkpt lat="47.26298" lon="-2.31795">
        <ele>-4.1999998092651</ele>
        <time>2021-04-22T07:11:30.000Z</time>
      </trkpt>
      <trkpt lat="47.26298" lon="-2.31802">
        <ele>-4.1999998092651</ele>
        <time>2021-04-22T07:11:31.000Z</time>
      </trkpt>
      <trkpt lat="47.26297" lon="-2.31821">
        <ele>-4.1999998092651</ele>
        <time>2021-04-22T07:11:34.000Z</time>
      </trkpt>
      <trkpt lat="47.26296" lon="-2.31827">
        <ele>-4.1999998092651</ele>
        <time>2021-04-22T07:11:35.000Z</time>
      </trkpt>
      <trkpt lat="47.26295" lon="-2.31859">
        <ele>-4.1999998092651</ele>
        <time>2021-04-22T07:11:40.000Z</time>
      </trkpt>
      <trkpt lat="47.26292" lon="-2.31887">
        <ele>-4.1999998092651</ele>
        <time>2021-04-22T07:11:45.000Z</time>
      </trkpt>
      <trkpt lat="47.26282" lon="-2.319">
        <ele>-4.1999998092651</ele>
        <time>2021-04-22T07:11:49.000Z</time>
      </trkpt>
      <trkpt lat="47.26263" lon="-2.31924">
        <ele>-4.1999998092651</ele>
        <time>2021-04-22T07:11:55.000Z</time>
      </trkpt>
      <trkpt lat="47.26252" lon="-2.31941">
        <ele>-4.1999998092651</ele>
        <time>2021-04-22T07:11:59.000Z</time>
      </trkpt>
      <trkpt lat="47.26243" lon="-2.31964">
        <ele>-4.1999998092651</ele>
        <time>2021-04-22T07:12:04.000Z</time>
      </trkpt>
      <trkpt lat="47.26237" lon="-2.31972">
        <ele>-4.1999998092651</ele>
        <time>2021-04-22T07:12:07.000Z</time>
      </trkpt>
      <trkpt lat="47.26233" lon="-2.31972">
        <ele>-4.1999998092651</ele>
        <time>2021-04-22T07:12:08.000Z</time>
      </trkpt>
      <trkpt lat="47.26224" lon="-2.31979">
        <ele>-4.1999998092651</ele>
        <time>2021-04-22T07:12:11.000Z</time>
      </trkpt>
      <trkpt lat="47.26222" lon="-2.31982">
        <ele>-4.1999998092651</ele>
        <time>2021-04-22T07:12:12.000Z</time>
      </trkpt>
      <trkpt lat="47.26205" lon="-2.31999">
        <ele>-4.1999998092651</ele>
        <time>2021-04-22T07:12:18.000Z</time>
      </trkpt>
      <trkpt lat="47.26203" lon="-2.32002">
        <ele>-4.1999998092651</ele>
        <time>2021-04-22T07:12:19.000Z</time>
      </trkpt>
      <trkpt lat="47.26203" lon="-2.32011">
        <ele>-4.1999998092651</ele>
        <time>2021-04-22T07:12:21.000Z</time>
      </trkpt>
      <trkpt lat="47.262" lon="-2.32019">
        <ele>-4.1999998092651</ele>
        <time>2021-04-22T07:12:24.000Z</time>
      </trkpt>
      <trkpt lat="47.26187" lon="-2.3202">
        <ele>-4.1999998092651</ele>
        <time>2021-04-22T07:12:29.000Z</time>
      </trkpt>
      <trkpt lat="47.26184" lon="-2.32021">
        <ele>-4.1999998092651</ele>
        <time>2021-04-22T07:12:30.000Z</time>
      </trkpt>
      <trkpt lat="47.26181" lon="-2.32022">
        <ele>-4.1999998092651</ele>
        <time>2021-04-22T07:12:31.000Z</time>
      </trkpt>
      <trkpt lat="47.26168" lon="-2.32032">
        <ele>-4.1999998092651</ele>
        <time>2021-04-22T07:12:35.000Z</time>
      </trkpt>
      <trkpt lat="47.26159" lon="-2.32054">
        <ele>-4.1999998092651</ele>
        <time>2021-04-22T07:12:39.000Z</time>
      </trkpt>
      <trkpt lat="47.26146" lon="-2.32101">
        <ele>-4.1999998092651</ele>
        <time>2021-04-22T07:12:47.000Z</time>
      </trkpt>
      <trkpt lat="47.26133" lon="-2.32143">
        <ele>-4.1999998092651</ele>
        <time>2021-04-22T07:12:54.000Z</time>
      </trkpt>
      <trkpt lat="47.26121" lon="-2.32177">
        <ele>-4.1999998092651</ele>
        <time>2021-04-22T07:13:00.000Z</time>
      </trkpt>
      <trkpt lat="47.26118" lon="-2.32182">
        <ele>-4.1999998092651</ele>
        <time>2021-04-22T07:13:01.000Z</time>
      </trkpt>
      <trkpt lat="47.26106" lon="-2.32208">
        <ele>-4.1999998092651</ele>
        <time>2021-04-22T07:13:06.000Z</time>
      </trkpt>
      <trkpt lat="47.26103" lon="-2.32212">
        <ele>-4.1999998092651</ele>
        <time>2021-04-22T07:13:07.000Z</time>
      </trkpt>
      <trkpt lat="47.26081" lon="-2.32243">
        <ele>-4.1999998092651</ele>
        <time>2021-04-22T07:13:14.000Z</time>
      </trkpt>
      <trkpt lat="47.26057" lon="-2.32271">
        <ele>-4.1999998092651</ele>
        <time>2021-04-22T07:13:21.000Z</time>
      </trkpt>
      <trkpt lat="47.26028" lon="-2.32309">
        <ele>-4.1999998092651</ele>
        <time>2021-04-22T07:13:30.000Z</time>
      </trkpt>
      <trkpt lat="47.26001" lon="-2.32348">
        <ele>-4.1999998092651</ele>
        <time>2021-04-22T07:13:38.000Z</time>
      </trkpt>
      <trkpt lat="47.25997" lon="-2.32352">
        <ele>-4.1999998092651</ele>
        <time>2021-04-22T07:13:39.000Z</time>
      </trkpt>
      <trkpt lat="47.25979" lon="-2.32377">
        <ele>-4.1999998092651</ele>
        <time>2021-04-22T07:13:44.000Z</time>
      </trkpt>
      <trkpt lat="47.25954" lon="-2.32408">
        <ele>-4.1999998092651</ele>
        <time>2021-04-22T07:13:51.000Z</time>
      </trkpt>
      <trkpt lat="47.2593" lon="-2.3244">
        <ele>-4.1999998092651</ele>
        <time>2021-04-22T07:13:58.000Z</time>
      </trkpt>
      <trkpt lat="47.2592" lon="-2.32452">
        <ele>-4.1999998092651</ele>
        <time>2021-04-22T07:14:01.000Z</time>
      </trkpt>
      <trkpt lat="47.25915" lon="-2.3246">
        <ele>-4.1999998092651</ele>
        <time>2021-04-22T07:14:03.000Z</time>
      </trkpt>
      <trkpt lat="47.25914" lon="-2.32465">
        <ele>-4.1999998092651</ele>
        <time>2021-04-22T07:14:04.000Z</time>
      </trkpt>
      <trkpt lat="47.2592" lon="-2.32475">
        <ele>-3.7999999523163</ele>
        <time>2021-04-22T07:14:07.000Z</time>
      </trkpt>
      <trkpt lat="47.25923" lon="-2.32478">
        <ele>-3.4000000953674</ele>
        <time>2021-04-22T07:14:08.000Z</time>
      </trkpt>
      <trkpt lat="47.25926" lon="-2.32482">
        <ele>-3</ele>
        <time>2021-04-22T07:14:09.000Z</time>
      </trkpt>
      <trkpt lat="47.25929" lon="-2.32486">
        <ele>-2.5999999046326</ele>
        <time>2021-04-22T07:14:10.000Z</time>
      </trkpt>
      <trkpt lat="47.25932" lon="-2.32492">
        <ele>-2.2000000476837</ele>
        <time>2021-04-22T07:14:11.000Z</time>
      </trkpt>
      <trkpt lat="47.25934" lon="-2.32497">
        <ele>-2.2000000476837</ele>
        <time>2021-04-22T07:14:12.000Z</time>
      </trkpt>
      <trkpt lat="47.25937" lon="-2.32503">
        <ele>-2.2000000476837</ele>
        <time>2021-04-22T07:14:13.000Z</time>
      </trkpt>
      <trkpt lat="47.2595" lon="-2.32547">
        <ele>-2.2000000476837</ele>
        <time>2021-04-22T07:14:20.000Z</time>
      </trkpt>
      <trkpt lat="47.25965" lon="-2.32605">
        <ele>-2.2000000476837</ele>
        <time>2021-04-22T07:14:29.000Z</time>
      </trkpt>
      <trkpt lat="47.25967" lon="-2.32611">
        <ele>-2.2000000476837</ele>
        <time>2021-04-22T07:14:30.000Z</time>
      </trkpt>
      <trkpt lat="47.25969" lon="-2.32631">
        <ele>-2.2000000476837</ele>
        <time>2021-04-22T07:14:33.000Z</time>
      </trkpt>
      <trkpt lat="47.25969" lon="-2.32638">
        <ele>-2.2000000476837</ele>
        <time>2021-04-22T07:14:34.000Z</time>
      </trkpt>
      <trkpt lat="47.25967" lon="-2.32665">
        <ele>-2.2000000476837</ele>
        <time>2021-04-22T07:14:39.000Z</time>
      </trkpt>
      <trkpt lat="47.25973" lon="-2.32665">
        <ele>-2.2000000476837</ele>
        <time>2021-04-22T07:14:42.000Z</time>
      </trkpt>
      <trkpt lat="47.25989" lon="-2.32665">
        <ele>-2.2000000476837</ele>
        <time>2021-04-22T07:14:47.000Z</time>
      </trkpt>
      <trkpt lat="47.26004" lon="-2.32662">
        <ele>-2.2000000476837</ele>
        <time>2021-04-22T07:14:51.000Z</time>
      </trkpt>
      <trkpt lat="47.26008" lon="-2.32661">
        <ele>-2.2000000476837</ele>
        <time>2021-04-22T07:14:52.000Z</time>
      </trkpt>
      <trkpt lat="47.26023" lon="-2.32656">
        <ele>-2.2000000476837</ele>
        <time>2021-04-22T07:14:56.000Z</time>
      </trkpt>
      <trkpt lat="47.26034" lon="-2.32653">
        <ele>-2.2000000476837</ele>
        <time>2021-04-22T07:15:00.000Z</time>
      </trkpt>
      <trkpt lat="47.26046" lon="-2.32648">
        <ele>-2.2000000476837</ele>
        <time>2021-04-22T07:15:04.000Z</time>
      </trkpt>
      <trkpt lat="47.26049" lon="-2.32648">
        <ele>-1.7999999523163</ele>
        <time>2021-04-22T07:15:05.000Z</time>
      </trkpt>
      <trkpt lat="47.26053" lon="-2.32647">
        <ele>-1.3999999761581</ele>
        <time>2021-04-22T07:15:06.000Z</time>
      </trkpt>
      <trkpt lat="47.26056" lon="-2.32647">
        <ele>-1</ele>
        <time>2021-04-22T07:15:07.000Z</time>
      </trkpt>
      <trkpt lat="47.2606" lon="-2.32646">
        <ele>-0.60000002384186</ele>
        <time>2021-04-22T07:15:08.000Z</time>
      </trkpt>
      <trkpt lat="47.26064" lon="-2.32646">
        <ele>-0.20000000298023</ele>
        <time>2021-04-22T07:15:09.000Z</time>
      </trkpt>
      <trkpt lat="47.26071" lon="-2.32644">
        <ele>-0.20000000298023</ele>
        <time>2021-04-22T07:15:11.000Z</time>
      </trkpt>
      <trkpt lat="47.26106" lon="-2.32638">
        <ele>-0.20000000298023</ele>
        <time>2021-04-22T07:15:20.000Z</time>
      </trkpt>
      <trkpt lat="47.26141" lon="-2.3264">
        <ele>-0.20000000298023</ele>
        <time>2021-04-22T07:15:29.000Z</time>
      </trkpt>
      <trkpt lat="47.26158" lon="-2.32648">
        <ele>0.20000000298023</ele>
        <time>2021-04-22T07:15:34.000Z</time>
      </trkpt>
      <trkpt lat="47.26162" lon="-2.3265">
        <ele>0.60000002384186</ele>
        <time>2021-04-22T07:15:35.000Z</time>
      </trkpt>
      <trkpt lat="47.26166" lon="-2.32653">
        <ele>1</ele>
        <time>2021-04-22T07:15:36.000Z</time>
      </trkpt>
      <trkpt lat="47.2617" lon="-2.32655">
        <ele>1.7999999523163</ele>
        <time>2021-04-22T07:15:37.000Z</time>
      </trkpt>
      <trkpt lat="47.26198" lon="-2.32676">
        <ele>1.7999999523163</ele>
        <time>2021-04-22T07:15:44.000Z</time>
      </trkpt>
      <trkpt lat="47.26232" lon="-2.32718">
        <ele>1.7999999523163</ele>
        <time>2021-04-22T07:15:53.000Z</time>
      </trkpt>
      <trkpt lat="47.26262" lon="-2.32762">
        <ele>1.7999999523163</ele>
        <time>2021-04-22T07:16:01.000Z</time>
      </trkpt>
      <trkpt lat="47.26275" lon="-2.32787">
        <ele>1.7999999523163</ele>
        <time>2021-04-22T07:16:05.000Z</time>
      </trkpt>
      <trkpt lat="47.26282" lon="-2.32806">
        <ele>1.3999999761581</ele>
        <time>2021-04-22T07:16:08.000Z</time>
      </trkpt>
      <trkpt lat="47.26284" lon="-2.32813">
        <ele>1</ele>
        <time>2021-04-22T07:16:09.000Z</time>
      </trkpt>
      <trkpt lat="47.26286" lon="-2.32819">
        <ele>0.40000000596046</ele>
        <time>2021-04-22T07:16:10.000Z</time>
      </trkpt>
      <trkpt lat="47.26287" lon="-2.32826">
        <ele>3.3</ele>
        <time>2021-04-22T07:16:11.000Z</time>
      </trkpt>
      <trkpt lat="47.26288" lon="-2.32833">
        <ele>-0.40000000596046</ele>
        <time>2021-04-22T07:16:12.000Z</time>
      </trkpt>
      <trkpt lat="47.2629" lon="-2.32847">
        <ele>-0.40000000596046</ele>
        <time>2021-04-22T07:16:14.000Z</time>
      </trkpt>
      <trkpt lat="47.26299" lon="-2.32862">
        <ele>-0.40000000596046</ele>
        <time>2021-04-22T07:16:17.000Z</time>
      </trkpt>
      <trkpt lat="47.26316" lon="-2.32874">
        <ele>-0.40000000596046</ele>
        <time>2021-04-22T07:16:21.000Z</time>
      </trkpt>
      <trkpt lat="47.26324" lon="-2.32894">
        <ele>-0.40000000596046</ele>
        <time>2021-04-22T07:16:24.000Z</time>
      </trkpt>
      <trkpt lat="47.26329" lon="-2.32908">
        <ele>-0.40000000596046</ele>
        <time>2021-04-22T07:16:26.000Z</time>
      </trkpt>
      <trkpt lat="47.26349" lon="-2.32969">
        <ele>-0.40000000596046</ele>
        <time>2021-04-22T07:16:35.000Z</time>
      </trkpt>
      <trkpt lat="47.26352" lon="-2.32974">
        <ele>-0.40000000596046</ele>
        <time>2021-04-22T07:16:36.000Z</time>
      </trkpt>
      <trkpt lat="47.26363" lon="-2.32985">
        <ele>-0.40000000596046</ele>
        <time>2021-04-22T07:16:39.000Z</time>
      </trkpt>
      <trkpt lat="47.26366" lon="-2.33002">
        <ele>-0.40000000596046</ele>
        <time>2021-04-22T07:16:42.000Z</time>
      </trkpt>
      <trkpt lat="47.26367" lon="-2.33009">
        <ele>-0.40000000596046</ele>
        <time>2021-04-22T07:16:43.000Z</time>
      </trkpt>
      <trkpt lat="47.26369" lon="-2.3305">
        <ele>-0.40000000596046</ele>
        <time>2021-04-22T07:16:49.000Z</time>
      </trkpt>
      <trkpt lat="47.26369" lon="-2.33057">
        <ele>-0.40000000596046</ele>
        <time>2021-04-22T07:16:50.000Z</time>
      </trkpt>
      <trkpt lat="47.26371" lon="-2.33107">
        <ele>-0.40000000596046</ele>
        <time>2021-04-22T07:16:57.000Z</time>
      </trkpt>
      <trkpt lat="47.26375" lon="-2.33163">
        <ele>-0.40000000596046</ele>
        <time>2021-04-22T07:17:05.000Z</time>
      </trkpt>
      <trkpt lat="47.26379" lon="-2.33226">
        <ele>-0.40000000596046</ele>
        <time>2021-04-22T07:17:14.000Z</time>
      </trkpt>
      <trkpt lat="47.2638" lon="-2.3324">
        <ele>-0.40000000596046</ele>
        <time>2021-04-22T07:17:16.000Z</time>
      </trkpt>
      <trkpt lat="47.26389" lon="-2.33262">
        <ele>-0.40000000596046</ele>
        <time>2021-04-22T07:17:20.000Z</time>
      </trkpt>
      <trkpt lat="47.26407" lon="-2.33269">
        <ele>-0.40000000596046</ele>
        <time>2021-04-22T07:17:24.000Z</time>
      </trkpt>
      <trkpt lat="47.26444" lon="-2.33273">
        <ele>-0.40000000596046</ele>
        <time>2021-04-22T07:17:32.000Z</time>
      </trkpt>
      <trkpt lat="47.26474" lon="-2.33278">
        <ele>-0.40000000596046</ele>
        <time>2021-04-22T07:17:39.000Z</time>
      </trkpt>
      <trkpt lat="47.26496" lon="-2.33281">
        <ele>-0.40000000596046</ele>
        <time>2021-04-22T07:17:45.000Z</time>
      </trkpt>
      <trkpt lat="47.26504" lon="-2.33285">
        <ele>-0.40000000596046</ele>
        <time>2021-04-22T07:17:49.000Z</time>
      </trkpt>
      <trkpt lat="47.26513" lon="-2.33291">
        <ele>-0.40000000596046</ele>
        <time>2021-04-22T07:17:53.000Z</time>
      </trkpt>
      <trkpt lat="47.26528" lon="-2.3329">
        <ele>-0.40000000596046</ele>
        <time>2021-04-22T07:17:58.000Z</time>
      </trkpt>
      <trkpt lat="47.26531" lon="-2.33294">
        <ele>-0.40000000596046</ele>
        <time>2021-04-22T07:18:00.000Z</time>
      </trkpt>
      <trkpt lat="47.26536" lon="-2.333">
        <ele>-0.40000000596046</ele>
        <time>2021-04-22T07:18:02.000Z</time>
      </trkpt>
      <trkpt lat="47.26542" lon="-2.33297">
        <ele>-0.40000000596046</ele>
        <time>2021-04-22T07:18:04.000Z</time>
      </trkpt>
      <trkpt lat="47.26545" lon="-2.33294">
        <ele>-0.40000000596046</ele>
        <time>2021-04-22T07:18:05.000Z</time>
      </trkpt>
      <trkpt lat="47.26548" lon="-2.3329">
        <ele>3.4</ele>
        <time>2021-04-22T07:18:06.000Z</time>
      </trkpt>
      <trkpt lat="47.26551" lon="-2.33287">
        <ele>0.40000000596046</ele>
        <time>2021-04-22T07:18:07.000Z</time>
      </trkpt>
      <trkpt lat="47.26554" lon="-2.33283">
        <ele>0.80000001192093</ele>
        <time>2021-04-22T07:18:08.000Z</time>
      </trkpt>
      <trkpt lat="47.26556" lon="-2.3328">
        <ele>1.2000000476837</ele>
        <time>2021-04-22T07:18:09.000Z</time>
      </trkpt>
      <trkpt lat="47.26559" lon="-2.33277">
        <ele>1.6000000238419</ele>
        <time>2021-04-22T07:18:10.000Z</time>
      </trkpt>
      <trkpt lat="47.26562" lon="-2.33274">
        <ele>1.6000000238419</ele>
        <time>2021-04-22T07:18:11.000Z</time>
      </trkpt>
      <trkpt lat="47.26592" lon="-2.33244">
        <ele>1.6000000238419</ele>
        <time>2021-04-22T07:18:19.000Z</time>
      </trkpt>
      <trkpt lat="47.26626" lon="-2.3321">
        <ele>1.6000000238419</ele>
        <time>2021-04-22T07:18:28.000Z</time>
      </trkpt>
      <trkpt lat="47.26636" lon="-2.33199">
        <ele>1.6000000238419</ele>
        <time>2021-04-22T07:18:31.000Z</time>
      </trkpt>
      <trkpt lat="47.2665" lon="-2.33185">
        <ele>1.6000000238419</ele>
        <time>2021-04-22T07:18:35.000Z</time>
      </trkpt>
      <trkpt lat="47.26664" lon="-2.33171">
        <ele>1.6000000238419</ele>
        <time>2021-04-22T07:18:39.000Z</time>
      </trkpt>
      <trkpt lat="47.26678" lon="-2.33156">
        <ele>1.6000000238419</ele>
        <time>2021-04-22T07:18:43.000Z</time>
      </trkpt>
      <trkpt lat="47.26705" lon="-2.33129">
        <ele>1.6000000238419</ele>
        <time>2021-04-22T07:18:50.000Z</time>
      </trkpt>
      <trkpt lat="47.26728" lon="-2.33106">
        <ele>1.6000000238419</ele>
        <time>2021-04-22T07:18:56.000Z</time>
      </trkpt>
      <trkpt lat="47.26738" lon="-2.33096">
        <ele>1.6000000238419</ele>
        <time>2021-04-22T07:18:59.000Z</time>
      </trkpt>
      <trkpt lat="47.26754" lon="-2.33088">
        <ele>1.6000000238419</ele>
        <time>2021-04-22T07:19:04.000Z</time>
      </trkpt>
      <trkpt lat="47.26759" lon="-2.33094">
        <ele>1.6000000238419</ele>
        <time>2021-04-22T07:19:06.000Z</time>
      </trkpt>
      <trkpt lat="47.2676" lon="-2.33101">
        <ele>1.6000000238419</ele>
        <time>2021-04-22T07:19:07.000Z</time>
      </trkpt>
      <trkpt lat="47.26763" lon="-2.33125">
        <ele>1.6000000238419</ele>
        <time>2021-04-22T07:19:10.000Z</time>
      </trkpt>
      <trkpt lat="47.2676" lon="-2.33146">
        <ele>1.6000000238419</ele>
        <time>2021-04-22T07:19:13.000Z</time>
      </trkpt>
      <trkpt lat="47.26756" lon="-2.33159">
        <ele>1.6000000238419</ele>
        <time>2021-04-22T07:19:15.000Z</time>
      </trkpt>
      <trkpt lat="47.2675" lon="-2.33187">
        <ele>1.6000000238419</ele>
        <time>2021-04-22T07:19:19.000Z</time>
      </trkpt>
      <trkpt lat="47.26739" lon="-2.33232">
        <ele>1.6000000238419</ele>
        <time>2021-04-22T07:19:26.000Z</time>
      </trkpt>
      <trkpt lat="47.26731" lon="-2.33266">
        <ele>1.6000000238419</ele>
        <time>2021-04-22T07:19:31.000Z</time>
      </trkpt>
      <trkpt lat="47.26731" lon="-2.3328">
        <ele>1.6000000238419</ele>
        <time>2021-04-22T07:19:33.000Z</time>
      </trkpt>
      <trkpt lat="47.26738" lon="-2.33307">
        <ele>1.6000000238419</ele>
        <time>2021-04-22T07:19:37.000Z</time>
      </trkpt>
      <trkpt lat="47.26745" lon="-2.33328">
        <ele>1.6000000238419</ele>
        <time>2021-04-22T07:19:40.000Z</time>
      </trkpt>
      <trkpt lat="47.2675" lon="-2.33357">
        <ele>1.6000000238419</ele>
        <time>2021-04-22T07:19:44.000Z</time>
      </trkpt>
      <trkpt lat="47.26757" lon="-2.33417">
        <ele>1.6000000238419</ele>
        <time>2021-04-22T07:19:52.000Z</time>
      </trkpt>
      <trkpt lat="47.26765" lon="-2.33467">
        <ele>1.6000000238419</ele>
        <time>2021-04-22T07:19:59.000Z</time>
      </trkpt>
      <trkpt lat="47.26773" lon="-2.33515">
        <ele>1.6000000238419</ele>
        <time>2021-04-22T07:20:06.000Z</time>
      </trkpt>
      <trkpt lat="47.26775" lon="-2.33522">
        <ele>1.6000000238419</ele>
        <time>2021-04-22T07:20:07.000Z</time>
      </trkpt>
      <trkpt lat="47.2678" lon="-2.33562">
        <ele>1.6000000238419</ele>
        <time>2021-04-22T07:20:13.000Z</time>
      </trkpt>
      <trkpt lat="47.26782" lon="-2.33566">
        <ele>1.6000000238419</ele>
        <time>2021-04-22T07:20:14.000Z</time>
      </trkpt>
      <trkpt lat="47.26794" lon="-2.33566">
        <ele>1.6000000238419</ele>
        <time>2021-04-22T07:20:17.000Z</time>
      </trkpt>
      <trkpt lat="47.26802" lon="-2.33562">
        <ele>1.6000000238419</ele>
        <time>2021-04-22T07:20:19.000Z</time>
      </trkpt>
      <trkpt lat="47.26817" lon="-2.33552">
        <ele>1.6000000238419</ele>
        <time>2021-04-22T07:20:23.000Z</time>
      </trkpt>
      <trkpt lat="47.26834" lon="-2.33546">
        <ele>2</ele>
        <time>2021-04-22T07:20:27.000Z</time>
      </trkpt>
      <trkpt lat="47.26838" lon="-2.33545">
        <ele>2.4000000953674</ele>
        <time>2021-04-22T07:20:28.000Z</time>
      </trkpt>
      <trkpt lat="47.26843" lon="-2.33542">
        <ele>2.7999999523163</ele>
        <time>2021-04-22T07:20:29.000Z</time>
      </trkpt>
      <trkpt lat="47.26848" lon="-2.3354">
        <ele>3.4000000953674</ele>
        <time>2021-04-22T07:20:30.000Z</time>
      </trkpt>
      <trkpt lat="47.26853" lon="-2.33539">
        <ele>3.7999999523163</ele>
        <time>2021-04-22T07:20:31.000Z</time>
      </trkpt>
      <trkpt lat="47.26864" lon="-2.33536">
        <ele>3.7999999523163</ele>
        <time>2021-04-22T07:20:33.000Z</time>
      </trkpt>
      <trkpt lat="47.26869" lon="-2.33535">
        <ele>3.7999999523163</ele>
        <time>2021-04-22T07:20:34.000Z</time>
      </trkpt>
      <trkpt lat="47.26887" lon="-2.33537">
        <ele>3.7999999523163</ele>
        <time>2021-04-22T07:20:38.000Z</time>
      </trkpt>
      <trkpt lat="47.269" lon="-2.33555">
        <ele>3.7999999523163</ele>
        <time>2021-04-22T07:20:42.000Z</time>
      </trkpt>
      <trkpt lat="47.26902" lon="-2.3356">
        <ele>3.7999999523163</ele>
        <time>2021-04-22T07:20:43.000Z</time>
      </trkpt>
      <trkpt lat="47.26913" lon="-2.33589">
        <ele>4.1999998092651</ele>
        <time>2021-04-22T07:20:48.000Z</time>
      </trkpt>
      <trkpt lat="47.26915" lon="-2.33595">
        <ele>4.5999999046326</ele>
        <time>2021-04-22T07:20:49.000Z</time>
      </trkpt>
      <trkpt lat="47.26918" lon="-2.33601">
        <ele>5</ele>
        <time>2021-04-22T07:20:50.000Z</time>
      </trkpt>
      <trkpt lat="47.26919" lon="-2.33607">
        <ele>5.4000000953674</ele>
        <time>2021-04-22T07:20:51.000Z</time>
      </trkpt>
      <trkpt lat="47.26921" lon="-2.33612">
        <ele>5.8000001907349</ele>
        <time>2021-04-22T07:20:52.000Z</time>
      </trkpt>
      <trkpt lat="47.26925" lon="-2.3363">
        <ele>5.8000001907349</ele>
        <time>2021-04-22T07:20:55.000Z</time>
      </trkpt>
      <trkpt lat="47.26932" lon="-2.33673">
        <ele>6.1999998092651</ele>
        <time>2021-04-22T07:21:02.000Z</time>
      </trkpt>
      <trkpt lat="47.26934" lon="-2.33679">
        <ele>6.5999999046326</ele>
        <time>2021-04-22T07:21:03.000Z</time>
      </trkpt>
      <trkpt lat="47.26935" lon="-2.33685">
        <ele>7</ele>
        <time>2021-04-22T07:21:04.000Z</time>
      </trkpt>
      <trkpt lat="47.26936" lon="-2.33691">
        <ele>7.4000000953674</ele>
        <time>2021-04-22T07:21:05.000Z</time>
      </trkpt>
      <trkpt lat="47.26937" lon="-2.33697">
        <ele>7.8000001907349</ele>
        <time>2021-04-22T07:21:06.000Z</time>
      </trkpt>
      <trkpt lat="47.26941" lon="-2.3372">
        <ele>7.8000001907349</ele>
        <time>2021-04-22T07:21:10.000Z</time>
      </trkpt>
      <trkpt lat="47.26936" lon="-2.33747">
        <ele>7.8000001907349</ele>
        <time>2021-04-22T07:21:14.000Z</time>
      </trkpt>
      <trkpt lat="47.26931" lon="-2.33784">
        <ele>7.8000001907349</ele>
        <time>2021-04-22T07:21:19.000Z</time>
      </trkpt>
      <trkpt lat="47.26931" lon="-2.33792">
        <ele>7.8000001907349</ele>
        <time>2021-04-22T07:21:20.000Z</time>
      </trkpt>
      <trkpt lat="47.26942" lon="-2.33815">
        <ele>7.8000001907349</ele>
        <time>2021-04-22T07:21:24.000Z</time>
      </trkpt>
      <trkpt lat="47.26946" lon="-2.33819">
        <ele>7.8000001907349</ele>
        <time>2021-04-22T07:21:25.000Z</time>
      </trkpt>
      <trkpt lat="47.26953" lon="-2.33826">
        <ele>7.8000001907349</ele>
        <time>2021-04-22T07:21:27.000Z</time>
      </trkpt>
      <trkpt lat="47.26966" lon="-2.33834">
        <ele>7.8000001907349</ele>
        <time>2021-04-22T07:21:30.000Z</time>
      </trkpt>
      <trkpt lat="47.2697" lon="-2.33836">
        <ele>8.1999998092651</ele>
        <time>2021-04-22T07:21:31.000Z</time>
      </trkpt>
      <trkpt lat="47.26973" lon="-2.33838">
        <ele>8.6000003814697</ele>
        <time>2021-04-22T07:21:32.000Z</time>
      </trkpt>
      <trkpt lat="47.26977" lon="-2.3384">
        <ele>9</ele>
        <time>2021-04-22T07:21:33.000Z</time>
      </trkpt>
      <trkpt lat="47.26981" lon="-2.33842">
        <ele>9.3999996185303</ele>
        <time>2021-04-22T07:21:34.000Z</time>
      </trkpt>
      <trkpt lat="47.26985" lon="-2.33844">
        <ele>9.8000001907349</ele>
        <time>2021-04-22T07:21:35.000Z</time>
      </trkpt>
      <trkpt lat="47.26989" lon="-2.33846">
        <ele>9.8000001907349</ele>
        <time>2021-04-22T07:21:36.000Z</time>
      </trkpt>
      <trkpt lat="47.26993" lon="-2.33848">
        <ele>9.8000001907349</ele>
        <time>2021-04-22T07:21:37.000Z</time>
      </trkpt>
      <trkpt lat="47.27" lon="-2.33852">
        <ele>10.39999961853</ele>
        <time>2021-04-22T07:21:39.000Z</time>
      </trkpt>
      <trkpt lat="47.27004" lon="-2.33854">
        <ele>10.800000190735</ele>
        <time>2021-04-22T07:21:40.000Z</time>
      </trkpt>
      <trkpt lat="47.27007" lon="-2.33857">
        <ele>11.199999809265</ele>
        <time>2021-04-22T07:21:41.000Z</time>
      </trkpt>
      <trkpt lat="47.2701" lon="-2.33859">
        <ele>11.60000038147</ele>
        <time>2021-04-22T07:21:42.000Z</time>
      </trkpt>
      <trkpt lat="47.27014" lon="-2.33861">
        <ele>12</ele>
        <time>2021-04-22T07:21:43.000Z</time>
      </trkpt>
      <trkpt lat="47.27024" lon="-2.33866">
        <ele>12.60000038147</ele>
        <time>2021-04-22T07:21:46.000Z</time>
      </trkpt>
      <trkpt lat="47.27027" lon="-2.33869">
        <ele>13.39999961853</ele>
        <time>2021-04-22T07:21:47.000Z</time>
      </trkpt>
      <trkpt lat="47.27031" lon="-2.33872">
        <ele>13.800000190735</ele>
        <time>2021-04-22T07:21:48.000Z</time>
      </trkpt>
      <trkpt lat="47.27034" lon="-2.33874">
        <ele>14.199999809265</ele>
        <time>2021-04-22T07:21:49.000Z</time>
      </trkpt>
      <trkpt lat="47.27037" lon="-2.33876">
        <ele>14.199999809265</ele>
        <time>2021-04-22T07:21:50.000Z</time>
      </trkpt>
      <trkpt lat="47.27059" lon="-2.33897">
        <ele>14.199999809265</ele>
        <time>2021-04-22T07:21:56.000Z</time>
      </trkpt>
      <trkpt lat="47.27066" lon="-2.33903">
        <ele>14.199999809265</ele>
        <time>2021-04-22T07:21:58.000Z</time>
      </trkpt>
      <trkpt lat="47.27073" lon="-2.3391">
        <ele>14.800000190735</ele>
        <time>2021-04-22T07:22:00.000Z</time>
      </trkpt>
      <trkpt lat="47.27076" lon="-2.33913">
        <ele>15.199999809265</ele>
        <time>2021-04-22T07:22:01.000Z</time>
      </trkpt>
      <trkpt lat="47.27079" lon="-2.33916">
        <ele>15.60000038147</ele>
        <time>2021-04-22T07:22:02.000Z</time>
      </trkpt>
      <trkpt lat="47.27082" lon="-2.33919">
        <ele>16</ele>
        <time>2021-04-22T07:22:03.000Z</time>
      </trkpt>
      <trkpt lat="47.27085" lon="-2.33922">
        <ele>16.39999961853</ele>
        <time>2021-04-22T07:22:04.000Z</time>
      </trkpt>
      <trkpt lat="47.27098" lon="-2.33933">
        <ele>16.799999237061</ele>
        <time>2021-04-22T07:22:08.000Z</time>
      </trkpt>
      <trkpt lat="47.27101" lon="-2.33936">
        <ele>17.200000762939</ele>
        <time>2021-04-22T07:22:09.000Z</time>
      </trkpt>
      <trkpt lat="47.27104" lon="-2.33938">
        <ele>17.60000038147</ele>
        <time>2021-04-22T07:22:10.000Z</time>
      </trkpt>
      <trkpt lat="47.27108" lon="-2.33941">
        <ele>18.200000762939</ele>
        <time>2021-04-22T07:22:11.000Z</time>
      </trkpt>
      <trkpt lat="47.27111" lon="-2.33943">
        <ele>18.60000038147</ele>
        <time>2021-04-22T07:22:12.000Z</time>
      </trkpt>
      <trkpt lat="47.2712" lon="-2.33951">
        <ele>19</ele>
        <time>2021-04-22T07:22:15.000Z</time>
      </trkpt>
      <trkpt lat="47.27123" lon="-2.33954">
        <ele>19.39999961853</ele>
        <time>2021-04-22T07:22:16.000Z</time>
      </trkpt>
      <trkpt lat="47.27126" lon="-2.33958">
        <ele>19.799999237061</ele>
        <time>2021-04-22T07:22:17.000Z</time>
      </trkpt>
      <trkpt lat="47.27129" lon="-2.3396">
        <ele>20.200000762939</ele>
        <time>2021-04-22T07:22:18.000Z</time>
      </trkpt>
      <trkpt lat="47.27132" lon="-2.33963">
        <ele>20.60000038147</ele>
        <time>2021-04-22T07:22:19.000Z</time>
      </trkpt>
      <trkpt lat="47.2715" lon="-2.33978">
        <ele>20.60000038147</ele>
        <time>2021-04-22T07:22:24.000Z</time>
      </trkpt>
      <trkpt lat="47.27168" lon="-2.34001">
        <ele>20.60000038147</ele>
        <time>2021-04-22T07:22:30.000Z</time>
      </trkpt>
      <trkpt lat="47.27186" lon="-2.34019">
        <ele>21</ele>
        <time>2021-04-22T07:22:35.000Z</time>
      </trkpt>
      <trkpt lat="47.2719" lon="-2.34023">
        <ele>21.39999961853</ele>
        <time>2021-04-22T07:22:36.000Z</time>
      </trkpt>
      <trkpt lat="47.27193" lon="-2.34026">
        <ele>22.200000762939</ele>
        <time>2021-04-22T07:22:37.000Z</time>
      </trkpt>
      <trkpt lat="47.27196" lon="-2.34029">
        <ele>22.60000038147</ele>
        <time>2021-04-22T07:22:38.000Z</time>
      </trkpt>
      <trkpt lat="47.2722" lon="-2.34053">
        <ele>22.60000038147</ele>
        <time>2021-04-22T07:22:45.000Z</time>
      </trkpt>
      <trkpt lat="47.27223" lon="-2.34054">
        <ele>22.60000038147</ele>
        <time>2021-04-22T07:22:46.000Z</time>
      </trkpt>
      <trkpt lat="47.27234" lon="-2.34055">
        <ele>22.60000038147</ele>
        <time>2021-04-22T07:22:49.000Z</time>
      </trkpt>
      <trkpt lat="47.27237" lon="-2.34054">
        <ele>22.60000038147</ele>
        <time>2021-04-22T07:22:50.000Z</time>
      </trkpt>
      <trkpt lat="47.27252" lon="-2.34053">
        <ele>23</ele>
        <time>2021-04-22T07:22:54.000Z</time>
      </trkpt>
      <trkpt lat="47.27256" lon="-2.34053">
        <ele>23.39999961853</ele>
        <time>2021-04-22T07:22:55.000Z</time>
      </trkpt>
      <trkpt lat="47.2726" lon="-2.34054">
        <ele>23.799999237061</ele>
        <time>2021-04-22T07:22:56.000Z</time>
      </trkpt>
      <trkpt lat="47.27263" lon="-2.34057">
        <ele>24.200000762939</ele>
        <time>2021-04-22T07:22:57.000Z</time>
      </trkpt>
      <trkpt lat="47.27266" lon="-2.34059">
        <ele>24.60000038147</ele>
        <time>2021-04-22T07:22:58.000Z</time>
      </trkpt>
      <trkpt lat="47.27273" lon="-2.34067">
        <ele>24.60000038147</ele>
        <time>2021-04-22T07:23:00.000Z</time>
      </trkpt>
      <trkpt lat="47.27277" lon="-2.34078">
        <ele>24.60000038147</ele>
        <time>2021-04-22T07:23:02.000Z</time>
      </trkpt>
      <trkpt lat="47.2728" lon="-2.34089">
        <ele>24.60000038147</ele>
        <time>2021-04-22T07:23:04.000Z</time>
      </trkpt>
      <trkpt lat="47.27283" lon="-2.34109">
        <ele>24.60000038147</ele>
        <time>2021-04-22T07:23:07.000Z</time>
      </trkpt>
      <trkpt lat="47.27295" lon="-2.34129">
        <ele>24.60000038147</ele>
        <time>2021-04-22T07:23:11.000Z</time>
      </trkpt>
      <trkpt lat="47.27304" lon="-2.34136">
        <ele>24.60000038147</ele>
        <time>2021-04-22T07:23:13.000Z</time>
      </trkpt>
      <trkpt lat="47.27322" lon="-2.34149">
        <ele>24.60000038147</ele>
        <time>2021-04-22T07:23:17.000Z</time>
      </trkpt>
      <trkpt lat="47.27351" lon="-2.34166">
        <ele>24.60000038147</ele>
        <time>2021-04-22T07:23:23.000Z</time>
      </trkpt>
      <trkpt lat="47.27381" lon="-2.34183">
        <ele>24.60000038147</ele>
        <time>2021-04-22T07:23:30.000Z</time>
      </trkpt>
      <trkpt lat="47.27399" lon="-2.34207">
        <ele>24.60000038147</ele>
        <time>2021-04-22T07:23:36.000Z</time>
      </trkpt>
      <trkpt lat="47.27404" lon="-2.34227">
        <ele>24.200000762939</ele>
        <time>2021-04-22T07:23:40.000Z</time>
      </trkpt>
      <trkpt lat="47.27405" lon="-2.34231">
        <ele>23.799999237061</ele>
        <time>2021-04-22T07:23:41.000Z</time>
      </trkpt>
      <trkpt lat="47.27406" lon="-2.34234">
        <ele>23.39999961853</ele>
        <time>2021-04-22T07:23:42.000Z</time>
      </trkpt>
      <trkpt lat="47.27407" lon="-2.34235">
        <ele>23</ele>
        <time>2021-04-22T07:23:43.000Z</time>
      </trkpt>
      <trkpt lat="47.27408" lon="-2.34236">
        <ele>22.60000038147</ele>
        <time>2021-04-22T07:23:44.000Z</time>
      </trkpt>
      <trkpt lat="47.27412" lon="-2.34239">
        <ele>22.60000038147</ele>
        <time>2021-04-22T07:23:46.000Z</time>
      </trkpt>
      <trkpt lat="47.27416" lon="-2.34246">
        <ele>22.60000038147</ele>
        <time>2021-04-22T07:23:48.000Z</time>
      </trkpt>
      <trkpt lat="47.27416" lon="-2.34257">
        <ele>22.60000038147</ele>
        <time>2021-04-22T07:23:50.000Z</time>
      </trkpt>
      <trkpt lat="47.27417" lon="-2.34292">
        <ele>22.60000038147</ele>
        <time>2021-04-22T07:23:56.000Z</time>
      </trkpt>
      <trkpt lat="47.27417" lon="-2.34328">
        <ele>22.60000038147</ele>
        <time>2021-04-22T07:24:02.000Z</time>
      </trkpt>
      <trkpt lat="47.27419" lon="-2.34373">
        <ele>22.60000038147</ele>
        <time>2021-04-22T07:24:09.000Z</time>
      </trkpt>
      <trkpt lat="47.2742" lon="-2.3438">
        <ele>23</ele>
        <time>2021-04-22T07:24:10.000Z</time>
      </trkpt>
      <trkpt lat="47.2742" lon="-2.34386">
        <ele>23.39999961853</ele>
        <time>2021-04-22T07:24:11.000Z</time>
      </trkpt>
      <trkpt lat="47.27421" lon="-2.34393">
        <ele>23.799999237061</ele>
        <time>2021-04-22T07:24:12.000Z</time>
      </trkpt>
      <trkpt lat="47.27422" lon="-2.344">
        <ele>24.39999961853</ele>
        <time>2021-04-22T07:24:13.000Z</time>
      </trkpt>
      <trkpt lat="47.27423" lon="-2.34407">
        <ele>24.799999237061</ele>
        <time>2021-04-22T07:24:14.000Z</time>
      </trkpt>
      <trkpt lat="47.27424" lon="-2.3442">
        <ele>24.799999237061</ele>
        <time>2021-04-22T07:24:16.000Z</time>
      </trkpt>
      <trkpt lat="47.27424" lon="-2.34427">
        <ele>24.799999237061</ele>
        <time>2021-04-22T07:24:17.000Z</time>
      </trkpt>
      <trkpt lat="47.27425" lon="-2.34468">
        <ele>24.799999237061</ele>
        <time>2021-04-22T07:24:23.000Z</time>
      </trkpt>
      <trkpt lat="47.27426" lon="-2.34482">
        <ele>24.799999237061</ele>
        <time>2021-04-22T07:24:25.000Z</time>
      </trkpt>
      <trkpt lat="47.27427" lon="-2.34488">
        <ele>25.200000762939</ele>
        <time>2021-04-22T07:24:26.000Z</time>
      </trkpt>
      <trkpt lat="47.27428" lon="-2.34495">
        <ele>25.60000038147</ele>
        <time>2021-04-22T07:24:27.000Z</time>
      </trkpt>
      <trkpt lat="47.27429" lon="-2.34501">
        <ele>26</ele>
        <time>2021-04-22T07:24:28.000Z</time>
      </trkpt>
      <trkpt lat="47.2743" lon="-2.34508">
        <ele>26.39999961853</ele>
        <time>2021-04-22T07:24:29.000Z</time>
      </trkpt>
      <trkpt lat="47.27432" lon="-2.34514">
        <ele>26.799999237061</ele>
        <time>2021-04-22T07:24:30.000Z</time>
      </trkpt>
      <trkpt lat="47.27442" lon="-2.3455">
        <ele>26.799999237061</ele>
        <time>2021-04-22T07:24:36.000Z</time>
      </trkpt>
      <trkpt lat="47.27449" lon="-2.34583">
        <ele>26.799999237061</ele>
        <time>2021-04-22T07:24:41.000Z</time>
      </trkpt>
      <trkpt lat="47.27451" lon="-2.34597">
        <ele>26.799999237061</ele>
        <time>2021-04-22T07:24:43.000Z</time>
      </trkpt>
      <trkpt lat="47.27457" lon="-2.34656">
        <ele>26.799999237061</ele>
        <time>2021-04-22T07:24:51.000Z</time>
      </trkpt>
      <trkpt lat="47.27459" lon="-2.34673">
        <ele>26.799999237061</ele>
        <time>2021-04-22T07:24:53.000Z</time>
      </trkpt>
      <trkpt lat="47.27459" lon="-2.34686">
        <ele>26.799999237061</ele>
        <time>2021-04-22T07:24:55.000Z</time>
      </trkpt>
      <trkpt lat="47.27458" lon="-2.34709">
        <ele>26.799999237061</ele>
        <time>2021-04-22T07:24:59.000Z</time>
      </trkpt>
      <trkpt lat="47.27458" lon="-2.34723">
        <ele>26.799999237061</ele>
        <time>2021-04-22T07:25:01.000Z</time>
      </trkpt>
      <trkpt lat="47.27457" lon="-2.34772">
        <ele>26.799999237061</ele>
        <time>2021-04-22T07:25:07.000Z</time>
      </trkpt>
      <trkpt lat="47.27461" lon="-2.34837">
        <ele>26.799999237061</ele>
        <time>2021-04-22T07:25:14.000Z</time>
      </trkpt>
      <trkpt lat="47.27461" lon="-2.34856">
        <ele>26.39999961853</ele>
        <time>2021-04-22T07:25:16.000Z</time>
      </trkpt>
      <trkpt lat="47.27461" lon="-2.34865">
        <ele>26</ele>
        <time>2021-04-22T07:25:17.000Z</time>
      </trkpt>
      <trkpt lat="47.27461" lon="-2.34875">
        <ele>25.60000038147</ele>
        <time>2021-04-22T07:25:18.000Z</time>
      </trkpt>
      <trkpt lat="47.27461" lon="-2.34884">
        <ele>25</ele>
        <time>2021-04-22T07:25:19.000Z</time>
      </trkpt>
      <trkpt lat="47.27461" lon="-2.34893">
        <ele>24.60000038147</ele>
        <time>2021-04-22T07:25:20.000Z</time>
      </trkpt>
      <trkpt lat="47.27462" lon="-2.34902">
        <ele>24.60000038147</ele>
        <time>2021-04-22T07:25:21.000Z</time>
      </trkpt>
      <trkpt lat="47.27467" lon="-2.34914">
        <ele>24.60000038147</ele>
        <time>2021-04-22T07:25:23.000Z</time>
      </trkpt>
      <trkpt lat="47.27476" lon="-2.34917">
        <ele>24.60000038147</ele>
        <time>2021-04-22T07:25:25.000Z</time>
      </trkpt>
      <trkpt lat="47.27481" lon="-2.34917">
        <ele>24.60000038147</ele>
        <time>2021-04-22T07:25:26.000Z</time>
      </trkpt>
      <trkpt lat="47.2749" lon="-2.34918">
        <ele>24.60000038147</ele>
        <time>2021-04-22T07:25:28.000Z</time>
      </trkpt>
      <trkpt lat="47.275" lon="-2.34914">
        <ele>24.60000038147</ele>
        <time>2021-04-22T07:25:30.000Z</time>
      </trkpt>
      <trkpt lat="47.27508" lon="-2.3491">
        <ele>24.60000038147</ele>
        <time>2021-04-22T07:25:32.000Z</time>
      </trkpt>
      <trkpt lat="47.27524" lon="-2.34902">
        <ele>24.60000038147</ele>
        <time>2021-04-22T07:25:36.000Z</time>
      </trkpt>
      <trkpt lat="47.27533" lon="-2.349">
        <ele>24.60000038147</ele>
        <time>2021-04-22T07:25:38.000Z</time>
      </trkpt>
      <trkpt lat="47.27552" lon="-2.34901">
        <ele>24.60000038147</ele>
        <time>2021-04-22T07:25:42.000Z</time>
      </trkpt>
      <trkpt lat="47.27589" lon="-2.34906">
        <ele>24.60000038147</ele>
        <time>2021-04-22T07:25:49.000Z</time>
      </trkpt>
      <trkpt lat="47.27622" lon="-2.34911">
        <ele>24.60000038147</ele>
        <time>2021-04-22T07:25:56.000Z</time>
      </trkpt>
      <trkpt lat="47.27652" lon="-2.3491">
        <ele>24.60000038147</ele>
        <time>2021-04-22T07:26:02.000Z</time>
      </trkpt>
      <trkpt lat="47.27671" lon="-2.34909">
        <ele>24.60000038147</ele>
        <time>2021-04-22T07:26:06.000Z</time>
      </trkpt>
      <trkpt lat="47.27679" lon="-2.34917">
        <ele>24.60000038147</ele>
        <time>2021-04-22T07:26:08.000Z</time>
      </trkpt>
      <trkpt lat="47.27687" lon="-2.34941">
        <ele>24.60000038147</ele>
        <time>2021-04-22T07:26:12.000Z</time>
      </trkpt>
      <trkpt lat="47.27686" lon="-2.34963">
        <ele>24.60000038147</ele>
        <time>2021-04-22T07:26:15.000Z</time>
      </trkpt>
      <trkpt lat="47.27686" lon="-2.34971">
        <ele>24.60000038147</ele>
        <time>2021-04-22T07:26:16.000Z</time>
      </trkpt>
      <trkpt lat="47.27687" lon="-2.35022">
        <ele>24.60000038147</ele>
        <time>2021-04-22T07:26:23.000Z</time>
      </trkpt>
      <trkpt lat="47.27696" lon="-2.35037">
        <ele>24.60000038147</ele>
        <time>2021-04-22T07:26:26.000Z</time>
      </trkpt>
      <trkpt lat="47.2771" lon="-2.35036">
        <ele>24.60000038147</ele>
        <time>2021-04-22T07:26:29.000Z</time>
      </trkpt>
      <trkpt lat="47.27719" lon="-2.35033">
        <ele>24.60000038147</ele>
        <time>2021-04-22T07:26:31.000Z</time>
      </trkpt>
      <trkpt lat="47.27735" lon="-2.3503">
        <ele>24.200000762939</ele>
        <time>2021-04-22T07:26:34.000Z</time>
      </trkpt>
      <trkpt lat="47.27741" lon="-2.35028">
        <ele>23.799999237061</ele>
        <time>2021-04-22T07:26:35.000Z</time>
      </trkpt>
      <trkpt lat="47.27746" lon="-2.35027">
        <ele>23.39999961853</ele>
        <time>2021-04-22T07:26:36.000Z</time>
      </trkpt>
      <trkpt lat="47.27751" lon="-2.35026">
        <ele>23</ele>
        <time>2021-04-22T07:26:37.000Z</time>
      </trkpt>
      <trkpt lat="47.27756" lon="-2.35025">
        <ele>22.60000038147</ele>
        <time>2021-04-22T07:26:38.000Z</time>
      </trkpt>
      <trkpt lat="47.27761" lon="-2.35027">
        <ele>22.60000038147</ele>
        <time>2021-04-22T07:26:40.000Z</time>
      </trkpt>
      <trkpt lat="47.27763" lon="-2.35031">
        <ele>22.200000762939</ele>
        <time>2021-04-22T07:26:41.000Z</time>
      </trkpt>
      <trkpt lat="47.27763" lon="-2.35036">
        <ele>21.60000038147</ele>
        <time>2021-04-22T07:26:42.000Z</time>
      </trkpt>
      <trkpt lat="47.27764" lon="-2.35041">
        <ele>21.200000762939</ele>
        <time>2021-04-22T07:26:43.000Z</time>
      </trkpt>
      <trkpt lat="47.27765" lon="-2.35048">
        <ele>20.200000762939</ele>
        <time>2021-04-22T07:26:44.000Z</time>
      </trkpt>
      <trkpt lat="47.27766" lon="-2.35079">
        <ele>20.200000762939</ele>
        <time>2021-04-22T07:26:48.000Z</time>
      </trkpt>
      <trkpt lat="47.27772" lon="-2.35149">
        <ele>20.200000762939</ele>
        <time>2021-04-22T07:26:56.000Z</time>
      </trkpt>
      <trkpt lat="47.27776" lon="-2.35203">
        <ele>20.200000762939</ele>
        <time>2021-04-22T07:27:02.000Z</time>
      </trkpt>
      <trkpt lat="47.27785" lon="-2.35267">
        <ele>20.200000762939</ele>
        <time>2021-04-22T07:27:10.000Z</time>
      </trkpt>
      <trkpt lat="47.27788" lon="-2.35283">
        <ele>19.799999237061</ele>
        <time>2021-04-22T07:27:12.000Z</time>
      </trkpt>
      <trkpt lat="47.2779" lon="-2.35291">
        <ele>19.39999961853</ele>
        <time>2021-04-22T07:27:13.000Z</time>
      </trkpt>
      <trkpt lat="47.27791" lon="-2.35299">
        <ele>19</ele>
        <time>2021-04-22T07:27:14.000Z</time>
      </trkpt>
      <trkpt lat="47.27793" lon="-2.35306">
        <ele>18.60000038147</ele>
        <time>2021-04-22T07:27:15.000Z</time>
      </trkpt>
      <trkpt lat="47.27795" lon="-2.35314">
        <ele>18.200000762939</ele>
        <time>2021-04-22T07:27:16.000Z</time>
      </trkpt>
      <trkpt lat="47.27805" lon="-2.35352">
        <ele>18.200000762939</ele>
        <time>2021-04-22T07:27:21.000Z</time>
      </trkpt>
      <trkpt lat="47.2781" lon="-2.35362">
        <ele>18.200000762939</ele>
        <time>2021-04-22T07:27:23.000Z</time>
      </trkpt>
      <trkpt lat="47.27814" lon="-2.35364">
        <ele>18.200000762939</ele>
        <time>2021-04-22T07:27:24.000Z</time>
      </trkpt>
      <trkpt lat="47.27823" lon="-2.35365">
        <ele>18.200000762939</ele>
        <time>2021-04-22T07:27:26.000Z</time>
      </trkpt>
      <trkpt lat="47.27829" lon="-2.35364">
        <ele>18.200000762939</ele>
        <time>2021-04-22T07:27:27.000Z</time>
      </trkpt>
      <trkpt lat="47.27854" lon="-2.35361">
        <ele>18.200000762939</ele>
        <time>2021-04-22T07:27:32.000Z</time>
      </trkpt>
      <trkpt lat="47.27875" lon="-2.35365">
        <ele>18.200000762939</ele>
        <time>2021-04-22T07:27:37.000Z</time>
      </trkpt>
      <trkpt lat="47.27878" lon="-2.35368">
        <ele>18.200000762939</ele>
        <time>2021-04-22T07:27:38.000Z</time>
      </trkpt>
      <trkpt lat="47.27889" lon="-2.3538">
        <ele>18.60000038147</ele>
        <time>2021-04-22T07:27:41.000Z</time>
      </trkpt>
      <trkpt lat="47.27892" lon="-2.35384">
        <ele>19</ele>
        <time>2021-04-22T07:27:42.000Z</time>
      </trkpt>
      <trkpt lat="47.27895" lon="-2.35388">
        <ele>19.39999961853</ele>
        <time>2021-04-22T07:27:43.000Z</time>
      </trkpt>
      <trkpt lat="47.27898" lon="-2.35393">
        <ele>19.799999237061</ele>
        <time>2021-04-22T07:27:44.000Z</time>
      </trkpt>
      <trkpt lat="47.27901" lon="-2.35397">
        <ele>20.200000762939</ele>
        <time>2021-04-22T07:27:45.000Z</time>
      </trkpt>
      <trkpt lat="47.27919" lon="-2.35423">
        <ele>20.200000762939</ele>
        <time>2021-04-22T07:27:51.000Z</time>
      </trkpt>
      <trkpt lat="47.2795" lon="-2.35454">
        <ele>20.200000762939</ele>
        <time>2021-04-22T07:27:59.000Z</time>
      </trkpt>
      <trkpt lat="47.27954" lon="-2.35457">
        <ele>20.200000762939</ele>
        <time>2021-04-22T07:28:00.000Z</time>
      </trkpt>
      <trkpt lat="47.27969" lon="-2.35465">
        <ele>20.200000762939</ele>
        <time>2021-04-22T07:28:03.000Z</time>
      </trkpt>
      <trkpt lat="47.27973" lon="-2.3547">
        <ele>20.200000762939</ele>
        <time>2021-04-22T07:28:04.000Z</time>
      </trkpt>
      <trkpt lat="47.27987" lon="-2.35494">
        <ele>20.200000762939</ele>
        <time>2021-04-22T07:28:08.000Z</time>
      </trkpt>
      <trkpt lat="47.28002" lon="-2.35529">
        <ele>20.200000762939</ele>
        <time>2021-04-22T07:28:14.000Z</time>
      </trkpt>
      <trkpt lat="47.28003" lon="-2.35534">
        <ele>20.200000762939</ele>
        <time>2021-04-22T07:28:15.000Z</time>
      </trkpt>
      <trkpt lat="47.28009" lon="-2.35552">
        <ele>20.200000762939</ele>
        <time>2021-04-22T07:28:19.000Z</time>
      </trkpt>
      <trkpt lat="47.28019" lon="-2.35552">
        <ele>20.200000762939</ele>
        <time>2021-04-22T07:28:22.000Z</time>
      </trkpt>
      <trkpt lat="47.28023" lon="-2.35554">
        <ele>20.60000038147</ele>
        <time>2021-04-22T07:28:23.000Z</time>
      </trkpt>
      <trkpt lat="47.28025" lon="-2.35559">
        <ele>21.200000762939</ele>
        <time>2021-04-22T07:28:24.000Z</time>
      </trkpt>
      <trkpt lat="47.28028" lon="-2.35564">
        <ele>21.60000038147</ele>
        <time>2021-04-22T07:28:25.000Z</time>
      </trkpt>
      <trkpt lat="47.28032" lon="-2.35567">
        <ele>22</ele>
        <time>2021-04-22T07:28:26.000Z</time>
      </trkpt>
      <trkpt lat="47.28035" lon="-2.3557">
        <ele>22.39999961853</ele>
        <time>2021-04-22T07:28:27.000Z</time>
      </trkpt>
      <trkpt lat="47.28042" lon="-2.35574">
        <ele>22.39999961853</ele>
        <time>2021-04-22T07:28:29.000Z</time>
      </trkpt>
      <trkpt lat="47.28062" lon="-2.35579">
        <ele>22.799999237061</ele>
        <time>2021-04-22T07:28:35.000Z</time>
      </trkpt>
      <trkpt lat="47.28064" lon="-2.35581">
        <ele>23.200000762939</ele>
        <time>2021-04-22T07:28:36.000Z</time>
      </trkpt>
      <trkpt lat="47.28066" lon="-2.35584">
        <ele>23.60000038147</ele>
        <time>2021-04-22T07:28:37.000Z</time>
      </trkpt>
      <trkpt lat="47.28068" lon="-2.35587">
        <ele>24</ele>
        <time>2021-04-22T07:28:38.000Z</time>
      </trkpt>
      <trkpt lat="47.2807" lon="-2.3559">
        <ele>24.39999961853</ele>
        <time>2021-04-22T07:28:39.000Z</time>
      </trkpt>
      <trkpt lat="47.28083" lon="-2.35612">
        <ele>24.39999961853</ele>
        <time>2021-04-22T07:28:46.000Z</time>
      </trkpt>
      <trkpt lat="47.28087" lon="-2.35622">
        <ele>24.39999961853</ele>
        <time>2021-04-22T07:28:50.000Z</time>
      </trkpt>
      <trkpt lat="47.28087" lon="-2.35625">
        <ele>24.39999961853</ele>
        <time>2021-04-22T07:28:54.000Z</time>
      </trkpt>
      <trkpt lat="47.28085" lon="-2.35621">
        <ele>26.60000038147</ele>
        <time>2021-04-22T07:37:22.000Z</time>
      </trkpt>
      <trkpt lat="47.28075" lon="-2.35618">
        <ele>26.60000038147</ele>
        <time>2021-04-22T07:37:26.000Z</time>
      </trkpt>
      <trkpt lat="47.28075" lon="-2.35632">
        <ele>26.60000038147</ele>
        <time>2021-04-22T07:37:30.000Z</time>
      </trkpt>
      <trkpt lat="47.2808" lon="-2.35645">
        <ele>27</ele>
        <time>2021-04-22T07:37:34.000Z</time>
      </trkpt>
      <trkpt lat="47.28081" lon="-2.35648">
        <ele>27.39999961853</ele>
        <time>2021-04-22T07:37:35.000Z</time>
      </trkpt>
      <trkpt lat="47.28082" lon="-2.35651">
        <ele>27.799999237061</ele>
        <time>2021-04-22T07:37:36.000Z</time>
      </trkpt>
      <trkpt lat="47.28083" lon="-2.35654">
        <ele>28.39999961853</ele>
        <time>2021-04-22T07:37:37.000Z</time>
      </trkpt>
      <trkpt lat="47.28084" lon="-2.35657">
        <ele>28.799999237061</ele>
        <time>2021-04-22T07:37:38.000Z</time>
      </trkpt>
      <trkpt lat="47.28084" lon="-2.35661">
        <ele>29.200000762939</ele>
        <time>2021-04-22T07:37:39.000Z</time>
      </trkpt>
      <trkpt lat="47.28085" lon="-2.35664">
        <ele>29.60000038147</ele>
        <time>2021-04-22T07:37:40.000Z</time>
      </trkpt>
      <trkpt lat="47.28086" lon="-2.35668">
        <ele>30</ele>
        <time>2021-04-22T07:37:41.000Z</time>
      </trkpt>
      <trkpt lat="47.28087" lon="-2.35673">
        <ele>30.39999961853</ele>
        <time>2021-04-22T07:37:42.000Z</time>
      </trkpt>
      <trkpt lat="47.28087" lon="-2.35677">
        <ele>31</ele>
        <time>2021-04-22T07:37:43.000Z</time>
      </trkpt>
      <trkpt lat="47.2809" lon="-2.35699">
        <ele>31.39999961853</ele>
        <time>2021-04-22T07:37:49.000Z</time>
      </trkpt>
      <trkpt lat="47.28091" lon="-2.35702">
        <ele>31.799999237061</ele>
        <time>2021-04-22T07:37:50.000Z</time>
      </trkpt>
      <trkpt lat="47.28091" lon="-2.35706">
        <ele>32.599998474121</ele>
        <time>2021-04-22T07:37:51.000Z</time>
      </trkpt>
      <trkpt lat="47.28092" lon="-2.3571">
        <ele>33.200000762939</ele>
        <time>2021-04-22T07:37:52.000Z</time>
      </trkpt>
      <trkpt lat="47.28091" lon="-2.35721">
        <ele>33.200000762939</ele>
        <time>2021-04-22T07:37:56.000Z</time>
      </trkpt>
      <trkpt lat="47.28087" lon="-2.35744">
        <ele>33.200000762939</ele>
        <time>2021-04-22T07:37:59.000Z</time>
      </trkpt>
      <trkpt lat="47.2808" lon="-2.35776">
        <ele>33.200000762939</ele>
        <time>2021-04-22T07:38:04.000Z</time>
      </trkpt>
      <trkpt lat="47.28077" lon="-2.35787">
        <ele>32.599998474121</ele>
        <time>2021-04-22T07:38:06.000Z</time>
      </trkpt>
      <trkpt lat="47.28076" lon="-2.35792">
        <ele>32.200000762939</ele>
        <time>2021-04-22T07:38:07.000Z</time>
      </trkpt>
      <trkpt lat="47.28078" lon="-2.35798">
        <ele>31.799999237061</ele>
        <time>2021-04-22T07:38:08.000Z</time>
      </trkpt>
      <trkpt lat="47.28079" lon="-2.35804">
        <ele>31.39999961853</ele>
        <time>2021-04-22T07:38:09.000Z</time>
      </trkpt>
      <trkpt lat="47.28081" lon="-2.3581">
        <ele>30.799999237061</ele>
        <time>2021-04-22T07:38:10.000Z</time>
      </trkpt>
      <trkpt lat="47.28089" lon="-2.3583">
        <ele>30.799999237061</ele>
        <time>2021-04-22T07:38:14.000Z</time>
      </trkpt>
      <trkpt lat="47.28106" lon="-2.35856">
        <ele>30.799999237061</ele>
        <time>2021-04-22T07:38:20.000Z</time>
      </trkpt>
      <trkpt lat="47.2812" lon="-2.35876">
        <ele>30.799999237061</ele>
        <time>2021-04-22T07:38:25.000Z</time>
      </trkpt>
      <trkpt lat="47.28137" lon="-2.35897">
        <ele>30.799999237061</ele>
        <time>2021-04-22T07:38:32.000Z</time>
      </trkpt>
      <trkpt lat="47.28154" lon="-2.35921">
        <ele>30.799999237061</ele>
        <time>2021-04-22T07:38:38.000Z</time>
      </trkpt>
      <trkpt lat="47.28176" lon="-2.35953">
        <ele>30.799999237061</ele>
        <time>2021-04-22T07:38:43.000Z</time>
      </trkpt>
      <trkpt lat="47.28191" lon="-2.35976">
        <ele>30.39999961853</ele>
        <time>2021-04-22T07:38:46.000Z</time>
      </trkpt>
      <trkpt lat="47.28194" lon="-2.35984">
        <ele>30</ele>
        <time>2021-04-22T07:38:47.000Z</time>
      </trkpt>
      <trkpt lat="47.28197" lon="-2.35991">
        <ele>29.60000038147</ele>
        <time>2021-04-22T07:38:48.000Z</time>
      </trkpt>
      <trkpt lat="47.282" lon="-2.35998">
        <ele>29.200000762939</ele>
        <time>2021-04-22T07:38:49.000Z</time>
      </trkpt>
      <trkpt lat="47.28202" lon="-2.36005">
        <ele>28.60000038147</ele>
        <time>2021-04-22T07:38:50.000Z</time>
      </trkpt>
      <trkpt lat="47.28205" lon="-2.3601">
        <ele>28.60000038147</ele>
        <time>2021-04-22T07:38:51.000Z</time>
      </trkpt>
      <trkpt lat="47.2821" lon="-2.36036">
        <ele>28.60000038147</ele>
        <time>2021-04-22T07:38:55.000Z</time>
      </trkpt>
      <trkpt lat="47.28219" lon="-2.36073">
        <ele>28.60000038147</ele>
        <time>2021-04-22T07:39:01.000Z</time>
      </trkpt>
      <trkpt lat="47.28232" lon="-2.361">
        <ele>28.60000038147</ele>
        <time>2021-04-22T07:39:07.000Z</time>
      </trkpt>
      <trkpt lat="47.28238" lon="-2.3612">
        <ele>28.60000038147</ele>
        <time>2021-04-22T07:39:12.000Z</time>
      </trkpt>
      <trkpt lat="47.28243" lon="-2.36135">
        <ele>28.60000038147</ele>
        <time>2021-04-22T07:39:15.000Z</time>
      </trkpt>
      <trkpt lat="47.28249" lon="-2.36149">
        <ele>28.60000038147</ele>
        <time>2021-04-22T07:39:17.000Z</time>
      </trkpt>
      <trkpt lat="47.28257" lon="-2.36183">
        <ele>28.60000038147</ele>
        <time>2021-04-22T07:39:22.000Z</time>
      </trkpt>
      <trkpt lat="47.28268" lon="-2.36213">
        <ele>28.60000038147</ele>
        <time>2021-04-22T07:39:28.000Z</time>
      </trkpt>
      <trkpt lat="47.28287" lon="-2.3624">
        <ele>28.60000038147</ele>
        <time>2021-04-22T07:39:35.000Z</time>
      </trkpt>
      <trkpt lat="47.28299" lon="-2.36241">
        <ele>28.60000038147</ele>
        <time>2021-04-22T07:39:38.000Z</time>
      </trkpt>
      <trkpt lat="47.28302" lon="-2.36241">
        <ele>28.60000038147</ele>
        <time>2021-04-22T07:39:39.000Z</time>
      </trkpt>
      <trkpt lat="47.2832" lon="-2.36243">
        <ele>28.60000038147</ele>
        <time>2021-04-22T07:39:45.000Z</time>
      </trkpt>
      <trkpt lat="47.28338" lon="-2.36251">
        <ele>28.60000038147</ele>
        <time>2021-04-22T07:39:51.000Z</time>
      </trkpt>
      <trkpt lat="47.28345" lon="-2.36256">
        <ele>29.200000762939</ele>
        <time>2021-04-22T07:39:54.000Z</time>
      </trkpt>
      <trkpt lat="47.28347" lon="-2.36258">
        <ele>30</ele>
        <time>2021-04-22T07:39:55.000Z</time>
      </trkpt>
      <trkpt lat="47.28349" lon="-2.36259">
        <ele>30.39999961853</ele>
        <time>2021-04-22T07:39:56.000Z</time>
      </trkpt>
      <trkpt lat="47.28351" lon="-2.36262">
        <ele>30.799999237061</ele>
        <time>2021-04-22T07:39:57.000Z</time>
      </trkpt>
      <trkpt lat="47.28351" lon="-2.36266">
        <ele>30.799999237061</ele>
        <time>2021-04-22T07:39:58.000Z</time>
      </trkpt>
      <trkpt lat="47.28351" lon="-2.36277">
        <ele>30.799999237061</ele>
        <time>2021-04-22T07:40:01.000Z</time>
      </trkpt>
      <trkpt lat="47.28354" lon="-2.36293">
        <ele>30.799999237061</ele>
        <time>2021-04-22T07:40:07.000Z</time>
      </trkpt>
      <trkpt lat="47.28356" lon="-2.36296">
        <ele>30.799999237061</ele>
        <time>2021-04-22T07:40:09.000Z</time>
      </trkpt>
      <trkpt lat="47.28358" lon="-2.36297">
        <ele>30.799999237061</ele>
        <time>2021-04-22T07:40:10.000Z</time>
      </trkpt>
      <trkpt lat="47.28361" lon="-2.36298">
        <ele>31.200000762939</ele>
        <time>2021-04-22T07:40:12.000Z</time>
      </trkpt>
      <trkpt lat="47.28363" lon="-2.363">
        <ele>31.60000038147</ele>
        <time>2021-04-22T07:40:13.000Z</time>
      </trkpt>
      <trkpt lat="47.28364" lon="-2.36301">
        <ele>32</ele>
        <time>2021-04-22T07:40:14.000Z</time>
      </trkpt>
      <trkpt lat="47.28366" lon="-2.36303">
        <ele>32.400001525879</ele>
        <time>2021-04-22T07:40:15.000Z</time>
      </trkpt>
      <trkpt lat="47.28369" lon="-2.36307">
        <ele>32.799999237061</ele>
        <time>2021-04-22T07:40:16.000Z</time>
      </trkpt>
      <trkpt lat="47.28372" lon="-2.36309">
        <ele>32.799999237061</ele>
        <time>2021-04-22T07:40:17.000Z</time>
      </trkpt>
      <trkpt lat="47.28391" lon="-2.3633">
        <ele>32.799999237061</ele>
        <time>2021-04-22T07:40:24.000Z</time>
      </trkpt>
      <trkpt lat="47.28398" lon="-2.3634">
        <ele>33.200000762939</ele>
        <time>2021-04-22T07:40:26.000Z</time>
      </trkpt>
      <trkpt lat="47.28402" lon="-2.36345">
        <ele>33.599998474121</ele>
        <time>2021-04-22T07:40:27.000Z</time>
      </trkpt>
      <trkpt lat="47.28405" lon="-2.36349">
        <ele>34</ele>
        <time>2021-04-22T07:40:28.000Z</time>
      </trkpt>
      <trkpt lat="47.28408" lon="-2.36352">
        <ele>34.400001525879</ele>
        <time>2021-04-22T07:40:29.000Z</time>
      </trkpt>
      <trkpt lat="47.28412" lon="-2.36356">
        <ele>34.799999237061</ele>
        <time>2021-04-22T07:40:30.000Z</time>
      </trkpt>
      <trkpt lat="47.28433" lon="-2.36374">
        <ele>34.799999237061</ele>
        <time>2021-04-22T07:40:36.000Z</time>
      </trkpt>
      <trkpt lat="47.28449" lon="-2.36389">
        <ele>35.400001525879</ele>
        <time>2021-04-22T07:40:41.000Z</time>
      </trkpt>
      <trkpt lat="47.28451" lon="-2.36391">
        <ele>35.799999237061</ele>
        <time>2021-04-22T07:40:42.000Z</time>
      </trkpt>
      <trkpt lat="47.28454" lon="-2.36391">
        <ele>36.200000762939</ele>
        <time>2021-04-22T07:40:43.000Z</time>
      </trkpt>
      <trkpt lat="47.28456" lon="-2.3639">
        <ele>37</ele>
        <time>2021-04-22T07:40:44.000Z</time>
      </trkpt>
      <trkpt lat="47.28458" lon="-2.36384">
        <ele>37</ele>
        <time>2021-04-22T07:40:46.000Z</time>
      </trkpt>
      <trkpt lat="47.28459" lon="-2.3638">
        <ele>37</ele>
        <time>2021-04-22T07:40:47.000Z</time>
      </trkpt>
      <trkpt lat="47.28462" lon="-2.36354">
        <ele>37</ele>
        <time>2021-04-22T07:40:52.000Z</time>
      </trkpt>
      <trkpt lat="47.28464" lon="-2.3632">
        <ele>37</ele>
        <time>2021-04-22T07:40:58.000Z</time>
      </trkpt>
      <trkpt lat="47.28462" lon="-2.36288">
        <ele>37</ele>
        <time>2021-04-22T07:41:03.000Z</time>
      </trkpt>
      <trkpt lat="47.2846" lon="-2.36255">
        <ele>37</ele>
        <time>2021-04-22T07:41:09.000Z</time>
      </trkpt>
      <trkpt lat="47.28453" lon="-2.36215">
        <ele>37</ele>
        <time>2021-04-22T07:41:16.000Z</time>
      </trkpt>
      <trkpt lat="47.28452" lon="-2.36205">
        <ele>37</ele>
        <time>2021-04-22T07:41:18.000Z</time>
      </trkpt>
      <trkpt lat="47.28455" lon="-2.36198">
        <ele>37.400001525879</ele>
        <time>2021-04-22T07:41:20.000Z</time>
      </trkpt>
      <trkpt lat="47.28459" lon="-2.36194">
        <ele>37.799999237061</ele>
        <time>2021-04-22T07:41:21.000Z</time>
      </trkpt>
      <trkpt lat="47.28462" lon="-2.3619">
        <ele>38.200000762939</ele>
        <time>2021-04-22T07:41:22.000Z</time>
      </trkpt>
      <trkpt lat="47.28465" lon="-2.36186">
        <ele>38.599998474121</ele>
        <time>2021-04-22T07:41:23.000Z</time>
      </trkpt>
      <trkpt lat="47.28468" lon="-2.36184">
        <ele>39</ele>
        <time>2021-04-22T07:41:24.000Z</time>
      </trkpt>
      <trkpt lat="47.28479" lon="-2.3617">
        <ele>39</ele>
        <time>2021-04-22T07:41:29.000Z</time>
      </trkpt>
      <trkpt lat="47.2848" lon="-2.36167">
        <ele>39.400001525879</ele>
        <time>2021-04-22T07:41:30.000Z</time>
      </trkpt>
      <trkpt lat="47.28481" lon="-2.36164">
        <ele>40</ele>
        <time>2021-04-22T07:41:31.000Z</time>
      </trkpt>
      <trkpt lat="47.28483" lon="-2.36161">
        <ele>40.400001525879</ele>
        <time>2021-04-22T07:41:32.000Z</time>
      </trkpt>
      <trkpt lat="47.28485" lon="-2.36158">
        <ele>41.200000762939</ele>
        <time>2021-04-22T07:41:33.000Z</time>
      </trkpt>
      <trkpt lat="47.28495" lon="-2.36151">
        <ele>41.200000762939</ele>
        <time>2021-04-22T07:41:36.000Z</time>
      </trkpt>
      <trkpt lat="47.28504" lon="-2.36146">
        <ele>41.200000762939</ele>
        <time>2021-04-22T07:41:39.000Z</time>
      </trkpt>
      <trkpt lat="47.28507" lon="-2.36146">
        <ele>41.799999237061</ele>
        <time>2021-04-22T07:41:40.000Z</time>
      </trkpt>
      <trkpt lat="47.2851" lon="-2.36147">
        <ele>42.200000762939</ele>
        <time>2021-04-22T07:41:41.000Z</time>
      </trkpt>
      <trkpt lat="47.28512" lon="-2.36147">
        <ele>42.599998474121</ele>
        <time>2021-04-22T07:41:42.000Z</time>
      </trkpt>
      <trkpt lat="47.28515" lon="-2.36148">
        <ele>43</ele>
        <time>2021-04-22T07:41:43.000Z</time>
      </trkpt>
      <trkpt lat="47.28517" lon="-2.36149">
        <ele>43.400001525879</ele>
        <time>2021-04-22T07:41:44.000Z</time>
      </trkpt>
      <trkpt lat="47.28527" lon="-2.36152">
        <ele>43.400001525879</ele>
        <time>2021-04-22T07:41:48.000Z</time>
      </trkpt>
      <trkpt lat="47.28529" lon="-2.36153">
        <ele>44</ele>
        <time>2021-04-22T07:41:49.000Z</time>
      </trkpt>
      <trkpt lat="47.28531" lon="-2.36154">
        <ele>44.400001525879</ele>
        <time>2021-04-22T07:41:50.000Z</time>
      </trkpt>
      <trkpt lat="47.28533" lon="-2.36154">
        <ele>44.799999237061</ele>
        <time>2021-04-22T07:41:51.000Z</time>
      </trkpt>
      <trkpt lat="47.28535" lon="-2.36155">
        <ele>45.200000762939</ele>
        <time>2021-04-22T07:41:52.000Z</time>
      </trkpt>
      <trkpt lat="47.28536" lon="-2.36156">
        <ele>45.599998474121</ele>
        <time>2021-04-22T07:41:53.000Z</time>
      </trkpt>
      <trkpt lat="47.28543" lon="-2.36158">
        <ele>46.200000762939</ele>
        <time>2021-04-22T07:41:56.000Z</time>
      </trkpt>
      <trkpt lat="47.28545" lon="-2.36157">
        <ele>47</ele>
        <time>2021-04-22T07:41:57.000Z</time>
      </trkpt>
      <trkpt lat="47.28547" lon="-2.36156">
        <ele>47.400001525879</ele>
        <time>2021-04-22T07:41:58.000Z</time>
      </trkpt>
      <trkpt lat="47.28549" lon="-2.36154">
        <ele>48</ele>
        <time>2021-04-22T07:41:59.000Z</time>
      </trkpt>
      <trkpt lat="47.28554" lon="-2.36149">
        <ele>48.400001525879</ele>
        <time>2021-04-22T07:42:03.000Z</time>
      </trkpt>
      <trkpt lat="47.28555" lon="-2.36148">
        <ele>48.799999237061</ele>
        <time>2021-04-22T07:42:04.000Z</time>
      </trkpt>
      <trkpt lat="47.28556" lon="-2.36147">
        <ele>49.400001525879</ele>
        <time>2021-04-22T07:42:05.000Z</time>
      </trkpt>
      <trkpt lat="47.28558" lon="-2.36146">
        <ele>49.799999237061</ele>
        <time>2021-04-22T07:42:06.000Z</time>
      </trkpt>
      <trkpt lat="47.28559" lon="-2.36146">
        <ele>50.400001525879</ele>
        <time>2021-04-22T07:42:07.000Z</time>
      </trkpt>
      <trkpt lat="47.28561" lon="-2.36145">
        <ele>50.799999237061</ele>
        <time>2021-04-22T07:42:08.000Z</time>
      </trkpt>
      <trkpt lat="47.28562" lon="-2.36144">
        <ele>51.400001525879</ele>
        <time>2021-04-22T07:42:09.000Z</time>
      </trkpt>
      <trkpt lat="47.28565" lon="-2.36144">
        <ele>51.799999237061</ele>
        <time>2021-04-22T07:42:10.000Z</time>
      </trkpt>
      <trkpt lat="47.28567" lon="-2.36144">
        <ele>52.400001525879</ele>
        <time>2021-04-22T07:42:11.000Z</time>
      </trkpt>
      <trkpt lat="47.28569" lon="-2.36144">
        <ele>52.400001525879</ele>
        <time>2021-04-22T07:42:12.000Z</time>
      </trkpt>
      <trkpt lat="47.28582" lon="-2.36149">
        <ele>52.400001525879</ele>
        <time>2021-04-22T07:42:21.000Z</time>
      </trkpt>
      <trkpt lat="47.28597" lon="-2.36152">
        <ele>52.400001525879</ele>
        <time>2021-04-22T07:42:29.000Z</time>
      </trkpt>
      <trkpt lat="47.28615" lon="-2.36143">
        <ele>52.400001525879</ele>
        <time>2021-04-22T07:42:36.000Z</time>
      </trkpt>
      <trkpt lat="47.28627" lon="-2.36138">
        <ele>52.400001525879</ele>
        <time>2021-04-22T07:42:41.000Z</time>
      </trkpt>
      <trkpt lat="47.28629" lon="-2.3614">
        <ele>52.400001525879</ele>
        <time>2021-04-22T07:42:42.000Z</time>
      </trkpt>
      <trkpt lat="47.28637" lon="-2.36154">
        <ele>52.400001525879</ele>
        <time>2021-04-22T07:42:45.000Z</time>
      </trkpt>
      <trkpt lat="47.2864" lon="-2.36159">
        <ele>52.400001525879</ele>
        <time>2021-04-22T07:42:46.000Z</time>
      </trkpt>
      <trkpt lat="47.28647" lon="-2.36169">
        <ele>52.400001525879</ele>
        <time>2021-04-22T07:42:48.000Z</time>
      </trkpt>
      <trkpt lat="47.28659" lon="-2.36186">
        <ele>52.400001525879</ele>
        <time>2021-04-22T07:42:52.000Z</time>
      </trkpt>
      <trkpt lat="47.28671" lon="-2.36213">
        <ele>52.400001525879</ele>
        <time>2021-04-22T07:42:58.000Z</time>
      </trkpt>
      <trkpt lat="47.28671" lon="-2.36226">
        <ele>51.799999237061</ele>
        <time>2021-04-22T07:43:00.000Z</time>
      </trkpt>
      <trkpt lat="47.28671" lon="-2.36233">
        <ele>51.400001525879</ele>
        <time>2021-04-22T07:43:01.000Z</time>
      </trkpt>
      <trkpt lat="47.2867" lon="-2.3624">
        <ele>51</ele>
        <time>2021-04-22T07:43:02.000Z</time>
      </trkpt>
      <trkpt lat="47.28669" lon="-2.36247">
        <ele>50.599998474121</ele>
        <time>2021-04-22T07:43:03.000Z</time>
      </trkpt>
      <trkpt lat="47.28669" lon="-2.36254">
        <ele>50.200000762939</ele>
        <time>2021-04-22T07:43:04.000Z</time>
      </trkpt>
      <trkpt lat="47.28672" lon="-2.3627">
        <ele>50.200000762939</ele>
        <time>2021-04-22T07:43:07.000Z</time>
      </trkpt>
      <trkpt lat="47.28685" lon="-2.36276">
        <ele>50.200000762939</ele>
        <time>2021-04-22T07:43:12.000Z</time>
      </trkpt>
      <trkpt lat="47.28688" lon="-2.36276">
        <ele>49.200000762939</ele>
        <time>2021-04-22T07:43:13.000Z</time>
      </trkpt>
      <trkpt lat="47.28692" lon="-2.36275">
        <ele>48.799999237061</ele>
        <time>2021-04-22T07:43:14.000Z</time>
      </trkpt>
      <trkpt lat="47.28696" lon="-2.36274">
        <ele>48.400001525879</ele>
        <time>2021-04-22T07:43:15.000Z</time>
      </trkpt>
      <trkpt lat="47.28701" lon="-2.36271">
        <ele>48</ele>
        <time>2021-04-22T07:43:16.000Z</time>
      </trkpt>
      <trkpt lat="47.28706" lon="-2.36267">
        <ele>48</ele>
        <time>2021-04-22T07:43:17.000Z</time>
      </trkpt>
      <trkpt lat="47.28719" lon="-2.36251">
        <ele>47.599998474121</ele>
        <time>2021-04-22T07:43:21.000Z</time>
      </trkpt>
      <trkpt lat="47.28721" lon="-2.36247">
        <ele>47.200000762939</ele>
        <time>2021-04-22T07:43:22.000Z</time>
      </trkpt>
      <trkpt lat="47.28724" lon="-2.36244">
        <ele>46.799999237061</ele>
        <time>2021-04-22T07:43:23.000Z</time>
      </trkpt>
      <trkpt lat="47.28726" lon="-2.3624">
        <ele>46.400001525879</ele>
        <time>2021-04-22T07:43:24.000Z</time>
      </trkpt>
      <trkpt lat="47.28729" lon="-2.36237">
        <ele>45.799999237061</ele>
        <time>2021-04-22T07:43:25.000Z</time>
      </trkpt>
      <trkpt lat="47.28738" lon="-2.36228">
        <ele>45.799999237061</ele>
        <time>2021-04-22T07:43:28.000Z</time>
      </trkpt>
      <trkpt lat="47.28759" lon="-2.36214">
        <ele>45.400001525879</ele>
        <time>2021-04-22T07:43:34.000Z</time>
      </trkpt>
      <trkpt lat="47.28763" lon="-2.36211">
        <ele>45</ele>
        <time>2021-04-22T07:43:35.000Z</time>
      </trkpt>
      <trkpt lat="47.28767" lon="-2.36208">
        <ele>44.599998474121</ele>
        <time>2021-04-22T07:43:36.000Z</time>
      </trkpt>
      <trkpt lat="47.28771" lon="-2.36205">
        <ele>43.799999237061</ele>
        <time>2021-04-22T07:43:37.000Z</time>
      </trkpt>
      <trkpt lat="47.28781" lon="-2.362">
        <ele>43.799999237061</ele>
        <time>2021-04-22T07:43:39.000Z</time>
      </trkpt>
      <trkpt lat="47.2881" lon="-2.36182">
        <ele>43.799999237061</ele>
        <time>2021-04-22T07:43:45.000Z</time>
      </trkpt>
      <trkpt lat="47.28815" lon="-2.36178">
        <ele>43.799999237061</ele>
        <time>2021-04-22T07:43:46.000Z</time>
      </trkpt>
      <trkpt lat="47.28824" lon="-2.3617">
        <ele>43.799999237061</ele>
        <time>2021-04-22T07:43:48.000Z</time>
      </trkpt>
      <trkpt lat="47.28835" lon="-2.36154">
        <ele>43.799999237061</ele>
        <time>2021-04-22T07:43:51.000Z</time>
      </trkpt>
      <trkpt lat="47.28855" lon="-2.36128">
        <ele>43.799999237061</ele>
        <time>2021-04-22T07:43:56.000Z</time>
      </trkpt>
      <trkpt lat="47.28864" lon="-2.3612">
        <ele>43.799999237061</ele>
        <time>2021-04-22T07:43:58.000Z</time>
      </trkpt>
      <trkpt lat="47.28897" lon="-2.36085">
        <ele>43.799999237061</ele>
        <time>2021-04-22T07:44:06.000Z</time>
      </trkpt>
      <trkpt lat="47.28929" lon="-2.36058">
        <ele>43.799999237061</ele>
        <time>2021-04-22T07:44:13.000Z</time>
      </trkpt>
      <trkpt lat="47.28962" lon="-2.36036">
        <ele>43.799999237061</ele>
        <time>2021-04-22T07:44:20.000Z</time>
      </trkpt>
      <trkpt lat="47.29" lon="-2.35999">
        <ele>43.799999237061</ele>
        <time>2021-04-22T07:44:29.000Z</time>
      </trkpt>
      <trkpt lat="47.2902" lon="-2.35978">
        <ele>44.200000762939</ele>
        <time>2021-04-22T07:44:34.000Z</time>
      </trkpt>
      <trkpt lat="47.29024" lon="-2.35973">
        <ele>44.599998474121</ele>
        <time>2021-04-22T07:44:35.000Z</time>
      </trkpt>
      <trkpt lat="47.29028" lon="-2.35969">
        <ele>45</ele>
        <time>2021-04-22T07:44:36.000Z</time>
      </trkpt>
      <trkpt lat="47.29033" lon="-2.35965">
        <ele>45.400001525879</ele>
        <time>2021-04-22T07:44:37.000Z</time>
      </trkpt>
      <trkpt lat="47.29037" lon="-2.3596">
        <ele>45.799999237061</ele>
        <time>2021-04-22T07:44:38.000Z</time>
      </trkpt>
      <trkpt lat="47.29058" lon="-2.35935">
        <ele>45.799999237061</ele>
        <time>2021-04-22T07:44:43.000Z</time>
      </trkpt>
      <trkpt lat="47.29088" lon="-2.359">
        <ele>45.799999237061</ele>
        <time>2021-04-22T07:44:50.000Z</time>
      </trkpt>
      <trkpt lat="47.29131" lon="-2.35851">
        <ele>45.799999237061</ele>
        <time>2021-04-22T07:45:00.000Z</time>
      </trkpt>
      <trkpt lat="47.29158" lon="-2.35825">
        <ele>45.799999237061</ele>
        <time>2021-04-22T07:45:06.000Z</time>
      </trkpt>
      <trkpt lat="47.29173" lon="-2.35815">
        <ele>45.799999237061</ele>
        <time>2021-04-22T07:45:09.000Z</time>
      </trkpt>
      <trkpt lat="47.29212" lon="-2.35787">
        <ele>45.799999237061</ele>
        <time>2021-04-22T07:45:17.000Z</time>
      </trkpt>
      <trkpt lat="47.29244" lon="-2.35753">
        <ele>45.799999237061</ele>
        <time>2021-04-22T07:45:25.000Z</time>
      </trkpt>
      <trkpt lat="47.29251" lon="-2.35738">
        <ele>45.799999237061</ele>
        <time>2021-04-22T07:45:29.000Z</time>
      </trkpt>
      <trkpt lat="47.29251" lon="-2.35732">
        <ele>45.799999237061</ele>
        <time>2021-04-22T07:45:32.000Z</time>
      </trkpt>
      <trkpt lat="47.29252" lon="-2.35731">
        <ele>43.799999237061</ele>
        <time>2021-04-22T07:45:38.000Z</time>
      </trkpt>
      <trkpt lat="47.29253" lon="-2.3573">
        <ele>43.799999237061</ele>
        <time>2021-04-22T07:45:39.000Z</time>
      </trkpt>
      <trkpt lat="47.29262" lon="-2.35731">
        <ele>43.799999237061</ele>
        <time>2021-04-22T07:45:42.000Z</time>
      </trkpt>
      <trkpt lat="47.29265" lon="-2.35733">
        <ele>43.799999237061</ele>
        <time>2021-04-22T07:45:43.000Z</time>
      </trkpt>
      <trkpt lat="47.29285" lon="-2.3575">
        <ele>43.799999237061</ele>
        <time>2021-04-22T07:45:48.000Z</time>
      </trkpt>
      <trkpt lat="47.29319" lon="-2.35782">
        <ele>43.799999237061</ele>
        <time>2021-04-22T07:45:55.000Z</time>
      </trkpt>
      <trkpt lat="47.29353" lon="-2.35814">
        <ele>43.799999237061</ele>
        <time>2021-04-22T07:46:02.000Z</time>
      </trkpt>
      <trkpt lat="47.2939" lon="-2.35849">
        <ele>43.799999237061</ele>
        <time>2021-04-22T07:46:10.000Z</time>
      </trkpt>
      <trkpt lat="47.29415" lon="-2.3588">
        <ele>43.799999237061</ele>
        <time>2021-04-22T07:46:16.000Z</time>
      </trkpt>
      <trkpt lat="47.29437" lon="-2.35905">
        <ele>43.799999237061</ele>
        <time>2021-04-22T07:46:21.000Z</time>
      </trkpt>
      <trkpt lat="47.29441" lon="-2.35906">
        <ele>43.799999237061</ele>
        <time>2021-04-22T07:46:22.000Z</time>
      </trkpt>
      <trkpt lat="47.29461" lon="-2.35901">
        <ele>43.799999237061</ele>
        <time>2021-04-22T07:46:26.000Z</time>
      </trkpt>
      <trkpt lat="47.29495" lon="-2.35899">
        <ele>43.799999237061</ele>
        <time>2021-04-22T07:46:34.000Z</time>
      </trkpt>
      <trkpt lat="47.29504" lon="-2.35918">
        <ele>43.799999237061</ele>
        <time>2021-04-22T07:46:37.000Z</time>
      </trkpt>
      <trkpt lat="47.29514" lon="-2.35938">
        <ele>43.799999237061</ele>
        <time>2021-04-22T07:46:41.000Z</time>
      </trkpt>
      <trkpt lat="47.29527" lon="-2.35932">
        <ele>43.799999237061</ele>
        <time>2021-04-22T07:46:44.000Z</time>
      </trkpt>
      <trkpt lat="47.29531" lon="-2.3593">
        <ele>43.799999237061</ele>
        <time>2021-04-22T07:46:45.000Z</time>
      </trkpt>
      <trkpt lat="47.29557" lon="-2.35917">
        <ele>43.799999237061</ele>
        <time>2021-04-22T07:46:50.000Z</time>
      </trkpt>
      <trkpt lat="47.29593" lon="-2.35896">
        <ele>43.799999237061</ele>
        <time>2021-04-22T07:46:57.000Z</time>
      </trkpt>
      <trkpt lat="47.29599" lon="-2.35893">
        <ele>43.799999237061</ele>
        <time>2021-04-22T07:46:58.000Z</time>
      </trkpt>
      <trkpt lat="47.29618" lon="-2.3588">
        <ele>43.799999237061</ele>
        <time>2021-04-22T07:47:02.000Z</time>
      </trkpt>
      <trkpt lat="47.2964" lon="-2.35866">
        <ele>43.799999237061</ele>
        <time>2021-04-22T07:47:06.000Z</time>
      </trkpt>
      <trkpt lat="47.29649" lon="-2.35854">
        <ele>43.799999237061</ele>
        <time>2021-04-22T07:47:08.000Z</time>
      </trkpt>
      <trkpt lat="47.29658" lon="-2.35838">
        <ele>43.799999237061</ele>
        <time>2021-04-22T07:47:11.000Z</time>
      </trkpt>
      <trkpt lat="47.29668" lon="-2.35837">
        <ele>43.799999237061</ele>
        <time>2021-04-22T07:47:13.000Z</time>
      </trkpt>
      <trkpt lat="47.29674" lon="-2.35838">
        <ele>43.799999237061</ele>
        <time>2021-04-22T07:47:14.000Z</time>
      </trkpt>
      <trkpt lat="47.29697" lon="-2.35835">
        <ele>43.799999237061</ele>
        <time>2021-04-22T07:47:18.000Z</time>
      </trkpt>
      <trkpt lat="47.29703" lon="-2.35832">
        <ele>43.799999237061</ele>
        <time>2021-04-22T07:47:19.000Z</time>
      </trkpt>
      <trkpt lat="47.29741" lon="-2.35811">
        <ele>43.799999237061</ele>
        <time>2021-04-22T07:47:26.000Z</time>
      </trkpt>
      <trkpt lat="47.29746" lon="-2.35809">
        <ele>44.200000762939</ele>
        <time>2021-04-22T07:47:27.000Z</time>
      </trkpt>
      <trkpt lat="47.29751" lon="-2.35806">
        <ele>44.599998474121</ele>
        <time>2021-04-22T07:47:28.000Z</time>
      </trkpt>
      <trkpt lat="47.29756" lon="-2.35804">
        <ele>45</ele>
        <time>2021-04-22T07:47:29.000Z</time>
      </trkpt>
      <trkpt lat="47.29761" lon="-2.35802">
        <ele>45.400001525879</ele>
        <time>2021-04-22T07:47:30.000Z</time>
      </trkpt>
      <trkpt lat="47.29766" lon="-2.358">
        <ele>45.799999237061</ele>
        <time>2021-04-22T07:47:31.000Z</time>
      </trkpt>
      <trkpt lat="47.29776" lon="-2.35797">
        <ele>45.799999237061</ele>
        <time>2021-04-22T07:47:33.000Z</time>
      </trkpt>
      <trkpt lat="47.29818" lon="-2.35783">
        <ele>45.799999237061</ele>
        <time>2021-04-22T07:47:41.000Z</time>
      </trkpt>
      <trkpt lat="47.29856" lon="-2.35772">
        <ele>45.799999237061</ele>
        <time>2021-04-22T07:47:47.000Z</time>
      </trkpt>
      <trkpt lat="47.299" lon="-2.35752">
        <ele>45.799999237061</ele>
        <time>2021-04-22T07:47:54.000Z</time>
      </trkpt>
      <trkpt lat="47.29932" lon="-2.35727">
        <ele>45.799999237061</ele>
        <time>2021-04-22T07:48:00.000Z</time>
      </trkpt>
      <trkpt lat="47.29974" lon="-2.35698">
        <ele>45.799999237061</ele>
        <time>2021-04-22T07:48:08.000Z</time>
      </trkpt>
      <trkpt lat="47.3001" lon="-2.35675">
        <ele>45.799999237061</ele>
        <time>2021-04-22T07:48:15.000Z</time>
      </trkpt>
      <trkpt lat="47.30052" lon="-2.35648">
        <ele>45.799999237061</ele>
        <time>2021-04-22T07:48:23.000Z</time>
      </trkpt>
      <trkpt lat="47.30073" lon="-2.35635">
        <ele>46.400001525879</ele>
        <time>2021-04-22T07:48:27.000Z</time>
      </trkpt>
      <trkpt lat="47.30078" lon="-2.35632">
        <ele>46.799999237061</ele>
        <time>2021-04-22T07:48:28.000Z</time>
      </trkpt>
      <trkpt lat="47.30083" lon="-2.3563">
        <ele>47.200000762939</ele>
        <time>2021-04-22T07:48:29.000Z</time>
      </trkpt>
      <trkpt lat="47.30088" lon="-2.35627">
        <ele>47.599998474121</ele>
        <time>2021-04-22T07:48:30.000Z</time>
      </trkpt>
      <trkpt lat="47.30093" lon="-2.35624">
        <ele>48</ele>
        <time>2021-04-22T07:48:31.000Z</time>
      </trkpt>
      <trkpt lat="47.30115" lon="-2.35608">
        <ele>48</ele>
        <time>2021-04-22T07:48:36.000Z</time>
      </trkpt>
      <trkpt lat="47.30123" lon="-2.35599">
        <ele>48</ele>
        <time>2021-04-22T07:48:38.000Z</time>
      </trkpt>
      <trkpt lat="47.30134" lon="-2.35603">
        <ele>48</ele>
        <time>2021-04-22T07:48:41.000Z</time>
      </trkpt>
      <trkpt lat="47.30133" lon="-2.35625">
        <ele>48</ele>
        <time>2021-04-22T07:48:44.000Z</time>
      </trkpt>
      <trkpt lat="47.30133" lon="-2.35633">
        <ele>48</ele>
        <time>2021-04-22T07:48:45.000Z</time>
      </trkpt>
      <trkpt lat="47.30134" lon="-2.35666">
        <ele>48</ele>
        <time>2021-04-22T07:48:49.000Z</time>
      </trkpt>
      <trkpt lat="47.30137" lon="-2.35723">
        <ele>48</ele>
        <time>2021-04-22T07:48:56.000Z</time>
      </trkpt>
      <trkpt lat="47.30141" lon="-2.35783">
        <ele>48</ele>
        <time>2021-04-22T07:49:02.000Z</time>
      </trkpt>
      <trkpt lat="47.30139" lon="-2.35842">
        <ele>48</ele>
        <time>2021-04-22T07:49:07.000Z</time>
      </trkpt>
      <trkpt lat="47.30135" lon="-2.35866">
        <ele>47.599998474121</ele>
        <time>2021-04-22T07:49:09.000Z</time>
      </trkpt>
      <trkpt lat="47.30133" lon="-2.35878">
        <ele>47</ele>
        <time>2021-04-22T07:49:10.000Z</time>
      </trkpt>
      <trkpt lat="47.3013" lon="-2.35891">
        <ele>46.599998474121</ele>
        <time>2021-04-22T07:49:11.000Z</time>
      </trkpt>
      <trkpt lat="47.30128" lon="-2.35904">
        <ele>46</ele>
        <time>2021-04-22T07:49:12.000Z</time>
      </trkpt>
      <trkpt lat="47.30125" lon="-2.35918">
        <ele>45.599998474121</ele>
        <time>2021-04-22T07:49:13.000Z</time>
      </trkpt>
      <trkpt lat="47.30116" lon="-2.35957">
        <ele>45.200000762939</ele>
        <time>2021-04-22T07:49:16.000Z</time>
      </trkpt>
      <trkpt lat="47.30114" lon="-2.35971">
        <ele>44.799999237061</ele>
        <time>2021-04-22T07:49:17.000Z</time>
      </trkpt>
      <trkpt lat="47.30111" lon="-2.35983">
        <ele>44.200000762939</ele>
        <time>2021-04-22T07:49:18.000Z</time>
      </trkpt>
      <trkpt lat="47.30109" lon="-2.35996">
        <ele>43.799999237061</ele>
        <time>2021-04-22T07:49:19.000Z</time>
      </trkpt>
      <trkpt lat="47.30107" lon="-2.36009">
        <ele>43.400001525879</ele>
        <time>2021-04-22T07:49:20.000Z</time>
      </trkpt>
      <trkpt lat="47.30105" lon="-2.36023">
        <ele>43.400001525879</ele>
        <time>2021-04-22T07:49:21.000Z</time>
      </trkpt>
      <trkpt lat="47.301" lon="-2.36072">
        <ele>43</ele>
        <time>2021-04-22T07:49:25.000Z</time>
      </trkpt>
      <trkpt lat="47.30099" lon="-2.36083">
        <ele>42.599998474121</ele>
        <time>2021-04-22T07:49:26.000Z</time>
      </trkpt>
      <trkpt lat="47.30097" lon="-2.36094">
        <ele>42.200000762939</ele>
        <time>2021-04-22T07:49:27.000Z</time>
      </trkpt>
      <trkpt lat="47.30097" lon="-2.36105">
        <ele>41.799999237061</ele>
        <time>2021-04-22T07:49:28.000Z</time>
      </trkpt>
      <trkpt lat="47.30096" lon="-2.36115">
        <ele>41.400001525879</ele>
        <time>2021-04-22T07:49:29.000Z</time>
      </trkpt>
      <trkpt lat="47.30092" lon="-2.36151">
        <ele>41.400001525879</ele>
        <time>2021-04-22T07:49:33.000Z</time>
      </trkpt>
      <trkpt lat="47.30088" lon="-2.36214">
        <ele>41.400001525879</ele>
        <time>2021-04-22T07:49:40.000Z</time>
      </trkpt>
      <trkpt lat="47.30091" lon="-2.36268">
        <ele>41.400001525879</ele>
        <time>2021-04-22T07:49:46.000Z</time>
      </trkpt>
      <trkpt lat="47.30093" lon="-2.36285">
        <ele>41.799999237061</ele>
        <time>2021-04-22T07:49:48.000Z</time>
      </trkpt>
      <trkpt lat="47.30094" lon="-2.36293">
        <ele>42.200000762939</ele>
        <time>2021-04-22T07:49:49.000Z</time>
      </trkpt>
      <trkpt lat="47.30095" lon="-2.36302">
        <ele>42.599998474121</ele>
        <time>2021-04-22T07:49:50.000Z</time>
      </trkpt>
      <trkpt lat="47.30096" lon="-2.36311">
        <ele>43</ele>
        <time>2021-04-22T07:49:51.000Z</time>
      </trkpt>
      <trkpt lat="47.30096" lon="-2.3632">
        <ele>43.400001525879</ele>
        <time>2021-04-22T07:49:52.000Z</time>
      </trkpt>
      <trkpt lat="47.30098" lon="-2.36338">
        <ele>43.400001525879</ele>
        <time>2021-04-22T07:49:54.000Z</time>
      </trkpt>
      <trkpt lat="47.30105" lon="-2.36418">
        <ele>43.400001525879</ele>
        <time>2021-04-22T07:50:03.000Z</time>
      </trkpt>
      <trkpt lat="47.30111" lon="-2.36461">
        <ele>43.799999237061</ele>
        <time>2021-04-22T07:50:08.000Z</time>
      </trkpt>
      <trkpt lat="47.30112" lon="-2.3647">
        <ele>44.200000762939</ele>
        <time>2021-04-22T07:50:09.000Z</time>
      </trkpt>
      <trkpt lat="47.30113" lon="-2.36478">
        <ele>44.599998474121</ele>
        <time>2021-04-22T07:50:10.000Z</time>
      </trkpt>
      <trkpt lat="47.30114" lon="-2.36487">
        <ele>45</ele>
        <time>2021-04-22T07:50:11.000Z</time>
      </trkpt>
      <trkpt lat="47.30115" lon="-2.36495">
        <ele>45.400001525879</ele>
        <time>2021-04-22T07:50:12.000Z</time>
      </trkpt>
      <trkpt lat="47.30125" lon="-2.36562">
        <ele>45.400001525879</ele>
        <time>2021-04-22T07:50:20.000Z</time>
      </trkpt>
      <trkpt lat="47.30133" lon="-2.36611">
        <ele>45.799999237061</ele>
        <time>2021-04-22T07:50:26.000Z</time>
      </trkpt>
      <trkpt lat="47.30135" lon="-2.36619">
        <ele>46.400001525879</ele>
        <time>2021-04-22T07:50:27.000Z</time>
      </trkpt>
      <trkpt lat="47.30138" lon="-2.36627">
        <ele>46.799999237061</ele>
        <time>2021-04-22T07:50:28.000Z</time>
      </trkpt>
      <trkpt lat="47.3014" lon="-2.36634">
        <ele>47.200000762939</ele>
        <time>2021-04-22T07:50:29.000Z</time>
      </trkpt>
      <trkpt lat="47.30143" lon="-2.36641">
        <ele>47.599998474121</ele>
        <time>2021-04-22T07:50:30.000Z</time>
      </trkpt>
      <trkpt lat="47.30158" lon="-2.36672">
        <ele>47.599998474121</ele>
        <time>2021-04-22T07:50:35.000Z</time>
      </trkpt>
      <trkpt lat="47.30164" lon="-2.36682">
        <ele>47.599998474121</ele>
        <time>2021-04-22T07:50:37.000Z</time>
      </trkpt>
      <trkpt lat="47.3017" lon="-2.36687">
        <ele>47.599998474121</ele>
        <time>2021-04-22T07:50:39.000Z</time>
      </trkpt>
      <trkpt lat="47.30175" lon="-2.36686">
        <ele>48</ele>
        <time>2021-04-22T07:50:41.000Z</time>
      </trkpt>
      <trkpt lat="47.30177" lon="-2.36685">
        <ele>48.400001525879</ele>
        <time>2021-04-22T07:50:42.000Z</time>
      </trkpt>
      <trkpt lat="47.30178" lon="-2.36684">
        <ele>48.799999237061</ele>
        <time>2021-04-22T07:50:43.000Z</time>
      </trkpt>
      <trkpt lat="47.30179" lon="-2.36684">
        <ele>49.200000762939</ele>
        <time>2021-04-22T07:50:44.000Z</time>
      </trkpt>
      <trkpt lat="47.30179" lon="-2.36684">
        <ele>49.599998474121</ele>
        <time>2021-04-22T07:50:45.000Z</time>
      </trkpt>
      <trkpt lat="47.30181" lon="-2.36682">
        <ele>49.599998474121</ele>
        <time>2021-04-22T07:50:55.000Z</time>
      </trkpt>
      <trkpt lat="47.30193" lon="-2.36676">
        <ele>49.599998474121</ele>
        <time>2021-04-22T07:51:00.000Z</time>
      </trkpt>
      <trkpt lat="47.30211" lon="-2.36672">
        <ele>49.599998474121</ele>
        <time>2021-04-22T07:51:05.000Z</time>
      </trkpt>
      <trkpt lat="47.30246" lon="-2.36667">
        <ele>49.599998474121</ele>
        <time>2021-04-22T07:51:13.000Z</time>
      </trkpt>
      <trkpt lat="47.30265" lon="-2.36661">
        <ele>49.599998474121</ele>
        <time>2021-04-22T07:51:17.000Z</time>
      </trkpt>
      <trkpt lat="47.30275" lon="-2.36657">
        <ele>49.599998474121</ele>
        <time>2021-04-22T07:51:19.000Z</time>
      </trkpt>
      <trkpt lat="47.30285" lon="-2.36653">
        <ele>50</ele>
        <time>2021-04-22T07:51:21.000Z</time>
      </trkpt>
      <trkpt lat="47.30291" lon="-2.36651">
        <ele>50.400001525879</ele>
        <time>2021-04-22T07:51:22.000Z</time>
      </trkpt>
      <trkpt lat="47.30296" lon="-2.36649">
        <ele>51</ele>
        <time>2021-04-22T07:51:23.000Z</time>
      </trkpt>
      <trkpt lat="47.30301" lon="-2.36647">
        <ele>51.400001525879</ele>
        <time>2021-04-22T07:51:24.000Z</time>
      </trkpt>
      <trkpt lat="47.30306" lon="-2.36646">
        <ele>51.799999237061</ele>
        <time>2021-04-22T07:51:25.000Z</time>
      </trkpt>
      <trkpt lat="47.30316" lon="-2.36646">
        <ele>51.799999237061</ele>
        <time>2021-04-22T07:51:27.000Z</time>
      </trkpt>
      <trkpt lat="47.30333" lon="-2.3665">
        <ele>51.799999237061</ele>
        <time>2021-04-22T07:51:30.000Z</time>
      </trkpt>
      <trkpt lat="47.30369" lon="-2.36654">
        <ele>51.799999237061</ele>
        <time>2021-04-22T07:51:37.000Z</time>
      </trkpt>
      <trkpt lat="47.30393" lon="-2.36655">
        <ele>52.200000762939</ele>
        <time>2021-04-22T07:51:42.000Z</time>
      </trkpt>
      <trkpt lat="47.30398" lon="-2.36655">
        <ele>52.599998474121</ele>
        <time>2021-04-22T07:51:43.000Z</time>
      </trkpt>
      <trkpt lat="47.30403" lon="-2.36654">
        <ele>53</ele>
        <time>2021-04-22T07:51:44.000Z</time>
      </trkpt>
      <trkpt lat="47.30408" lon="-2.36653">
        <ele>53.400001525879</ele>
        <time>2021-04-22T07:51:45.000Z</time>
      </trkpt>
      <trkpt lat="47.30413" lon="-2.36653">
        <ele>53.799999237061</ele>
        <time>2021-04-22T07:51:46.000Z</time>
      </trkpt>
      <trkpt lat="47.30428" lon="-2.36646">
        <ele>53.799999237061</ele>
        <time>2021-04-22T07:51:49.000Z</time>
      </trkpt>
      <trkpt lat="47.30437" lon="-2.36639">
        <ele>53.799999237061</ele>
        <time>2021-04-22T07:51:51.000Z</time>
      </trkpt>
      <trkpt lat="47.30455" lon="-2.36624">
        <ele>53.799999237061</ele>
        <time>2021-04-22T07:51:55.000Z</time>
      </trkpt>
      <trkpt lat="47.30477" lon="-2.36609">
        <ele>53.799999237061</ele>
        <time>2021-04-22T07:52:00.000Z</time>
      </trkpt>
      <trkpt lat="47.30487" lon="-2.36606">
        <ele>53.799999237061</ele>
        <time>2021-04-22T07:52:04.000Z</time>
      </trkpt>
      <trkpt lat="47.30498" lon="-2.36602">
        <ele>53.799999237061</ele>
        <time>2021-04-22T07:52:08.000Z</time>
      </trkpt>
      <trkpt lat="47.30521" lon="-2.36595">
        <ele>53.799999237061</ele>
        <time>2021-04-22T07:52:14.000Z</time>
      </trkpt>
      <trkpt lat="47.30534" lon="-2.36587">
        <ele>53.799999237061</ele>
        <time>2021-04-22T07:52:17.000Z</time>
      </trkpt>
      <trkpt lat="47.30542" lon="-2.3658">
        <ele>53.799999237061</ele>
        <time>2021-04-22T07:52:19.000Z</time>
      </trkpt>
      <trkpt lat="47.30554" lon="-2.3657">
        <ele>53.799999237061</ele>
        <time>2021-04-22T07:52:22.000Z</time>
      </trkpt>
      <trkpt lat="47.30563" lon="-2.36564">
        <ele>53.799999237061</ele>
        <time>2021-04-22T07:52:24.000Z</time>
      </trkpt>
      <trkpt lat="47.30567" lon="-2.36561">
        <ele>53.799999237061</ele>
        <time>2021-04-22T07:52:25.000Z</time>
      </trkpt>
      <trkpt lat="47.30589" lon="-2.3655">
        <ele>53.799999237061</ele>
        <time>2021-04-22T07:52:30.000Z</time>
      </trkpt>
      <trkpt lat="47.30623" lon="-2.36542">
        <ele>53.799999237061</ele>
        <time>2021-04-22T07:52:37.000Z</time>
      </trkpt>
      <trkpt lat="47.30654" lon="-2.36526">
        <ele>53.799999237061</ele>
        <time>2021-04-22T07:52:43.000Z</time>
      </trkpt>
      <trkpt lat="47.30692" lon="-2.36514">
        <ele>53.799999237061</ele>
        <time>2021-04-22T07:52:50.000Z</time>
      </trkpt>
      <trkpt lat="47.307" lon="-2.36522">
        <ele>53.799999237061</ele>
        <time>2021-04-22T07:52:53.000Z</time>
      </trkpt>
      <trkpt lat="47.3071" lon="-2.36517">
        <ele>53.799999237061</ele>
        <time>2021-04-22T07:52:56.000Z</time>
      </trkpt>
      <trkpt lat="47.30716" lon="-2.36509">
        <ele>53.799999237061</ele>
        <time>2021-04-22T07:52:58.000Z</time>
      </trkpt>
      <trkpt lat="47.3072" lon="-2.36506">
        <ele>53.799999237061</ele>
        <time>2021-04-22T07:52:59.000Z</time>
      </trkpt>
      <trkpt lat="47.30728" lon="-2.36501">
        <ele>53.799999237061</ele>
        <time>2021-04-22T07:53:01.000Z</time>
      </trkpt>
      <trkpt lat="47.3075" lon="-2.36492">
        <ele>53.400001525879</ele>
        <time>2021-04-22T07:53:06.000Z</time>
      </trkpt>
      <trkpt lat="47.30755" lon="-2.3649">
        <ele>53</ele>
        <time>2021-04-22T07:53:07.000Z</time>
      </trkpt>
      <trkpt lat="47.30759" lon="-2.36488">
        <ele>52.599998474121</ele>
        <time>2021-04-22T07:53:08.000Z</time>
      </trkpt>
      <trkpt lat="47.30764" lon="-2.36487">
        <ele>52.200000762939</ele>
        <time>2021-04-22T07:53:09.000Z</time>
      </trkpt>
      <trkpt lat="47.30768" lon="-2.36485">
        <ele>51.799999237061</ele>
        <time>2021-04-22T07:53:10.000Z</time>
      </trkpt>
      <trkpt lat="47.30777" lon="-2.36482">
        <ele>51.799999237061</ele>
        <time>2021-04-22T07:53:12.000Z</time>
      </trkpt>
      <trkpt lat="47.30791" lon="-2.36479">
        <ele>51.799999237061</ele>
        <time>2021-04-22T07:53:15.000Z</time>
      </trkpt>
      <trkpt lat="47.30795" lon="-2.36478">
        <ele>51.799999237061</ele>
        <time>2021-04-22T07:53:16.000Z</time>
      </trkpt>
      <trkpt lat="47.30807" lon="-2.36471">
        <ele>51.799999237061</ele>
        <time>2021-04-22T07:53:19.000Z</time>
      </trkpt>
      <trkpt lat="47.3081" lon="-2.36468">
        <ele>51.799999237061</ele>
        <time>2021-04-22T07:53:20.000Z</time>
      </trkpt>
      <trkpt lat="47.30814" lon="-2.36467">
        <ele>51.799999237061</ele>
        <time>2021-04-22T07:53:22.000Z</time>
      </trkpt>
      <trkpt lat="47.30817" lon="-2.36469">
        <ele>51.400001525879</ele>
        <time>2021-04-22T07:53:25.000Z</time>
      </trkpt>
      <trkpt lat="47.30817" lon="-2.3647">
        <ele>49.599998474121</ele>
        <time>2021-04-22T07:55:22.000Z</time>
      </trkpt>
      <trkpt lat="47.30823" lon="-2.36481">
        <ele>49.599998474121</ele>
        <time>2021-04-22T07:55:27.000Z</time>
      </trkpt>
      <trkpt lat="47.30838" lon="-2.36487">
        <ele>49.599998474121</ele>
        <time>2021-04-22T07:55:31.000Z</time>
      </trkpt>
      <trkpt lat="47.30865" lon="-2.36482">
        <ele>49.599998474121</ele>
        <time>2021-04-22T07:55:37.000Z</time>
      </trkpt>
      <trkpt lat="47.30896" lon="-2.36474">
        <ele>49.599998474121</ele>
        <time>2021-04-22T07:55:43.000Z</time>
      </trkpt>
      <trkpt lat="47.309" lon="-2.36472">
        <ele>49.599998474121</ele>
        <time>2021-04-22T07:55:44.000Z</time>
      </trkpt>
      <trkpt lat="47.30933" lon="-2.36461">
        <ele>49.599998474121</ele>
        <time>2021-04-22T07:55:50.000Z</time>
      </trkpt>
      <trkpt lat="47.3097" lon="-2.36449">
        <ele>49.599998474121</ele>
        <time>2021-04-22T07:55:57.000Z</time>
      </trkpt>
      <trkpt lat="47.31009" lon="-2.36429">
        <ele>49.599998474121</ele>
        <time>2021-04-22T07:56:04.000Z</time>
      </trkpt>
      <trkpt lat="47.3102" lon="-2.36426">
        <ele>49.599998474121</ele>
        <time>2021-04-22T07:56:06.000Z</time>
      </trkpt>
      <trkpt lat="47.31045" lon="-2.36422">
        <ele>49.599998474121</ele>
        <time>2021-04-22T07:56:10.000Z</time>
      </trkpt>
      <trkpt lat="47.31076" lon="-2.36418">
        <ele>49.599998474121</ele>
        <time>2021-04-22T07:56:16.000Z</time>
      </trkpt>
      <trkpt lat="47.31098" lon="-2.36416">
        <ele>49.599998474121</ele>
        <time>2021-04-22T07:56:21.000Z</time>
      </trkpt>
      <trkpt lat="47.31103" lon="-2.36414">
        <ele>49.599998474121</ele>
        <time>2021-04-22T07:56:22.000Z</time>
      </trkpt>
      <trkpt lat="47.31125" lon="-2.36403">
        <ele>49.599998474121</ele>
        <time>2021-04-22T07:56:26.000Z</time>
      </trkpt>
      <trkpt lat="47.31163" lon="-2.3638">
        <ele>49.599998474121</ele>
        <time>2021-04-22T07:56:33.000Z</time>
      </trkpt>
      <trkpt lat="47.312" lon="-2.36354">
        <ele>49.599998474121</ele>
        <time>2021-04-22T07:56:40.000Z</time>
      </trkpt>
      <trkpt lat="47.31236" lon="-2.36334">
        <ele>49.599998474121</ele>
        <time>2021-04-22T07:56:47.000Z</time>
      </trkpt>
      <trkpt lat="47.31266" lon="-2.36314">
        <ele>49.599998474121</ele>
        <time>2021-04-22T07:56:53.000Z</time>
      </trkpt>
      <trkpt lat="47.31272" lon="-2.36311">
        <ele>49.599998474121</ele>
        <time>2021-04-22T07:56:54.000Z</time>
      </trkpt>
      <trkpt lat="47.31297" lon="-2.363">
        <ele>49.599998474121</ele>
        <time>2021-04-22T07:56:59.000Z</time>
      </trkpt>
      <trkpt lat="47.31302" lon="-2.36297">
        <ele>50</ele>
        <time>2021-04-22T07:57:00.000Z</time>
      </trkpt>
      <trkpt lat="47.31307" lon="-2.36294">
        <ele>50.400001525879</ele>
        <time>2021-04-22T07:57:01.000Z</time>
      </trkpt>
      <trkpt lat="47.31312" lon="-2.36291">
        <ele>50.799999237061</ele>
        <time>2021-04-22T07:57:02.000Z</time>
      </trkpt>
      <trkpt lat="47.31317" lon="-2.36287">
        <ele>51.200000762939</ele>
        <time>2021-04-22T07:57:03.000Z</time>
      </trkpt>
      <trkpt lat="47.31321" lon="-2.36284">
        <ele>51.799999237061</ele>
        <time>2021-04-22T07:57:04.000Z</time>
      </trkpt>
      <trkpt lat="47.31325" lon="-2.3628">
        <ele>51.799999237061</ele>
        <time>2021-04-22T07:57:05.000Z</time>
      </trkpt>
      <trkpt lat="47.3135" lon="-2.36254">
        <ele>51.799999237061</ele>
        <time>2021-04-22T07:57:11.000Z</time>
      </trkpt>
      <trkpt lat="47.31363" lon="-2.36243">
        <ele>51.799999237061</ele>
        <time>2021-04-22T07:57:14.000Z</time>
      </trkpt>
      <trkpt lat="47.31377" lon="-2.36234">
        <ele>51.799999237061</ele>
        <time>2021-04-22T07:57:17.000Z</time>
      </trkpt>
      <trkpt lat="47.31407" lon="-2.3622">
        <ele>51.799999237061</ele>
        <time>2021-04-22T07:57:23.000Z</time>
      </trkpt>
      <trkpt lat="47.31424" lon="-2.36212">
        <ele>51.799999237061</ele>
        <time>2021-04-22T07:57:26.000Z</time>
      </trkpt>
      <trkpt lat="47.31439" lon="-2.36202">
        <ele>51.799999237061</ele>
        <time>2021-04-22T07:57:29.000Z</time>
      </trkpt>
      <trkpt lat="47.31447" lon="-2.36196">
        <ele>51.799999237061</ele>
        <time>2021-04-22T07:57:31.000Z</time>
      </trkpt>
      <trkpt lat="47.31464" lon="-2.3618">
        <ele>51.799999237061</ele>
        <time>2021-04-22T07:57:35.000Z</time>
      </trkpt>
      <trkpt lat="47.31488" lon="-2.36154">
        <ele>51.799999237061</ele>
        <time>2021-04-22T07:57:41.000Z</time>
      </trkpt>
      <trkpt lat="47.31514" lon="-2.36127">
        <ele>51.799999237061</ele>
        <time>2021-04-22T07:57:47.000Z</time>
      </trkpt>
      <trkpt lat="47.3154" lon="-2.36099">
        <ele>51.799999237061</ele>
        <time>2021-04-22T07:57:53.000Z</time>
      </trkpt>
      <trkpt lat="47.31566" lon="-2.3607">
        <ele>51.799999237061</ele>
        <time>2021-04-22T07:57:59.000Z</time>
      </trkpt>
      <trkpt lat="47.31603" lon="-2.36034">
        <ele>51.799999237061</ele>
        <time>2021-04-22T07:58:07.000Z</time>
      </trkpt>
      <trkpt lat="47.31622" lon="-2.36012">
        <ele>51.200000762939</ele>
        <time>2021-04-22T07:58:11.000Z</time>
      </trkpt>
      <trkpt lat="47.31627" lon="-2.36008">
        <ele>50.799999237061</ele>
        <time>2021-04-22T07:58:12.000Z</time>
      </trkpt>
      <trkpt lat="47.31631" lon="-2.36003">
        <ele>50.400001525879</ele>
        <time>2021-04-22T07:58:13.000Z</time>
      </trkpt>
      <trkpt lat="47.31636" lon="-2.35999">
        <ele>50</ele>
        <time>2021-04-22T07:58:14.000Z</time>
      </trkpt>
      <trkpt lat="47.3164" lon="-2.35995">
        <ele>49.599998474121</ele>
        <time>2021-04-22T07:58:15.000Z</time>
      </trkpt>
      <trkpt lat="47.31654" lon="-2.35981">
        <ele>49.599998474121</ele>
        <time>2021-04-22T07:58:18.000Z</time>
      </trkpt>
      <trkpt lat="47.31659" lon="-2.35978">
        <ele>49.599998474121</ele>
        <time>2021-04-22T07:58:19.000Z</time>
      </trkpt>
      <trkpt lat="47.3169" lon="-2.35957">
        <ele>49.599998474121</ele>
        <time>2021-04-22T07:58:25.000Z</time>
      </trkpt>
      <trkpt lat="47.31701" lon="-2.35951">
        <ele>49</ele>
        <time>2021-04-22T07:58:27.000Z</time>
      </trkpt>
      <trkpt lat="47.31706" lon="-2.35948">
        <ele>48.599998474121</ele>
        <time>2021-04-22T07:58:28.000Z</time>
      </trkpt>
      <trkpt lat="47.31711" lon="-2.35946">
        <ele>48.200000762939</ele>
        <time>2021-04-22T07:58:29.000Z</time>
      </trkpt>
      <trkpt lat="47.31717" lon="-2.35942">
        <ele>47.599998474121</ele>
        <time>2021-04-22T07:58:30.000Z</time>
      </trkpt>
      <trkpt lat="47.31723" lon="-2.35939">
        <ele>47.200000762939</ele>
        <time>2021-04-22T07:58:31.000Z</time>
      </trkpt>
      <trkpt lat="47.31763" lon="-2.35914">
        <ele>47.200000762939</ele>
        <time>2021-04-22T07:58:38.000Z</time>
      </trkpt>
      <trkpt lat="47.3179" lon="-2.35899">
        <ele>47.200000762939</ele>
        <time>2021-04-22T07:58:44.000Z</time>
      </trkpt>
      <trkpt lat="47.31795" lon="-2.35896">
        <ele>46.799999237061</ele>
        <time>2021-04-22T07:58:45.000Z</time>
      </trkpt>
      <trkpt lat="47.318" lon="-2.35894">
        <ele>46.400001525879</ele>
        <time>2021-04-22T07:58:46.000Z</time>
      </trkpt>
      <trkpt lat="47.31805" lon="-2.35891">
        <ele>46</ele>
        <time>2021-04-22T07:58:47.000Z</time>
      </trkpt>
      <trkpt lat="47.3181" lon="-2.35889">
        <ele>45.400001525879</ele>
        <time>2021-04-22T07:58:48.000Z</time>
      </trkpt>
      <trkpt lat="47.31815" lon="-2.35886">
        <ele>45</ele>
        <time>2021-04-22T07:58:49.000Z</time>
      </trkpt>
      <trkpt lat="47.3182" lon="-2.35882">
        <ele>45</ele>
        <time>2021-04-22T07:58:50.000Z</time>
      </trkpt>
      <trkpt lat="47.31826" lon="-2.35865">
        <ele>45</ele>
        <time>2021-04-22T07:58:53.000Z</time>
      </trkpt>
      <trkpt lat="47.3182" lon="-2.35845">
        <ele>45</ele>
        <time>2021-04-22T07:58:57.000Z</time>
      </trkpt>
      <trkpt lat="47.31807" lon="-2.35828">
        <ele>45</ele>
        <time>2021-04-22T07:59:01.000Z</time>
      </trkpt>
      <trkpt lat="47.31803" lon="-2.35824">
        <ele>45</ele>
        <time>2021-04-22T07:59:02.000Z</time>
      </trkpt>
      <trkpt lat="47.31788" lon="-2.35806">
        <ele>45</ele>
        <time>2021-04-22T07:59:06.000Z</time>
      </trkpt>
      <trkpt lat="47.31784" lon="-2.35792">
        <ele>45</ele>
        <time>2021-04-22T07:59:08.000Z</time>
      </trkpt>
      <trkpt lat="47.31781" lon="-2.35769">
        <ele>45</ele>
        <time>2021-04-22T07:59:11.000Z</time>
      </trkpt>
      <trkpt lat="47.31779" lon="-2.35753">
        <ele>45</ele>
        <time>2021-04-22T07:59:13.000Z</time>
      </trkpt>
      <trkpt lat="47.31779" lon="-2.35699">
        <ele>45</ele>
        <time>2021-04-22T07:59:19.000Z</time>
      </trkpt>
      <trkpt lat="47.31781" lon="-2.35689">
        <ele>45</ele>
        <time>2021-04-22T07:59:20.000Z</time>
      </trkpt>
      <trkpt lat="47.31782" lon="-2.35668">
        <ele>44.599998474121</ele>
        <time>2021-04-22T07:59:22.000Z</time>
      </trkpt>
      <trkpt lat="47.31783" lon="-2.35658">
        <ele>44.200000762939</ele>
        <time>2021-04-22T07:59:23.000Z</time>
      </trkpt>
      <trkpt lat="47.31784" lon="-2.3565">
        <ele>43.599998474121</ele>
        <time>2021-04-22T07:59:24.000Z</time>
      </trkpt>
      <trkpt lat="47.31786" lon="-2.35641">
        <ele>43.200000762939</ele>
        <time>2021-04-22T07:59:25.000Z</time>
      </trkpt>
      <trkpt lat="47.31787" lon="-2.35632">
        <ele>42.799999237061</ele>
        <time>2021-04-22T07:59:26.000Z</time>
      </trkpt>
      <trkpt lat="47.31789" lon="-2.35616">
        <ele>42.799999237061</ele>
        <time>2021-04-22T07:59:28.000Z</time>
      </trkpt>
      <trkpt lat="47.31793" lon="-2.35592">
        <ele>42.400001525879</ele>
        <time>2021-04-22T07:59:31.000Z</time>
      </trkpt>
      <trkpt lat="47.31795" lon="-2.35587">
        <ele>41.799999237061</ele>
        <time>2021-04-22T07:59:32.000Z</time>
      </trkpt>
      <trkpt lat="47.31797" lon="-2.35583">
        <ele>41.400001525879</ele>
        <time>2021-04-22T07:59:33.000Z</time>
      </trkpt>
      <trkpt lat="47.31799" lon="-2.35579">
        <ele>41</ele>
        <time>2021-04-22T07:59:34.000Z</time>
      </trkpt>
      <trkpt lat="47.31801" lon="-2.35575">
        <ele>40.599998474121</ele>
        <time>2021-04-22T07:59:35.000Z</time>
      </trkpt>
      <trkpt lat="47.31811" lon="-2.35563">
        <ele>40.200000762939</ele>
        <time>2021-04-22T07:59:39.000Z</time>
      </trkpt>
      <trkpt lat="47.31814" lon="-2.35559">
        <ele>39.799999237061</ele>
        <time>2021-04-22T07:59:40.000Z</time>
      </trkpt>
      <trkpt lat="47.31818" lon="-2.35557">
        <ele>39.400001525879</ele>
        <time>2021-04-22T07:59:41.000Z</time>
      </trkpt>
      <trkpt lat="47.31821" lon="-2.35555">
        <ele>39</ele>
        <time>2021-04-22T07:59:42.000Z</time>
      </trkpt>
      <trkpt lat="47.31824" lon="-2.35553">
        <ele>38.599998474121</ele>
        <time>2021-04-22T07:59:43.000Z</time>
      </trkpt>
      <trkpt lat="47.31831" lon="-2.35544">
        <ele>38.599998474121</ele>
        <time>2021-04-22T07:59:47.000Z</time>
      </trkpt>
      <trkpt lat="47.31826" lon="-2.35528">
        <ele>38.599998474121</ele>
        <time>2021-04-22T07:59:51.000Z</time>
      </trkpt>
      <trkpt lat="47.3181" lon="-2.35494">
        <ele>38.599998474121</ele>
        <time>2021-04-22T07:59:58.000Z</time>
      </trkpt>
      <trkpt lat="47.31801" lon="-2.3548">
        <ele>38.599998474121</ele>
        <time>2021-04-22T08:00:02.000Z</time>
      </trkpt>
      <trkpt lat="47.31791" lon="-2.35464">
        <ele>38.599998474121</ele>
        <time>2021-04-22T08:00:08.000Z</time>
      </trkpt>
      <trkpt lat="47.31778" lon="-2.35443">
        <ele>39</ele>
        <time>2021-04-22T08:00:15.000Z</time>
      </trkpt>
      <trkpt lat="47.31775" lon="-2.35439">
        <ele>39.400001525879</ele>
        <time>2021-04-22T08:00:16.000Z</time>
      </trkpt>
      <trkpt lat="47.31773" lon="-2.35434">
        <ele>39.799999237061</ele>
        <time>2021-04-22T08:00:17.000Z</time>
      </trkpt>
      <trkpt lat="47.31769" lon="-2.35429">
        <ele>40.200000762939</ele>
        <time>2021-04-22T08:00:18.000Z</time>
      </trkpt>
      <trkpt lat="47.31765" lon="-2.35423">
        <ele>40.599998474121</ele>
        <time>2021-04-22T08:00:19.000Z</time>
      </trkpt>
      <trkpt lat="47.31757" lon="-2.35414">
        <ele>40.599998474121</ele>
        <time>2021-04-22T08:00:21.000Z</time>
      </trkpt>
      <trkpt lat="47.31745" lon="-2.35387">
        <ele>40.599998474121</ele>
        <time>2021-04-22T08:00:28.000Z</time>
      </trkpt>
      <trkpt lat="47.31743" lon="-2.35377">
        <ele>41</ele>
        <time>2021-04-22T08:00:31.000Z</time>
      </trkpt>
      <trkpt lat="47.31743" lon="-2.35376">
        <ele>41.400001525879</ele>
        <time>2021-04-22T08:00:32.000Z</time>
      </trkpt>
      <trkpt lat="47.31738" lon="-2.35376">
        <ele>42.599998474121</ele>
        <time>2021-04-22T08:01:22.000Z</time>
      </trkpt>
      <trkpt lat="47.31722" lon="-2.35376">
        <ele>42.599998474121</ele>
        <time>2021-04-22T08:01:27.000Z</time>
      </trkpt>
      <trkpt lat="47.31695" lon="-2.35376">
        <ele>42.599998474121</ele>
        <time>2021-04-22T08:01:34.000Z</time>
      </trkpt>
      <trkpt lat="47.31685" lon="-2.35376">
        <ele>43</ele>
        <time>2021-04-22T08:01:36.000Z</time>
      </trkpt>
      <trkpt lat="47.3168" lon="-2.35376">
        <ele>43.400001525879</ele>
        <time>2021-04-22T08:01:37.000Z</time>
      </trkpt>
      <trkpt lat="47.31676" lon="-2.35376">
        <ele>43.799999237061</ele>
        <time>2021-04-22T08:01:38.000Z</time>
      </trkpt>
      <trkpt lat="47.31671" lon="-2.35376">
        <ele>44.200000762939</ele>
        <time>2021-04-22T08:01:39.000Z</time>
      </trkpt>
      <trkpt lat="47.31666" lon="-2.35376">
        <ele>44.599998474121</ele>
        <time>2021-04-22T08:01:40.000Z</time>
      </trkpt>
      <trkpt lat="47.31661" lon="-2.35376">
        <ele>44.599998474121</ele>
        <time>2021-04-22T08:01:41.000Z</time>
      </trkpt>
      <trkpt lat="47.31646" lon="-2.35372">
        <ele>44.599998474121</ele>
        <time>2021-04-22T08:01:44.000Z</time>
      </trkpt>
      <trkpt lat="47.31632" lon="-2.35364">
        <ele>44.599998474121</ele>
        <time>2021-04-22T08:01:47.000Z</time>
      </trkpt>
      <trkpt lat="47.3161" lon="-2.35357">
        <ele>44.599998474121</ele>
        <time>2021-04-22T08:01:52.000Z</time>
      </trkpt>
      <trkpt lat="47.31605" lon="-2.35358">
        <ele>44.599998474121</ele>
        <time>2021-04-22T08:01:53.000Z</time>
      </trkpt>
      <trkpt lat="47.3157" lon="-2.35371">
        <ele>44.599998474121</ele>
        <time>2021-04-22T08:02:00.000Z</time>
      </trkpt>
      <trkpt lat="47.31531" lon="-2.35401">
        <ele>44.599998474121</ele>
        <time>2021-04-22T08:02:07.000Z</time>
      </trkpt>
      <trkpt lat="47.31505" lon="-2.35424">
        <ele>44.599998474121</ele>
        <time>2021-04-22T08:02:13.000Z</time>
      </trkpt>
      <trkpt lat="47.31498" lon="-2.35434">
        <ele>44.599998474121</ele>
        <time>2021-04-22T08:02:15.000Z</time>
      </trkpt>
      <trkpt lat="47.31491" lon="-2.35454">
        <ele>44.599998474121</ele>
        <time>2021-04-22T08:02:18.000Z</time>
      </trkpt>
      <trkpt lat="47.31487" lon="-2.35477">
        <ele>44.599998474121</ele>
        <time>2021-04-22T08:02:21.000Z</time>
      </trkpt>
      <trkpt lat="47.31486" lon="-2.35485">
        <ele>45.200000762939</ele>
        <time>2021-04-22T08:02:22.000Z</time>
      </trkpt>
      <trkpt lat="47.31483" lon="-2.35494">
        <ele>45.599998474121</ele>
        <time>2021-04-22T08:02:23.000Z</time>
      </trkpt>
      <trkpt lat="47.31481" lon="-2.35501">
        <ele>46</ele>
        <time>2021-04-22T08:02:24.000Z</time>
      </trkpt>
      <trkpt lat="47.31478" lon="-2.35509">
        <ele>46.400001525879</ele>
        <time>2021-04-22T08:02:25.000Z</time>
      </trkpt>
      <trkpt lat="47.31475" lon="-2.35515">
        <ele>47</ele>
        <time>2021-04-22T08:02:26.000Z</time>
      </trkpt>
      <trkpt lat="47.31466" lon="-2.35522">
        <ele>47</ele>
        <time>2021-04-22T08:02:28.000Z</time>
      </trkpt>
      <trkpt lat="47.31451" lon="-2.35525">
        <ele>47</ele>
        <time>2021-04-22T08:02:31.000Z</time>
      </trkpt>
      <trkpt lat="47.3144" lon="-2.35526">
        <ele>47</ele>
        <time>2021-04-22T08:02:33.000Z</time>
      </trkpt>
      <trkpt lat="47.31401" lon="-2.35526">
        <ele>47</ele>
        <time>2021-04-22T08:02:40.000Z</time>
      </trkpt>
      <trkpt lat="47.31379" lon="-2.35529">
        <ele>47</ele>
        <time>2021-04-22T08:02:44.000Z</time>
      </trkpt>
      <trkpt lat="47.3137" lon="-2.35533">
        <ele>47</ele>
        <time>2021-04-22T08:02:46.000Z</time>
      </trkpt>
      <trkpt lat="47.31361" lon="-2.35537">
        <ele>47</ele>
        <time>2021-04-22T08:02:48.000Z</time>
      </trkpt>
      <trkpt lat="47.31344" lon="-2.35549">
        <ele>47</ele>
        <time>2021-04-22T08:02:52.000Z</time>
      </trkpt>
      <trkpt lat="47.31336" lon="-2.35556">
        <ele>47</ele>
        <time>2021-04-22T08:02:54.000Z</time>
      </trkpt>
      <trkpt lat="47.31329" lon="-2.35573">
        <ele>47</ele>
        <time>2021-04-22T08:02:57.000Z</time>
      </trkpt>
      <trkpt lat="47.31329" lon="-2.35588">
        <ele>47</ele>
        <time>2021-04-22T08:02:59.000Z</time>
      </trkpt>
      <trkpt lat="47.3133" lon="-2.35595">
        <ele>47.400001525879</ele>
        <time>2021-04-22T08:03:00.000Z</time>
      </trkpt>
      <trkpt lat="47.3133" lon="-2.35602">
        <ele>47.799999237061</ele>
        <time>2021-04-22T08:03:01.000Z</time>
      </trkpt>
      <trkpt lat="47.31331" lon="-2.35609">
        <ele>48.200000762939</ele>
        <time>2021-04-22T08:03:02.000Z</time>
      </trkpt>
      <trkpt lat="47.31331" lon="-2.35616">
        <ele>48.599998474121</ele>
        <time>2021-04-22T08:03:03.000Z</time>
      </trkpt>
      <trkpt lat="47.31332" lon="-2.35624">
        <ele>49</ele>
        <time>2021-04-22T08:03:04.000Z</time>
      </trkpt>
      <trkpt lat="47.31333" lon="-2.35638">
        <ele>49</ele>
        <time>2021-04-22T08:03:06.000Z</time>
      </trkpt>
      <trkpt lat="47.31333" lon="-2.35646">
        <ele>49</ele>
        <time>2021-04-22T08:03:07.000Z</time>
      </trkpt>
      <trkpt lat="47.31334" lon="-2.357">
        <ele>49</ele>
        <time>2021-04-22T08:03:14.000Z</time>
      </trkpt>
      <trkpt lat="47.31333" lon="-2.35707">
        <ele>49</ele>
        <time>2021-04-22T08:03:15.000Z</time>
      </trkpt>
      <trkpt lat="47.31332" lon="-2.35723">
        <ele>49</ele>
        <time>2021-04-22T08:03:17.000Z</time>
      </trkpt>
      <trkpt lat="47.31331" lon="-2.35738">
        <ele>49</ele>
        <time>2021-04-22T08:03:19.000Z</time>
      </trkpt>
      <trkpt lat="47.31332" lon="-2.35771">
        <ele>49</ele>
        <time>2021-04-22T08:03:23.000Z</time>
      </trkpt>
      <trkpt lat="47.31335" lon="-2.35795">
        <ele>49</ele>
        <time>2021-04-22T08:03:26.000Z</time>
      </trkpt>
      <trkpt lat="47.31342" lon="-2.35859">
        <ele>49</ele>
        <time>2021-04-22T08:03:33.000Z</time>
      </trkpt>
      <trkpt lat="47.31344" lon="-2.35868">
        <ele>49</ele>
        <time>2021-04-22T08:03:34.000Z</time>
      </trkpt>
      <trkpt lat="47.3135" lon="-2.35885">
        <ele>49</ele>
        <time>2021-04-22T08:03:36.000Z</time>
      </trkpt>
      <trkpt lat="47.31353" lon="-2.35893">
        <ele>49</ele>
        <time>2021-04-22T08:03:37.000Z</time>
      </trkpt>
      <trkpt lat="47.31381" lon="-2.3594">
        <ele>49</ele>
        <time>2021-04-22T08:03:44.000Z</time>
      </trkpt>
      <trkpt lat="47.31389" lon="-2.35954">
        <ele>49</ele>
        <time>2021-04-22T08:03:46.000Z</time>
      </trkpt>
      <trkpt lat="47.31399" lon="-2.35977">
        <ele>49</ele>
        <time>2021-04-22T08:03:49.000Z</time>
      </trkpt>
      <trkpt lat="47.31414" lon="-2.36011">
        <ele>49</ele>
        <time>2021-04-22T08:03:54.000Z</time>
      </trkpt>
      <trkpt lat="47.31416" lon="-2.36017">
        <ele>49</ele>
        <time>2021-04-22T08:03:55.000Z</time>
      </trkpt>
      <trkpt lat="47.31421" lon="-2.36029">
        <ele>49</ele>
        <time>2021-04-22T08:03:57.000Z</time>
      </trkpt>
      <trkpt lat="47.31427" lon="-2.36053">
        <ele>49</ele>
        <time>2021-04-22T08:04:01.000Z</time>
      </trkpt>
      <trkpt lat="47.31429" lon="-2.3606">
        <ele>49</ele>
        <time>2021-04-22T08:04:02.000Z</time>
      </trkpt>
      <trkpt lat="47.31431" lon="-2.36067">
        <ele>49.400001525879</ele>
        <time>2021-04-22T08:04:03.000Z</time>
      </trkpt>
      <trkpt lat="47.31433" lon="-2.36073">
        <ele>50</ele>
        <time>2021-04-22T08:04:04.000Z</time>
      </trkpt>
      <trkpt lat="47.31435" lon="-2.3608">
        <ele>50.400001525879</ele>
        <time>2021-04-22T08:04:05.000Z</time>
      </trkpt>
      <trkpt lat="47.31437" lon="-2.36087">
        <ele>50.799999237061</ele>
        <time>2021-04-22T08:04:06.000Z</time>
      </trkpt>
      <trkpt lat="47.31439" lon="-2.36093">
        <ele>51.400001525879</ele>
        <time>2021-04-22T08:04:07.000Z</time>
      </trkpt>
      <trkpt lat="47.31453" lon="-2.36132">
        <ele>51.400001525879</ele>
        <time>2021-04-22T08:04:13.000Z</time>
      </trkpt>
      <trkpt lat="47.31464" lon="-2.3618">
        <ele>51.400001525879</ele>
        <time>2021-04-22T08:04:19.000Z</time>
      </trkpt>
      <trkpt lat="47.31474" lon="-2.36233">
        <ele>51.400001525879</ele>
        <time>2021-04-22T08:04:25.000Z</time>
      </trkpt>
      <trkpt lat="47.31484" lon="-2.36283">
        <ele>51.400001525879</ele>
        <time>2021-04-22T08:04:31.000Z</time>
      </trkpt>
      <trkpt lat="47.31491" lon="-2.3632">
        <ele>51.400001525879</ele>
        <time>2021-04-22T08:04:36.000Z</time>
      </trkpt>
      <trkpt lat="47.31491" lon="-2.36328">
        <ele>51.400001525879</ele>
        <time>2021-04-22T08:04:37.000Z</time>
      </trkpt>
      <trkpt lat="47.31492" lon="-2.36336">
        <ele>50.799999237061</ele>
        <time>2021-04-22T08:04:38.000Z</time>
      </trkpt>
      <trkpt lat="47.31491" lon="-2.36344">
        <ele>50.400001525879</ele>
        <time>2021-04-22T08:04:39.000Z</time>
      </trkpt>
      <trkpt lat="47.31491" lon="-2.36352">
        <ele>50</ele>
        <time>2021-04-22T08:04:40.000Z</time>
      </trkpt>
      <trkpt lat="47.31491" lon="-2.36359">
        <ele>49.599998474121</ele>
        <time>2021-04-22T08:04:41.000Z</time>
      </trkpt>
      <trkpt lat="47.31491" lon="-2.36366">
        <ele>49</ele>
        <time>2021-04-22T08:04:42.000Z</time>
      </trkpt>
      <trkpt lat="47.31492" lon="-2.36413">
        <ele>48.599998474121</ele>
        <time>2021-04-22T08:04:49.000Z</time>
      </trkpt>
      <trkpt lat="47.31493" lon="-2.36418">
        <ele>48.200000762939</ele>
        <time>2021-04-22T08:04:50.000Z</time>
      </trkpt>
      <trkpt lat="47.31492" lon="-2.36423">
        <ele>47.799999237061</ele>
        <time>2021-04-22T08:04:51.000Z</time>
      </trkpt>
      <trkpt lat="47.31492" lon="-2.36428">
        <ele>47.400001525879</ele>
        <time>2021-04-22T08:04:52.000Z</time>
      </trkpt>
      <trkpt lat="47.31492" lon="-2.36433">
        <ele>46.799999237061</ele>
        <time>2021-04-22T08:04:53.000Z</time>
      </trkpt>
      <trkpt lat="47.31493" lon="-2.36441">
        <ele>46.799999237061</ele>
        <time>2021-04-22T08:04:55.000Z</time>
      </trkpt>
      <trkpt lat="47.31493" lon="-2.36455">
        <ele>46</ele>
        <time>2021-04-22T08:05:00.000Z</time>
      </trkpt>
      <trkpt lat="47.31494" lon="-2.36455">
        <ele>45.599998474121</ele>
        <time>2021-04-22T08:05:01.000Z</time>
      </trkpt>
      <trkpt lat="47.31495" lon="-2.36456">
        <ele>45.200000762939</ele>
        <time>2021-04-22T08:05:02.000Z</time>
      </trkpt>
      <trkpt lat="47.31495" lon="-2.36457">
        <ele>44.799999237061</ele>
        <time>2021-04-22T08:05:03.000Z</time>
      </trkpt>
      <trkpt lat="47.31496" lon="-2.36462">
        <ele>44.799999237061</ele>
        <time>2021-04-22T08:05:07.000Z</time>
      </trkpt>
      <trkpt lat="47.31496" lon="-2.36462">
        <ele>44.799999237061</ele>
        <time>2021-04-22T08:05:08.000Z</time>
      </trkpt>
      <trkpt lat="47.31498" lon="-2.3647">
        <ele>44.799999237061</ele>
        <time>2021-04-22T08:05:12.000Z</time>
      </trkpt>
      <trkpt lat="47.315" lon="-2.36483">
        <ele>44.799999237061</ele>
        <time>2021-04-22T08:05:15.000Z</time>
      </trkpt>
      <trkpt lat="47.315" lon="-2.36503">
        <ele>44.799999237061</ele>
        <time>2021-04-22T08:05:18.000Z</time>
      </trkpt>
      <trkpt lat="47.31502" lon="-2.36509">
        <ele>44.799999237061</ele>
        <time>2021-04-22T08:05:19.000Z</time>
      </trkpt>
      <trkpt lat="47.315" lon="-2.36533">
        <ele>44.799999237061</ele>
        <time>2021-04-22T08:05:23.000Z</time>
      </trkpt>
      <trkpt lat="47.315" lon="-2.36545">
        <ele>44.799999237061</ele>
        <time>2021-04-22T08:05:25.000Z</time>
      </trkpt>
      <trkpt lat="47.31504" lon="-2.36568">
        <ele>44.799999237061</ele>
        <time>2021-04-22T08:05:29.000Z</time>
      </trkpt>
      <trkpt lat="47.31503" lon="-2.36572">
        <ele>44.799999237061</ele>
        <time>2021-04-22T08:05:30.000Z</time>
      </trkpt>
      <trkpt lat="47.31501" lon="-2.36581">
        <ele>44.799999237061</ele>
        <time>2021-04-22T08:05:32.000Z</time>
      </trkpt>
      <trkpt lat="47.31503" lon="-2.36604">
        <ele>44.799999237061</ele>
        <time>2021-04-22T08:05:36.000Z</time>
      </trkpt>
      <trkpt lat="47.31514" lon="-2.3665">
        <ele>44.799999237061</ele>
        <time>2021-04-22T08:05:43.000Z</time>
      </trkpt>
      <trkpt lat="47.31525" lon="-2.367">
        <ele>44.799999237061</ele>
        <time>2021-04-22T08:05:50.000Z</time>
      </trkpt>
      <trkpt lat="47.31536" lon="-2.3674">
        <ele>44.799999237061</ele>
        <time>2021-04-22T08:05:56.000Z</time>
      </trkpt>
      <trkpt lat="47.31537" lon="-2.36754">
        <ele>45.200000762939</ele>
        <time>2021-04-22T08:05:58.000Z</time>
      </trkpt>
      <trkpt lat="47.31538" lon="-2.3676">
        <ele>45.599998474121</ele>
        <time>2021-04-22T08:05:59.000Z</time>
      </trkpt>
      <trkpt lat="47.31541" lon="-2.36766">
        <ele>46</ele>
        <time>2021-04-22T08:06:00.000Z</time>
      </trkpt>
      <trkpt lat="47.31542" lon="-2.36772">
        <ele>46.400001525879</ele>
        <time>2021-04-22T08:06:01.000Z</time>
      </trkpt>
      <trkpt lat="47.31544" lon="-2.36779">
        <ele>46.799999237061</ele>
        <time>2021-04-22T08:06:02.000Z</time>
      </trkpt>
      <trkpt lat="47.31551" lon="-2.36814">
        <ele>46.799999237061</ele>
        <time>2021-04-22T08:06:08.000Z</time>
      </trkpt>
      <trkpt lat="47.31557" lon="-2.36838">
        <ele>47.400001525879</ele>
        <time>2021-04-22T08:06:12.000Z</time>
      </trkpt>
      <trkpt lat="47.31559" lon="-2.36843">
        <ele>47.799999237061</ele>
        <time>2021-04-22T08:06:13.000Z</time>
      </trkpt>
      <trkpt lat="47.31561" lon="-2.36848">
        <ele>48.200000762939</ele>
        <time>2021-04-22T08:06:14.000Z</time>
      </trkpt>
      <trkpt lat="47.31563" lon="-2.36854">
        <ele>49</ele>
        <time>2021-04-22T08:06:15.000Z</time>
      </trkpt>
      <trkpt lat="47.3157" lon="-2.36884">
        <ele>49</ele>
        <time>2021-04-22T08:06:20.000Z</time>
      </trkpt>
      <trkpt lat="47.31572" lon="-2.36891">
        <ele>49.400001525879</ele>
        <time>2021-04-22T08:06:21.000Z</time>
      </trkpt>
      <trkpt lat="47.31574" lon="-2.36897">
        <ele>49.799999237061</ele>
        <time>2021-04-22T08:06:22.000Z</time>
      </trkpt>
      <trkpt lat="47.31575" lon="-2.36903">
        <ele>50.200000762939</ele>
        <time>2021-04-22T08:06:23.000Z</time>
      </trkpt>
      <trkpt lat="47.31576" lon="-2.36909">
        <ele>50.599998474121</ele>
        <time>2021-04-22T08:06:24.000Z</time>
      </trkpt>
      <trkpt lat="47.31578" lon="-2.36914">
        <ele>51</ele>
        <time>2021-04-22T08:06:25.000Z</time>
      </trkpt>
      <trkpt lat="47.31581" lon="-2.36925">
        <ele>51</ele>
        <time>2021-04-22T08:06:27.000Z</time>
      </trkpt>
      <trkpt lat="47.31586" lon="-2.36937">
        <ele>51.400001525879</ele>
        <time>2021-04-22T08:06:29.000Z</time>
      </trkpt>
      <trkpt lat="47.31588" lon="-2.36944">
        <ele>51.799999237061</ele>
        <time>2021-04-22T08:06:30.000Z</time>
      </trkpt>
      <trkpt lat="47.3159" lon="-2.3695">
        <ele>52.200000762939</ele>
        <time>2021-04-22T08:06:31.000Z</time>
      </trkpt>
      <trkpt lat="47.31592" lon="-2.36956">
        <ele>52.599998474121</ele>
        <time>2021-04-22T08:06:32.000Z</time>
      </trkpt>
      <trkpt lat="47.31594" lon="-2.36962">
        <ele>53.200000762939</ele>
        <time>2021-04-22T08:06:33.000Z</time>
      </trkpt>
      <trkpt lat="47.31607" lon="-2.37005">
        <ele>53.599998474121</ele>
        <time>2021-04-22T08:06:40.000Z</time>
      </trkpt>
      <trkpt lat="47.31609" lon="-2.37011">
        <ele>54</ele>
        <time>2021-04-22T08:06:41.000Z</time>
      </trkpt>
      <trkpt lat="47.31611" lon="-2.37016">
        <ele>54.400001525879</ele>
        <time>2021-04-22T08:06:42.000Z</time>
      </trkpt>
      <trkpt lat="47.31613" lon="-2.37021">
        <ele>54.799999237061</ele>
        <time>2021-04-22T08:06:43.000Z</time>
      </trkpt>
      <trkpt lat="47.31615" lon="-2.37027">
        <ele>55.200000762939</ele>
        <time>2021-04-22T08:06:44.000Z</time>
      </trkpt>
      <trkpt lat="47.3162" lon="-2.37037">
        <ele>55.200000762939</ele>
        <time>2021-04-22T08:06:46.000Z</time>
      </trkpt>
      <trkpt lat="47.3163" lon="-2.37065">
        <ele>55.200000762939</ele>
        <time>2021-04-22T08:06:51.000Z</time>
      </trkpt>
      <trkpt lat="47.31646" lon="-2.37099">
        <ele>55.200000762939</ele>
        <time>2021-04-22T08:06:57.000Z</time>
      </trkpt>
      <trkpt lat="47.31652" lon="-2.37108">
        <ele>55.799999237061</ele>
        <time>2021-04-22T08:06:59.000Z</time>
      </trkpt>
      <trkpt lat="47.31655" lon="-2.37113">
        <ele>56.200000762939</ele>
        <time>2021-04-22T08:07:00.000Z</time>
      </trkpt>
      <trkpt lat="47.31657" lon="-2.37118">
        <ele>56.599998474121</ele>
        <time>2021-04-22T08:07:01.000Z</time>
      </trkpt>
      <trkpt lat="47.3166" lon="-2.37123">
        <ele>57</ele>
        <time>2021-04-22T08:07:02.000Z</time>
      </trkpt>
      <trkpt lat="47.31662" lon="-2.37129">
        <ele>57.400001525879</ele>
        <time>2021-04-22T08:07:03.000Z</time>
      </trkpt>
      <trkpt lat="47.3168" lon="-2.37165">
        <ele>57.400001525879</ele>
        <time>2021-04-22T08:07:09.000Z</time>
      </trkpt>
      <trkpt lat="47.3169" lon="-2.37202">
        <ele>57.400001525879</ele>
        <time>2021-04-22T08:07:14.000Z</time>
      </trkpt>
      <trkpt lat="47.31685" lon="-2.37224">
        <ele>57.400001525879</ele>
        <time>2021-04-22T08:07:17.000Z</time>
      </trkpt>
      <trkpt lat="47.31671" lon="-2.37245">
        <ele>57.400001525879</ele>
        <time>2021-04-22T08:07:21.000Z</time>
      </trkpt>
      <trkpt lat="47.31667" lon="-2.3725">
        <ele>57.400001525879</ele>
        <time>2021-04-22T08:07:22.000Z</time>
      </trkpt>
      <trkpt lat="47.31638" lon="-2.37275">
        <ele>57.400001525879</ele>
        <time>2021-04-22T08:07:28.000Z</time>
      </trkpt>
      <trkpt lat="47.31623" lon="-2.37298">
        <ele>57.400001525879</ele>
        <time>2021-04-22T08:07:32.000Z</time>
      </trkpt>
      <trkpt lat="47.31621" lon="-2.37307">
        <ele>57.400001525879</ele>
        <time>2021-04-22T08:07:33.000Z</time>
      </trkpt>
      <trkpt lat="47.31622" lon="-2.37335">
        <ele>57.400001525879</ele>
        <time>2021-04-22T08:07:36.000Z</time>
      </trkpt>
      <trkpt lat="47.31626" lon="-2.37353">
        <ele>57.400001525879</ele>
        <time>2021-04-22T08:07:38.000Z</time>
      </trkpt>
      <trkpt lat="47.31632" lon="-2.3738">
        <ele>57.400001525879</ele>
        <time>2021-04-22T08:07:41.000Z</time>
      </trkpt>
      <trkpt lat="47.31635" lon="-2.37398">
        <ele>57.400001525879</ele>
        <time>2021-04-22T08:07:43.000Z</time>
      </trkpt>
      <trkpt lat="47.31638" lon="-2.37437">
        <ele>57.400001525879</ele>
        <time>2021-04-22T08:07:47.000Z</time>
      </trkpt>
      <trkpt lat="47.31637" lon="-2.37497">
        <ele>57</ele>
        <time>2021-04-22T08:07:53.000Z</time>
      </trkpt>
      <trkpt lat="47.31636" lon="-2.37507">
        <ele>56.599998474121</ele>
        <time>2021-04-22T08:07:54.000Z</time>
      </trkpt>
      <trkpt lat="47.31634" lon="-2.37517">
        <ele>56.200000762939</ele>
        <time>2021-04-22T08:07:55.000Z</time>
      </trkpt>
      <trkpt lat="47.31631" lon="-2.37526">
        <ele>55.799999237061</ele>
        <time>2021-04-22T08:07:56.000Z</time>
      </trkpt>
      <trkpt lat="47.31628" lon="-2.37535">
        <ele>55.400001525879</ele>
        <time>2021-04-22T08:07:57.000Z</time>
      </trkpt>
      <trkpt lat="47.31625" lon="-2.37543">
        <ele>55.400001525879</ele>
        <time>2021-04-22T08:07:58.000Z</time>
      </trkpt>
      <trkpt lat="47.31619" lon="-2.3756">
        <ele>55.400001525879</ele>
        <time>2021-04-22T08:08:00.000Z</time>
      </trkpt>
      <trkpt lat="47.31614" lon="-2.37606">
        <ele>55.400001525879</ele>
        <time>2021-04-22T08:08:05.000Z</time>
      </trkpt>
      <trkpt lat="47.31614" lon="-2.37624">
        <ele>55.400001525879</ele>
        <time>2021-04-22T08:08:07.000Z</time>
      </trkpt>
      <trkpt lat="47.31622" lon="-2.37649">
        <ele>55.400001525879</ele>
        <time>2021-04-22T08:08:10.000Z</time>
      </trkpt>
      <trkpt lat="47.31638" lon="-2.37664">
        <ele>55.400001525879</ele>
        <time>2021-04-22T08:08:13.000Z</time>
      </trkpt>
      <trkpt lat="47.31643" lon="-2.37667">
        <ele>55.400001525879</ele>
        <time>2021-04-22T08:08:14.000Z</time>
      </trkpt>
      <trkpt lat="47.3166" lon="-2.37677">
        <ele>55.400001525879</ele>
        <time>2021-04-22T08:08:17.000Z</time>
      </trkpt>
      <trkpt lat="47.31669" lon="-2.37687">
        <ele>55.400001525879</ele>
        <time>2021-04-22T08:08:19.000Z</time>
      </trkpt>
      <trkpt lat="47.31694" lon="-2.37711">
        <ele>55.400001525879</ele>
        <time>2021-04-22T08:08:24.000Z</time>
      </trkpt>
      <trkpt lat="47.31706" lon="-2.37716">
        <ele>55.400001525879</ele>
        <time>2021-04-22T08:08:26.000Z</time>
      </trkpt>
      <trkpt lat="47.3173" lon="-2.37712">
        <ele>55.400001525879</ele>
        <time>2021-04-22T08:08:30.000Z</time>
      </trkpt>
      <trkpt lat="47.31759" lon="-2.37695">
        <ele>55.400001525879</ele>
        <time>2021-04-22T08:08:35.000Z</time>
      </trkpt>
      <trkpt lat="47.31795" lon="-2.37661">
        <ele>55.400001525879</ele>
        <time>2021-04-22T08:08:42.000Z</time>
      </trkpt>
      <trkpt lat="47.3181" lon="-2.37651">
        <ele>55.400001525879</ele>
        <time>2021-04-22T08:08:45.000Z</time>
      </trkpt>
      <trkpt lat="47.31821" lon="-2.37655">
        <ele>55.400001525879</ele>
        <time>2021-04-22T08:08:47.000Z</time>
      </trkpt>
      <trkpt lat="47.31827" lon="-2.37674">
        <ele>55.400001525879</ele>
        <time>2021-04-22T08:08:50.000Z</time>
      </trkpt>
      <trkpt lat="47.31823" lon="-2.37696">
        <ele>55.400001525879</ele>
        <time>2021-04-22T08:08:53.000Z</time>
      </trkpt>
      <trkpt lat="47.31822" lon="-2.37704">
        <ele>55.400001525879</ele>
        <time>2021-04-22T08:08:54.000Z</time>
      </trkpt>
      <trkpt lat="47.31815" lon="-2.37773">
        <ele>55.400001525879</ele>
        <time>2021-04-22T08:09:02.000Z</time>
      </trkpt>
      <trkpt lat="47.3181" lon="-2.3782">
        <ele>54.400001525879</ele>
        <time>2021-04-22T08:09:07.000Z</time>
      </trkpt>
      <trkpt lat="47.31809" lon="-2.3783">
        <ele>54</ele>
        <time>2021-04-22T08:09:08.000Z</time>
      </trkpt>
      <trkpt lat="47.31808" lon="-2.3784">
        <ele>53.599998474121</ele>
        <time>2021-04-22T08:09:09.000Z</time>
      </trkpt>
      <trkpt lat="47.31807" lon="-2.3785">
        <ele>53.200000762939</ele>
        <time>2021-04-22T08:09:10.000Z</time>
      </trkpt>
      <trkpt lat="47.31799" lon="-2.37923">
        <ele>53.200000762939</ele>
        <time>2021-04-22T08:09:17.000Z</time>
      </trkpt>
      <trkpt lat="47.31797" lon="-2.37954">
        <ele>52.799999237061</ele>
        <time>2021-04-22T08:09:20.000Z</time>
      </trkpt>
      <trkpt lat="47.31797" lon="-2.37965">
        <ele>52.400001525879</ele>
        <time>2021-04-22T08:09:21.000Z</time>
      </trkpt>
      <trkpt lat="47.31796" lon="-2.37975">
        <ele>52</ele>
        <time>2021-04-22T08:09:22.000Z</time>
      </trkpt>
      <trkpt lat="47.31796" lon="-2.37986">
        <ele>51.599998474121</ele>
        <time>2021-04-22T08:09:23.000Z</time>
      </trkpt>
      <trkpt lat="47.31796" lon="-2.37996">
        <ele>51.200000762939</ele>
        <time>2021-04-22T08:09:24.000Z</time>
      </trkpt>
      <trkpt lat="47.31796" lon="-2.38007">
        <ele>51.200000762939</ele>
        <time>2021-04-22T08:09:25.000Z</time>
      </trkpt>
      <trkpt lat="47.31797" lon="-2.3804">
        <ele>50.799999237061</ele>
        <time>2021-04-22T08:09:28.000Z</time>
      </trkpt>
      <trkpt lat="47.31797" lon="-2.3805">
        <ele>50.400001525879</ele>
        <time>2021-04-22T08:09:29.000Z</time>
      </trkpt>
      <trkpt lat="47.31798" lon="-2.38061">
        <ele>49.799999237061</ele>
        <time>2021-04-22T08:09:30.000Z</time>
      </trkpt>
      <trkpt lat="47.31799" lon="-2.38071">
        <ele>49.400001525879</ele>
        <time>2021-04-22T08:09:31.000Z</time>
      </trkpt>
      <trkpt lat="47.318" lon="-2.38081">
        <ele>49</ele>
        <time>2021-04-22T08:09:32.000Z</time>
      </trkpt>
      <trkpt lat="47.31804" lon="-2.38147">
        <ele>49</ele>
        <time>2021-04-22T08:09:39.000Z</time>
      </trkpt>
      <trkpt lat="47.31807" lon="-2.38229">
        <ele>49</ele>
        <time>2021-04-22T08:09:48.000Z</time>
      </trkpt>
      <trkpt lat="47.31807" lon="-2.38238">
        <ele>49</ele>
        <time>2021-04-22T08:09:49.000Z</time>
      </trkpt>
      <trkpt lat="47.31808" lon="-2.38254">
        <ele>49</ele>
        <time>2021-04-22T08:09:51.000Z</time>
      </trkpt>
      <trkpt lat="47.31808" lon="-2.38277">
        <ele>49.599998474121</ele>
        <time>2021-04-22T08:09:54.000Z</time>
      </trkpt>
      <trkpt lat="47.31809" lon="-2.38285">
        <ele>50</ele>
        <time>2021-04-22T08:09:55.000Z</time>
      </trkpt>
      <trkpt lat="47.31809" lon="-2.38294">
        <ele>50.400001525879</ele>
        <time>2021-04-22T08:09:56.000Z</time>
      </trkpt>
      <trkpt lat="47.31809" lon="-2.38302">
        <ele>51.200000762939</ele>
        <time>2021-04-22T08:09:57.000Z</time>
      </trkpt>
      <trkpt lat="47.3181" lon="-2.38344">
        <ele>51.200000762939</ele>
        <time>2021-04-22T08:10:02.000Z</time>
      </trkpt>
      <trkpt lat="47.3181" lon="-2.38352">
        <ele>51.599998474121</ele>
        <time>2021-04-22T08:10:03.000Z</time>
      </trkpt>
      <trkpt lat="47.3181" lon="-2.38361">
        <ele>52</ele>
        <time>2021-04-22T08:10:04.000Z</time>
      </trkpt>
      <trkpt lat="47.3181" lon="-2.3837">
        <ele>52.400001525879</ele>
        <time>2021-04-22T08:10:05.000Z</time>
      </trkpt>
      <trkpt lat="47.3181" lon="-2.38379">
        <ele>53</ele>
        <time>2021-04-22T08:10:06.000Z</time>
      </trkpt>
      <trkpt lat="47.3181" lon="-2.38387">
        <ele>53.400001525879</ele>
        <time>2021-04-22T08:10:07.000Z</time>
      </trkpt>
      <trkpt lat="47.3181" lon="-2.38414">
        <ele>53.400001525879</ele>
        <time>2021-04-22T08:10:10.000Z</time>
      </trkpt>
      <trkpt lat="47.3181" lon="-2.38464">
        <ele>53.799999237061</ele>
        <time>2021-04-22T08:10:16.000Z</time>
      </trkpt>
      <trkpt lat="47.3181" lon="-2.38472">
        <ele>54.200000762939</ele>
        <time>2021-04-22T08:10:17.000Z</time>
      </trkpt>
      <trkpt lat="47.31809" lon="-2.3848">
        <ele>54.599998474121</ele>
        <time>2021-04-22T08:10:18.000Z</time>
      </trkpt>
      <trkpt lat="47.31809" lon="-2.38488">
        <ele>55</ele>
        <time>2021-04-22T08:10:19.000Z</time>
      </trkpt>
      <trkpt lat="47.3181" lon="-2.38495">
        <ele>55.400001525879</ele>
        <time>2021-04-22T08:10:20.000Z</time>
      </trkpt>
      <trkpt lat="47.31809" lon="-2.38525">
        <ele>55.400001525879</ele>
        <time>2021-04-22T08:10:24.000Z</time>
      </trkpt>
      <trkpt lat="47.31807" lon="-2.38533">
        <ele>55.400001525879</ele>
        <time>2021-04-22T08:10:25.000Z</time>
      </trkpt>
      <trkpt lat="47.31799" lon="-2.38543">
        <ele>55.400001525879</ele>
        <time>2021-04-22T08:10:27.000Z</time>
      </trkpt>
      <trkpt lat="47.31778" lon="-2.38554">
        <ele>55.400001525879</ele>
        <time>2021-04-22T08:10:31.000Z</time>
      </trkpt>
      <trkpt lat="47.31749" lon="-2.38571">
        <ele>55.400001525879</ele>
        <time>2021-04-22T08:10:36.000Z</time>
      </trkpt>
      <trkpt lat="47.31725" lon="-2.38584">
        <ele>55.799999237061</ele>
        <time>2021-04-22T08:10:40.000Z</time>
      </trkpt>
      <trkpt lat="47.31719" lon="-2.38586">
        <ele>56.200000762939</ele>
        <time>2021-04-22T08:10:41.000Z</time>
      </trkpt>
      <trkpt lat="47.31714" lon="-2.38589">
        <ele>56.599998474121</ele>
        <time>2021-04-22T08:10:42.000Z</time>
      </trkpt>
      <trkpt lat="47.31708" lon="-2.38593">
        <ele>57</ele>
        <time>2021-04-22T08:10:43.000Z</time>
      </trkpt>
      <trkpt lat="47.31702" lon="-2.38596">
        <ele>57.400001525879</ele>
        <time>2021-04-22T08:10:44.000Z</time>
      </trkpt>
      <trkpt lat="47.31663" lon="-2.38622">
        <ele>57.400001525879</ele>
        <time>2021-04-22T08:10:51.000Z</time>
      </trkpt>
      <trkpt lat="47.31629" lon="-2.38661">
        <ele>57.400001525879</ele>
        <time>2021-04-22T08:10:58.000Z</time>
      </trkpt>
      <trkpt lat="47.31598" lon="-2.38707">
        <ele>57.400001525879</ele>
        <time>2021-04-22T08:11:05.000Z</time>
      </trkpt>
      <trkpt lat="47.31568" lon="-2.38754">
        <ele>57.400001525879</ele>
        <time>2021-04-22T08:11:12.000Z</time>
      </trkpt>
      <trkpt lat="47.31541" lon="-2.38799">
        <ele>57.400001525879</ele>
        <time>2021-04-22T08:11:19.000Z</time>
      </trkpt>
      <trkpt lat="47.31513" lon="-2.3885">
        <ele>57.400001525879</ele>
        <time>2021-04-22T08:11:27.000Z</time>
      </trkpt>
      <trkpt lat="47.31481" lon="-2.38908">
        <ele>57.400001525879</ele>
        <time>2021-04-22T08:11:35.000Z</time>
      </trkpt>
      <trkpt lat="47.31448" lon="-2.38974">
        <ele>57.400001525879</ele>
        <time>2021-04-22T08:11:44.000Z</time>
      </trkpt>
      <trkpt lat="47.31429" lon="-2.3902">
        <ele>57.400001525879</ele>
        <time>2021-04-22T08:11:50.000Z</time>
      </trkpt>
      <trkpt lat="47.31427" lon="-2.39029">
        <ele>57.400001525879</ele>
        <time>2021-04-22T08:11:51.000Z</time>
      </trkpt>
      <trkpt lat="47.31411" lon="-2.39058">
        <ele>57.400001525879</ele>
        <time>2021-04-22T08:11:55.000Z</time>
      </trkpt>
      <trkpt lat="47.31406" lon="-2.39065">
        <ele>58</ele>
        <time>2021-04-22T08:11:56.000Z</time>
      </trkpt>
      <trkpt lat="47.31401" lon="-2.39072">
        <ele>58.400001525879</ele>
        <time>2021-04-22T08:11:57.000Z</time>
      </trkpt>
      <trkpt lat="47.31397" lon="-2.39078">
        <ele>58.799999237061</ele>
        <time>2021-04-22T08:11:58.000Z</time>
      </trkpt>
      <trkpt lat="47.31392" lon="-2.39084">
        <ele>59.200000762939</ele>
        <time>2021-04-22T08:11:59.000Z</time>
      </trkpt>
      <trkpt lat="47.31388" lon="-2.39091">
        <ele>59.799999237061</ele>
        <time>2021-04-22T08:12:00.000Z</time>
      </trkpt>
      <trkpt lat="47.31373" lon="-2.39108">
        <ele>60.200000762939</ele>
        <time>2021-04-22T08:12:03.000Z</time>
      </trkpt>
      <trkpt lat="47.31367" lon="-2.39113">
        <ele>60.599998474121</ele>
        <time>2021-04-22T08:12:04.000Z</time>
      </trkpt>
      <trkpt lat="47.31362" lon="-2.39119">
        <ele>61</ele>
        <time>2021-04-22T08:12:05.000Z</time>
      </trkpt>
      <trkpt lat="47.31356" lon="-2.39124">
        <ele>61.400001525879</ele>
        <time>2021-04-22T08:12:06.000Z</time>
      </trkpt>
      <trkpt lat="47.31351" lon="-2.3913">
        <ele>61.799999237061</ele>
        <time>2021-04-22T08:12:07.000Z</time>
      </trkpt>
      <trkpt lat="47.31331" lon="-2.39151">
        <ele>61.799999237061</ele>
        <time>2021-04-22T08:12:11.000Z</time>
      </trkpt>
      <trkpt lat="47.31295" lon="-2.39189">
        <ele>61.799999237061</ele>
        <time>2021-04-22T08:12:18.000Z</time>
      </trkpt>
      <trkpt lat="47.31269" lon="-2.39224">
        <ele>61.799999237061</ele>
        <time>2021-04-22T08:12:24.000Z</time>
      </trkpt>
      <trkpt lat="47.31236" lon="-2.39273">
        <ele>61.799999237061</ele>
        <time>2021-04-22T08:12:32.000Z</time>
      </trkpt>
      <trkpt lat="47.3122" lon="-2.3929">
        <ele>61.799999237061</ele>
        <time>2021-04-22T08:12:35.000Z</time>
      </trkpt>
      <trkpt lat="47.31208" lon="-2.39301">
        <ele>61.799999237061</ele>
        <time>2021-04-22T08:12:37.000Z</time>
      </trkpt>
      <trkpt lat="47.31164" lon="-2.39333">
        <ele>61.799999237061</ele>
        <time>2021-04-22T08:12:44.000Z</time>
      </trkpt>
      <trkpt lat="47.31139" lon="-2.39353">
        <ele>61.200000762939</ele>
        <time>2021-04-22T08:12:48.000Z</time>
      </trkpt>
      <trkpt lat="47.31134" lon="-2.39358">
        <ele>60.799999237061</ele>
        <time>2021-04-22T08:12:49.000Z</time>
      </trkpt>
      <trkpt lat="47.31129" lon="-2.39364">
        <ele>59.799999237061</ele>
        <time>2021-04-22T08:12:50.000Z</time>
      </trkpt>
      <trkpt lat="47.31124" lon="-2.3937">
        <ele>59.400001525879</ele>
        <time>2021-04-22T08:12:51.000Z</time>
      </trkpt>
      <trkpt lat="47.31109" lon="-2.39388">
        <ele>59.400001525879</ele>
        <time>2021-04-22T08:12:54.000Z</time>
      </trkpt>
      <trkpt lat="47.31094" lon="-2.39407">
        <ele>59.400001525879</ele>
        <time>2021-04-22T08:12:57.000Z</time>
      </trkpt>
      <trkpt lat="47.31071" lon="-2.3944">
        <ele>59</ele>
        <time>2021-04-22T08:13:02.000Z</time>
      </trkpt>
      <trkpt lat="47.31065" lon="-2.39446">
        <ele>58.599998474121</ele>
        <time>2021-04-22T08:13:03.000Z</time>
      </trkpt>
      <trkpt lat="47.3106" lon="-2.39452">
        <ele>58.200000762939</ele>
        <time>2021-04-22T08:13:04.000Z</time>
      </trkpt>
      <trkpt lat="47.31055" lon="-2.39457">
        <ele>57.799999237061</ele>
        <time>2021-04-22T08:13:05.000Z</time>
      </trkpt>
      <trkpt lat="47.3105" lon="-2.39462">
        <ele>57.400001525879</ele>
        <time>2021-04-22T08:13:06.000Z</time>
      </trkpt>
      <trkpt lat="47.31047" lon="-2.3947">
        <ele>57.400001525879</ele>
        <time>2021-04-22T08:13:07.000Z</time>
      </trkpt>
      <trkpt lat="47.31046" lon="-2.3948">
        <ele>57.400001525879</ele>
        <time>2021-04-22T08:13:08.000Z</time>
      </trkpt>
      <trkpt lat="47.31054" lon="-2.39504">
        <ele>57.400001525879</ele>
        <time>2021-04-22T08:13:11.000Z</time>
      </trkpt>
      <trkpt lat="47.3107" lon="-2.39552">
        <ele>57.400001525879</ele>
        <time>2021-04-22T08:13:17.000Z</time>
      </trkpt>
      <trkpt lat="47.31073" lon="-2.3956">
        <ele>57.400001525879</ele>
        <time>2021-04-22T08:13:18.000Z</time>
      </trkpt>
      <trkpt lat="47.31087" lon="-2.39601">
        <ele>57.799999237061</ele>
        <time>2021-04-22T08:13:23.000Z</time>
      </trkpt>
      <trkpt lat="47.3109" lon="-2.39609">
        <ele>58.200000762939</ele>
        <time>2021-04-22T08:13:24.000Z</time>
      </trkpt>
      <trkpt lat="47.31093" lon="-2.39617">
        <ele>58.599998474121</ele>
        <time>2021-04-22T08:13:25.000Z</time>
      </trkpt>
      <trkpt lat="47.31095" lon="-2.39624">
        <ele>59</ele>
        <time>2021-04-22T08:13:26.000Z</time>
      </trkpt>
      <trkpt lat="47.31098" lon="-2.39632">
        <ele>59.400001525879</ele>
        <time>2021-04-22T08:13:27.000Z</time>
      </trkpt>
      <trkpt lat="47.31108" lon="-2.39662">
        <ele>59.400001525879</ele>
        <time>2021-04-22T08:13:31.000Z</time>
      </trkpt>
      <trkpt lat="47.31131" lon="-2.39725">
        <ele>59.400001525879</ele>
        <time>2021-04-22T08:13:39.000Z</time>
      </trkpt>
      <trkpt lat="47.31152" lon="-2.39788">
        <ele>59.400001525879</ele>
        <time>2021-04-22T08:13:46.000Z</time>
      </trkpt>
      <trkpt lat="47.3116" lon="-2.39816">
        <ele>59</ele>
        <time>2021-04-22T08:13:49.000Z</time>
      </trkpt>
      <trkpt lat="47.31164" lon="-2.39825">
        <ele>58.599998474121</ele>
        <time>2021-04-22T08:13:50.000Z</time>
      </trkpt>
      <trkpt lat="47.31168" lon="-2.39833">
        <ele>58.200000762939</ele>
        <time>2021-04-22T08:13:51.000Z</time>
      </trkpt>
      <trkpt lat="47.31172" lon="-2.3984">
        <ele>57.799999237061</ele>
        <time>2021-04-22T08:13:52.000Z</time>
      </trkpt>
      <trkpt lat="47.31175" lon="-2.39847">
        <ele>57.400001525879</ele>
        <time>2021-04-22T08:13:53.000Z</time>
      </trkpt>
      <trkpt lat="47.3118" lon="-2.39862">
        <ele>57.400001525879</ele>
        <time>2021-04-22T08:13:55.000Z</time>
      </trkpt>
      <trkpt lat="47.31182" lon="-2.3987">
        <ele>57.400001525879</ele>
        <time>2021-04-22T08:13:56.000Z</time>
      </trkpt>
      <trkpt lat="47.31187" lon="-2.3989">
        <ele>57.400001525879</ele>
        <time>2021-04-22T08:14:00.000Z</time>
      </trkpt>
      <trkpt lat="47.31193" lon="-2.39912">
        <ele>57</ele>
        <time>2021-04-22T08:14:04.000Z</time>
      </trkpt>
      <trkpt lat="47.31195" lon="-2.39916">
        <ele>56.400001525879</ele>
        <time>2021-04-22T08:14:05.000Z</time>
      </trkpt>
      <trkpt lat="47.31197" lon="-2.39921">
        <ele>56</ele>
        <time>2021-04-22T08:14:06.000Z</time>
      </trkpt>
      <trkpt lat="47.312" lon="-2.39925">
        <ele>55.599998474121</ele>
        <time>2021-04-22T08:14:07.000Z</time>
      </trkpt>
      <trkpt lat="47.31202" lon="-2.3993">
        <ele>55.200000762939</ele>
        <time>2021-04-22T08:14:08.000Z</time>
      </trkpt>
      <trkpt lat="47.31211" lon="-2.39951">
        <ele>55.200000762939</ele>
        <time>2021-04-22T08:14:12.000Z</time>
      </trkpt>
      <trkpt lat="47.3122" lon="-2.39971">
        <ele>55.200000762939</ele>
        <time>2021-04-22T08:14:16.000Z</time>
      </trkpt>
      <trkpt lat="47.31223" lon="-2.39977">
        <ele>54.799999237061</ele>
        <time>2021-04-22T08:14:17.000Z</time>
      </trkpt>
      <trkpt lat="47.31226" lon="-2.39983">
        <ele>54.400001525879</ele>
        <time>2021-04-22T08:14:18.000Z</time>
      </trkpt>
      <trkpt lat="47.31228" lon="-2.3999">
        <ele>54</ele>
        <time>2021-04-22T08:14:19.000Z</time>
      </trkpt>
      <trkpt lat="47.3123" lon="-2.39997">
        <ele>53.400001525879</ele>
        <time>2021-04-22T08:14:20.000Z</time>
      </trkpt>
      <trkpt lat="47.31232" lon="-2.40003">
        <ele>53</ele>
        <time>2021-04-22T08:14:21.000Z</time>
      </trkpt>
      <trkpt lat="47.31234" lon="-2.40016">
        <ele>53</ele>
        <time>2021-04-22T08:14:23.000Z</time>
      </trkpt>
      <trkpt lat="47.31236" lon="-2.40023">
        <ele>52.599998474121</ele>
        <time>2021-04-22T08:14:24.000Z</time>
      </trkpt>
      <trkpt lat="47.31237" lon="-2.40029">
        <ele>52.200000762939</ele>
        <time>2021-04-22T08:14:25.000Z</time>
      </trkpt>
      <trkpt lat="47.31237" lon="-2.40035">
        <ele>51.599998474121</ele>
        <time>2021-04-22T08:14:26.000Z</time>
      </trkpt>
      <trkpt lat="47.31239" lon="-2.4004">
        <ele>51.200000762939</ele>
        <time>2021-04-22T08:14:27.000Z</time>
      </trkpt>
      <trkpt lat="47.31241" lon="-2.40043">
        <ele>50.799999237061</ele>
        <time>2021-04-22T08:14:28.000Z</time>
      </trkpt>
      <trkpt lat="47.31243" lon="-2.40044">
        <ele>50.799999237061</ele>
        <time>2021-04-22T08:14:29.000Z</time>
      </trkpt>
      <trkpt lat="47.31246" lon="-2.40042">
        <ele>50.799999237061</ele>
        <time>2021-04-22T08:14:31.000Z</time>
      </trkpt>
      <trkpt lat="47.3125" lon="-2.40046">
        <ele>50.799999237061</ele>
        <time>2021-04-22T08:14:34.000Z</time>
      </trkpt>
      <trkpt lat="47.31255" lon="-2.40049">
        <ele>50.799999237061</ele>
        <time>2021-04-22T08:14:36.000Z</time>
      </trkpt>
      <trkpt lat="47.31271" lon="-2.40054">
        <ele>50.799999237061</ele>
        <time>2021-04-22T08:14:39.000Z</time>
      </trkpt>
      <trkpt lat="47.31292" lon="-2.40062">
        <ele>50.799999237061</ele>
        <time>2021-04-22T08:14:44.000Z</time>
      </trkpt>
      <trkpt lat="47.31319" lon="-2.40072">
        <ele>50.799999237061</ele>
        <time>2021-04-22T08:14:50.000Z</time>
      </trkpt>
      <trkpt lat="47.31354" lon="-2.40091">
        <ele>50.799999237061</ele>
        <time>2021-04-22T08:14:57.000Z</time>
      </trkpt>
      <trkpt lat="47.31385" lon="-2.40108">
        <ele>50.799999237061</ele>
        <time>2021-04-22T08:15:04.000Z</time>
      </trkpt>
      <trkpt lat="47.31416" lon="-2.40127">
        <ele>50.799999237061</ele>
        <time>2021-04-22T08:15:11.000Z</time>
      </trkpt>
      <trkpt lat="47.31443" lon="-2.4015">
        <ele>50.799999237061</ele>
        <time>2021-04-22T08:15:17.000Z</time>
      </trkpt>
      <trkpt lat="47.31447" lon="-2.40155">
        <ele>50.799999237061</ele>
        <time>2021-04-22T08:15:18.000Z</time>
      </trkpt>
      <trkpt lat="47.31454" lon="-2.4016">
        <ele>51.599998474121</ele>
        <time>2021-04-22T08:15:20.000Z</time>
      </trkpt>
      <trkpt lat="47.31458" lon="-2.40163">
        <ele>52</ele>
        <time>2021-04-22T08:15:21.000Z</time>
      </trkpt>
      <trkpt lat="47.31462" lon="-2.40165">
        <ele>52.400001525879</ele>
        <time>2021-04-22T08:15:22.000Z</time>
      </trkpt>
      <trkpt lat="47.31466" lon="-2.40169">
        <ele>52.799999237061</ele>
        <time>2021-04-22T08:15:23.000Z</time>
      </trkpt>
      <trkpt lat="47.31497" lon="-2.40187">
        <ele>52.799999237061</ele>
        <time>2021-04-22T08:15:31.000Z</time>
      </trkpt>
      <trkpt lat="47.31518" lon="-2.40204">
        <ele>53.200000762939</ele>
        <time>2021-04-22T08:15:36.000Z</time>
      </trkpt>
      <trkpt lat="47.31522" lon="-2.40208">
        <ele>53.599998474121</ele>
        <time>2021-04-22T08:15:37.000Z</time>
      </trkpt>
      <trkpt lat="47.31526" lon="-2.40211">
        <ele>54</ele>
        <time>2021-04-22T08:15:38.000Z</time>
      </trkpt>
      <trkpt lat="47.3153" lon="-2.40214">
        <ele>54.400001525879</ele>
        <time>2021-04-22T08:15:39.000Z</time>
      </trkpt>
      <trkpt lat="47.31534" lon="-2.40217">
        <ele>55</ele>
        <time>2021-04-22T08:15:40.000Z</time>
      </trkpt>
      <trkpt lat="47.3156" lon="-2.40236">
        <ele>55</ele>
        <time>2021-04-22T08:15:46.000Z</time>
      </trkpt>
      <trkpt lat="47.31601" lon="-2.40267">
        <ele>55</ele>
        <time>2021-04-22T08:15:54.000Z</time>
      </trkpt>
      <trkpt lat="47.3163" lon="-2.40288">
        <ele>55.400001525879</ele>
        <time>2021-04-22T08:16:01.000Z</time>
      </trkpt>
      <trkpt lat="47.31635" lon="-2.40293">
        <ele>55.799999237061</ele>
        <time>2021-04-22T08:16:02.000Z</time>
      </trkpt>
      <trkpt lat="47.31638" lon="-2.40296">
        <ele>56.200000762939</ele>
        <time>2021-04-22T08:16:03.000Z</time>
      </trkpt>
      <trkpt lat="47.31642" lon="-2.40299">
        <ele>56.599998474121</ele>
        <time>2021-04-22T08:16:04.000Z</time>
      </trkpt>
      <trkpt lat="47.31645" lon="-2.40301">
        <ele>57</ele>
        <time>2021-04-22T08:16:05.000Z</time>
      </trkpt>
      <trkpt lat="47.31661" lon="-2.40314">
        <ele>57</ele>
        <time>2021-04-22T08:16:09.000Z</time>
      </trkpt>
      <trkpt lat="47.31676" lon="-2.40328">
        <ele>57</ele>
        <time>2021-04-22T08:16:14.000Z</time>
      </trkpt>
      <trkpt lat="47.3168" lon="-2.40327">
        <ele>57</ele>
        <time>2021-04-22T08:16:15.000Z</time>
      </trkpt>
      <trkpt lat="47.31686" lon="-2.4032">
        <ele>57</ele>
        <time>2021-04-22T08:16:17.000Z</time>
      </trkpt>
      <trkpt lat="47.31687" lon="-2.40317">
        <ele>57.400001525879</ele>
        <time>2021-04-22T08:16:18.000Z</time>
      </trkpt>
      <trkpt lat="47.31688" lon="-2.40314">
        <ele>57.799999237061</ele>
        <time>2021-04-22T08:16:19.000Z</time>
      </trkpt>
      <trkpt lat="47.31689" lon="-2.40311">
        <ele>58.200000762939</ele>
        <time>2021-04-22T08:16:20.000Z</time>
      </trkpt>
      <trkpt lat="47.31691" lon="-2.40309">
        <ele>58.599998474121</ele>
        <time>2021-04-22T08:16:21.000Z</time>
      </trkpt>
      <trkpt lat="47.31692" lon="-2.40308">
        <ele>59</ele>
        <time>2021-04-22T08:16:22.000Z</time>
      </trkpt>
      <trkpt lat="47.31694" lon="-2.40309">
        <ele>59</ele>
        <time>2021-04-22T08:16:24.000Z</time>
      </trkpt>
      <trkpt lat="47.31695" lon="-2.40309">
        <ele>59</ele>
        <time>2021-04-22T08:16:26.000Z</time>
      </trkpt>
      <trkpt lat="47.31698" lon="-2.40305">
        <ele>59</ele>
        <time>2021-04-22T08:17:40.000Z</time>
      </trkpt>
      <trkpt lat="47.317" lon="-2.40301">
        <ele>59</ele>
        <time>2021-04-22T08:17:42.000Z</time>
      </trkpt>
      <trkpt lat="47.31709" lon="-2.40287">
        <ele>59</ele>
        <time>2021-04-22T08:17:47.000Z</time>
      </trkpt>
      <trkpt lat="47.31727" lon="-2.40263">
        <ele>59</ele>
        <time>2021-04-22T08:17:53.000Z</time>
      </trkpt>
      <trkpt lat="47.31747" lon="-2.40219">
        <ele>59</ele>
        <time>2021-04-22T08:18:01.000Z</time>
      </trkpt>
      <trkpt lat="47.31764" lon="-2.40182">
        <ele>59</ele>
        <time>2021-04-22T08:18:07.000Z</time>
      </trkpt>
      <trkpt lat="47.3177" lon="-2.40169">
        <ele>59</ele>
        <time>2021-04-22T08:18:09.000Z</time>
      </trkpt>
      <trkpt lat="47.31785" lon="-2.40144">
        <ele>59</ele>
        <time>2021-04-22T08:18:13.000Z</time>
      </trkpt>
      <trkpt lat="47.31812" lon="-2.40107">
        <ele>59</ele>
        <time>2021-04-22T08:18:19.000Z</time>
      </trkpt>
      <trkpt lat="47.31837" lon="-2.4007">
        <ele>59</ele>
        <time>2021-04-22T08:18:25.000Z</time>
      </trkpt>
      <trkpt lat="47.31871" lon="-2.40018">
        <ele>59</ele>
        <time>2021-04-22T08:18:33.000Z</time>
      </trkpt>
      <trkpt lat="47.31897" lon="-2.39977">
        <ele>59</ele>
        <time>2021-04-22T08:18:39.000Z</time>
      </trkpt>
      <trkpt lat="47.31921" lon="-2.39944">
        <ele>59</ele>
        <time>2021-04-22T08:18:45.000Z</time>
      </trkpt>
      <trkpt lat="47.31947" lon="-2.3992">
        <ele>59.599998474121</ele>
        <time>2021-04-22T08:18:50.000Z</time>
      </trkpt>
      <trkpt lat="47.31953" lon="-2.39915">
        <ele>60</ele>
        <time>2021-04-22T08:18:51.000Z</time>
      </trkpt>
      <trkpt lat="47.31959" lon="-2.3991">
        <ele>60.400001525879</ele>
        <time>2021-04-22T08:18:52.000Z</time>
      </trkpt>
      <trkpt lat="47.31966" lon="-2.39904">
        <ele>60.799999237061</ele>
        <time>2021-04-22T08:18:53.000Z</time>
      </trkpt>
      <trkpt lat="47.31972" lon="-2.39899">
        <ele>61.200000762939</ele>
        <time>2021-04-22T08:18:54.000Z</time>
      </trkpt>
      <trkpt lat="47.31989" lon="-2.39893">
        <ele>61.200000762939</ele>
        <time>2021-04-22T08:18:56.000Z</time>
      </trkpt>
      <trkpt lat="47.32008" lon="-2.39881">
        <ele>61.599998474121</ele>
        <time>2021-04-22T08:18:59.000Z</time>
      </trkpt>
      <trkpt lat="47.32013" lon="-2.39877">
        <ele>62</ele>
        <time>2021-04-22T08:19:00.000Z</time>
      </trkpt>
      <trkpt lat="47.32019" lon="-2.39873">
        <ele>62.400001525879</ele>
        <time>2021-04-22T08:19:01.000Z</time>
      </trkpt>
      <trkpt lat="47.32025" lon="-2.39868">
        <ele>63.200000762939</ele>
        <time>2021-04-22T08:19:02.000Z</time>
      </trkpt>
      <trkpt lat="47.3205" lon="-2.39847">
        <ele>63.200000762939</ele>
        <time>2021-04-22T08:19:07.000Z</time>
      </trkpt>
      <trkpt lat="47.32055" lon="-2.39842">
        <ele>63.200000762939</ele>
        <time>2021-04-22T08:19:08.000Z</time>
      </trkpt>
      <trkpt lat="47.32082" lon="-2.39819">
        <ele>63.200000762939</ele>
        <time>2021-04-22T08:19:14.000Z</time>
      </trkpt>
      <trkpt lat="47.32084" lon="-2.39813">
        <ele>63.599998474121</ele>
        <time>2021-04-22T08:19:15.000Z</time>
      </trkpt>
      <trkpt lat="47.32086" lon="-2.39806">
        <ele>64</ele>
        <time>2021-04-22T08:19:16.000Z</time>
      </trkpt>
      <trkpt lat="47.32085" lon="-2.398">
        <ele>64.599998474121</ele>
        <time>2021-04-22T08:19:17.000Z</time>
      </trkpt>
      <trkpt lat="47.32084" lon="-2.39793">
        <ele>65</ele>
        <time>2021-04-22T08:19:18.000Z</time>
      </trkpt>
      <trkpt lat="47.32083" lon="-2.39787">
        <ele>65.400001525879</ele>
        <time>2021-04-22T08:19:19.000Z</time>
      </trkpt>
      <trkpt lat="47.32076" lon="-2.39758">
        <ele>65.400001525879</ele>
        <time>2021-04-22T08:19:23.000Z</time>
      </trkpt>
      <trkpt lat="47.32059" lon="-2.39698">
        <ele>65.400001525879</ele>
        <time>2021-04-22T08:19:30.000Z</time>
      </trkpt>
      <trkpt lat="47.32049" lon="-2.39662">
        <ele>65.400001525879</ele>
        <time>2021-04-22T08:19:34.000Z</time>
      </trkpt>
      <trkpt lat="47.32044" lon="-2.39645">
        <ele>65.400001525879</ele>
        <time>2021-04-22T08:19:36.000Z</time>
      </trkpt>
      <trkpt lat="47.32028" lon="-2.39577">
        <ele>65.400001525879</ele>
        <time>2021-04-22T08:19:43.000Z</time>
      </trkpt>
      <trkpt lat="47.32024" lon="-2.39557">
        <ele>64.800003051758</ele>
        <time>2021-04-22T08:19:45.000Z</time>
      </trkpt>
      <trkpt lat="47.32021" lon="-2.39547">
        <ele>64.400001525879</ele>
        <time>2021-04-22T08:19:46.000Z</time>
      </trkpt>
      <trkpt lat="47.32019" lon="-2.39537">
        <ele>64</ele>
        <time>2021-04-22T08:19:47.000Z</time>
      </trkpt>
      <trkpt lat="47.32017" lon="-2.39527">
        <ele>63.599998474121</ele>
        <time>2021-04-22T08:19:48.000Z</time>
      </trkpt>
      <trkpt lat="47.32014" lon="-2.39517">
        <ele>63.200000762939</ele>
        <time>2021-04-22T08:19:49.000Z</time>
      </trkpt>
      <trkpt lat="47.32008" lon="-2.39489">
        <ele>63.200000762939</ele>
        <time>2021-04-22T08:19:52.000Z</time>
      </trkpt>
      <trkpt lat="47.31995" lon="-2.39433">
        <ele>63.200000762939</ele>
        <time>2021-04-22T08:19:58.000Z</time>
      </trkpt>
      <trkpt lat="47.31979" lon="-2.39354">
        <ele>63.200000762939</ele>
        <time>2021-04-22T08:20:06.000Z</time>
      </trkpt>
      <trkpt lat="47.31973" lon="-2.39333">
        <ele>62.799999237061</ele>
        <time>2021-04-22T08:20:08.000Z</time>
      </trkpt>
      <trkpt lat="47.31971" lon="-2.39322">
        <ele>62.400001525879</ele>
        <time>2021-04-22T08:20:09.000Z</time>
      </trkpt>
      <trkpt lat="47.31968" lon="-2.39312">
        <ele>62</ele>
        <time>2021-04-22T08:20:10.000Z</time>
      </trkpt>
      <trkpt lat="47.31965" lon="-2.39302">
        <ele>61.599998474121</ele>
        <time>2021-04-22T08:20:11.000Z</time>
      </trkpt>
      <trkpt lat="47.31963" lon="-2.39292">
        <ele>61.200000762939</ele>
        <time>2021-04-22T08:20:12.000Z</time>
      </trkpt>
      <trkpt lat="47.3196" lon="-2.39282">
        <ele>61.200000762939</ele>
        <time>2021-04-22T08:20:13.000Z</time>
      </trkpt>
      <trkpt lat="47.31941" lon="-2.39219">
        <ele>60.799999237061</ele>
        <time>2021-04-22T08:20:19.000Z</time>
      </trkpt>
      <trkpt lat="47.31938" lon="-2.39208">
        <ele>60.400001525879</ele>
        <time>2021-04-22T08:20:20.000Z</time>
      </trkpt>
      <trkpt lat="47.31936" lon="-2.39198">
        <ele>60</ele>
        <time>2021-04-22T08:20:21.000Z</time>
      </trkpt>
      <trkpt lat="47.31933" lon="-2.39189">
        <ele>59.400001525879</ele>
        <time>2021-04-22T08:20:22.000Z</time>
      </trkpt>
      <trkpt lat="47.3193" lon="-2.39179">
        <ele>59</ele>
        <time>2021-04-22T08:20:23.000Z</time>
      </trkpt>
      <trkpt lat="47.31918" lon="-2.39141">
        <ele>59</ele>
        <time>2021-04-22T08:20:27.000Z</time>
      </trkpt>
      <trkpt lat="47.31897" lon="-2.39076">
        <ele>59</ele>
        <time>2021-04-22T08:20:34.000Z</time>
      </trkpt>
      <trkpt lat="47.31892" lon="-2.39057">
        <ele>58.599998474121</ele>
        <time>2021-04-22T08:20:36.000Z</time>
      </trkpt>
      <trkpt lat="47.31889" lon="-2.39048">
        <ele>58.200000762939</ele>
        <time>2021-04-22T08:20:37.000Z</time>
      </trkpt>
      <trkpt lat="47.31886" lon="-2.39038">
        <ele>57.799999237061</ele>
        <time>2021-04-22T08:20:38.000Z</time>
      </trkpt>
      <trkpt lat="47.31883" lon="-2.39029">
        <ele>57.400001525879</ele>
        <time>2021-04-22T08:20:39.000Z</time>
      </trkpt>
      <trkpt lat="47.3188" lon="-2.3902">
        <ele>57</ele>
        <time>2021-04-22T08:20:40.000Z</time>
      </trkpt>
      <trkpt lat="47.31871" lon="-2.38993">
        <ele>57</ele>
        <time>2021-04-22T08:20:43.000Z</time>
      </trkpt>
      <trkpt lat="47.31858" lon="-2.3896">
        <ele>57</ele>
        <time>2021-04-22T08:20:47.000Z</time>
      </trkpt>
      <trkpt lat="47.31851" lon="-2.38936">
        <ele>57</ele>
        <time>2021-04-22T08:20:50.000Z</time>
      </trkpt>
      <trkpt lat="47.31834" lon="-2.38869">
        <ele>57</ele>
        <time>2021-04-22T08:20:58.000Z</time>
      </trkpt>
      <trkpt lat="47.31821" lon="-2.38807">
        <ele>57</ele>
        <time>2021-04-22T08:21:05.000Z</time>
      </trkpt>
      <trkpt lat="47.3182" lon="-2.3876">
        <ele>57</ele>
        <time>2021-04-22T08:21:10.000Z</time>
      </trkpt>
      <trkpt lat="47.31818" lon="-2.38698">
        <ele>57</ele>
        <time>2021-04-22T08:21:17.000Z</time>
      </trkpt>
      <trkpt lat="47.31813" lon="-2.3864">
        <ele>57</ele>
        <time>2021-04-22T08:21:24.000Z</time>
      </trkpt>
      <trkpt lat="47.31811" lon="-2.38605">
        <ele>57.400001525879</ele>
        <time>2021-04-22T08:21:28.000Z</time>
      </trkpt>
      <trkpt lat="47.3181" lon="-2.38596">
        <ele>57.799999237061</ele>
        <time>2021-04-22T08:21:29.000Z</time>
      </trkpt>
      <trkpt lat="47.3181" lon="-2.38588">
        <ele>58.200000762939</ele>
        <time>2021-04-22T08:21:30.000Z</time>
      </trkpt>
      <trkpt lat="47.3181" lon="-2.3858">
        <ele>58.599998474121</ele>
        <time>2021-04-22T08:21:31.000Z</time>
      </trkpt>
      <trkpt lat="47.31809" lon="-2.38572">
        <ele>59</ele>
        <time>2021-04-22T08:21:32.000Z</time>
      </trkpt>
      <trkpt lat="47.31809" lon="-2.3855">
        <ele>59</ele>
        <time>2021-04-22T08:21:35.000Z</time>
      </trkpt>
      <trkpt lat="47.3181" lon="-2.38545">
        <ele>59</ele>
        <time>2021-04-22T08:21:36.000Z</time>
      </trkpt>
      <trkpt lat="47.3182" lon="-2.38536">
        <ele>59</ele>
        <time>2021-04-22T08:21:39.000Z</time>
      </trkpt>
      <trkpt lat="47.31831" lon="-2.38533">
        <ele>59</ele>
        <time>2021-04-22T08:21:41.000Z</time>
      </trkpt>
      <trkpt lat="47.31847" lon="-2.38528">
        <ele>58.599998474121</ele>
        <time>2021-04-22T08:21:44.000Z</time>
      </trkpt>
      <trkpt lat="47.31853" lon="-2.38525">
        <ele>58.200000762939</ele>
        <time>2021-04-22T08:21:45.000Z</time>
      </trkpt>
      <trkpt lat="47.31858" lon="-2.38523">
        <ele>57.799999237061</ele>
        <time>2021-04-22T08:21:46.000Z</time>
      </trkpt>
      <trkpt lat="47.31864" lon="-2.3852">
        <ele>57.400001525879</ele>
        <time>2021-04-22T08:21:47.000Z</time>
      </trkpt>
      <trkpt lat="47.3187" lon="-2.38517">
        <ele>57</ele>
        <time>2021-04-22T08:21:48.000Z</time>
      </trkpt>
      <trkpt lat="47.31889" lon="-2.38509">
        <ele>56.599998474121</ele>
        <time>2021-04-22T08:21:51.000Z</time>
      </trkpt>
      <trkpt lat="47.31896" lon="-2.38506">
        <ele>56</ele>
        <time>2021-04-22T08:21:52.000Z</time>
      </trkpt>
      <trkpt lat="47.31903" lon="-2.38502">
        <ele>55.599998474121</ele>
        <time>2021-04-22T08:21:53.000Z</time>
      </trkpt>
      <trkpt lat="47.3191" lon="-2.38498">
        <ele>55.200000762939</ele>
        <time>2021-04-22T08:21:54.000Z</time>
      </trkpt>
      <trkpt lat="47.31917" lon="-2.38494">
        <ele>54.799999237061</ele>
        <time>2021-04-22T08:21:55.000Z</time>
      </trkpt>
      <trkpt lat="47.31938" lon="-2.38486">
        <ele>54.799999237061</ele>
        <time>2021-04-22T08:21:58.000Z</time>
      </trkpt>
      <trkpt lat="47.31945" lon="-2.38484">
        <ele>54.400001525879</ele>
        <time>2021-04-22T08:21:59.000Z</time>
      </trkpt>
      <trkpt lat="47.31952" lon="-2.38482">
        <ele>54</ele>
        <time>2021-04-22T08:22:00.000Z</time>
      </trkpt>
      <trkpt lat="47.3196" lon="-2.3848">
        <ele>53.599998474121</ele>
        <time>2021-04-22T08:22:01.000Z</time>
      </trkpt>
      <trkpt lat="47.31967" lon="-2.38478">
        <ele>53.200000762939</ele>
        <time>2021-04-22T08:22:02.000Z</time>
      </trkpt>
      <trkpt lat="47.31974" lon="-2.38475">
        <ele>52.799999237061</ele>
        <time>2021-04-22T08:22:03.000Z</time>
      </trkpt>
      <trkpt lat="47.31989" lon="-2.3847">
        <ele>52.799999237061</ele>
        <time>2021-04-22T08:22:05.000Z</time>
      </trkpt>
      <trkpt lat="47.32016" lon="-2.38459">
        <ele>52.400001525879</ele>
        <time>2021-04-22T08:22:09.000Z</time>
      </trkpt>
      <trkpt lat="47.32023" lon="-2.38456">
        <ele>52</ele>
        <time>2021-04-22T08:22:10.000Z</time>
      </trkpt>
      <trkpt lat="47.32029" lon="-2.38453">
        <ele>51.400001525879</ele>
        <time>2021-04-22T08:22:11.000Z</time>
      </trkpt>
      <trkpt lat="47.32036" lon="-2.3845">
        <ele>51</ele>
        <time>2021-04-22T08:22:12.000Z</time>
      </trkpt>
      <trkpt lat="47.32043" lon="-2.38448">
        <ele>50.599998474121</ele>
        <time>2021-04-22T08:22:13.000Z</time>
      </trkpt>
      <trkpt lat="47.32079" lon="-2.38435">
        <ele>50.200000762939</ele>
        <time>2021-04-22T08:22:18.000Z</time>
      </trkpt>
      <trkpt lat="47.32085" lon="-2.38432">
        <ele>49.799999237061</ele>
        <time>2021-04-22T08:22:19.000Z</time>
      </trkpt>
      <trkpt lat="47.32092" lon="-2.38429">
        <ele>49.400001525879</ele>
        <time>2021-04-22T08:22:20.000Z</time>
      </trkpt>
      <trkpt lat="47.32098" lon="-2.38427">
        <ele>48.400001525879</ele>
        <time>2021-04-22T08:22:21.000Z</time>
      </trkpt>
      <trkpt lat="47.32116" lon="-2.3842">
        <ele>48.400001525879</ele>
        <time>2021-04-22T08:22:24.000Z</time>
      </trkpt>
      <trkpt lat="47.32127" lon="-2.38412">
        <ele>48.400001525879</ele>
        <time>2021-04-22T08:22:26.000Z</time>
      </trkpt>
      <trkpt lat="47.32142" lon="-2.38399">
        <ele>48.400001525879</ele>
        <time>2021-04-22T08:22:29.000Z</time>
      </trkpt>
      <trkpt lat="47.32145" lon="-2.38396">
        <ele>48</ele>
        <time>2021-04-22T08:22:30.000Z</time>
      </trkpt>
      <trkpt lat="47.32147" lon="-2.38393">
        <ele>47.599998474121</ele>
        <time>2021-04-22T08:22:31.000Z</time>
      </trkpt>
      <trkpt lat="47.32148" lon="-2.3839">
        <ele>47.200000762939</ele>
        <time>2021-04-22T08:22:32.000Z</time>
      </trkpt>
      <trkpt lat="47.32149" lon="-2.38388">
        <ele>46.799999237061</ele>
        <time>2021-04-22T08:22:33.000Z</time>
      </trkpt>
      <trkpt lat="47.3215" lon="-2.38386">
        <ele>46.400001525879</ele>
        <time>2021-04-22T08:22:34.000Z</time>
      </trkpt>
      <trkpt lat="47.32155" lon="-2.38375">
        <ele>46.400001525879</ele>
        <time>2021-04-22T08:22:38.000Z</time>
      </trkpt>
      <trkpt lat="47.32165" lon="-2.38358">
        <ele>46.400001525879</ele>
        <time>2021-04-22T08:22:43.000Z</time>
      </trkpt>
      <trkpt lat="47.32171" lon="-2.38349">
        <ele>46.400001525879</ele>
        <time>2021-04-22T08:22:45.000Z</time>
      </trkpt>
      <trkpt lat="47.32181" lon="-2.38333">
        <ele>46.400001525879</ele>
        <time>2021-04-22T08:22:48.000Z</time>
      </trkpt>
      <trkpt lat="47.32202" lon="-2.38305">
        <ele>46.400001525879</ele>
        <time>2021-04-22T08:22:53.000Z</time>
      </trkpt>
      <trkpt lat="47.32206" lon="-2.383">
        <ele>46.400001525879</ele>
        <time>2021-04-22T08:22:54.000Z</time>
      </trkpt>
      <trkpt lat="47.32219" lon="-2.38294">
        <ele>46.400001525879</ele>
        <time>2021-04-22T08:22:57.000Z</time>
      </trkpt>
      <trkpt lat="47.32223" lon="-2.38293">
        <ele>46.400001525879</ele>
        <time>2021-04-22T08:22:58.000Z</time>
      </trkpt>
      <trkpt lat="47.32235" lon="-2.3829">
        <ele>46.400001525879</ele>
        <time>2021-04-22T08:23:00.000Z</time>
      </trkpt>
      <trkpt lat="47.32247" lon="-2.38286">
        <ele>46.400001525879</ele>
        <time>2021-04-22T08:23:02.000Z</time>
      </trkpt>
      <trkpt lat="47.32271" lon="-2.38284">
        <ele>46.400001525879</ele>
        <time>2021-04-22T08:23:06.000Z</time>
      </trkpt>
      <trkpt lat="47.32278" lon="-2.38285">
        <ele>46.400001525879</ele>
        <time>2021-04-22T08:23:07.000Z</time>
      </trkpt>
      <trkpt lat="47.32309" lon="-2.38296">
        <ele>46.400001525879</ele>
        <time>2021-04-22T08:23:12.000Z</time>
      </trkpt>
      <trkpt lat="47.32353" lon="-2.38315">
        <ele>46.400001525879</ele>
        <time>2021-04-22T08:23:20.000Z</time>
      </trkpt>
      <trkpt lat="47.32359" lon="-2.38318">
        <ele>46.799999237061</ele>
        <time>2021-04-22T08:23:21.000Z</time>
      </trkpt>
      <trkpt lat="47.32364" lon="-2.3832">
        <ele>47.200000762939</ele>
        <time>2021-04-22T08:23:22.000Z</time>
      </trkpt>
      <trkpt lat="47.32369" lon="-2.38322">
        <ele>47.599998474121</ele>
        <time>2021-04-22T08:23:23.000Z</time>
      </trkpt>
      <trkpt lat="47.32374" lon="-2.38324">
        <ele>48</ele>
        <time>2021-04-22T08:23:24.000Z</time>
      </trkpt>
      <trkpt lat="47.32379" lon="-2.38326">
        <ele>48.400001525879</ele>
        <time>2021-04-22T08:23:25.000Z</time>
      </trkpt>
      <trkpt lat="47.32389" lon="-2.3833">
        <ele>48.400001525879</ele>
        <time>2021-04-22T08:23:27.000Z</time>
      </trkpt>
      <trkpt lat="47.32399" lon="-2.38334">
        <ele>48.400001525879</ele>
        <time>2021-04-22T08:23:29.000Z</time>
      </trkpt>
      <trkpt lat="47.32413" lon="-2.38341">
        <ele>48.400001525879</ele>
        <time>2021-04-22T08:23:32.000Z</time>
      </trkpt>
      <trkpt lat="47.32423" lon="-2.38346">
        <ele>48.799999237061</ele>
        <time>2021-04-22T08:23:34.000Z</time>
      </trkpt>
      <trkpt lat="47.32429" lon="-2.38349">
        <ele>49.799999237061</ele>
        <time>2021-04-22T08:23:35.000Z</time>
      </trkpt>
      <trkpt lat="47.32434" lon="-2.38352">
        <ele>50.200000762939</ele>
        <time>2021-04-22T08:23:36.000Z</time>
      </trkpt>
      <trkpt lat="47.3244" lon="-2.38355">
        <ele>50.599998474121</ele>
        <time>2021-04-22T08:23:37.000Z</time>
      </trkpt>
      <trkpt lat="47.32445" lon="-2.38357">
        <ele>50.599998474121</ele>
        <time>2021-04-22T08:23:38.000Z</time>
      </trkpt>
      <trkpt lat="47.32475" lon="-2.38369">
        <ele>50.599998474121</ele>
        <time>2021-04-22T08:23:44.000Z</time>
      </trkpt>
      <trkpt lat="47.32508" lon="-2.38382">
        <ele>50.599998474121</ele>
        <time>2021-04-22T08:23:51.000Z</time>
      </trkpt>
      <trkpt lat="47.32516" lon="-2.3838">
        <ele>50.599998474121</ele>
        <time>2021-04-22T08:23:53.000Z</time>
      </trkpt>
      <trkpt lat="47.32521" lon="-2.38372">
        <ele>50.599998474121</ele>
        <time>2021-04-22T08:23:55.000Z</time>
      </trkpt>
      <trkpt lat="47.32525" lon="-2.38347">
        <ele>50.599998474121</ele>
        <time>2021-04-22T08:23:59.000Z</time>
      </trkpt>
      <trkpt lat="47.32528" lon="-2.3832">
        <ele>50.599998474121</ele>
        <time>2021-04-22T08:24:04.000Z</time>
      </trkpt>
      <trkpt lat="47.32529" lon="-2.38317">
        <ele>50.200000762939</ele>
        <time>2021-04-22T08:24:05.000Z</time>
      </trkpt>
      <trkpt lat="47.3253" lon="-2.38317">
        <ele>49.599998474121</ele>
        <time>2021-04-22T08:24:06.000Z</time>
      </trkpt>
      <trkpt lat="47.32533" lon="-2.38317">
        <ele>49.200000762939</ele>
        <time>2021-04-22T08:24:07.000Z</time>
      </trkpt>
      <trkpt lat="47.32537" lon="-2.38316">
        <ele>48.799999237061</ele>
        <time>2021-04-22T08:24:08.000Z</time>
      </trkpt>
      <trkpt lat="47.32541" lon="-2.38315">
        <ele>48.400001525879</ele>
        <time>2021-04-22T08:24:09.000Z</time>
      </trkpt>
      <trkpt lat="47.3255" lon="-2.38311">
        <ele>48</ele>
        <time>2021-04-22T08:24:11.000Z</time>
      </trkpt>
      <trkpt lat="47.32555" lon="-2.3831">
        <ele>47.599998474121</ele>
        <time>2021-04-22T08:24:12.000Z</time>
      </trkpt>
      <trkpt lat="47.32561" lon="-2.38308">
        <ele>47.200000762939</ele>
        <time>2021-04-22T08:24:13.000Z</time>
      </trkpt>
      <trkpt lat="47.32566" lon="-2.38306">
        <ele>46.599998474121</ele>
        <time>2021-04-22T08:24:14.000Z</time>
      </trkpt>
      <trkpt lat="47.32571" lon="-2.38305">
        <ele>46.200000762939</ele>
        <time>2021-04-22T08:24:15.000Z</time>
      </trkpt>
      <trkpt lat="47.32586" lon="-2.38299">
        <ele>46.200000762939</ele>
        <time>2021-04-22T08:24:18.000Z</time>
      </trkpt>
      <trkpt lat="47.32592" lon="-2.38298">
        <ele>46.200000762939</ele>
        <time>2021-04-22T08:24:19.000Z</time>
      </trkpt>
      <trkpt lat="47.32613" lon="-2.38303">
        <ele>46.200000762939</ele>
        <time>2021-04-22T08:24:23.000Z</time>
      </trkpt>
      <trkpt lat="47.32621" lon="-2.38311">
        <ele>46.200000762939</ele>
        <time>2021-04-22T08:24:25.000Z</time>
      </trkpt>
      <trkpt lat="47.32625" lon="-2.38316">
        <ele>46.200000762939</ele>
        <time>2021-04-22T08:24:26.000Z</time>
      </trkpt>
      <trkpt lat="47.32633" lon="-2.38327">
        <ele>46.200000762939</ele>
        <time>2021-04-22T08:24:28.000Z</time>
      </trkpt>
      <trkpt lat="47.32658" lon="-2.38362">
        <ele>46.599998474121</ele>
        <time>2021-04-22T08:24:35.000Z</time>
      </trkpt>
      <trkpt lat="47.32661" lon="-2.38367">
        <ele>47.200000762939</ele>
        <time>2021-04-22T08:24:36.000Z</time>
      </trkpt>
      <trkpt lat="47.32665" lon="-2.38372">
        <ele>47.599998474121</ele>
        <time>2021-04-22T08:24:37.000Z</time>
      </trkpt>
      <trkpt lat="47.32668" lon="-2.38377">
        <ele>48</ele>
        <time>2021-04-22T08:24:38.000Z</time>
      </trkpt>
      <trkpt lat="47.32672" lon="-2.38381">
        <ele>48.400001525879</ele>
        <time>2021-04-22T08:24:39.000Z</time>
      </trkpt>
      <trkpt lat="47.32675" lon="-2.38385">
        <ele>48.799999237061</ele>
        <time>2021-04-22T08:24:40.000Z</time>
      </trkpt>
      <trkpt lat="47.32678" lon="-2.3839">
        <ele>49.200000762939</ele>
        <time>2021-04-22T08:24:41.000Z</time>
      </trkpt>
      <trkpt lat="47.32682" lon="-2.38394">
        <ele>49.599998474121</ele>
        <time>2021-04-22T08:24:42.000Z</time>
      </trkpt>
      <trkpt lat="47.32685" lon="-2.38398">
        <ele>50</ele>
        <time>2021-04-22T08:24:43.000Z</time>
      </trkpt>
      <trkpt lat="47.32689" lon="-2.38401">
        <ele>50.400001525879</ele>
        <time>2021-04-22T08:24:44.000Z</time>
      </trkpt>
      <trkpt lat="47.32696" lon="-2.38407">
        <ele>50.400001525879</ele>
        <time>2021-04-22T08:24:46.000Z</time>
      </trkpt>
      <trkpt lat="47.32701" lon="-2.38409">
        <ele>50.400001525879</ele>
        <time>2021-04-22T08:24:47.000Z</time>
      </trkpt>
      <trkpt lat="47.32705" lon="-2.3841">
        <ele>50.799999237061</ele>
        <time>2021-04-22T08:24:48.000Z</time>
      </trkpt>
      <trkpt lat="47.3271" lon="-2.3841">
        <ele>51.599998474121</ele>
        <time>2021-04-22T08:24:49.000Z</time>
      </trkpt>
      <trkpt lat="47.32714" lon="-2.3841">
        <ele>52</ele>
        <time>2021-04-22T08:24:50.000Z</time>
      </trkpt>
      <trkpt lat="47.32718" lon="-2.38409">
        <ele>52.400001525879</ele>
        <time>2021-04-22T08:24:51.000Z</time>
      </trkpt>
      <trkpt lat="47.32723" lon="-2.38408">
        <ele>52.400001525879</ele>
        <time>2021-04-22T08:24:52.000Z</time>
      </trkpt>
      <trkpt lat="47.32744" lon="-2.38399">
        <ele>52.799999237061</ele>
        <time>2021-04-22T08:24:57.000Z</time>
      </trkpt>
      <trkpt lat="47.32748" lon="-2.38397">
        <ele>53.200000762939</ele>
        <time>2021-04-22T08:24:58.000Z</time>
      </trkpt>
      <trkpt lat="47.32752" lon="-2.38395">
        <ele>53.599998474121</ele>
        <time>2021-04-22T08:24:59.000Z</time>
      </trkpt>
      <trkpt lat="47.32756" lon="-2.38394">
        <ele>54</ele>
        <time>2021-04-22T08:25:00.000Z</time>
      </trkpt>
      <trkpt lat="47.3276" lon="-2.38394">
        <ele>54.400001525879</ele>
        <time>2021-04-22T08:25:01.000Z</time>
      </trkpt>
      <trkpt lat="47.32771" lon="-2.38392">
        <ele>54.400001525879</ele>
        <time>2021-04-22T08:25:04.000Z</time>
      </trkpt>
      <trkpt lat="47.3278" lon="-2.38384">
        <ele>54.400001525879</ele>
        <time>2021-04-22T08:25:08.000Z</time>
      </trkpt>
      <trkpt lat="47.32782" lon="-2.38381">
        <ele>54.400001525879</ele>
        <time>2021-04-22T08:25:11.000Z</time>
      </trkpt>
      <trkpt lat="47.32782" lon="-2.38379">
        <ele>54.400001525879</ele>
        <time>2021-04-22T08:25:47.000Z</time>
      </trkpt>
      <trkpt lat="47.32785" lon="-2.38359">
        <ele>54.400001525879</ele>
        <time>2021-04-22T08:25:52.000Z</time>
      </trkpt>
      <trkpt lat="47.32791" lon="-2.3832">
        <ele>54.400001525879</ele>
        <time>2021-04-22T08:25:58.000Z</time>
      </trkpt>
      <trkpt lat="47.32803" lon="-2.3827">
        <ele>54</ele>
        <time>2021-04-22T08:26:04.000Z</time>
      </trkpt>
      <trkpt lat="47.32805" lon="-2.3826">
        <ele>53.599998474121</ele>
        <time>2021-04-22T08:26:05.000Z</time>
      </trkpt>
      <trkpt lat="47.32807" lon="-2.3825">
        <ele>53.200000762939</ele>
        <time>2021-04-22T08:26:06.000Z</time>
      </trkpt>
      <trkpt lat="47.3281" lon="-2.3824">
        <ele>52.799999237061</ele>
        <time>2021-04-22T08:26:07.000Z</time>
      </trkpt>
      <trkpt lat="47.32813" lon="-2.3823">
        <ele>52.400001525879</ele>
        <time>2021-04-22T08:26:08.000Z</time>
      </trkpt>
      <trkpt lat="47.32816" lon="-2.3822">
        <ele>52.400001525879</ele>
        <time>2021-04-22T08:26:09.000Z</time>
      </trkpt>
      <trkpt lat="47.3282" lon="-2.3821">
        <ele>51.799999237061</ele>
        <time>2021-04-22T08:26:10.000Z</time>
      </trkpt>
      <trkpt lat="47.32823" lon="-2.382">
        <ele>51.400001525879</ele>
        <time>2021-04-22T08:26:11.000Z</time>
      </trkpt>
      <trkpt lat="47.32827" lon="-2.38189">
        <ele>51</ele>
        <time>2021-04-22T08:26:12.000Z</time>
      </trkpt>
      <trkpt lat="47.32831" lon="-2.38179">
        <ele>50.400001525879</ele>
        <time>2021-04-22T08:26:13.000Z</time>
      </trkpt>
      <trkpt lat="47.32836" lon="-2.3817">
        <ele>50</ele>
        <time>2021-04-22T08:26:14.000Z</time>
      </trkpt>
      <trkpt lat="47.32841" lon="-2.3816">
        <ele>49.599998474121</ele>
        <time>2021-04-22T08:26:15.000Z</time>
      </trkpt>
      <trkpt lat="47.32846" lon="-2.38151">
        <ele>49.200000762939</ele>
        <time>2021-04-22T08:26:16.000Z</time>
      </trkpt>
      <trkpt lat="47.32851" lon="-2.38143">
        <ele>48.799999237061</ele>
        <time>2021-04-22T08:26:17.000Z</time>
      </trkpt>
      <trkpt lat="47.32855" lon="-2.38135">
        <ele>48.200000762939</ele>
        <time>2021-04-22T08:26:18.000Z</time>
      </trkpt>
      <trkpt lat="47.32861" lon="-2.38126">
        <ele>47.799999237061</ele>
        <time>2021-04-22T08:26:19.000Z</time>
      </trkpt>
      <trkpt lat="47.32879" lon="-2.38094">
        <ele>47.799999237061</ele>
        <time>2021-04-22T08:26:23.000Z</time>
      </trkpt>
      <trkpt lat="47.32902" lon="-2.38055">
        <ele>47</ele>
        <time>2021-04-22T08:26:28.000Z</time>
      </trkpt>
      <trkpt lat="47.32906" lon="-2.38048">
        <ele>46.599998474121</ele>
        <time>2021-04-22T08:26:29.000Z</time>
      </trkpt>
      <trkpt lat="47.3291" lon="-2.3804">
        <ele>46.200000762939</ele>
        <time>2021-04-22T08:26:30.000Z</time>
      </trkpt>
      <trkpt lat="47.32915" lon="-2.38032">
        <ele>45.799999237061</ele>
        <time>2021-04-22T08:26:31.000Z</time>
      </trkpt>
      <trkpt lat="47.3295" lon="-2.37978">
        <ele>45.799999237061</ele>
        <time>2021-04-22T08:26:39.000Z</time>
      </trkpt>
      <trkpt lat="47.32968" lon="-2.37951">
        <ele>45.400001525879</ele>
        <time>2021-04-22T08:26:43.000Z</time>
      </trkpt>
      <trkpt lat="47.32972" lon="-2.37944">
        <ele>45</ele>
        <time>2021-04-22T08:26:44.000Z</time>
      </trkpt>
      <trkpt lat="47.32976" lon="-2.37937">
        <ele>44.599998474121</ele>
        <time>2021-04-22T08:26:45.000Z</time>
      </trkpt>
      <trkpt lat="47.32981" lon="-2.37931">
        <ele>44.200000762939</ele>
        <time>2021-04-22T08:26:46.000Z</time>
      </trkpt>
      <trkpt lat="47.32986" lon="-2.37924">
        <ele>43.799999237061</ele>
        <time>2021-04-22T08:26:47.000Z</time>
      </trkpt>
      <trkpt lat="47.33009" lon="-2.37884">
        <ele>43.799999237061</ele>
        <time>2021-04-22T08:26:52.000Z</time>
      </trkpt>
      <trkpt lat="47.33023" lon="-2.37853">
        <ele>43.799999237061</ele>
        <time>2021-04-22T08:26:56.000Z</time>
      </trkpt>
      <trkpt lat="47.33027" lon="-2.37847">
        <ele>43.799999237061</ele>
        <time>2021-04-22T08:26:57.000Z</time>
      </trkpt>
      <trkpt lat="47.33036" lon="-2.37835">
        <ele>43.200000762939</ele>
        <time>2021-04-22T08:26:59.000Z</time>
      </trkpt>
      <trkpt lat="47.33041" lon="-2.37829">
        <ele>42.799999237061</ele>
        <time>2021-04-22T08:27:00.000Z</time>
      </trkpt>
      <trkpt lat="47.33046" lon="-2.37824">
        <ele>42.400001525879</ele>
        <time>2021-04-22T08:27:01.000Z</time>
      </trkpt>
      <trkpt lat="47.33051" lon="-2.37818">
        <ele>42</ele>
        <time>2021-04-22T08:27:02.000Z</time>
      </trkpt>
      <trkpt lat="47.33056" lon="-2.37812">
        <ele>41.599998474121</ele>
        <time>2021-04-22T08:27:03.000Z</time>
      </trkpt>
      <trkpt lat="47.33062" lon="-2.37807">
        <ele>41.599998474121</ele>
        <time>2021-04-22T08:27:04.000Z</time>
      </trkpt>
      <trkpt lat="47.331" lon="-2.3777">
        <ele>41.599998474121</ele>
        <time>2021-04-22T08:27:11.000Z</time>
      </trkpt>
      <trkpt lat="47.33114" lon="-2.37752">
        <ele>41.200000762939</ele>
        <time>2021-04-22T08:27:14.000Z</time>
      </trkpt>
      <trkpt lat="47.33119" lon="-2.37746">
        <ele>40.799999237061</ele>
        <time>2021-04-22T08:27:15.000Z</time>
      </trkpt>
      <trkpt lat="47.33125" lon="-2.37741">
        <ele>40.400001525879</ele>
        <time>2021-04-22T08:27:16.000Z</time>
      </trkpt>
      <trkpt lat="47.33131" lon="-2.37737">
        <ele>39.599998474121</ele>
        <time>2021-04-22T08:27:17.000Z</time>
      </trkpt>
      <trkpt lat="47.33142" lon="-2.37734">
        <ele>39.599998474121</ele>
        <time>2021-04-22T08:27:19.000Z</time>
      </trkpt>
      <trkpt lat="47.33148" lon="-2.37735">
        <ele>39.599998474121</ele>
        <time>2021-04-22T08:27:20.000Z</time>
      </trkpt>
      <trkpt lat="47.33161" lon="-2.37752">
        <ele>39.599998474121</ele>
        <time>2021-04-22T08:27:23.000Z</time>
      </trkpt>
      <trkpt lat="47.33191" lon="-2.37805">
        <ele>39.599998474121</ele>
        <time>2021-04-22T08:27:31.000Z</time>
      </trkpt>
      <trkpt lat="47.33218" lon="-2.37849">
        <ele>39.599998474121</ele>
        <time>2021-04-22T08:27:38.000Z</time>
      </trkpt>
      <trkpt lat="47.33231" lon="-2.37865">
        <ele>39.599998474121</ele>
        <time>2021-04-22T08:27:41.000Z</time>
      </trkpt>
      <trkpt lat="47.33236" lon="-2.37869">
        <ele>40.400001525879</ele>
        <time>2021-04-22T08:27:42.000Z</time>
      </trkpt>
      <trkpt lat="47.33241" lon="-2.37872">
        <ele>40.799999237061</ele>
        <time>2021-04-22T08:27:43.000Z</time>
      </trkpt>
      <trkpt lat="47.33246" lon="-2.37876">
        <ele>41.200000762939</ele>
        <time>2021-04-22T08:27:44.000Z</time>
      </trkpt>
      <trkpt lat="47.3325" lon="-2.37878">
        <ele>41.599998474121</ele>
        <time>2021-04-22T08:27:45.000Z</time>
      </trkpt>
      <trkpt lat="47.3326" lon="-2.3788">
        <ele>41.599998474121</ele>
        <time>2021-04-22T08:27:47.000Z</time>
      </trkpt>
      <trkpt lat="47.33272" lon="-2.37872">
        <ele>42.200000762939</ele>
        <time>2021-04-22T08:27:50.000Z</time>
      </trkpt>
      <trkpt lat="47.33276" lon="-2.37871">
        <ele>42.599998474121</ele>
        <time>2021-04-22T08:27:51.000Z</time>
      </trkpt>
      <trkpt lat="47.3328" lon="-2.3787">
        <ele>43</ele>
        <time>2021-04-22T08:27:52.000Z</time>
      </trkpt>
      <trkpt lat="47.33284" lon="-2.3787">
        <ele>43.400001525879</ele>
        <time>2021-04-22T08:27:53.000Z</time>
      </trkpt>
      <trkpt lat="47.33289" lon="-2.3787">
        <ele>43.799999237061</ele>
        <time>2021-04-22T08:27:54.000Z</time>
      </trkpt>
      <trkpt lat="47.33293" lon="-2.37869">
        <ele>43.799999237061</ele>
        <time>2021-04-22T08:27:55.000Z</time>
      </trkpt>
      <trkpt lat="47.33297" lon="-2.37869">
        <ele>43.799999237061</ele>
        <time>2021-04-22T08:27:56.000Z</time>
      </trkpt>
      <trkpt lat="47.33302" lon="-2.37868">
        <ele>44.400001525879</ele>
        <time>2021-04-22T08:27:57.000Z</time>
      </trkpt>
      <trkpt lat="47.33306" lon="-2.37866">
        <ele>44.799999237061</ele>
        <time>2021-04-22T08:27:58.000Z</time>
      </trkpt>
      <trkpt lat="47.33311" lon="-2.37865">
        <ele>45.400001525879</ele>
        <time>2021-04-22T08:27:59.000Z</time>
      </trkpt>
      <trkpt lat="47.33315" lon="-2.37864">
        <ele>45.799999237061</ele>
        <time>2021-04-22T08:28:00.000Z</time>
      </trkpt>
      <trkpt lat="47.3332" lon="-2.37862">
        <ele>46.200000762939</ele>
        <time>2021-04-22T08:28:01.000Z</time>
      </trkpt>
      <trkpt lat="47.33324" lon="-2.3786">
        <ele>46.200000762939</ele>
        <time>2021-04-22T08:28:02.000Z</time>
      </trkpt>
      <trkpt lat="47.3334" lon="-2.37856">
        <ele>47.200000762939</ele>
        <time>2021-04-22T08:28:06.000Z</time>
      </trkpt>
      <trkpt lat="47.33343" lon="-2.37855">
        <ele>47.599998474121</ele>
        <time>2021-04-22T08:28:07.000Z</time>
      </trkpt>
      <trkpt lat="47.33345" lon="-2.37856">
        <ele>48</ele>
        <time>2021-04-22T08:28:08.000Z</time>
      </trkpt>
      <trkpt lat="47.33348" lon="-2.37856">
        <ele>48.400001525879</ele>
        <time>2021-04-22T08:28:09.000Z</time>
      </trkpt>
      <trkpt lat="47.33359" lon="-2.37855">
        <ele>48.400001525879</ele>
        <time>2021-04-22T08:28:12.000Z</time>
      </trkpt>
      <trkpt lat="47.33368" lon="-2.37844">
        <ele>48.400001525879</ele>
        <time>2021-04-22T08:28:16.000Z</time>
      </trkpt>
      <trkpt lat="47.3337" lon="-2.37842">
        <ele>48.400001525879</ele>
        <time>2021-04-22T08:28:17.000Z</time>
      </trkpt>
      <trkpt lat="47.33378" lon="-2.37831">
        <ele>48.400001525879</ele>
        <time>2021-04-22T08:28:23.000Z</time>
      </trkpt>
      <trkpt lat="47.33382" lon="-2.37835">
        <ele>48.400001525879</ele>
        <time>2021-04-22T08:28:28.000Z</time>
      </trkpt>
      <trkpt lat="47.33378" lon="-2.37835">
        <ele>48.400001525879</ele>
        <time>2021-04-22T08:28:32.000Z</time>
      </trkpt>
      <trkpt lat="47.33378" lon="-2.37835">
        <ele>48.400001525879</ele>
        <time>2021-04-22T08:28:33.000Z</time>
      </trkpt>
      <trkpt lat="47.33376" lon="-2.37832">
        <ele>48.400001525879</ele>
        <time>2021-04-22T08:28:37.000Z</time>
      </trkpt>
      <trkpt lat="47.33375" lon="-2.37829">
        <ele>48.400001525879</ele>
        <time>2021-04-22T08:28:38.000Z</time>
      </trkpt>
      <trkpt lat="47.33379" lon="-2.3781">
        <ele>48.400001525879</ele>
        <time>2021-04-22T08:28:42.000Z</time>
      </trkpt>
      <trkpt lat="47.3338" lon="-2.37805">
        <ele>48.799999237061</ele>
        <time>2021-04-22T08:28:43.000Z</time>
      </trkpt>
      <trkpt lat="47.33382" lon="-2.37799">
        <ele>49.200000762939</ele>
        <time>2021-04-22T08:28:44.000Z</time>
      </trkpt>
      <trkpt lat="47.33382" lon="-2.37794">
        <ele>49.599998474121</ele>
        <time>2021-04-22T08:28:45.000Z</time>
      </trkpt>
      <trkpt lat="47.33383" lon="-2.37788">
        <ele>50</ele>
        <time>2021-04-22T08:28:46.000Z</time>
      </trkpt>
      <trkpt lat="47.33383" lon="-2.37781">
        <ele>50.599998474121</ele>
        <time>2021-04-22T08:28:47.000Z</time>
      </trkpt>
      <trkpt lat="47.33383" lon="-2.37775">
        <ele>50.599998474121</ele>
        <time>2021-04-22T08:28:48.000Z</time>
      </trkpt>
      <trkpt lat="47.33384" lon="-2.3774">
        <ele>51</ele>
        <time>2021-04-22T08:28:54.000Z</time>
      </trkpt>
      <trkpt lat="47.33384" lon="-2.37734">
        <ele>51.400001525879</ele>
        <time>2021-04-22T08:28:55.000Z</time>
      </trkpt>
      <trkpt lat="47.33384" lon="-2.37727">
        <ele>52.200000762939</ele>
        <time>2021-04-22T08:28:56.000Z</time>
      </trkpt>
      <trkpt lat="47.33384" lon="-2.37721">
        <ele>52.599998474121</ele>
        <time>2021-04-22T08:28:57.000Z</time>
      </trkpt>
      <trkpt lat="47.33384" lon="-2.37714">
        <ele>52.599998474121</ele>
        <time>2021-04-22T08:28:58.000Z</time>
      </trkpt>
      <trkpt lat="47.33387" lon="-2.37664">
        <ele>52.599998474121</ele>
        <time>2021-04-22T08:29:05.000Z</time>
      </trkpt>
      <trkpt lat="47.33389" lon="-2.37657">
        <ele>52.599998474121</ele>
        <time>2021-04-22T08:29:06.000Z</time>
      </trkpt>
      <trkpt lat="47.33397" lon="-2.37638">
        <ele>52.599998474121</ele>
        <time>2021-04-22T08:29:09.000Z</time>
      </trkpt>
      <trkpt lat="47.33405" lon="-2.37628">
        <ele>52.599998474121</ele>
        <time>2021-04-22T08:29:11.000Z</time>
      </trkpt>
      <trkpt lat="47.33415" lon="-2.3762">
        <ele>52.599998474121</ele>
        <time>2021-04-22T08:29:13.000Z</time>
      </trkpt>
      <trkpt lat="47.33447" lon="-2.37593">
        <ele>52.599998474121</ele>
        <time>2021-04-22T08:29:19.000Z</time>
      </trkpt>
      <trkpt lat="47.33456" lon="-2.37582">
        <ele>52.200000762939</ele>
        <time>2021-04-22T08:29:21.000Z</time>
      </trkpt>
      <trkpt lat="47.33462" lon="-2.37577">
        <ele>51.799999237061</ele>
        <time>2021-04-22T08:29:22.000Z</time>
      </trkpt>
      <trkpt lat="47.33467" lon="-2.37572">
        <ele>51.400001525879</ele>
        <time>2021-04-22T08:29:23.000Z</time>
      </trkpt>
      <trkpt lat="47.33472" lon="-2.37566">
        <ele>51</ele>
        <time>2021-04-22T08:29:24.000Z</time>
      </trkpt>
      <trkpt lat="47.33477" lon="-2.37561">
        <ele>50.599998474121</ele>
        <time>2021-04-22T08:29:25.000Z</time>
      </trkpt>
      <trkpt lat="47.33498" lon="-2.37534">
        <ele>50.599998474121</ele>
        <time>2021-04-22T08:29:30.000Z</time>
      </trkpt>
      <trkpt lat="47.33502" lon="-2.37528">
        <ele>50.599998474121</ele>
        <time>2021-04-22T08:29:31.000Z</time>
      </trkpt>
      <trkpt lat="47.33509" lon="-2.37514">
        <ele>50.599998474121</ele>
        <time>2021-04-22T08:29:33.000Z</time>
      </trkpt>
      <trkpt lat="47.33515" lon="-2.37499">
        <ele>50.599998474121</ele>
        <time>2021-04-22T08:29:35.000Z</time>
      </trkpt>
      <trkpt lat="47.33519" lon="-2.37492">
        <ele>50.599998474121</ele>
        <time>2021-04-22T08:29:36.000Z</time>
      </trkpt>
      <trkpt lat="47.33528" lon="-2.37468">
        <ele>50.200000762939</ele>
        <time>2021-04-22T08:29:39.000Z</time>
      </trkpt>
      <trkpt lat="47.33531" lon="-2.37459">
        <ele>49.799999237061</ele>
        <time>2021-04-22T08:29:40.000Z</time>
      </trkpt>
      <trkpt lat="47.33533" lon="-2.37451">
        <ele>49.400001525879</ele>
        <time>2021-04-22T08:29:41.000Z</time>
      </trkpt>
      <trkpt lat="47.33535" lon="-2.37443">
        <ele>49</ele>
        <time>2021-04-22T08:29:42.000Z</time>
      </trkpt>
      <trkpt lat="47.33536" lon="-2.37434">
        <ele>48.599998474121</ele>
        <time>2021-04-22T08:29:43.000Z</time>
      </trkpt>
      <trkpt lat="47.33537" lon="-2.37407">
        <ele>48.599998474121</ele>
        <time>2021-04-22T08:29:46.000Z</time>
      </trkpt>
      <trkpt lat="47.33537" lon="-2.3737">
        <ele>48.599998474121</ele>
        <time>2021-04-22T08:29:50.000Z</time>
      </trkpt>
      <trkpt lat="47.33539" lon="-2.37361">
        <ele>48.599998474121</ele>
        <time>2021-04-22T08:29:51.000Z</time>
      </trkpt>
      <trkpt lat="47.33551" lon="-2.37342">
        <ele>48.599998474121</ele>
        <time>2021-04-22T08:29:54.000Z</time>
      </trkpt>
      <trkpt lat="47.33562" lon="-2.37334">
        <ele>48</ele>
        <time>2021-04-22T08:29:56.000Z</time>
      </trkpt>
      <trkpt lat="47.33567" lon="-2.37332">
        <ele>47.599998474121</ele>
        <time>2021-04-22T08:29:57.000Z</time>
      </trkpt>
      <trkpt lat="47.33573" lon="-2.37329">
        <ele>47.200000762939</ele>
        <time>2021-04-22T08:29:58.000Z</time>
      </trkpt>
      <trkpt lat="47.33578" lon="-2.37328">
        <ele>46.799999237061</ele>
        <time>2021-04-22T08:29:59.000Z</time>
      </trkpt>
      <trkpt lat="47.33584" lon="-2.37326">
        <ele>46.400001525879</ele>
        <time>2021-04-22T08:30:00.000Z</time>
      </trkpt>
      <trkpt lat="47.33602" lon="-2.37323">
        <ele>46.400001525879</ele>
        <time>2021-04-22T08:30:03.000Z</time>
      </trkpt>
      <trkpt lat="47.33608" lon="-2.37319">
        <ele>46.400001525879</ele>
        <time>2021-04-22T08:30:04.000Z</time>
      </trkpt>
      <trkpt lat="47.33615" lon="-2.37305">
        <ele>46.400001525879</ele>
        <time>2021-04-22T08:30:06.000Z</time>
      </trkpt>
      <trkpt lat="47.33611" lon="-2.37277">
        <ele>46.400001525879</ele>
        <time>2021-04-22T08:30:09.000Z</time>
      </trkpt>
      <trkpt lat="47.3361" lon="-2.37269">
        <ele>46.400001525879</ele>
        <time>2021-04-22T08:30:10.000Z</time>
      </trkpt>
      <trkpt lat="47.33602" lon="-2.37237">
        <ele>46</ele>
        <time>2021-04-22T08:30:14.000Z</time>
      </trkpt>
      <trkpt lat="47.33598" lon="-2.3723">
        <ele>45.599998474121</ele>
        <time>2021-04-22T08:30:15.000Z</time>
      </trkpt>
      <trkpt lat="47.33594" lon="-2.37227">
        <ele>45</ele>
        <time>2021-04-22T08:30:16.000Z</time>
      </trkpt>
      <trkpt lat="47.33589" lon="-2.37225">
        <ele>44.599998474121</ele>
        <time>2021-04-22T08:30:17.000Z</time>
      </trkpt>
      <trkpt lat="47.33583" lon="-2.37227">
        <ele>44.200000762939</ele>
        <time>2021-04-22T08:30:18.000Z</time>
      </trkpt>
      <trkpt lat="47.33578" lon="-2.37228">
        <ele>44.200000762939</ele>
        <time>2021-04-22T08:30:19.000Z</time>
      </trkpt>
      <trkpt lat="47.33569" lon="-2.37229">
        <ele>44.200000762939</ele>
        <time>2021-04-22T08:30:21.000Z</time>
      </trkpt>
      <trkpt lat="47.3355" lon="-2.37229">
        <ele>44.200000762939</ele>
        <time>2021-04-22T08:30:25.000Z</time>
      </trkpt>
      <trkpt lat="47.33537" lon="-2.3723">
        <ele>44.200000762939</ele>
        <time>2021-04-22T08:30:28.000Z</time>
      </trkpt>
      <trkpt lat="47.33518" lon="-2.37232">
        <ele>44.200000762939</ele>
        <time>2021-04-22T08:30:32.000Z</time>
      </trkpt>
      <trkpt lat="47.33514" lon="-2.37232">
        <ele>43.799999237061</ele>
        <time>2021-04-22T08:30:33.000Z</time>
      </trkpt>
      <trkpt lat="47.33509" lon="-2.37231">
        <ele>43</ele>
        <time>2021-04-22T08:30:34.000Z</time>
      </trkpt>
      <trkpt lat="47.33504" lon="-2.3723">
        <ele>42.599998474121</ele>
        <time>2021-04-22T08:30:35.000Z</time>
      </trkpt>
      <trkpt lat="47.33499" lon="-2.37227">
        <ele>42.200000762939</ele>
        <time>2021-04-22T08:30:36.000Z</time>
      </trkpt>
      <trkpt lat="47.33491" lon="-2.37219">
        <ele>42.200000762939</ele>
        <time>2021-04-22T08:30:38.000Z</time>
      </trkpt>
      <trkpt lat="47.33484" lon="-2.37198">
        <ele>41.799999237061</ele>
        <time>2021-04-22T08:30:41.000Z</time>
      </trkpt>
      <trkpt lat="47.33483" lon="-2.37189">
        <ele>41.400001525879</ele>
        <time>2021-04-22T08:30:42.000Z</time>
      </trkpt>
      <trkpt lat="47.33482" lon="-2.3718">
        <ele>40.799999237061</ele>
        <time>2021-04-22T08:30:43.000Z</time>
      </trkpt>
      <trkpt lat="47.33481" lon="-2.37172">
        <ele>40.400001525879</ele>
        <time>2021-04-22T08:30:44.000Z</time>
      </trkpt>
      <trkpt lat="47.3348" lon="-2.37163">
        <ele>40</ele>
        <time>2021-04-22T08:30:45.000Z</time>
      </trkpt>
      <trkpt lat="47.33479" lon="-2.37155">
        <ele>40</ele>
        <time>2021-04-22T08:30:46.000Z</time>
      </trkpt>
      <trkpt lat="47.33473" lon="-2.37089">
        <ele>40</ele>
        <time>2021-04-22T08:30:53.000Z</time>
      </trkpt>
      <trkpt lat="47.33472" lon="-2.37079">
        <ele>39.599998474121</ele>
        <time>2021-04-22T08:30:54.000Z</time>
      </trkpt>
      <trkpt lat="47.33471" lon="-2.37069">
        <ele>39.200000762939</ele>
        <time>2021-04-22T08:30:55.000Z</time>
      </trkpt>
      <trkpt lat="47.33471" lon="-2.37058">
        <ele>38.799999237061</ele>
        <time>2021-04-22T08:30:56.000Z</time>
      </trkpt>
      <trkpt lat="47.33471" lon="-2.37048">
        <ele>38.200000762939</ele>
        <time>2021-04-22T08:30:57.000Z</time>
      </trkpt>
      <trkpt lat="47.33472" lon="-2.37038">
        <ele>37.799999237061</ele>
        <time>2021-04-22T08:30:58.000Z</time>
      </trkpt>
      <trkpt lat="47.33472" lon="-2.37029">
        <ele>37.799999237061</ele>
        <time>2021-04-22T08:30:59.000Z</time>
      </trkpt>
      <trkpt lat="47.33473" lon="-2.37009">
        <ele>37.400001525879</ele>
        <time>2021-04-22T08:31:02.000Z</time>
      </trkpt>
      <trkpt lat="47.33473" lon="-2.37005">
        <ele>37</ele>
        <time>2021-04-22T08:31:03.000Z</time>
      </trkpt>
      <trkpt lat="47.33472" lon="-2.37001">
        <ele>36.599998474121</ele>
        <time>2021-04-22T08:31:04.000Z</time>
      </trkpt>
      <trkpt lat="47.33471" lon="-2.36997">
        <ele>36.200000762939</ele>
        <time>2021-04-22T08:31:05.000Z</time>
      </trkpt>
      <trkpt lat="47.33469" lon="-2.36994">
        <ele>35.799999237061</ele>
        <time>2021-04-22T08:31:06.000Z</time>
      </trkpt>
      <trkpt lat="47.33464" lon="-2.3699">
        <ele>35.799999237061</ele>
        <time>2021-04-22T08:31:08.000Z</time>
      </trkpt>
      <trkpt lat="47.3346" lon="-2.36983">
        <ele>35.799999237061</ele>
        <time>2021-04-22T08:31:10.000Z</time>
      </trkpt>
      <trkpt lat="47.33456" lon="-2.36974">
        <ele>35.799999237061</ele>
        <time>2021-04-22T08:31:12.000Z</time>
      </trkpt>
      <trkpt lat="47.3345" lon="-2.36951">
        <ele>35.799999237061</ele>
        <time>2021-04-22T08:31:17.000Z</time>
      </trkpt>
      <trkpt lat="47.3345" lon="-2.36923">
        <ele>35.799999237061</ele>
        <time>2021-04-22T08:31:22.000Z</time>
      </trkpt>
      <trkpt lat="47.33448" lon="-2.36905">
        <ele>35.799999237061</ele>
        <time>2021-04-22T08:31:26.000Z</time>
      </trkpt>
      <trkpt lat="47.33447" lon="-2.36875">
        <ele>35.799999237061</ele>
        <time>2021-04-22T08:31:32.000Z</time>
      </trkpt>
      <trkpt lat="47.33447" lon="-2.3687">
        <ele>35.799999237061</ele>
        <time>2021-04-22T08:31:33.000Z</time>
      </trkpt>
      <trkpt lat="47.33452" lon="-2.36859">
        <ele>35.799999237061</ele>
        <time>2021-04-22T08:31:35.000Z</time>
      </trkpt>
      <trkpt lat="47.33459" lon="-2.36847">
        <ele>35.799999237061</ele>
        <time>2021-04-22T08:31:37.000Z</time>
      </trkpt>
      <trkpt lat="47.33465" lon="-2.36826">
        <ele>35.400001525879</ele>
        <time>2021-04-22T08:31:40.000Z</time>
      </trkpt>
      <trkpt lat="47.33466" lon="-2.36819">
        <ele>34.799999237061</ele>
        <time>2021-04-22T08:31:41.000Z</time>
      </trkpt>
      <trkpt lat="47.33466" lon="-2.36812">
        <ele>34.400001525879</ele>
        <time>2021-04-22T08:31:42.000Z</time>
      </trkpt>
      <trkpt lat="47.33467" lon="-2.36805">
        <ele>34</ele>
        <time>2021-04-22T08:31:43.000Z</time>
      </trkpt>
      <trkpt lat="47.33467" lon="-2.36799">
        <ele>33.599998474121</ele>
        <time>2021-04-22T08:31:44.000Z</time>
      </trkpt>
      <trkpt lat="47.33468" lon="-2.36791">
        <ele>33.599998474121</ele>
        <time>2021-04-22T08:31:45.000Z</time>
      </trkpt>
      <trkpt lat="47.33477" lon="-2.36756">
        <ele>33.599998474121</ele>
        <time>2021-04-22T08:31:51.000Z</time>
      </trkpt>
      <trkpt lat="47.33484" lon="-2.36732">
        <ele>33.599998474121</ele>
        <time>2021-04-22T08:31:56.000Z</time>
      </trkpt>
      <trkpt lat="47.33494" lon="-2.36712">
        <ele>33.599998474121</ele>
        <time>2021-04-22T08:32:01.000Z</time>
      </trkpt>
      <trkpt lat="47.33507" lon="-2.36688">
        <ele>33.200000762939</ele>
        <time>2021-04-22T08:32:08.000Z</time>
      </trkpt>
      <trkpt lat="47.33509" lon="-2.36685">
        <ele>32.799999237061</ele>
        <time>2021-04-22T08:32:09.000Z</time>
      </trkpt>
      <trkpt lat="47.33511" lon="-2.36682">
        <ele>32.400001525879</ele>
        <time>2021-04-22T08:32:10.000Z</time>
      </trkpt>
      <trkpt lat="47.33512" lon="-2.36679">
        <ele>32</ele>
        <time>2021-04-22T08:32:11.000Z</time>
      </trkpt>
      <trkpt lat="47.33513" lon="-2.36677">
        <ele>31.60000038147</ele>
        <time>2021-04-22T08:32:12.000Z</time>
      </trkpt>
      <trkpt lat="47.33516" lon="-2.36673">
        <ele>31.60000038147</ele>
        <time>2021-04-22T08:32:14.000Z</time>
      </trkpt>
      <trkpt lat="47.33524" lon="-2.36657">
        <ele>31.60000038147</ele>
        <time>2021-04-22T08:32:24.000Z</time>
      </trkpt>
      <trkpt lat="47.33535" lon="-2.36644">
        <ele>31.60000038147</ele>
        <time>2021-04-22T08:32:30.000Z</time>
      </trkpt>
      <trkpt lat="47.33538" lon="-2.36633">
        <ele>31.60000038147</ele>
        <time>2021-04-22T08:32:34.000Z</time>
      </trkpt>
      <trkpt lat="47.33537" lon="-2.36631">
        <ele>31.60000038147</ele>
        <time>2021-04-22T08:32:35.000Z</time>
      </trkpt>
      <trkpt lat="47.33533" lon="-2.36626">
        <ele>32.200000762939</ele>
        <time>2021-04-22T08:32:38.000Z</time>
      </trkpt>
      <trkpt lat="47.33532" lon="-2.36625">
        <ele>32.599998474121</ele>
        <time>2021-04-22T08:32:39.000Z</time>
      </trkpt>
      <trkpt lat="47.3353" lon="-2.36623">
        <ele>33.599998474121</ele>
        <time>2021-04-22T08:32:40.000Z</time>
      </trkpt>
      <trkpt lat="47.33529" lon="-2.36622">
        <ele>34.200000762939</ele>
        <time>2021-04-22T08:32:41.000Z</time>
      </trkpt>
      <trkpt lat="47.33528" lon="-2.3662">
        <ele>34.599998474121</ele>
        <time>2021-04-22T08:32:42.000Z</time>
      </trkpt>
      <trkpt lat="47.33527" lon="-2.36619">
        <ele>35.200000762939</ele>
        <time>2021-04-22T08:32:43.000Z</time>
      </trkpt>
      <trkpt lat="47.33525" lon="-2.36617">
        <ele>35.799999237061</ele>
        <time>2021-04-22T08:32:44.000Z</time>
      </trkpt>
      <trkpt lat="47.33524" lon="-2.36616">
        <ele>36.200000762939</ele>
        <time>2021-04-22T08:32:45.000Z</time>
      </trkpt>
      <trkpt lat="47.33519" lon="-2.36614">
        <ele>36.200000762939</ele>
        <time>2021-04-22T08:32:47.000Z</time>
      </trkpt>
      <trkpt lat="47.33511" lon="-2.36609">
        <ele>36.599998474121</ele>
        <time>2021-04-22T08:32:50.000Z</time>
      </trkpt>
      <trkpt lat="47.33508" lon="-2.36606">
        <ele>37</ele>
        <time>2021-04-22T08:32:51.000Z</time>
      </trkpt>
      <trkpt lat="47.33506" lon="-2.36604">
        <ele>37.400001525879</ele>
        <time>2021-04-22T08:32:52.000Z</time>
      </trkpt>
      <trkpt lat="47.33503" lon="-2.36602">
        <ele>37.799999237061</ele>
        <time>2021-04-22T08:32:53.000Z</time>
      </trkpt>
      <trkpt lat="47.335" lon="-2.366">
        <ele>38.400001525879</ele>
        <time>2021-04-22T08:32:54.000Z</time>
      </trkpt>
      <trkpt lat="47.3349" lon="-2.36598">
        <ele>38.400001525879</ele>
        <time>2021-04-22T08:32:57.000Z</time>
      </trkpt>
      <trkpt lat="47.33475" lon="-2.36596">
        <ele>38.400001525879</ele>
        <time>2021-04-22T08:33:02.000Z</time>
      </trkpt>
      <trkpt lat="47.33473" lon="-2.36593">
        <ele>38.400001525879</ele>
        <time>2021-04-22T08:33:03.000Z</time>
      </trkpt>
      <trkpt lat="47.33471" lon="-2.36585">
        <ele>38.400001525879</ele>
        <time>2021-04-22T08:33:05.000Z</time>
      </trkpt>
      <trkpt lat="47.33471" lon="-2.36575">
        <ele>38.400001525879</ele>
        <time>2021-04-22T08:33:07.000Z</time>
      </trkpt>
      <trkpt lat="47.33472" lon="-2.36555">
        <ele>38.400001525879</ele>
        <time>2021-04-22T08:33:11.000Z</time>
      </trkpt>
      <trkpt lat="47.33473" lon="-2.36522">
        <ele>38.400001525879</ele>
        <time>2021-04-22T08:33:18.000Z</time>
      </trkpt>
      <trkpt lat="47.33473" lon="-2.36517">
        <ele>38.799999237061</ele>
        <time>2021-04-22T08:33:19.000Z</time>
      </trkpt>
      <trkpt lat="47.33474" lon="-2.36511">
        <ele>39.200000762939</ele>
        <time>2021-04-22T08:33:20.000Z</time>
      </trkpt>
      <trkpt lat="47.33474" lon="-2.36506">
        <ele>39.599998474121</ele>
        <time>2021-04-22T08:33:21.000Z</time>
      </trkpt>
      <trkpt lat="47.33474" lon="-2.36501">
        <ele>40</ele>
        <time>2021-04-22T08:33:22.000Z</time>
      </trkpt>
      <trkpt lat="47.33475" lon="-2.36496">
        <ele>40.400001525879</ele>
        <time>2021-04-22T08:33:23.000Z</time>
      </trkpt>
      <trkpt lat="47.33476" lon="-2.36486">
        <ele>40.400001525879</ele>
        <time>2021-04-22T08:33:25.000Z</time>
      </trkpt>
      <trkpt lat="47.33474" lon="-2.36461">
        <ele>40.400001525879</ele>
        <time>2021-04-22T08:33:30.000Z</time>
      </trkpt>
      <trkpt lat="47.33475" lon="-2.36436">
        <ele>40.400001525879</ele>
        <time>2021-04-22T08:33:36.000Z</time>
      </trkpt>
      <trkpt lat="47.33474" lon="-2.36428">
        <ele>40.400001525879</ele>
        <time>2021-04-22T08:33:40.000Z</time>
      </trkpt>
      <trkpt lat="47.33474" lon="-2.36427">
        <ele>40.400001525879</ele>
        <time>2021-04-22T08:33:41.000Z</time>
      </trkpt>
      <trkpt lat="47.33468" lon="-2.36423">
        <ele>40.400001525879</ele>
        <time>2021-04-22T08:33:53.000Z</time>
      </trkpt>
      <trkpt lat="47.33464" lon="-2.36421">
        <ele>40.400001525879</ele>
        <time>2021-04-22T08:33:55.000Z</time>
      </trkpt>
      <trkpt lat="47.33456" lon="-2.36412">
        <ele>40.400001525879</ele>
        <time>2021-04-22T08:34:00.000Z</time>
      </trkpt>
      <trkpt lat="47.33454" lon="-2.3641">
        <ele>40.400001525879</ele>
        <time>2021-04-22T08:34:01.000Z</time>
      </trkpt>
      <trkpt lat="47.33451" lon="-2.36405">
        <ele>40.799999237061</ele>
        <time>2021-04-22T08:34:03.000Z</time>
      </trkpt>
      <trkpt lat="47.3345" lon="-2.36401">
        <ele>41.200000762939</ele>
        <time>2021-04-22T08:34:04.000Z</time>
      </trkpt>
      <trkpt lat="47.33448" lon="-2.36397">
        <ele>41.599998474121</ele>
        <time>2021-04-22T08:34:05.000Z</time>
      </trkpt>
      <trkpt lat="47.33446" lon="-2.36393">
        <ele>42</ele>
        <time>2021-04-22T08:34:06.000Z</time>
      </trkpt>
      <trkpt lat="47.33445" lon="-2.3639">
        <ele>42.400001525879</ele>
        <time>2021-04-22T08:34:07.000Z</time>
      </trkpt>
      <trkpt lat="47.33436" lon="-2.3637">
        <ele>42.400001525879</ele>
        <time>2021-04-22T08:34:13.000Z</time>
      </trkpt>
      <trkpt lat="47.33425" lon="-2.36341">
        <ele>42.400001525879</ele>
        <time>2021-04-22T08:34:19.000Z</time>
      </trkpt>
      <trkpt lat="47.33423" lon="-2.36331">
        <ele>42.799999237061</ele>
        <time>2021-04-22T08:34:21.000Z</time>
      </trkpt>
      <trkpt lat="47.33422" lon="-2.36326">
        <ele>43.200000762939</ele>
        <time>2021-04-22T08:34:22.000Z</time>
      </trkpt>
      <trkpt lat="47.33421" lon="-2.36321">
        <ele>43.799999237061</ele>
        <time>2021-04-22T08:34:23.000Z</time>
      </trkpt>
      <trkpt lat="47.33419" lon="-2.36317">
        <ele>44.200000762939</ele>
        <time>2021-04-22T08:34:24.000Z</time>
      </trkpt>
      <trkpt lat="47.33418" lon="-2.36314">
        <ele>44.599998474121</ele>
        <time>2021-04-22T08:34:25.000Z</time>
      </trkpt>
      <trkpt lat="47.33418" lon="-2.36311">
        <ele>44.599998474121</ele>
        <time>2021-04-22T08:34:26.000Z</time>
      </trkpt>
      <trkpt lat="47.33412" lon="-2.36294">
        <ele>44.599998474121</ele>
        <time>2021-04-22T08:34:32.000Z</time>
      </trkpt>
      <trkpt lat="47.3341" lon="-2.3628">
        <ele>44.599998474121</ele>
        <time>2021-04-22T08:34:39.000Z</time>
      </trkpt>
      <trkpt lat="47.33409" lon="-2.3628">
        <ele>44.599998474121</ele>
        <time>2021-04-22T08:34:40.000Z</time>
      </trkpt>
      <trkpt lat="47.33409" lon="-2.3627">
        <ele>44.599998474121</ele>
        <time>2021-04-22T08:34:55.000Z</time>
      </trkpt>
      <trkpt lat="47.33408" lon="-2.36264">
        <ele>44.599998474121</ele>
        <time>2021-04-22T08:34:57.000Z</time>
      </trkpt>
      <trkpt lat="47.33408" lon="-2.36244">
        <ele>44.599998474121</ele>
        <time>2021-04-22T08:35:04.000Z</time>
      </trkpt>
      <trkpt lat="47.33407" lon="-2.36243">
        <ele>44.599998474121</ele>
        <time>2021-04-22T08:35:05.000Z</time>
      </trkpt>
      <trkpt lat="47.33409" lon="-2.36234">
        <ele>44.599998474121</ele>
        <time>2021-04-22T08:36:59.000Z</time>
      </trkpt>
      <trkpt lat="47.3341" lon="-2.36226">
        <ele>44.599998474121</ele>
        <time>2021-04-22T08:37:01.000Z</time>
      </trkpt>
      <trkpt lat="47.33413" lon="-2.36204">
        <ele>45.400001525879</ele>
        <time>2021-04-22T08:37:06.000Z</time>
      </trkpt>
      <trkpt lat="47.33412" lon="-2.362">
        <ele>45.799999237061</ele>
        <time>2021-04-22T08:37:07.000Z</time>
      </trkpt>
      <trkpt lat="47.33411" lon="-2.36195">
        <ele>46.200000762939</ele>
        <time>2021-04-22T08:37:08.000Z</time>
      </trkpt>
      <trkpt lat="47.33411" lon="-2.3619">
        <ele>46.599998474121</ele>
        <time>2021-04-22T08:37:09.000Z</time>
      </trkpt>
      <trkpt lat="47.33406" lon="-2.36166">
        <ele>46.599998474121</ele>
        <time>2021-04-22T08:37:14.000Z</time>
      </trkpt>
      <trkpt lat="47.33402" lon="-2.36161">
        <ele>46.599998474121</ele>
        <time>2021-04-22T08:37:16.000Z</time>
      </trkpt>
      <trkpt lat="47.33398" lon="-2.36165">
        <ele>46.599998474121</ele>
        <time>2021-04-22T08:37:17.000Z</time>
      </trkpt>
      <trkpt lat="47.3337" lon="-2.36183">
        <ele>46.599998474121</ele>
        <time>2021-04-22T08:37:24.000Z</time>
      </trkpt>
      <trkpt lat="47.33337" lon="-2.36205">
        <ele>46.599998474121</ele>
        <time>2021-04-22T08:37:32.000Z</time>
      </trkpt>
      <trkpt lat="47.33315" lon="-2.3622">
        <ele>46.599998474121</ele>
        <time>2021-04-22T08:37:37.000Z</time>
      </trkpt>
      <trkpt lat="47.33307" lon="-2.36216">
        <ele>46.599998474121</ele>
        <time>2021-04-22T08:37:39.000Z</time>
      </trkpt>
      <trkpt lat="47.33303" lon="-2.36201">
        <ele>46.599998474121</ele>
        <time>2021-04-22T08:37:42.000Z</time>
      </trkpt>
      <trkpt lat="47.33302" lon="-2.36194">
        <ele>46.599998474121</ele>
        <time>2021-04-22T08:37:43.000Z</time>
      </trkpt>
      <trkpt lat="47.33304" lon="-2.36156">
        <ele>46.599998474121</ele>
        <time>2021-04-22T08:37:47.000Z</time>
      </trkpt>
      <trkpt lat="47.33306" lon="-2.36101">
        <ele>47</ele>
        <time>2021-04-22T08:37:53.000Z</time>
      </trkpt>
      <trkpt lat="47.33306" lon="-2.36092">
        <ele>47.599998474121</ele>
        <time>2021-04-22T08:37:54.000Z</time>
      </trkpt>
      <trkpt lat="47.33306" lon="-2.36083">
        <ele>48.400001525879</ele>
        <time>2021-04-22T08:37:55.000Z</time>
      </trkpt>
      <trkpt lat="47.33307" lon="-2.36075">
        <ele>49</ele>
        <time>2021-04-22T08:37:56.000Z</time>
      </trkpt>
      <trkpt lat="47.33311" lon="-2.36011">
        <ele>49</ele>
        <time>2021-04-22T08:38:03.000Z</time>
      </trkpt>
      <trkpt lat="47.33314" lon="-2.35992">
        <ele>49</ele>
        <time>2021-04-22T08:38:05.000Z</time>
      </trkpt>
      <trkpt lat="47.33319" lon="-2.35963">
        <ele>49</ele>
        <time>2021-04-22T08:38:08.000Z</time>
      </trkpt>
      <trkpt lat="47.3332" lon="-2.35953">
        <ele>49</ele>
        <time>2021-04-22T08:38:09.000Z</time>
      </trkpt>
      <trkpt lat="47.33317" lon="-2.35923">
        <ele>49</ele>
        <time>2021-04-22T08:38:12.000Z</time>
      </trkpt>
      <trkpt lat="47.33306" lon="-2.35899">
        <ele>49</ele>
        <time>2021-04-22T08:38:15.000Z</time>
      </trkpt>
      <trkpt lat="47.33285" lon="-2.35883">
        <ele>49</ele>
        <time>2021-04-22T08:38:18.000Z</time>
      </trkpt>
      <trkpt lat="47.3327" lon="-2.35872">
        <ele>49</ele>
        <time>2021-04-22T08:38:20.000Z</time>
      </trkpt>
      <trkpt lat="47.33256" lon="-2.3586">
        <ele>48.400001525879</ele>
        <time>2021-04-22T08:38:22.000Z</time>
      </trkpt>
      <trkpt lat="47.33248" lon="-2.35853">
        <ele>48</ele>
        <time>2021-04-22T08:38:23.000Z</time>
      </trkpt>
      <trkpt lat="47.33241" lon="-2.35846">
        <ele>47.599998474121</ele>
        <time>2021-04-22T08:38:24.000Z</time>
      </trkpt>
      <trkpt lat="47.33233" lon="-2.35839">
        <ele>47.200000762939</ele>
        <time>2021-04-22T08:38:25.000Z</time>
      </trkpt>
      <trkpt lat="47.33225" lon="-2.35833">
        <ele>46.799999237061</ele>
        <time>2021-04-22T08:38:26.000Z</time>
      </trkpt>
      <trkpt lat="47.33208" lon="-2.35825">
        <ele>46.799999237061</ele>
        <time>2021-04-22T08:38:28.000Z</time>
      </trkpt>
      <trkpt lat="47.33191" lon="-2.35819">
        <ele>46.400001525879</ele>
        <time>2021-04-22T08:38:30.000Z</time>
      </trkpt>
      <trkpt lat="47.33183" lon="-2.35817">
        <ele>45.799999237061</ele>
        <time>2021-04-22T08:38:31.000Z</time>
      </trkpt>
      <trkpt lat="47.33175" lon="-2.35815">
        <ele>45.200000762939</ele>
        <time>2021-04-22T08:38:32.000Z</time>
      </trkpt>
      <trkpt lat="47.33166" lon="-2.35814">
        <ele>44.799999237061</ele>
        <time>2021-04-22T08:38:33.000Z</time>
      </trkpt>
      <trkpt lat="47.33158" lon="-2.35813">
        <ele>44.200000762939</ele>
        <time>2021-04-22T08:38:34.000Z</time>
      </trkpt>
      <trkpt lat="47.33151" lon="-2.35811">
        <ele>43.599998474121</ele>
        <time>2021-04-22T08:38:35.000Z</time>
      </trkpt>
      <trkpt lat="47.33144" lon="-2.35809">
        <ele>43.200000762939</ele>
        <time>2021-04-22T08:38:36.000Z</time>
      </trkpt>
      <trkpt lat="47.33137" lon="-2.35808">
        <ele>42.599998474121</ele>
        <time>2021-04-22T08:38:37.000Z</time>
      </trkpt>
      <trkpt lat="47.3313" lon="-2.35807">
        <ele>42</ele>
        <time>2021-04-22T08:38:38.000Z</time>
      </trkpt>
      <trkpt lat="47.33093" lon="-2.35806">
        <ele>41.599998474121</ele>
        <time>2021-04-22T08:38:43.000Z</time>
      </trkpt>
      <trkpt lat="47.33085" lon="-2.35806">
        <ele>40.799999237061</ele>
        <time>2021-04-22T08:38:44.000Z</time>
      </trkpt>
      <trkpt lat="47.33078" lon="-2.35805">
        <ele>40.400001525879</ele>
        <time>2021-04-22T08:38:45.000Z</time>
      </trkpt>
      <trkpt lat="47.33071" lon="-2.35806">
        <ele>40</ele>
        <time>2021-04-22T08:38:46.000Z</time>
      </trkpt>
      <trkpt lat="47.33044" lon="-2.35805">
        <ele>40</ele>
        <time>2021-04-22T08:38:50.000Z</time>
      </trkpt>
      <trkpt lat="47.33032" lon="-2.358">
        <ele>40</ele>
        <time>2021-04-22T08:38:52.000Z</time>
      </trkpt>
      <trkpt lat="47.3302" lon="-2.35789">
        <ele>40</ele>
        <time>2021-04-22T08:38:54.000Z</time>
      </trkpt>
      <trkpt lat="47.33015" lon="-2.35783">
        <ele>39.400001525879</ele>
        <time>2021-04-22T08:38:55.000Z</time>
      </trkpt>
      <trkpt lat="47.33011" lon="-2.35776">
        <ele>39</ele>
        <time>2021-04-22T08:38:56.000Z</time>
      </trkpt>
      <trkpt lat="47.33006" lon="-2.35769">
        <ele>38.599998474121</ele>
        <time>2021-04-22T08:38:57.000Z</time>
      </trkpt>
      <trkpt lat="47.33002" lon="-2.35762">
        <ele>38</ele>
        <time>2021-04-22T08:38:58.000Z</time>
      </trkpt>
      <trkpt lat="47.32998" lon="-2.35755">
        <ele>37.599998474121</ele>
        <time>2021-04-22T08:38:59.000Z</time>
      </trkpt>
      <trkpt lat="47.32995" lon="-2.35748">
        <ele>37.599998474121</ele>
        <time>2021-04-22T08:39:00.000Z</time>
      </trkpt>
      <trkpt lat="47.32993" lon="-2.35733">
        <ele>37.599998474121</ele>
        <time>2021-04-22T08:39:02.000Z</time>
      </trkpt>
      <trkpt lat="47.33001" lon="-2.35703">
        <ele>37.599998474121</ele>
        <time>2021-04-22T08:39:05.000Z</time>
      </trkpt>
      <trkpt lat="47.3301" lon="-2.35657">
        <ele>37.599998474121</ele>
        <time>2021-04-22T08:39:11.000Z</time>
      </trkpt>
      <trkpt lat="47.33017" lon="-2.35624">
        <ele>37.599998474121</ele>
        <time>2021-04-22T08:39:16.000Z</time>
      </trkpt>
      <trkpt lat="47.33021" lon="-2.35592">
        <ele>37.599998474121</ele>
        <time>2021-04-22T08:39:21.000Z</time>
      </trkpt>
      <trkpt lat="47.33022" lon="-2.35551">
        <ele>37.599998474121</ele>
        <time>2021-04-22T08:39:27.000Z</time>
      </trkpt>
      <trkpt lat="47.33024" lon="-2.35526">
        <ele>37.599998474121</ele>
        <time>2021-04-22T08:39:30.000Z</time>
      </trkpt>
      <trkpt lat="47.33024" lon="-2.35518">
        <ele>37.599998474121</ele>
        <time>2021-04-22T08:39:31.000Z</time>
      </trkpt>
      <trkpt lat="47.33028" lon="-2.35492">
        <ele>38</ele>
        <time>2021-04-22T08:39:35.000Z</time>
      </trkpt>
      <trkpt lat="47.33029" lon="-2.35485">
        <ele>38.400001525879</ele>
        <time>2021-04-22T08:39:36.000Z</time>
      </trkpt>
      <trkpt lat="47.33029" lon="-2.3548">
        <ele>38.799999237061</ele>
        <time>2021-04-22T08:39:37.000Z</time>
      </trkpt>
      <trkpt lat="47.3303" lon="-2.35476">
        <ele>39.200000762939</ele>
        <time>2021-04-22T08:39:38.000Z</time>
      </trkpt>
      <trkpt lat="47.33031" lon="-2.3547">
        <ele>39.599998474121</ele>
        <time>2021-04-22T08:39:39.000Z</time>
      </trkpt>
      <trkpt lat="47.33032" lon="-2.3546">
        <ele>39.599998474121</ele>
        <time>2021-04-22T08:39:41.000Z</time>
      </trkpt>
      <trkpt lat="47.3303" lon="-2.35451">
        <ele>39.599998474121</ele>
        <time>2021-04-22T08:39:43.000Z</time>
      </trkpt>
      <trkpt lat="47.3303" lon="-2.35441">
        <ele>39.599998474121</ele>
        <time>2021-04-22T08:39:45.000Z</time>
      </trkpt>
      <trkpt lat="47.33033" lon="-2.35417">
        <ele>39.599998474121</ele>
        <time>2021-04-22T08:39:49.000Z</time>
      </trkpt>
      <trkpt lat="47.33033" lon="-2.35411">
        <ele>39.599998474121</ele>
        <time>2021-04-22T08:39:50.000Z</time>
      </trkpt>
      <trkpt lat="47.33032" lon="-2.35404">
        <ele>39.599998474121</ele>
        <time>2021-04-22T08:39:51.000Z</time>
      </trkpt>
      <trkpt lat="47.33031" lon="-2.35385">
        <ele>40</ele>
        <time>2021-04-22T08:39:54.000Z</time>
      </trkpt>
      <trkpt lat="47.3303" lon="-2.35378">
        <ele>40.400001525879</ele>
        <time>2021-04-22T08:39:55.000Z</time>
      </trkpt>
      <trkpt lat="47.33029" lon="-2.35374">
        <ele>40.799999237061</ele>
        <time>2021-04-22T08:39:56.000Z</time>
      </trkpt>
      <trkpt lat="47.33028" lon="-2.35368">
        <ele>41.200000762939</ele>
        <time>2021-04-22T08:39:57.000Z</time>
      </trkpt>
      <trkpt lat="47.33028" lon="-2.35363">
        <ele>41.799999237061</ele>
        <time>2021-04-22T08:39:58.000Z</time>
      </trkpt>
      <trkpt lat="47.33026" lon="-2.35346">
        <ele>41.799999237061</ele>
        <time>2021-04-22T08:40:01.000Z</time>
      </trkpt>
      <trkpt lat="47.33024" lon="-2.35326">
        <ele>41.799999237061</ele>
        <time>2021-04-22T08:40:04.000Z</time>
      </trkpt>
      <trkpt lat="47.33024" lon="-2.35312">
        <ele>41.799999237061</ele>
        <time>2021-04-22T08:40:06.000Z</time>
      </trkpt>
      <trkpt lat="47.33024" lon="-2.35289">
        <ele>41.799999237061</ele>
        <time>2021-04-22T08:40:09.000Z</time>
      </trkpt>
      <trkpt lat="47.33026" lon="-2.35274">
        <ele>41.799999237061</ele>
        <time>2021-04-22T08:40:11.000Z</time>
      </trkpt>
      <trkpt lat="47.33026" lon="-2.35255">
        <ele>41.799999237061</ele>
        <time>2021-04-22T08:40:13.000Z</time>
      </trkpt>
      <trkpt lat="47.33023" lon="-2.3524">
        <ele>41.799999237061</ele>
        <time>2021-04-22T08:40:15.000Z</time>
      </trkpt>
      <trkpt lat="47.33024" lon="-2.35232">
        <ele>41.799999237061</ele>
        <time>2021-04-22T08:40:16.000Z</time>
      </trkpt>
      <trkpt lat="47.33028" lon="-2.35217">
        <ele>41.799999237061</ele>
        <time>2021-04-22T08:40:18.000Z</time>
      </trkpt>
      <trkpt lat="47.33032" lon="-2.35202">
        <ele>41.799999237061</ele>
        <time>2021-04-22T08:40:20.000Z</time>
      </trkpt>
      <trkpt lat="47.33036" lon="-2.35196">
        <ele>41.799999237061</ele>
        <time>2021-04-22T08:40:21.000Z</time>
      </trkpt>
      <trkpt lat="47.33041" lon="-2.35186">
        <ele>41.799999237061</ele>
        <time>2021-04-22T08:40:23.000Z</time>
      </trkpt>
      <trkpt lat="47.33046" lon="-2.35174">
        <ele>41.799999237061</ele>
        <time>2021-04-22T08:40:27.000Z</time>
      </trkpt>
      <trkpt lat="47.33052" lon="-2.35154">
        <ele>41.799999237061</ele>
        <time>2021-04-22T08:40:33.000Z</time>
      </trkpt>
      <trkpt lat="47.33056" lon="-2.35145">
        <ele>41.799999237061</ele>
        <time>2021-04-22T08:40:38.000Z</time>
      </trkpt>
      <trkpt lat="47.33058" lon="-2.35142">
        <ele>41.799999237061</ele>
        <time>2021-04-22T08:40:52.000Z</time>
      </trkpt>
      <trkpt lat="47.33061" lon="-2.35136">
        <ele>41.799999237061</ele>
        <time>2021-04-22T08:40:54.000Z</time>
      </trkpt>
      <trkpt lat="47.33072" lon="-2.35115">
        <ele>41.799999237061</ele>
        <time>2021-04-22T08:40:59.000Z</time>
      </trkpt>
      <trkpt lat="47.33085" lon="-2.35093">
        <ele>41.799999237061</ele>
        <time>2021-04-22T08:41:04.000Z</time>
      </trkpt>
      <trkpt lat="47.33097" lon="-2.35071">
        <ele>41.799999237061</ele>
        <time>2021-04-22T08:41:09.000Z</time>
      </trkpt>
      <trkpt lat="47.33114" lon="-2.3504">
        <ele>41.799999237061</ele>
        <time>2021-04-22T08:41:15.000Z</time>
      </trkpt>
      <trkpt lat="47.33129" lon="-2.35016">
        <ele>41.799999237061</ele>
        <time>2021-04-22T08:41:20.000Z</time>
      </trkpt>
      <trkpt lat="47.33144" lon="-2.34993">
        <ele>41.799999237061</ele>
        <time>2021-04-22T08:41:25.000Z</time>
      </trkpt>
      <trkpt lat="47.33154" lon="-2.34971">
        <ele>40.799999237061</ele>
        <time>2021-04-22T08:41:31.000Z</time>
      </trkpt>
      <trkpt lat="47.33155" lon="-2.34969">
        <ele>40.400001525879</ele>
        <time>2021-04-22T08:41:32.000Z</time>
      </trkpt>
      <trkpt lat="47.33157" lon="-2.34966">
        <ele>40</ele>
        <time>2021-04-22T08:41:33.000Z</time>
      </trkpt>
      <trkpt lat="47.33159" lon="-2.34964">
        <ele>39.599998474121</ele>
        <time>2021-04-22T08:41:34.000Z</time>
      </trkpt>
      <trkpt lat="47.33165" lon="-2.34952">
        <ele>39.599998474121</ele>
        <time>2021-04-22T08:41:37.000Z</time>
      </trkpt>
      <trkpt lat="47.33174" lon="-2.34929">
        <ele>39.599998474121</ele>
        <time>2021-04-22T08:41:41.000Z</time>
      </trkpt>
      <trkpt lat="47.33179" lon="-2.34916">
        <ele>39.599998474121</ele>
        <time>2021-04-22T08:41:43.000Z</time>
      </trkpt>
      <trkpt lat="47.33192" lon="-2.34883">
        <ele>39.599998474121</ele>
        <time>2021-04-22T08:41:48.000Z</time>
      </trkpt>
      <trkpt lat="47.33195" lon="-2.34877">
        <ele>39.599998474121</ele>
        <time>2021-04-22T08:41:49.000Z</time>
      </trkpt>
      <trkpt lat="47.33205" lon="-2.3486">
        <ele>39.599998474121</ele>
        <time>2021-04-22T08:41:53.000Z</time>
      </trkpt>
      <trkpt lat="47.33207" lon="-2.34857">
        <ele>39</ele>
        <time>2021-04-22T08:41:54.000Z</time>
      </trkpt>
      <trkpt lat="47.33209" lon="-2.34854">
        <ele>38.200000762939</ele>
        <time>2021-04-22T08:41:55.000Z</time>
      </trkpt>
      <trkpt lat="47.3321" lon="-2.3485">
        <ele>37.799999237061</ele>
        <time>2021-04-22T08:41:56.000Z</time>
      </trkpt>
      <trkpt lat="47.33212" lon="-2.34845">
        <ele>37.400001525879</ele>
        <time>2021-04-22T08:41:57.000Z</time>
      </trkpt>
      <trkpt lat="47.33216" lon="-2.34837">
        <ele>37.400001525879</ele>
        <time>2021-04-22T08:41:59.000Z</time>
      </trkpt>
      <trkpt lat="47.33224" lon="-2.3482">
        <ele>37.400001525879</ele>
        <time>2021-04-22T08:42:04.000Z</time>
      </trkpt>
      <trkpt lat="47.33225" lon="-2.34816">
        <ele>37.400001525879</ele>
        <time>2021-04-22T08:42:05.000Z</time>
      </trkpt>
      <trkpt lat="47.33234" lon="-2.34786">
        <ele>37.400001525879</ele>
        <time>2021-04-22T08:42:10.000Z</time>
      </trkpt>
      <trkpt lat="47.33245" lon="-2.34761">
        <ele>37</ele>
        <time>2021-04-22T08:42:16.000Z</time>
      </trkpt>
      <trkpt lat="47.33246" lon="-2.34758">
        <ele>36.599998474121</ele>
        <time>2021-04-22T08:42:17.000Z</time>
      </trkpt>
      <trkpt lat="47.33247" lon="-2.34754">
        <ele>36</ele>
        <time>2021-04-22T08:42:18.000Z</time>
      </trkpt>
      <trkpt lat="47.33249" lon="-2.34751">
        <ele>35.599998474121</ele>
        <time>2021-04-22T08:42:19.000Z</time>
      </trkpt>
      <trkpt lat="47.3325" lon="-2.34749">
        <ele>35.200000762939</ele>
        <time>2021-04-22T08:42:20.000Z</time>
      </trkpt>
      <trkpt lat="47.33251" lon="-2.34746">
        <ele>35.200000762939</ele>
        <time>2021-04-22T08:42:21.000Z</time>
      </trkpt>
      <trkpt lat="47.33261" lon="-2.34734">
        <ele>35.200000762939</ele>
        <time>2021-04-22T08:42:27.000Z</time>
      </trkpt>
      <trkpt lat="47.33267" lon="-2.34712">
        <ele>35.200000762939</ele>
        <time>2021-04-22T08:42:32.000Z</time>
      </trkpt>
      <trkpt lat="47.33277" lon="-2.34689">
        <ele>35.200000762939</ele>
        <time>2021-04-22T08:42:37.000Z</time>
      </trkpt>
      <trkpt lat="47.3328" lon="-2.34687">
        <ele>35.200000762939</ele>
        <time>2021-04-22T08:42:39.000Z</time>
      </trkpt>
      <trkpt lat="47.33288" lon="-2.34664">
        <ele>35.200000762939</ele>
        <time>2021-04-22T08:43:03.000Z</time>
      </trkpt>
      <trkpt lat="47.33289" lon="-2.34661">
        <ele>35.200000762939</ele>
        <time>2021-04-22T08:43:04.000Z</time>
      </trkpt>
      <trkpt lat="47.33294" lon="-2.34644">
        <ele>35.200000762939</ele>
        <time>2021-04-22T08:43:08.000Z</time>
      </trkpt>
      <trkpt lat="47.33302" lon="-2.34619">
        <ele>35.200000762939</ele>
        <time>2021-04-22T08:43:13.000Z</time>
      </trkpt>
      <trkpt lat="47.33311" lon="-2.34589">
        <ele>35.200000762939</ele>
        <time>2021-04-22T08:43:18.000Z</time>
      </trkpt>
      <trkpt lat="47.33317" lon="-2.34568">
        <ele>35.200000762939</ele>
        <time>2021-04-22T08:43:22.000Z</time>
      </trkpt>
      <trkpt lat="47.33322" lon="-2.34552">
        <ele>35.200000762939</ele>
        <time>2021-04-22T08:43:27.000Z</time>
      </trkpt>
      <trkpt lat="47.33324" lon="-2.34526">
        <ele>35.200000762939</ele>
        <time>2021-04-22T08:43:33.000Z</time>
      </trkpt>
      <trkpt lat="47.33335" lon="-2.345">
        <ele>35.200000762939</ele>
        <time>2021-04-22T08:43:39.000Z</time>
      </trkpt>
      <trkpt lat="47.33344" lon="-2.34484">
        <ele>35.200000762939</ele>
        <time>2021-04-22T08:43:45.000Z</time>
      </trkpt>
      <trkpt lat="47.33347" lon="-2.34482">
        <ele>35.200000762939</ele>
        <time>2021-04-22T08:43:49.000Z</time>
      </trkpt>
      <trkpt lat="47.33357" lon="-2.34487">
        <ele>35.200000762939</ele>
        <time>2021-04-22T08:45:39.000Z</time>
      </trkpt>
      <trkpt lat="47.33358" lon="-2.34489">
        <ele>35.200000762939</ele>
        <time>2021-04-22T08:45:40.000Z</time>
      </trkpt>
      <trkpt lat="47.33367" lon="-2.34501">
        <ele>35.200000762939</ele>
        <time>2021-04-22T08:45:44.000Z</time>
      </trkpt>
      <trkpt lat="47.33378" lon="-2.34522">
        <ele>35.200000762939</ele>
        <time>2021-04-22T08:45:49.000Z</time>
      </trkpt>
      <trkpt lat="47.33396" lon="-2.34555">
        <ele>35.200000762939</ele>
        <time>2021-04-22T08:45:55.000Z</time>
      </trkpt>
      <trkpt lat="47.33417" lon="-2.34593">
        <ele>35.599998474121</ele>
        <time>2021-04-22T08:46:01.000Z</time>
      </trkpt>
      <trkpt lat="47.3342" lon="-2.34599">
        <ele>36.400001525879</ele>
        <time>2021-04-22T08:46:02.000Z</time>
      </trkpt>
      <trkpt lat="47.33424" lon="-2.34605">
        <ele>36.799999237061</ele>
        <time>2021-04-22T08:46:03.000Z</time>
      </trkpt>
      <trkpt lat="47.33427" lon="-2.34611">
        <ele>37.200000762939</ele>
        <time>2021-04-22T08:46:04.000Z</time>
      </trkpt>
      <trkpt lat="47.33445" lon="-2.3464">
        <ele>37.200000762939</ele>
        <time>2021-04-22T08:46:09.000Z</time>
      </trkpt>
      <trkpt lat="47.33449" lon="-2.34646">
        <ele>37.599998474121</ele>
        <time>2021-04-22T08:46:10.000Z</time>
      </trkpt>
      <trkpt lat="47.33452" lon="-2.34653">
        <ele>38</ele>
        <time>2021-04-22T08:46:11.000Z</time>
      </trkpt>
      <trkpt lat="47.33456" lon="-2.34659">
        <ele>38.599998474121</ele>
        <time>2021-04-22T08:46:12.000Z</time>
      </trkpt>
      <trkpt lat="47.33459" lon="-2.34665">
        <ele>39</ele>
        <time>2021-04-22T08:46:13.000Z</time>
      </trkpt>
      <trkpt lat="47.33463" lon="-2.34671">
        <ele>39.400001525879</ele>
        <time>2021-04-22T08:46:14.000Z</time>
      </trkpt>
      <trkpt lat="47.33471" lon="-2.34682">
        <ele>39.400001525879</ele>
        <time>2021-04-22T08:46:16.000Z</time>
      </trkpt>
      <trkpt lat="47.33495" lon="-2.34716">
        <ele>39.400001525879</ele>
        <time>2021-04-22T08:46:22.000Z</time>
      </trkpt>
      <trkpt lat="47.33507" lon="-2.34735">
        <ele>39.799999237061</ele>
        <time>2021-04-22T08:46:25.000Z</time>
      </trkpt>
      <trkpt lat="47.33511" lon="-2.34741">
        <ele>40.200000762939</ele>
        <time>2021-04-22T08:46:26.000Z</time>
      </trkpt>
      <trkpt lat="47.33516" lon="-2.34747">
        <ele>41</ele>
        <time>2021-04-22T08:46:27.000Z</time>
      </trkpt>
      <trkpt lat="47.3352" lon="-2.34752">
        <ele>41.400001525879</ele>
        <time>2021-04-22T08:46:28.000Z</time>
      </trkpt>
      <trkpt lat="47.33544" lon="-2.34787">
        <ele>41.400001525879</ele>
        <time>2021-04-22T08:46:34.000Z</time>
      </trkpt>
      <trkpt lat="47.33566" lon="-2.34817">
        <ele>41.400001525879</ele>
        <time>2021-04-22T08:46:39.000Z</time>
      </trkpt>
      <trkpt lat="47.33597" lon="-2.34859">
        <ele>41.400001525879</ele>
        <time>2021-04-22T08:46:46.000Z</time>
      </trkpt>
      <trkpt lat="47.33622" lon="-2.34893">
        <ele>41.400001525879</ele>
        <time>2021-04-22T08:46:52.000Z</time>
      </trkpt>
      <trkpt lat="47.33651" lon="-2.34935">
        <ele>41.400001525879</ele>
        <time>2021-04-22T08:46:59.000Z</time>
      </trkpt>
      <trkpt lat="47.3366" lon="-2.34953">
        <ele>41</ele>
        <time>2021-04-22T08:47:02.000Z</time>
      </trkpt>
      <trkpt lat="47.3366" lon="-2.34958">
        <ele>40.599998474121</ele>
        <time>2021-04-22T08:47:03.000Z</time>
      </trkpt>
      <trkpt lat="47.33659" lon="-2.34962">
        <ele>40.200000762939</ele>
        <time>2021-04-22T08:47:04.000Z</time>
      </trkpt>
      <trkpt lat="47.33658" lon="-2.34966">
        <ele>39.799999237061</ele>
        <time>2021-04-22T08:47:05.000Z</time>
      </trkpt>
      <trkpt lat="47.33656" lon="-2.34969">
        <ele>39.400001525879</ele>
        <time>2021-04-22T08:47:06.000Z</time>
      </trkpt>
      <trkpt lat="47.33647" lon="-2.34972">
        <ele>39.400001525879</ele>
        <time>2021-04-22T08:47:10.000Z</time>
      </trkpt>
      <trkpt lat="47.33632" lon="-2.3496">
        <ele>39.400001525879</ele>
        <time>2021-04-22T08:47:16.000Z</time>
      </trkpt>
      <trkpt lat="47.33615" lon="-2.34952">
        <ele>39.400001525879</ele>
        <time>2021-04-22T08:47:21.000Z</time>
      </trkpt>
      <trkpt lat="47.33608" lon="-2.34949">
        <ele>39.799999237061</ele>
        <time>2021-04-22T08:47:23.000Z</time>
      </trkpt>
      <trkpt lat="47.33604" lon="-2.34948">
        <ele>40.200000762939</ele>
        <time>2021-04-22T08:47:24.000Z</time>
      </trkpt>
      <trkpt lat="47.33601" lon="-2.34947">
        <ele>40.599998474121</ele>
        <time>2021-04-22T08:47:25.000Z</time>
      </trkpt>
      <trkpt lat="47.33598" lon="-2.34946">
        <ele>41</ele>
        <time>2021-04-22T08:47:26.000Z</time>
      </trkpt>
      <trkpt lat="47.33595" lon="-2.34946">
        <ele>41.400001525879</ele>
        <time>2021-04-22T08:47:27.000Z</time>
      </trkpt>
      <trkpt lat="47.33576" lon="-2.34939">
        <ele>41.400001525879</ele>
        <time>2021-04-22T08:47:33.000Z</time>
      </trkpt>
      <trkpt lat="47.33556" lon="-2.3493">
        <ele>41.400001525879</ele>
        <time>2021-04-22T08:47:39.000Z</time>
      </trkpt>
      <trkpt lat="47.33538" lon="-2.34918">
        <ele>41.400001525879</ele>
        <time>2021-04-22T08:47:45.000Z</time>
      </trkpt>
      <trkpt lat="47.33509" lon="-2.34912">
        <ele>41.400001525879</ele>
        <time>2021-04-22T08:47:51.000Z</time>
      </trkpt>
      <trkpt lat="47.33479" lon="-2.34905">
        <ele>41.400001525879</ele>
        <time>2021-04-22T08:47:56.000Z</time>
      </trkpt>
      <trkpt lat="47.33449" lon="-2.34909">
        <ele>41.400001525879</ele>
        <time>2021-04-22T08:48:02.000Z</time>
      </trkpt>
      <trkpt lat="47.33419" lon="-2.34921">
        <ele>41.400001525879</ele>
        <time>2021-04-22T08:48:09.000Z</time>
      </trkpt>
      <trkpt lat="47.33391" lon="-2.34929">
        <ele>41.400001525879</ele>
        <time>2021-04-22T08:48:16.000Z</time>
      </trkpt>
      <trkpt lat="47.33369" lon="-2.34932">
        <ele>41.400001525879</ele>
        <time>2021-04-22T08:48:24.000Z</time>
      </trkpt>
      <trkpt lat="47.33356" lon="-2.34936">
        <ele>41.400001525879</ele>
        <time>2021-04-22T08:48:31.000Z</time>
      </trkpt>
      <trkpt lat="47.33344" lon="-2.34936">
        <ele>41.400001525879</ele>
        <time>2021-04-22T08:48:39.000Z</time>
      </trkpt>
      <trkpt lat="47.33341" lon="-2.34936">
        <ele>41.400001525879</ele>
        <time>2021-04-22T08:48:42.000Z</time>
      </trkpt>
      <trkpt lat="47.33324" lon="-2.34938">
        <ele>41.400001525879</ele>
        <time>2021-04-22T08:49:48.000Z</time>
      </trkpt>
      <trkpt lat="47.3332" lon="-2.34939">
        <ele>41.400001525879</ele>
        <time>2021-04-22T08:49:49.000Z</time>
      </trkpt>
      <trkpt lat="47.33298" lon="-2.34942">
        <ele>41.400001525879</ele>
        <time>2021-04-22T08:49:56.000Z</time>
      </trkpt>
      <trkpt lat="47.3328" lon="-2.34946">
        <ele>41.400001525879</ele>
        <time>2021-04-22T08:50:03.000Z</time>
      </trkpt>
      <trkpt lat="47.33274" lon="-2.34947">
        <ele>41.400001525879</ele>
        <time>2021-04-22T08:50:08.000Z</time>
      </trkpt>
      <trkpt lat="47.33273" lon="-2.34947">
        <ele>41.400001525879</ele>
        <time>2021-04-22T08:50:10.000Z</time>
      </trkpt>
      <trkpt lat="47.33265" lon="-2.34954">
        <ele>41.400001525879</ele>
        <time>2021-04-22T08:50:18.000Z</time>
      </trkpt>
      <trkpt lat="47.33261" lon="-2.34959">
        <ele>41.400001525879</ele>
        <time>2021-04-22T08:50:21.000Z</time>
      </trkpt>
      <trkpt lat="47.33255" lon="-2.3496">
        <ele>41.400001525879</ele>
        <time>2021-04-22T08:50:25.000Z</time>
      </trkpt>
      <trkpt lat="47.33253" lon="-2.34961">
        <ele>41.400001525879</ele>
        <time>2021-04-22T08:50:26.000Z</time>
      </trkpt>
      <trkpt lat="47.33247" lon="-2.34964">
        <ele>41.400001525879</ele>
        <time>2021-04-22T08:50:29.000Z</time>
      </trkpt>
      <trkpt lat="47.33241" lon="-2.34967">
        <ele>41.400001525879</ele>
        <time>2021-04-22T08:50:32.000Z</time>
      </trkpt>
      <trkpt lat="47.3324" lon="-2.34968">
        <ele>41.400001525879</ele>
        <time>2021-04-22T08:50:33.000Z</time>
      </trkpt>
      <trkpt lat="47.33229" lon="-2.34976">
        <ele>41.400001525879</ele>
        <time>2021-04-22T08:50:37.000Z</time>
      </trkpt>
      <trkpt lat="47.33216" lon="-2.3499">
        <ele>41.400001525879</ele>
        <time>2021-04-22T08:50:42.000Z</time>
      </trkpt>
      <trkpt lat="47.33197" lon="-2.35014">
        <ele>41.400001525879</ele>
        <time>2021-04-22T08:50:49.000Z</time>
      </trkpt>
      <trkpt lat="47.33189" lon="-2.35023">
        <ele>41.400001525879</ele>
        <time>2021-04-22T08:50:53.000Z</time>
      </trkpt>
      <trkpt lat="47.33187" lon="-2.35024">
        <ele>41.400001525879</ele>
        <time>2021-04-22T08:50:54.000Z</time>
      </trkpt>
      <trkpt lat="47.33178" lon="-2.35018">
        <ele>41.400001525879</ele>
        <time>2021-04-22T08:50:58.000Z</time>
      </trkpt>
      <trkpt lat="47.33173" lon="-2.35015">
        <ele>41.400001525879</ele>
        <time>2021-04-22T08:50:59.000Z</time>
      </trkpt>
      <trkpt lat="47.33164" lon="-2.35014">
        <ele>41.400001525879</ele>
        <time>2021-04-22T08:51:02.000Z</time>
      </trkpt>
      <trkpt lat="47.33159" lon="-2.35015">
        <ele>41.400001525879</ele>
        <time>2021-04-22T08:51:04.000Z</time>
      </trkpt>
      <trkpt lat="47.33158" lon="-2.35015">
        <ele>41.400001525879</ele>
        <time>2021-04-22T08:51:06.000Z</time>
      </trkpt>
      <trkpt lat="47.33154" lon="-2.35018">
        <ele>41.400001525879</ele>
        <time>2021-04-22T08:51:46.000Z</time>
      </trkpt>
      <trkpt lat="47.33153" lon="-2.3502">
        <ele>41.400001525879</ele>
        <time>2021-04-22T08:51:48.000Z</time>
      </trkpt>
      <trkpt lat="47.33143" lon="-2.35034">
        <ele>41.400001525879</ele>
        <time>2021-04-22T08:51:54.000Z</time>
      </trkpt>
      <trkpt lat="47.33128" lon="-2.35057">
        <ele>41.400001525879</ele>
        <time>2021-04-22T08:52:00.000Z</time>
      </trkpt>
      <trkpt lat="47.33109" lon="-2.35082">
        <ele>41.400001525879</ele>
        <time>2021-04-22T08:52:06.000Z</time>
      </trkpt>
      <trkpt lat="47.33097" lon="-2.35098">
        <ele>41.400001525879</ele>
        <time>2021-04-22T08:52:11.000Z</time>
      </trkpt>
      <trkpt lat="47.33089" lon="-2.35117">
        <ele>41.400001525879</ele>
        <time>2021-04-22T08:52:15.000Z</time>
      </trkpt>
      <trkpt lat="47.33083" lon="-2.35131">
        <ele>41.799999237061</ele>
        <time>2021-04-22T08:52:18.000Z</time>
      </trkpt>
      <trkpt lat="47.3308" lon="-2.35135">
        <ele>42.200000762939</ele>
        <time>2021-04-22T08:52:19.000Z</time>
      </trkpt>
      <trkpt lat="47.33078" lon="-2.35139">
        <ele>42.599998474121</ele>
        <time>2021-04-22T08:52:20.000Z</time>
      </trkpt>
      <trkpt lat="47.33075" lon="-2.35142">
        <ele>43</ele>
        <time>2021-04-22T08:52:21.000Z</time>
      </trkpt>
      <trkpt lat="47.33072" lon="-2.35145">
        <ele>43.400001525879</ele>
        <time>2021-04-22T08:52:22.000Z</time>
      </trkpt>
      <trkpt lat="47.33066" lon="-2.35156">
        <ele>43.400001525879</ele>
        <time>2021-04-22T08:52:25.000Z</time>
      </trkpt>
      <trkpt lat="47.33054" lon="-2.3518">
        <ele>43.400001525879</ele>
        <time>2021-04-22T08:52:30.000Z</time>
      </trkpt>
      <trkpt lat="47.33038" lon="-2.35203">
        <ele>43.400001525879</ele>
        <time>2021-04-22T08:52:35.000Z</time>
      </trkpt>
      <trkpt lat="47.33029" lon="-2.35225">
        <ele>43.400001525879</ele>
        <time>2021-04-22T08:52:40.000Z</time>
      </trkpt>
      <trkpt lat="47.33027" lon="-2.3525">
        <ele>43.400001525879</ele>
        <time>2021-04-22T08:52:45.000Z</time>
      </trkpt>
      <trkpt lat="47.33026" lon="-2.35275">
        <ele>43.400001525879</ele>
        <time>2021-04-22T08:52:49.000Z</time>
      </trkpt>
      <trkpt lat="47.33026" lon="-2.35282">
        <ele>43.400001525879</ele>
        <time>2021-04-22T08:52:50.000Z</time>
      </trkpt>
      <trkpt lat="47.33025" lon="-2.35321">
        <ele>43.400001525879</ele>
        <time>2021-04-22T08:52:56.000Z</time>
      </trkpt>
      <trkpt lat="47.33027" lon="-2.35356">
        <ele>43.400001525879</ele>
        <time>2021-04-22T08:53:01.000Z</time>
      </trkpt>
      <trkpt lat="47.33029" lon="-2.35363">
        <ele>43.400001525879</ele>
        <time>2021-04-22T08:53:02.000Z</time>
      </trkpt>
      <trkpt lat="47.33034" lon="-2.35406">
        <ele>43.400001525879</ele>
        <time>2021-04-22T08:53:08.000Z</time>
      </trkpt>
      <trkpt lat="47.33033" lon="-2.3542">
        <ele>43.400001525879</ele>
        <time>2021-04-22T08:53:10.000Z</time>
      </trkpt>
      <trkpt lat="47.33033" lon="-2.3544">
        <ele>43.400001525879</ele>
        <time>2021-04-22T08:53:13.000Z</time>
      </trkpt>
      <trkpt lat="47.33031" lon="-2.35457">
        <ele>43</ele>
        <time>2021-04-22T08:53:16.000Z</time>
      </trkpt>
      <trkpt lat="47.3303" lon="-2.35462">
        <ele>42.599998474121</ele>
        <time>2021-04-22T08:53:17.000Z</time>
      </trkpt>
      <trkpt lat="47.33031" lon="-2.35466">
        <ele>42.200000762939</ele>
        <time>2021-04-22T08:53:18.000Z</time>
      </trkpt>
      <trkpt lat="47.33031" lon="-2.35471">
        <ele>41.799999237061</ele>
        <time>2021-04-22T08:53:19.000Z</time>
      </trkpt>
      <trkpt lat="47.33031" lon="-2.35477">
        <ele>41.400001525879</ele>
        <time>2021-04-22T08:53:20.000Z</time>
      </trkpt>
      <trkpt lat="47.33031" lon="-2.35494">
        <ele>41.400001525879</ele>
        <time>2021-04-22T08:53:23.000Z</time>
      </trkpt>
      <trkpt lat="47.3303" lon="-2.35513">
        <ele>41.400001525879</ele>
        <time>2021-04-22T08:53:27.000Z</time>
      </trkpt>
      <trkpt lat="47.3303" lon="-2.35539">
        <ele>41.400001525879</ele>
        <time>2021-04-22T08:53:32.000Z</time>
      </trkpt>
      <trkpt lat="47.33028" lon="-2.35576">
        <ele>41.400001525879</ele>
        <time>2021-04-22T08:53:38.000Z</time>
      </trkpt>
      <trkpt lat="47.33026" lon="-2.35596">
        <ele>41</ele>
        <time>2021-04-22T08:53:41.000Z</time>
      </trkpt>
      <trkpt lat="47.33026" lon="-2.35603">
        <ele>40.599998474121</ele>
        <time>2021-04-22T08:53:42.000Z</time>
      </trkpt>
      <trkpt lat="47.33025" lon="-2.3561">
        <ele>40.200000762939</ele>
        <time>2021-04-22T08:53:43.000Z</time>
      </trkpt>
      <trkpt lat="47.33024" lon="-2.35618">
        <ele>39.799999237061</ele>
        <time>2021-04-22T08:53:44.000Z</time>
      </trkpt>
      <trkpt lat="47.33024" lon="-2.35625">
        <ele>39.400001525879</ele>
        <time>2021-04-22T08:53:45.000Z</time>
      </trkpt>
      <trkpt lat="47.33023" lon="-2.35641">
        <ele>39.400001525879</ele>
        <time>2021-04-22T08:53:48.000Z</time>
      </trkpt>
      <trkpt lat="47.33023" lon="-2.35646">
        <ele>39.400001525879</ele>
        <time>2021-04-22T08:53:49.000Z</time>
      </trkpt>
      <trkpt lat="47.33025" lon="-2.35655">
        <ele>39</ele>
        <time>2021-04-22T08:53:52.000Z</time>
      </trkpt>
      <trkpt lat="47.33027" lon="-2.35655">
        <ele>38.200000762939</ele>
        <time>2021-04-22T08:53:53.000Z</time>
      </trkpt>
      <trkpt lat="47.33029" lon="-2.35654">
        <ele>37.799999237061</ele>
        <time>2021-04-22T08:53:54.000Z</time>
      </trkpt>
      <trkpt lat="47.33032" lon="-2.35653">
        <ele>37.400001525879</ele>
        <time>2021-04-22T08:53:55.000Z</time>
      </trkpt>
      <trkpt lat="47.33034" lon="-2.35652">
        <ele>37.400001525879</ele>
        <time>2021-04-22T08:53:56.000Z</time>
      </trkpt>
      <trkpt lat="47.33059" lon="-2.35647">
        <ele>37.799999237061</ele>
        <time>2021-04-22T08:54:02.000Z</time>
      </trkpt>
      <trkpt lat="47.33064" lon="-2.35647">
        <ele>38.200000762939</ele>
        <time>2021-04-22T08:54:03.000Z</time>
      </trkpt>
      <trkpt lat="47.33068" lon="-2.35646">
        <ele>38.599998474121</ele>
        <time>2021-04-22T08:54:04.000Z</time>
      </trkpt>
      <trkpt lat="47.33073" lon="-2.35646">
        <ele>39</ele>
        <time>2021-04-22T08:54:05.000Z</time>
      </trkpt>
      <trkpt lat="47.33079" lon="-2.35645">
        <ele>39.400001525879</ele>
        <time>2021-04-22T08:54:06.000Z</time>
      </trkpt>
      <trkpt lat="47.33094" lon="-2.35643">
        <ele>39.400001525879</ele>
        <time>2021-04-22T08:54:09.000Z</time>
      </trkpt>
      <trkpt lat="47.33103" lon="-2.35641">
        <ele>39.799999237061</ele>
        <time>2021-04-22T08:54:11.000Z</time>
      </trkpt>
      <trkpt lat="47.33107" lon="-2.3564">
        <ele>40.200000762939</ele>
        <time>2021-04-22T08:54:12.000Z</time>
      </trkpt>
      <trkpt lat="47.33112" lon="-2.35639">
        <ele>40.599998474121</ele>
        <time>2021-04-22T08:54:13.000Z</time>
      </trkpt>
      <trkpt lat="47.33118" lon="-2.35638">
        <ele>41</ele>
        <time>2021-04-22T08:54:14.000Z</time>
      </trkpt>
      <trkpt lat="47.33122" lon="-2.35638">
        <ele>41.400001525879</ele>
        <time>2021-04-22T08:54:15.000Z</time>
      </trkpt>
      <trkpt lat="47.33152" lon="-2.35634">
        <ele>41.799999237061</ele>
        <time>2021-04-22T08:54:21.000Z</time>
      </trkpt>
      <trkpt lat="47.33157" lon="-2.35633">
        <ele>42.200000762939</ele>
        <time>2021-04-22T08:54:22.000Z</time>
      </trkpt>
      <trkpt lat="47.33162" lon="-2.35632">
        <ele>42.599998474121</ele>
        <time>2021-04-22T08:54:23.000Z</time>
      </trkpt>
      <trkpt lat="47.33166" lon="-2.35631">
        <ele>43.200000762939</ele>
        <time>2021-04-22T08:54:24.000Z</time>
      </trkpt>
      <trkpt lat="47.33171" lon="-2.35629">
        <ele>43.599998474121</ele>
        <time>2021-04-22T08:54:25.000Z</time>
      </trkpt>
      <trkpt lat="47.33181" lon="-2.35626">
        <ele>43.599998474121</ele>
        <time>2021-04-22T08:54:27.000Z</time>
      </trkpt>
      <trkpt lat="47.33185" lon="-2.35623">
        <ele>44</ele>
        <time>2021-04-22T08:54:28.000Z</time>
      </trkpt>
      <trkpt lat="47.3319" lon="-2.35621">
        <ele>44.400001525879</ele>
        <time>2021-04-22T08:54:29.000Z</time>
      </trkpt>
      <trkpt lat="47.33195" lon="-2.35618">
        <ele>44.799999237061</ele>
        <time>2021-04-22T08:54:30.000Z</time>
      </trkpt>
      <trkpt lat="47.33199" lon="-2.35615">
        <ele>45.200000762939</ele>
        <time>2021-04-22T08:54:31.000Z</time>
      </trkpt>
      <trkpt lat="47.33204" lon="-2.35612">
        <ele>45.599998474121</ele>
        <time>2021-04-22T08:54:32.000Z</time>
      </trkpt>
      <trkpt lat="47.33232" lon="-2.3559">
        <ele>45.599998474121</ele>
        <time>2021-04-22T08:54:38.000Z</time>
      </trkpt>
      <trkpt lat="47.33275" lon="-2.35551">
        <ele>45.599998474121</ele>
        <time>2021-04-22T08:54:47.000Z</time>
      </trkpt>
      <trkpt lat="47.33304" lon="-2.35519">
        <ele>45.599998474121</ele>
        <time>2021-04-22T08:54:54.000Z</time>
      </trkpt>
      <trkpt lat="47.33336" lon="-2.35501">
        <ele>45.599998474121</ele>
        <time>2021-04-22T08:55:00.000Z</time>
      </trkpt>
      <trkpt lat="47.33376" lon="-2.35476">
        <ele>45.599998474121</ele>
        <time>2021-04-22T08:55:07.000Z</time>
      </trkpt>
      <trkpt lat="47.33393" lon="-2.35467">
        <ele>45.599998474121</ele>
        <time>2021-04-22T08:55:10.000Z</time>
      </trkpt>
      <trkpt lat="47.33405" lon="-2.35463">
        <ele>45.599998474121</ele>
        <time>2021-04-22T08:55:12.000Z</time>
      </trkpt>
      <trkpt lat="47.33439" lon="-2.35444">
        <ele>45.599998474121</ele>
        <time>2021-04-22T08:55:18.000Z</time>
      </trkpt>
      <trkpt lat="47.33467" lon="-2.35424">
        <ele>45.599998474121</ele>
        <time>2021-04-22T08:55:23.000Z</time>
      </trkpt>
      <trkpt lat="47.33484" lon="-2.35419">
        <ele>45.200000762939</ele>
        <time>2021-04-22T08:55:26.000Z</time>
      </trkpt>
      <trkpt lat="47.3349" lon="-2.35417">
        <ele>44.799999237061</ele>
        <time>2021-04-22T08:55:27.000Z</time>
      </trkpt>
      <trkpt lat="47.33496" lon="-2.35415">
        <ele>44.400001525879</ele>
        <time>2021-04-22T08:55:28.000Z</time>
      </trkpt>
      <trkpt lat="47.33503" lon="-2.35414">
        <ele>44</ele>
        <time>2021-04-22T08:55:29.000Z</time>
      </trkpt>
      <trkpt lat="47.33508" lon="-2.35412">
        <ele>43.400001525879</ele>
        <time>2021-04-22T08:55:30.000Z</time>
      </trkpt>
      <trkpt lat="47.33513" lon="-2.35409">
        <ele>43.400001525879</ele>
        <time>2021-04-22T08:55:31.000Z</time>
      </trkpt>
      <trkpt lat="47.33518" lon="-2.35406">
        <ele>43.400001525879</ele>
        <time>2021-04-22T08:55:32.000Z</time>
      </trkpt>
      <trkpt lat="47.3355" lon="-2.35388">
        <ele>43.400001525879</ele>
        <time>2021-04-22T08:55:37.000Z</time>
      </trkpt>
      <trkpt lat="47.3358" lon="-2.35374">
        <ele>43.400001525879</ele>
        <time>2021-04-22T08:55:42.000Z</time>
      </trkpt>
      <trkpt lat="47.33617" lon="-2.35361">
        <ele>43.400001525879</ele>
        <time>2021-04-22T08:55:48.000Z</time>
      </trkpt>
      <trkpt lat="47.33653" lon="-2.35359">
        <ele>43.400001525879</ele>
        <time>2021-04-22T08:55:54.000Z</time>
      </trkpt>
      <trkpt lat="47.33695" lon="-2.35358">
        <ele>43.400001525879</ele>
        <time>2021-04-22T08:56:01.000Z</time>
      </trkpt>
      <trkpt lat="47.33722" lon="-2.35353">
        <ele>43.400001525879</ele>
        <time>2021-04-22T08:56:06.000Z</time>
      </trkpt>
      <trkpt lat="47.33764" lon="-2.35348">
        <ele>44</ele>
        <time>2021-04-22T08:56:13.000Z</time>
      </trkpt>
      <trkpt lat="47.3377" lon="-2.35346">
        <ele>44.400001525879</ele>
        <time>2021-04-22T08:56:14.000Z</time>
      </trkpt>
      <trkpt lat="47.33776" lon="-2.35345">
        <ele>45</ele>
        <time>2021-04-22T08:56:15.000Z</time>
      </trkpt>
      <trkpt lat="47.33782" lon="-2.35343">
        <ele>45.599998474121</ele>
        <time>2021-04-22T08:56:16.000Z</time>
      </trkpt>
      <trkpt lat="47.33788" lon="-2.35342">
        <ele>46</ele>
        <time>2021-04-22T08:56:17.000Z</time>
      </trkpt>
      <trkpt lat="47.33807" lon="-2.35338">
        <ele>46</ele>
        <time>2021-04-22T08:56:20.000Z</time>
      </trkpt>
      <trkpt lat="47.33814" lon="-2.35336">
        <ele>45.599998474121</ele>
        <time>2021-04-22T08:56:21.000Z</time>
      </trkpt>
      <trkpt lat="47.33821" lon="-2.35334">
        <ele>44.799999237061</ele>
        <time>2021-04-22T08:56:22.000Z</time>
      </trkpt>
      <trkpt lat="47.33827" lon="-2.3533">
        <ele>44.400001525879</ele>
        <time>2021-04-22T08:56:23.000Z</time>
      </trkpt>
      <trkpt lat="47.33834" lon="-2.35327">
        <ele>44</ele>
        <time>2021-04-22T08:56:24.000Z</time>
      </trkpt>
      <trkpt lat="47.33845" lon="-2.3532">
        <ele>44</ele>
        <time>2021-04-22T08:56:26.000Z</time>
      </trkpt>
      <trkpt lat="47.33872" lon="-2.35301">
        <ele>44</ele>
        <time>2021-04-22T08:56:31.000Z</time>
      </trkpt>
      <trkpt lat="47.33878" lon="-2.35298">
        <ele>44</ele>
        <time>2021-04-22T08:56:32.000Z</time>
      </trkpt>
      <trkpt lat="47.33921" lon="-2.35281">
        <ele>44</ele>
        <time>2021-04-22T08:56:39.000Z</time>
      </trkpt>
      <trkpt lat="47.33934" lon="-2.35274">
        <ele>44</ele>
        <time>2021-04-22T08:56:42.000Z</time>
      </trkpt>
      <trkpt lat="47.3394" lon="-2.35269">
        <ele>44</ele>
        <time>2021-04-22T08:56:44.000Z</time>
      </trkpt>
      <trkpt lat="47.33952" lon="-2.35262">
        <ele>44</ele>
        <time>2021-04-22T08:56:49.000Z</time>
      </trkpt>
      <trkpt lat="47.33962" lon="-2.35263">
        <ele>44</ele>
        <time>2021-04-22T08:56:54.000Z</time>
      </trkpt>
      <trkpt lat="47.33962" lon="-2.3527">
        <ele>44</ele>
        <time>2021-04-22T08:56:57.000Z</time>
      </trkpt>
      <trkpt lat="47.3396" lon="-2.3527">
        <ele>44</ele>
        <time>2021-04-22T08:56:58.000Z</time>
      </trkpt>
      <trkpt lat="47.33955" lon="-2.35268">
        <ele>44</ele>
        <time>2021-04-22T08:57:01.000Z</time>
      </trkpt>
      <trkpt lat="47.33953" lon="-2.35262">
        <ele>44</ele>
        <time>2021-04-22T08:57:06.000Z</time>
      </trkpt>
      <trkpt lat="47.33965" lon="-2.35274">
        <ele>44</ele>
        <time>2021-04-22T08:57:10.000Z</time>
      </trkpt>
      <trkpt lat="47.33977" lon="-2.35288">
        <ele>43.599998474121</ele>
        <time>2021-04-22T08:57:13.000Z</time>
      </trkpt>
      <trkpt lat="47.33982" lon="-2.35293">
        <ele>43</ele>
        <time>2021-04-22T08:57:14.000Z</time>
      </trkpt>
      <trkpt lat="47.33987" lon="-2.35299">
        <ele>42.599998474121</ele>
        <time>2021-04-22T08:57:15.000Z</time>
      </trkpt>
      <trkpt lat="47.33993" lon="-2.35305">
        <ele>42.200000762939</ele>
        <time>2021-04-22T08:57:16.000Z</time>
      </trkpt>
      <trkpt lat="47.33997" lon="-2.3531">
        <ele>41.799999237061</ele>
        <time>2021-04-22T08:57:17.000Z</time>
      </trkpt>
      <trkpt lat="47.34007" lon="-2.3532">
        <ele>41.400001525879</ele>
        <time>2021-04-22T08:57:19.000Z</time>
      </trkpt>
      <trkpt lat="47.34011" lon="-2.35324">
        <ele>41</ele>
        <time>2021-04-22T08:57:20.000Z</time>
      </trkpt>
      <trkpt lat="47.34016" lon="-2.35328">
        <ele>40.599998474121</ele>
        <time>2021-04-22T08:57:21.000Z</time>
      </trkpt>
      <trkpt lat="47.34021" lon="-2.35332">
        <ele>40.200000762939</ele>
        <time>2021-04-22T08:57:22.000Z</time>
      </trkpt>
      <trkpt lat="47.34026" lon="-2.35336">
        <ele>39.799999237061</ele>
        <time>2021-04-22T08:57:23.000Z</time>
      </trkpt>
      <trkpt lat="47.34047" lon="-2.35358">
        <ele>39.799999237061</ele>
        <time>2021-04-22T08:57:28.000Z</time>
      </trkpt>
      <trkpt lat="47.34055" lon="-2.35369">
        <ele>39.799999237061</ele>
        <time>2021-04-22T08:57:30.000Z</time>
      </trkpt>
      <trkpt lat="47.34067" lon="-2.35396">
        <ele>39.799999237061</ele>
        <time>2021-04-22T08:57:34.000Z</time>
      </trkpt>
      <trkpt lat="47.34089" lon="-2.35454">
        <ele>39.799999237061</ele>
        <time>2021-04-22T08:57:42.000Z</time>
      </trkpt>
      <trkpt lat="47.34097" lon="-2.35476">
        <ele>39.400001525879</ele>
        <time>2021-04-22T08:57:45.000Z</time>
      </trkpt>
      <trkpt lat="47.341" lon="-2.35484">
        <ele>39</ele>
        <time>2021-04-22T08:57:46.000Z</time>
      </trkpt>
      <trkpt lat="47.34103" lon="-2.35492">
        <ele>38.599998474121</ele>
        <time>2021-04-22T08:57:47.000Z</time>
      </trkpt>
      <trkpt lat="47.34106" lon="-2.35499">
        <ele>38.200000762939</ele>
        <time>2021-04-22T08:57:48.000Z</time>
      </trkpt>
      <trkpt lat="47.34109" lon="-2.35507">
        <ele>37.799999237061</ele>
        <time>2021-04-22T08:57:49.000Z</time>
      </trkpt>
      <trkpt lat="47.34112" lon="-2.35515">
        <ele>37.799999237061</ele>
        <time>2021-04-22T08:57:50.000Z</time>
      </trkpt>
      <trkpt lat="47.34127" lon="-2.3556">
        <ele>37.799999237061</ele>
        <time>2021-04-22T08:57:56.000Z</time>
      </trkpt>
      <trkpt lat="47.34142" lon="-2.35601">
        <ele>37.799999237061</ele>
        <time>2021-04-22T08:58:02.000Z</time>
      </trkpt>
      <trkpt lat="47.34163" lon="-2.35641">
        <ele>37.799999237061</ele>
        <time>2021-04-22T08:58:09.000Z</time>
      </trkpt>
      <trkpt lat="47.3419" lon="-2.35684">
        <ele>37.799999237061</ele>
        <time>2021-04-22T08:58:16.000Z</time>
      </trkpt>
      <trkpt lat="47.34197" lon="-2.35693">
        <ele>37.400001525879</ele>
        <time>2021-04-22T08:58:18.000Z</time>
      </trkpt>
      <trkpt lat="47.34199" lon="-2.35696">
        <ele>36.799999237061</ele>
        <time>2021-04-22T08:58:19.000Z</time>
      </trkpt>
      <trkpt lat="47.34202" lon="-2.35699">
        <ele>36.400001525879</ele>
        <time>2021-04-22T08:58:20.000Z</time>
      </trkpt>
      <trkpt lat="47.34204" lon="-2.35703">
        <ele>36</ele>
        <time>2021-04-22T08:58:21.000Z</time>
      </trkpt>
      <trkpt lat="47.34206" lon="-2.35707">
        <ele>35.400001525879</ele>
        <time>2021-04-22T08:58:22.000Z</time>
      </trkpt>
      <trkpt lat="47.34207" lon="-2.35717">
        <ele>35</ele>
        <time>2021-04-22T08:58:24.000Z</time>
      </trkpt>
      <trkpt lat="47.34208" lon="-2.35721">
        <ele>34.200000762939</ele>
        <time>2021-04-22T08:58:25.000Z</time>
      </trkpt>
      <trkpt lat="47.3421" lon="-2.35724">
        <ele>33.599998474121</ele>
        <time>2021-04-22T08:58:26.000Z</time>
      </trkpt>
      <trkpt lat="47.34212" lon="-2.35729">
        <ele>33</ele>
        <time>2021-04-22T08:58:27.000Z</time>
      </trkpt>
      <trkpt lat="47.34216" lon="-2.35732">
        <ele>32.400001525879</ele>
        <time>2021-04-22T08:58:28.000Z</time>
      </trkpt>
      <trkpt lat="47.3422" lon="-2.35737">
        <ele>31.799999237061</ele>
        <time>2021-04-22T08:58:29.000Z</time>
      </trkpt>
      <trkpt lat="47.34222" lon="-2.35745">
        <ele>31.200000762939</ele>
        <time>2021-04-22T08:58:30.000Z</time>
      </trkpt>
      <trkpt lat="47.34222" lon="-2.35754">
        <ele>30.799999237061</ele>
        <time>2021-04-22T08:58:31.000Z</time>
      </trkpt>
      <trkpt lat="47.34222" lon="-2.35762">
        <ele>30.39999961853</ele>
        <time>2021-04-22T08:58:32.000Z</time>
      </trkpt>
      <trkpt lat="47.34223" lon="-2.35769">
        <ele>30</ele>
        <time>2021-04-22T08:58:33.000Z</time>
      </trkpt>
      <trkpt lat="47.34225" lon="-2.35777">
        <ele>29.39999961853</ele>
        <time>2021-04-22T08:58:34.000Z</time>
      </trkpt>
      <trkpt lat="47.34227" lon="-2.35784">
        <ele>29</ele>
        <time>2021-04-22T08:58:35.000Z</time>
      </trkpt>
      <trkpt lat="47.34233" lon="-2.35799">
        <ele>29</ele>
        <time>2021-04-22T08:58:37.000Z</time>
      </trkpt>
      <trkpt lat="47.34243" lon="-2.35832">
        <ele>29</ele>
        <time>2021-04-22T08:58:41.000Z</time>
      </trkpt>
      <trkpt lat="47.34246" lon="-2.3585">
        <ele>29</ele>
        <time>2021-04-22T08:58:43.000Z</time>
      </trkpt>
      <trkpt lat="47.34247" lon="-2.35877">
        <ele>29</ele>
        <time>2021-04-22T08:58:46.000Z</time>
      </trkpt>
      <trkpt lat="47.34245" lon="-2.35901">
        <ele>29</ele>
        <time>2021-04-22T08:58:49.000Z</time>
      </trkpt>
      <trkpt lat="47.34241" lon="-2.35923">
        <ele>29</ele>
        <time>2021-04-22T08:58:52.000Z</time>
      </trkpt>
      <trkpt lat="47.34239" lon="-2.35938">
        <ele>29</ele>
        <time>2021-04-22T08:58:54.000Z</time>
      </trkpt>
      <trkpt lat="47.34245" lon="-2.35947">
        <ele>29</ele>
        <time>2021-04-22T08:58:56.000Z</time>
      </trkpt>
      <trkpt lat="47.34256" lon="-2.3595">
        <ele>29</ele>
        <time>2021-04-22T08:58:59.000Z</time>
      </trkpt>
      <trkpt lat="47.34259" lon="-2.35949">
        <ele>29.39999961853</ele>
        <time>2021-04-22T08:59:00.000Z</time>
      </trkpt>
      <trkpt lat="47.34264" lon="-2.35949">
        <ele>29.799999237061</ele>
        <time>2021-04-22T08:59:01.000Z</time>
      </trkpt>
      <trkpt lat="47.34268" lon="-2.35949">
        <ele>30.39999961853</ele>
        <time>2021-04-22T08:59:02.000Z</time>
      </trkpt>
      <trkpt lat="47.34272" lon="-2.35949">
        <ele>30.799999237061</ele>
        <time>2021-04-22T08:59:03.000Z</time>
      </trkpt>
      <trkpt lat="47.34277" lon="-2.35949">
        <ele>31.200000762939</ele>
        <time>2021-04-22T08:59:04.000Z</time>
      </trkpt>
      <trkpt lat="47.34281" lon="-2.3595">
        <ele>31.200000762939</ele>
        <time>2021-04-22T08:59:05.000Z</time>
      </trkpt>
      <trkpt lat="47.34295" lon="-2.35953">
        <ele>31.60000038147</ele>
        <time>2021-04-22T08:59:08.000Z</time>
      </trkpt>
      <trkpt lat="47.343" lon="-2.35954">
        <ele>32</ele>
        <time>2021-04-22T08:59:09.000Z</time>
      </trkpt>
      <trkpt lat="47.34305" lon="-2.35956">
        <ele>32.400001525879</ele>
        <time>2021-04-22T08:59:10.000Z</time>
      </trkpt>
      <trkpt lat="47.3431" lon="-2.35957">
        <ele>33</ele>
        <time>2021-04-22T08:59:11.000Z</time>
      </trkpt>
      <trkpt lat="47.34315" lon="-2.35959">
        <ele>33.400001525879</ele>
        <time>2021-04-22T08:59:12.000Z</time>
      </trkpt>
      <trkpt lat="47.34332" lon="-2.35966">
        <ele>33.799999237061</ele>
        <time>2021-04-22T08:59:15.000Z</time>
      </trkpt>
      <trkpt lat="47.34337" lon="-2.35968">
        <ele>34.400001525879</ele>
        <time>2021-04-22T08:59:16.000Z</time>
      </trkpt>
      <trkpt lat="47.34343" lon="-2.3597">
        <ele>34.799999237061</ele>
        <time>2021-04-22T08:59:17.000Z</time>
      </trkpt>
      <trkpt lat="47.34348" lon="-2.35972">
        <ele>35.400001525879</ele>
        <time>2021-04-22T08:59:18.000Z</time>
      </trkpt>
      <trkpt lat="47.34353" lon="-2.35974">
        <ele>35.799999237061</ele>
        <time>2021-04-22T08:59:19.000Z</time>
      </trkpt>
      <trkpt lat="47.34368" lon="-2.35981">
        <ele>35.799999237061</ele>
        <time>2021-04-22T08:59:22.000Z</time>
      </trkpt>
      <trkpt lat="47.34382" lon="-2.35988">
        <ele>35.799999237061</ele>
        <time>2021-04-22T08:59:25.000Z</time>
      </trkpt>
      <trkpt lat="47.34395" lon="-2.35994">
        <ele>35.799999237061</ele>
        <time>2021-04-22T08:59:28.000Z</time>
      </trkpt>
      <trkpt lat="47.344" lon="-2.35995">
        <ele>35.799999237061</ele>
        <time>2021-04-22T08:59:29.000Z</time>
      </trkpt>
      <trkpt lat="47.34415" lon="-2.35989">
        <ele>35.799999237061</ele>
        <time>2021-04-22T08:59:32.000Z</time>
      </trkpt>
      <trkpt lat="47.34425" lon="-2.35981">
        <ele>35.799999237061</ele>
        <time>2021-04-22T08:59:34.000Z</time>
      </trkpt>
      <trkpt lat="47.34438" lon="-2.3597">
        <ele>35.799999237061</ele>
        <time>2021-04-22T08:59:37.000Z</time>
      </trkpt>
      <trkpt lat="47.34471" lon="-2.35943">
        <ele>35.799999237061</ele>
        <time>2021-04-22T08:59:43.000Z</time>
      </trkpt>
      <trkpt lat="47.34489" lon="-2.35934">
        <ele>35.400001525879</ele>
        <time>2021-04-22T08:59:46.000Z</time>
      </trkpt>
      <trkpt lat="47.34495" lon="-2.35931">
        <ele>35</ele>
        <time>2021-04-22T08:59:47.000Z</time>
      </trkpt>
      <trkpt lat="47.34502" lon="-2.35928">
        <ele>34.400001525879</ele>
        <time>2021-04-22T08:59:48.000Z</time>
      </trkpt>
      <trkpt lat="47.34508" lon="-2.35925">
        <ele>34</ele>
        <time>2021-04-22T08:59:49.000Z</time>
      </trkpt>
      <trkpt lat="47.34515" lon="-2.35923">
        <ele>33.599998474121</ele>
        <time>2021-04-22T08:59:50.000Z</time>
      </trkpt>
      <trkpt lat="47.34527" lon="-2.35918">
        <ele>33.200000762939</ele>
        <time>2021-04-22T08:59:52.000Z</time>
      </trkpt>
      <trkpt lat="47.34534" lon="-2.35916">
        <ele>32.799999237061</ele>
        <time>2021-04-22T08:59:53.000Z</time>
      </trkpt>
      <trkpt lat="47.3454" lon="-2.35913">
        <ele>32.400001525879</ele>
        <time>2021-04-22T08:59:54.000Z</time>
      </trkpt>
      <trkpt lat="47.34546" lon="-2.3591">
        <ele>31.799999237061</ele>
        <time>2021-04-22T08:59:55.000Z</time>
      </trkpt>
      <trkpt lat="47.34552" lon="-2.35907">
        <ele>31.39999961853</ele>
        <time>2021-04-22T08:59:56.000Z</time>
      </trkpt>
      <trkpt lat="47.34589" lon="-2.35883">
        <ele>31.39999961853</ele>
        <time>2021-04-22T09:00:02.000Z</time>
      </trkpt>
      <trkpt lat="47.34624" lon="-2.35854">
        <ele>31.39999961853</ele>
        <time>2021-04-22T09:00:08.000Z</time>
      </trkpt>
      <trkpt lat="47.34629" lon="-2.35851">
        <ele>31</ele>
        <time>2021-04-22T09:00:09.000Z</time>
      </trkpt>
      <trkpt lat="47.34635" lon="-2.35847">
        <ele>30.60000038147</ele>
        <time>2021-04-22T09:00:10.000Z</time>
      </trkpt>
      <trkpt lat="47.34639" lon="-2.35843">
        <ele>30.200000762939</ele>
        <time>2021-04-22T09:00:11.000Z</time>
      </trkpt>
      <trkpt lat="47.34644" lon="-2.3584">
        <ele>29.799999237061</ele>
        <time>2021-04-22T09:00:12.000Z</time>
      </trkpt>
      <trkpt lat="47.34649" lon="-2.35837">
        <ele>29.39999961853</ele>
        <time>2021-04-22T09:00:13.000Z</time>
      </trkpt>
      <trkpt lat="47.34653" lon="-2.35833">
        <ele>29.39999961853</ele>
        <time>2021-04-22T09:00:14.000Z</time>
      </trkpt>
      <trkpt lat="47.34685" lon="-2.35803">
        <ele>29.39999961853</ele>
        <time>2021-04-22T09:00:21.000Z</time>
      </trkpt>
      <trkpt lat="47.34718" lon="-2.35773">
        <ele>29.39999961853</ele>
        <time>2021-04-22T09:00:28.000Z</time>
      </trkpt>
      <trkpt lat="47.34722" lon="-2.35769">
        <ele>29.39999961853</ele>
        <time>2021-04-22T09:00:29.000Z</time>
      </trkpt>
      <trkpt lat="47.34748" lon="-2.35753">
        <ele>29.39999961853</ele>
        <time>2021-04-22T09:00:34.000Z</time>
      </trkpt>
      <trkpt lat="47.34753" lon="-2.35751">
        <ele>29.39999961853</ele>
        <time>2021-04-22T09:00:35.000Z</time>
      </trkpt>
      <trkpt lat="47.34763" lon="-2.35747">
        <ele>29.39999961853</ele>
        <time>2021-04-22T09:00:37.000Z</time>
      </trkpt>
      <trkpt lat="47.34778" lon="-2.35742">
        <ele>29.39999961853</ele>
        <time>2021-04-22T09:00:40.000Z</time>
      </trkpt>
      <trkpt lat="47.34797" lon="-2.35733">
        <ele>29.39999961853</ele>
        <time>2021-04-22T09:00:44.000Z</time>
      </trkpt>
      <trkpt lat="47.34801" lon="-2.35731">
        <ele>29.39999961853</ele>
        <time>2021-04-22T09:00:45.000Z</time>
      </trkpt>
      <trkpt lat="47.34813" lon="-2.35726">
        <ele>29.39999961853</ele>
        <time>2021-04-22T09:00:48.000Z</time>
      </trkpt>
      <trkpt lat="47.34819" lon="-2.35723">
        <ele>29.39999961853</ele>
        <time>2021-04-22T09:00:50.000Z</time>
      </trkpt>
      <trkpt lat="47.34822" lon="-2.35721">
        <ele>29.39999961853</ele>
        <time>2021-04-22T09:00:54.000Z</time>
      </trkpt>
      <trkpt lat="47.34822" lon="-2.35721">
        <ele>29.39999961853</ele>
        <time>2021-04-22T09:00:55.000Z</time>
      </trkpt>
      <trkpt lat="47.34838" lon="-2.35715">
        <ele>29.39999961853</ele>
        <time>2021-04-22T09:01:39.000Z</time>
      </trkpt>
      <trkpt lat="47.3484" lon="-2.35709">
        <ele>29.39999961853</ele>
        <time>2021-04-22T09:01:41.000Z</time>
      </trkpt>
      <trkpt lat="47.34842" lon="-2.35701">
        <ele>29.39999961853</ele>
        <time>2021-04-22T09:01:43.000Z</time>
      </trkpt>
      <trkpt lat="47.34847" lon="-2.35685">
        <ele>29.39999961853</ele>
        <time>2021-04-22T09:01:47.000Z</time>
      </trkpt>
      <trkpt lat="47.34852" lon="-2.35672">
        <ele>29.39999961853</ele>
        <time>2021-04-22T09:01:53.000Z</time>
      </trkpt>
      <trkpt lat="47.34852" lon="-2.35669">
        <ele>29.799999237061</ele>
        <time>2021-04-22T09:01:54.000Z</time>
      </trkpt>
      <trkpt lat="47.34851" lon="-2.35666">
        <ele>30.200000762939</ele>
        <time>2021-04-22T09:01:55.000Z</time>
      </trkpt>
      <trkpt lat="47.3485" lon="-2.35663">
        <ele>30.60000038147</ele>
        <time>2021-04-22T09:01:56.000Z</time>
      </trkpt>
      <trkpt lat="47.34847" lon="-2.35662">
        <ele>31</ele>
        <time>2021-04-22T09:01:57.000Z</time>
      </trkpt>
      <trkpt lat="47.34844" lon="-2.35661">
        <ele>31.39999961853</ele>
        <time>2021-04-22T09:01:58.000Z</time>
      </trkpt>
      <trkpt lat="47.34834" lon="-2.35655">
        <ele>31.39999961853</ele>
        <time>2021-04-22T09:02:01.000Z</time>
      </trkpt>
      <trkpt lat="47.34831" lon="-2.35653">
        <ele>31.39999961853</ele>
        <time>2021-04-22T09:02:02.000Z</time>
      </trkpt>
      <trkpt lat="47.34808" lon="-2.35635">
        <ele>31.39999961853</ele>
        <time>2021-04-22T09:02:08.000Z</time>
      </trkpt>
      <trkpt lat="47.34778" lon="-2.35604">
        <ele>31.39999961853</ele>
        <time>2021-04-22T09:02:14.000Z</time>
      </trkpt>
      <trkpt lat="47.34743" lon="-2.35559">
        <ele>31.39999961853</ele>
        <time>2021-04-22T09:02:22.000Z</time>
      </trkpt>
      <trkpt lat="47.34714" lon="-2.35514">
        <ele>31</ele>
        <time>2021-04-22T09:02:28.000Z</time>
      </trkpt>
      <trkpt lat="47.34709" lon="-2.35507">
        <ele>30.60000038147</ele>
        <time>2021-04-22T09:02:29.000Z</time>
      </trkpt>
      <trkpt lat="47.34705" lon="-2.35499">
        <ele>30.200000762939</ele>
        <time>2021-04-22T09:02:30.000Z</time>
      </trkpt>
      <trkpt lat="47.34701" lon="-2.35493">
        <ele>29.60000038147</ele>
        <time>2021-04-22T09:02:31.000Z</time>
      </trkpt>
      <trkpt lat="47.34697" lon="-2.35487">
        <ele>29.200000762939</ele>
        <time>2021-04-22T09:02:32.000Z</time>
      </trkpt>
      <trkpt lat="47.3469" lon="-2.35474">
        <ele>29.200000762939</ele>
        <time>2021-04-22T09:02:34.000Z</time>
      </trkpt>
      <trkpt lat="47.34664" lon="-2.35433">
        <ele>29.200000762939</ele>
        <time>2021-04-22T09:02:41.000Z</time>
      </trkpt>
      <trkpt lat="47.34653" lon="-2.35419">
        <ele>29.200000762939</ele>
        <time>2021-04-22T09:02:44.000Z</time>
      </trkpt>
      <trkpt lat="47.34647" lon="-2.35412">
        <ele>29.200000762939</ele>
        <time>2021-04-22T09:02:46.000Z</time>
      </trkpt>
      <trkpt lat="47.34646" lon="-2.35407">
        <ele>29.200000762939</ele>
        <time>2021-04-22T09:02:47.000Z</time>
      </trkpt>
      <trkpt lat="47.3465" lon="-2.35403">
        <ele>29.200000762939</ele>
        <time>2021-04-22T09:02:49.000Z</time>
      </trkpt>
      <trkpt lat="47.34659" lon="-2.35402">
        <ele>29.200000762939</ele>
        <time>2021-04-22T09:02:53.000Z</time>
      </trkpt>
      <trkpt lat="47.34667" lon="-2.354">
        <ele>29.200000762939</ele>
        <time>2021-04-22T09:02:56.000Z</time>
      </trkpt>
      <trkpt lat="47.34673" lon="-2.354">
        <ele>29.200000762939</ele>
        <time>2021-04-22T09:02:58.000Z</time>
      </trkpt>
      <trkpt lat="47.34687" lon="-2.35395">
        <ele>29.200000762939</ele>
        <time>2021-04-22T09:03:03.000Z</time>
      </trkpt>
      <trkpt lat="47.347" lon="-2.35385">
        <ele>29.200000762939</ele>
        <time>2021-04-22T09:03:08.000Z</time>
      </trkpt>
      <trkpt lat="47.3471" lon="-2.35369">
        <ele>29.200000762939</ele>
        <time>2021-04-22T09:03:13.000Z</time>
      </trkpt>
      <trkpt lat="47.34717" lon="-2.35361">
        <ele>29.200000762939</ele>
        <time>2021-04-22T09:03:16.000Z</time>
      </trkpt>
      <trkpt lat="47.34717" lon="-2.35359">
        <ele>29.200000762939</ele>
        <time>2021-04-22T09:03:17.000Z</time>
      </trkpt>
      <trkpt lat="47.34721" lon="-2.35349">
        <ele>29.200000762939</ele>
        <time>2021-04-22T09:03:21.000Z</time>
      </trkpt>
      <trkpt lat="47.34721" lon="-2.35336">
        <ele>29.200000762939</ele>
        <time>2021-04-22T09:03:25.000Z</time>
      </trkpt>
      <trkpt lat="47.3472" lon="-2.35334">
        <ele>29.200000762939</ele>
        <time>2021-04-22T09:03:26.000Z</time>
      </trkpt>
      <trkpt lat="47.3472" lon="-2.35325">
        <ele>29.200000762939</ele>
        <time>2021-04-22T09:03:29.000Z</time>
      </trkpt>
      <trkpt lat="47.34726" lon="-2.35306">
        <ele>29.200000762939</ele>
        <time>2021-04-22T09:03:34.000Z</time>
      </trkpt>
      <trkpt lat="47.34735" lon="-2.35284">
        <ele>29.200000762939</ele>
        <time>2021-04-22T09:03:38.000Z</time>
      </trkpt>
      <trkpt lat="47.34739" lon="-2.35263">
        <ele>29.200000762939</ele>
        <time>2021-04-22T09:03:42.000Z</time>
      </trkpt>
      <trkpt lat="47.34745" lon="-2.35231">
        <ele>29.200000762939</ele>
        <time>2021-04-22T09:03:47.000Z</time>
      </trkpt>
      <trkpt lat="47.34746" lon="-2.35226">
        <ele>29.200000762939</ele>
        <time>2021-04-22T09:03:48.000Z</time>
      </trkpt>
      <trkpt lat="47.34748" lon="-2.35205">
        <ele>29.200000762939</ele>
        <time>2021-04-22T09:03:52.000Z</time>
      </trkpt>
      <trkpt lat="47.34754" lon="-2.3518">
        <ele>29.200000762939</ele>
        <time>2021-04-22T09:03:56.000Z</time>
      </trkpt>
      <trkpt lat="47.34755" lon="-2.35165">
        <ele>29.200000762939</ele>
        <time>2021-04-22T09:03:59.000Z</time>
      </trkpt>
      <trkpt lat="47.34751" lon="-2.3515">
        <ele>29.200000762939</ele>
        <time>2021-04-22T09:04:03.000Z</time>
      </trkpt>
      <trkpt lat="47.34748" lon="-2.35146">
        <ele>29.200000762939</ele>
        <time>2021-04-22T09:04:05.000Z</time>
      </trkpt>
      <trkpt lat="47.34744" lon="-2.35142">
        <ele>29.200000762939</ele>
        <time>2021-04-22T09:04:07.000Z</time>
      </trkpt>
      <trkpt lat="47.34739" lon="-2.3513">
        <ele>29.200000762939</ele>
        <time>2021-04-22T09:04:11.000Z</time>
      </trkpt>
      <trkpt lat="47.34738" lon="-2.35124">
        <ele>29.200000762939</ele>
        <time>2021-04-22T09:04:12.000Z</time>
      </trkpt>
      <trkpt lat="47.34729" lon="-2.35107">
        <ele>29.200000762939</ele>
        <time>2021-04-22T09:04:17.000Z</time>
      </trkpt>
      <trkpt lat="47.34718" lon="-2.35089">
        <ele>29.200000762939</ele>
        <time>2021-04-22T09:04:23.000Z</time>
      </trkpt>
      <trkpt lat="47.34708" lon="-2.35079">
        <ele>29.200000762939</ele>
        <time>2021-04-22T09:04:28.000Z</time>
      </trkpt>
      <trkpt lat="47.34687" lon="-2.3507">
        <ele>29.200000762939</ele>
        <time>2021-04-22T09:04:34.000Z</time>
      </trkpt>
      <trkpt lat="47.34674" lon="-2.35066">
        <ele>29.200000762939</ele>
        <time>2021-04-22T09:04:37.000Z</time>
      </trkpt>
      <trkpt lat="47.34669" lon="-2.35063">
        <ele>29.200000762939</ele>
        <time>2021-04-22T09:04:39.000Z</time>
      </trkpt>
      <trkpt lat="47.34655" lon="-2.35044">
        <ele>29.200000762939</ele>
        <time>2021-04-22T09:04:44.000Z</time>
      </trkpt>
      <trkpt lat="47.34637" lon="-2.35016">
        <ele>29.200000762939</ele>
        <time>2021-04-22T09:04:51.000Z</time>
      </trkpt>
      <trkpt lat="47.34627" lon="-2.34988">
        <ele>29.200000762939</ele>
        <time>2021-04-22T09:04:56.000Z</time>
      </trkpt>
      <trkpt lat="47.34611" lon="-2.34954">
        <ele>29.200000762939</ele>
        <time>2021-04-22T09:05:02.000Z</time>
      </trkpt>
      <trkpt lat="47.34594" lon="-2.34927">
        <ele>29.200000762939</ele>
        <time>2021-04-22T09:05:08.000Z</time>
      </trkpt>
      <trkpt lat="47.34587" lon="-2.34904">
        <ele>29.200000762939</ele>
        <time>2021-04-22T09:05:15.000Z</time>
      </trkpt>
      <trkpt lat="47.34587" lon="-2.34875">
        <ele>29.200000762939</ele>
        <time>2021-04-22T09:05:20.000Z</time>
      </trkpt>
      <trkpt lat="47.34594" lon="-2.34862">
        <ele>29.200000762939</ele>
        <time>2021-04-22T09:05:22.000Z</time>
      </trkpt>
      <trkpt lat="47.34603" lon="-2.34846">
        <ele>29.200000762939</ele>
        <time>2021-04-22T09:05:24.000Z</time>
      </trkpt>
      <trkpt lat="47.34606" lon="-2.34837">
        <ele>29.200000762939</ele>
        <time>2021-04-22T09:05:25.000Z</time>
      </trkpt>
      <trkpt lat="47.34622" lon="-2.34796">
        <ele>29.200000762939</ele>
        <time>2021-04-22T09:05:30.000Z</time>
      </trkpt>
      <trkpt lat="47.34633" lon="-2.3476">
        <ele>29.200000762939</ele>
        <time>2021-04-22T09:05:34.000Z</time>
      </trkpt>
      <trkpt lat="47.34636" lon="-2.34741">
        <ele>29.200000762939</ele>
        <time>2021-04-22T09:05:36.000Z</time>
      </trkpt>
      <trkpt lat="47.34639" lon="-2.34696">
        <ele>29.200000762939</ele>
        <time>2021-04-22T09:05:41.000Z</time>
      </trkpt>
      <trkpt lat="47.34638" lon="-2.34687">
        <ele>29.200000762939</ele>
        <time>2021-04-22T09:05:42.000Z</time>
      </trkpt>
      <trkpt lat="47.3463" lon="-2.34654">
        <ele>29.200000762939</ele>
        <time>2021-04-22T09:05:46.000Z</time>
      </trkpt>
      <trkpt lat="47.34627" lon="-2.34639">
        <ele>29.200000762939</ele>
        <time>2021-04-22T09:05:48.000Z</time>
      </trkpt>
      <trkpt lat="47.34622" lon="-2.34617">
        <ele>29.200000762939</ele>
        <time>2021-04-22T09:05:51.000Z</time>
      </trkpt>
      <trkpt lat="47.34621" lon="-2.3461">
        <ele>29.60000038147</ele>
        <time>2021-04-22T09:05:52.000Z</time>
      </trkpt>
      <trkpt lat="47.3462" lon="-2.34603">
        <ele>30.200000762939</ele>
        <time>2021-04-22T09:05:53.000Z</time>
      </trkpt>
      <trkpt lat="47.34618" lon="-2.34596">
        <ele>30.60000038147</ele>
        <time>2021-04-22T09:05:54.000Z</time>
      </trkpt>
      <trkpt lat="47.34616" lon="-2.34589">
        <ele>31</ele>
        <time>2021-04-22T09:05:55.000Z</time>
      </trkpt>
      <trkpt lat="47.34614" lon="-2.34581">
        <ele>31.39999961853</ele>
        <time>2021-04-22T09:05:56.000Z</time>
      </trkpt>
      <trkpt lat="47.34612" lon="-2.34568">
        <ele>32</ele>
        <time>2021-04-22T09:05:58.000Z</time>
      </trkpt>
      <trkpt lat="47.3461" lon="-2.34561">
        <ele>32.400001525879</ele>
        <time>2021-04-22T09:05:59.000Z</time>
      </trkpt>
      <trkpt lat="47.3461" lon="-2.34554">
        <ele>32.799999237061</ele>
        <time>2021-04-22T09:06:00.000Z</time>
      </trkpt>
      <trkpt lat="47.3461" lon="-2.34549">
        <ele>33.200000762939</ele>
        <time>2021-04-22T09:06:01.000Z</time>
      </trkpt>
      <trkpt lat="47.3461" lon="-2.34543">
        <ele>33.599998474121</ele>
        <time>2021-04-22T09:06:02.000Z</time>
      </trkpt>
      <trkpt lat="47.34612" lon="-2.34531">
        <ele>33.599998474121</ele>
        <time>2021-04-22T09:06:05.000Z</time>
      </trkpt>
      <trkpt lat="47.34616" lon="-2.3453">
        <ele>33.599998474121</ele>
        <time>2021-04-22T09:06:06.000Z</time>
      </trkpt>
      <trkpt lat="47.34628" lon="-2.34526">
        <ele>33.599998474121</ele>
        <time>2021-04-22T09:06:09.000Z</time>
      </trkpt>
      <trkpt lat="47.34637" lon="-2.34522">
        <ele>33.599998474121</ele>
        <time>2021-04-22T09:06:11.000Z</time>
      </trkpt>
      <trkpt lat="47.34669" lon="-2.34511">
        <ele>33.599998474121</ele>
        <time>2021-04-22T09:06:19.000Z</time>
      </trkpt>
      <trkpt lat="47.34697" lon="-2.34501">
        <ele>33.599998474121</ele>
        <time>2021-04-22T09:06:26.000Z</time>
      </trkpt>
      <trkpt lat="47.34716" lon="-2.34493">
        <ele>33.200000762939</ele>
        <time>2021-04-22T09:06:31.000Z</time>
      </trkpt>
      <trkpt lat="47.34719" lon="-2.34491">
        <ele>32.799999237061</ele>
        <time>2021-04-22T09:06:32.000Z</time>
      </trkpt>
      <trkpt lat="47.34723" lon="-2.34491">
        <ele>32.400001525879</ele>
        <time>2021-04-22T09:06:33.000Z</time>
      </trkpt>
      <trkpt lat="47.34726" lon="-2.34489">
        <ele>32</ele>
        <time>2021-04-22T09:06:34.000Z</time>
      </trkpt>
      <trkpt lat="47.34729" lon="-2.34488">
        <ele>31.60000038147</ele>
        <time>2021-04-22T09:06:35.000Z</time>
      </trkpt>
      <trkpt lat="47.34742" lon="-2.34483">
        <ele>31.60000038147</ele>
        <time>2021-04-22T09:06:39.000Z</time>
      </trkpt>
      <trkpt lat="47.34749" lon="-2.34473">
        <ele>31.60000038147</ele>
        <time>2021-04-22T09:06:42.000Z</time>
      </trkpt>
      <trkpt lat="47.34749" lon="-2.34469">
        <ele>31.60000038147</ele>
        <time>2021-04-22T09:06:43.000Z</time>
      </trkpt>
      <trkpt lat="47.34757" lon="-2.34441">
        <ele>31.60000038147</ele>
        <time>2021-04-22T09:06:49.000Z</time>
      </trkpt>
      <trkpt lat="47.34764" lon="-2.34424">
        <ele>31.60000038147</ele>
        <time>2021-04-22T09:06:54.000Z</time>
      </trkpt>
      <trkpt lat="47.34775" lon="-2.34401">
        <ele>31.60000038147</ele>
        <time>2021-04-22T09:07:00.000Z</time>
      </trkpt>
      <trkpt lat="47.34781" lon="-2.34387">
        <ele>31.60000038147</ele>
        <time>2021-04-22T09:07:04.000Z</time>
      </trkpt>
      <trkpt lat="47.34786" lon="-2.34383">
        <ele>31.60000038147</ele>
        <time>2021-04-22T09:07:06.000Z</time>
      </trkpt>
      <trkpt lat="47.34797" lon="-2.34381">
        <ele>31.60000038147</ele>
        <time>2021-04-22T09:07:09.000Z</time>
      </trkpt>
      <trkpt lat="47.34816" lon="-2.3438">
        <ele>32</ele>
        <time>2021-04-22T09:07:14.000Z</time>
      </trkpt>
      <trkpt lat="47.34819" lon="-2.3438">
        <ele>32.400001525879</ele>
        <time>2021-04-22T09:07:15.000Z</time>
      </trkpt>
      <trkpt lat="47.34823" lon="-2.34379">
        <ele>32.799999237061</ele>
        <time>2021-04-22T09:07:16.000Z</time>
      </trkpt>
      <trkpt lat="47.34827" lon="-2.34378">
        <ele>33.400001525879</ele>
        <time>2021-04-22T09:07:17.000Z</time>
      </trkpt>
      <trkpt lat="47.3483" lon="-2.34377">
        <ele>33.799999237061</ele>
        <time>2021-04-22T09:07:18.000Z</time>
      </trkpt>
      <trkpt lat="47.34839" lon="-2.34375">
        <ele>33.799999237061</ele>
        <time>2021-04-22T09:07:21.000Z</time>
      </trkpt>
      <trkpt lat="47.34858" lon="-2.34373">
        <ele>33.799999237061</ele>
        <time>2021-04-22T09:07:26.000Z</time>
      </trkpt>
      <trkpt lat="47.3488" lon="-2.34371">
        <ele>33.799999237061</ele>
        <time>2021-04-22T09:07:31.000Z</time>
      </trkpt>
      <trkpt lat="47.34885" lon="-2.34372">
        <ele>33.799999237061</ele>
        <time>2021-04-22T09:07:32.000Z</time>
      </trkpt>
      <trkpt lat="47.34896" lon="-2.3437">
        <ele>33.799999237061</ele>
        <time>2021-04-22T09:07:35.000Z</time>
      </trkpt>
      <trkpt lat="47.34899" lon="-2.34369">
        <ele>33.799999237061</ele>
        <time>2021-04-22T09:07:36.000Z</time>
      </trkpt>
      <trkpt lat="47.34922" lon="-2.34363">
        <ele>33.799999237061</ele>
        <time>2021-04-22T09:07:42.000Z</time>
      </trkpt>
      <trkpt lat="47.34932" lon="-2.34365">
        <ele>33.400001525879</ele>
        <time>2021-04-22T09:07:44.000Z</time>
      </trkpt>
      <trkpt lat="47.34938" lon="-2.34366">
        <ele>33</ele>
        <time>2021-04-22T09:07:45.000Z</time>
      </trkpt>
      <trkpt lat="47.34945" lon="-2.34366">
        <ele>32.599998474121</ele>
        <time>2021-04-22T09:07:46.000Z</time>
      </trkpt>
      <trkpt lat="47.34952" lon="-2.34367">
        <ele>32</ele>
        <time>2021-04-22T09:07:47.000Z</time>
      </trkpt>
      <trkpt lat="47.34958" lon="-2.34368">
        <ele>31.60000038147</ele>
        <time>2021-04-22T09:07:48.000Z</time>
      </trkpt>
      <trkpt lat="47.3498" lon="-2.34372">
        <ele>31.60000038147</ele>
        <time>2021-04-22T09:07:52.000Z</time>
      </trkpt>
      <trkpt lat="47.34988" lon="-2.34382">
        <ele>31.200000762939</ele>
        <time>2021-04-22T09:07:55.000Z</time>
      </trkpt>
      <trkpt lat="47.34989" lon="-2.34384">
        <ele>30.799999237061</ele>
        <time>2021-04-22T09:07:56.000Z</time>
      </trkpt>
      <trkpt lat="47.3499" lon="-2.34385">
        <ele>30.39999961853</ele>
        <time>2021-04-22T09:07:57.000Z</time>
      </trkpt>
      <trkpt lat="47.3499" lon="-2.34385">
        <ele>30</ele>
        <time>2021-04-22T09:07:58.000Z</time>
      </trkpt>
      <trkpt lat="47.3499" lon="-2.34385">
        <ele>29.60000038147</ele>
        <time>2021-04-22T09:07:59.000Z</time>
      </trkpt>
      <trkpt lat="47.3499" lon="-2.3438">
        <ele>29.60000038147</ele>
        <time>2021-04-22T09:08:03.000Z</time>
      </trkpt>
      <trkpt lat="47.34991" lon="-2.34374">
        <ele>29.60000038147</ele>
        <time>2021-04-22T09:08:05.000Z</time>
      </trkpt>
      <trkpt lat="47.34999" lon="-2.34371">
        <ele>29.60000038147</ele>
        <time>2021-04-22T09:08:09.000Z</time>
      </trkpt>
      <trkpt lat="47.35013" lon="-2.34364">
        <ele>29.60000038147</ele>
        <time>2021-04-22T09:08:15.000Z</time>
      </trkpt>
      <trkpt lat="47.35017" lon="-2.3436">
        <ele>29.60000038147</ele>
        <time>2021-04-22T09:08:17.000Z</time>
      </trkpt>
      <trkpt lat="47.35016" lon="-2.34355">
        <ele>29.60000038147</ele>
        <time>2021-04-22T09:08:19.000Z</time>
      </trkpt>
      <trkpt lat="47.35016" lon="-2.34354">
        <ele>29.60000038147</ele>
        <time>2021-04-22T09:08:20.000Z</time>
      </trkpt>
      <trkpt lat="47.35012" lon="-2.34339">
        <ele>29.60000038147</ele>
        <time>2021-04-22T09:08:25.000Z</time>
      </trkpt>
      <trkpt lat="47.35003" lon="-2.34315">
        <ele>29.60000038147</ele>
        <time>2021-04-22T09:08:31.000Z</time>
      </trkpt>
      <trkpt lat="47.34994" lon="-2.34297">
        <ele>30</ele>
        <time>2021-04-22T09:08:36.000Z</time>
      </trkpt>
      <trkpt lat="47.34993" lon="-2.34292">
        <ele>30.39999961853</ele>
        <time>2021-04-22T09:08:37.000Z</time>
      </trkpt>
      <trkpt lat="47.34991" lon="-2.34286">
        <ele>30.799999237061</ele>
        <time>2021-04-22T09:08:38.000Z</time>
      </trkpt>
      <trkpt lat="47.3499" lon="-2.34281">
        <ele>31.200000762939</ele>
        <time>2021-04-22T09:08:39.000Z</time>
      </trkpt>
      <trkpt lat="47.34989" lon="-2.34278">
        <ele>31.60000038147</ele>
        <time>2021-04-22T09:08:40.000Z</time>
      </trkpt>
      <trkpt lat="47.34985" lon="-2.34267">
        <ele>31.60000038147</ele>
        <time>2021-04-22T09:08:42.000Z</time>
      </trkpt>
      <trkpt lat="47.34981" lon="-2.34255">
        <ele>32.400001525879</ele>
        <time>2021-04-22T09:08:44.000Z</time>
      </trkpt>
      <trkpt lat="47.3498" lon="-2.34249">
        <ele>32.799999237061</ele>
        <time>2021-04-22T09:08:45.000Z</time>
      </trkpt>
      <trkpt lat="47.34979" lon="-2.34245">
        <ele>33.200000762939</ele>
        <time>2021-04-22T09:08:46.000Z</time>
      </trkpt>
      <trkpt lat="47.34978" lon="-2.3424">
        <ele>33.599998474121</ele>
        <time>2021-04-22T09:08:47.000Z</time>
      </trkpt>
      <trkpt lat="47.34977" lon="-2.34236">
        <ele>33.599998474121</ele>
        <time>2021-04-22T09:08:48.000Z</time>
      </trkpt>
      <trkpt lat="47.34974" lon="-2.34214">
        <ele>34</ele>
        <time>2021-04-22T09:08:53.000Z</time>
      </trkpt>
      <trkpt lat="47.34973" lon="-2.3421">
        <ele>34.400001525879</ele>
        <time>2021-04-22T09:08:54.000Z</time>
      </trkpt>
      <trkpt lat="47.34971" lon="-2.34207">
        <ele>34.799999237061</ele>
        <time>2021-04-22T09:08:55.000Z</time>
      </trkpt>
      <trkpt lat="47.34969" lon="-2.34203">
        <ele>35.400001525879</ele>
        <time>2021-04-22T09:08:56.000Z</time>
      </trkpt>
      <trkpt lat="47.34966" lon="-2.34201">
        <ele>35.799999237061</ele>
        <time>2021-04-22T09:08:57.000Z</time>
      </trkpt>
      <trkpt lat="47.34963" lon="-2.342">
        <ele>35.799999237061</ele>
        <time>2021-04-22T09:08:58.000Z</time>
      </trkpt>
      <trkpt lat="47.34951" lon="-2.34204">
        <ele>35.799999237061</ele>
        <time>2021-04-22T09:09:02.000Z</time>
      </trkpt>
      <trkpt lat="47.34948" lon="-2.34206">
        <ele>36.200000762939</ele>
        <time>2021-04-22T09:09:03.000Z</time>
      </trkpt>
      <trkpt lat="47.34945" lon="-2.34207">
        <ele>36.599998474121</ele>
        <time>2021-04-22T09:09:04.000Z</time>
      </trkpt>
      <trkpt lat="47.34942" lon="-2.34208">
        <ele>37</ele>
        <time>2021-04-22T09:09:05.000Z</time>
      </trkpt>
      <trkpt lat="47.34938" lon="-2.34209">
        <ele>37.400001525879</ele>
        <time>2021-04-22T09:09:06.000Z</time>
      </trkpt>
      <trkpt lat="47.34935" lon="-2.3421">
        <ele>37.799999237061</ele>
        <time>2021-04-22T09:09:07.000Z</time>
      </trkpt>
      <trkpt lat="47.34926" lon="-2.34213">
        <ele>37.799999237061</ele>
        <time>2021-04-22T09:09:10.000Z</time>
      </trkpt>
      <trkpt lat="47.34919" lon="-2.34213">
        <ele>38.200000762939</ele>
        <time>2021-04-22T09:09:12.000Z</time>
      </trkpt>
      <trkpt lat="47.34916" lon="-2.34212">
        <ele>38.599998474121</ele>
        <time>2021-04-22T09:09:13.000Z</time>
      </trkpt>
      <trkpt lat="47.34913" lon="-2.34211">
        <ele>39</ele>
        <time>2021-04-22T09:09:14.000Z</time>
      </trkpt>
      <trkpt lat="47.34909" lon="-2.34211">
        <ele>39.400001525879</ele>
        <time>2021-04-22T09:09:15.000Z</time>
      </trkpt>
      <trkpt lat="47.34906" lon="-2.3421">
        <ele>39.799999237061</ele>
        <time>2021-04-22T09:09:16.000Z</time>
      </trkpt>
      <trkpt lat="47.34892" lon="-2.34209">
        <ele>40.200000762939</ele>
        <time>2021-04-22T09:09:21.000Z</time>
      </trkpt>
      <trkpt lat="47.34892" lon="-2.34209">
        <ele>40.599998474121</ele>
        <time>2021-04-22T09:09:22.000Z</time>
      </trkpt>
      <trkpt lat="47.34892" lon="-2.34209">
        <ele>41</ele>
        <time>2021-04-22T09:09:23.000Z</time>
      </trkpt>
      <trkpt lat="47.34888" lon="-2.34207">
        <ele>44.200000762939</ele>
        <time>2021-04-22T09:24:12.000Z</time>
      </trkpt>
      <trkpt lat="47.34888" lon="-2.34208">
        <ele>44.200000762939</ele>
        <time>2021-04-22T09:24:13.000Z</time>
      </trkpt>
      <trkpt lat="47.3488" lon="-2.34214">
        <ele>44.200000762939</ele>
        <time>2021-04-22T09:24:18.000Z</time>
      </trkpt>
      <trkpt lat="47.34877" lon="-2.34217">
        <ele>44.200000762939</ele>
        <time>2021-04-22T09:24:19.000Z</time>
      </trkpt>
      <trkpt lat="47.3487" lon="-2.34229">
        <ele>44.200000762939</ele>
        <time>2021-04-22T09:24:22.000Z</time>
      </trkpt>
      <trkpt lat="47.34867" lon="-2.34233">
        <ele>43.599998474121</ele>
        <time>2021-04-22T09:24:23.000Z</time>
      </trkpt>
      <trkpt lat="47.34864" lon="-2.34235">
        <ele>43.200000762939</ele>
        <time>2021-04-22T09:24:24.000Z</time>
      </trkpt>
      <trkpt lat="47.34861" lon="-2.34237">
        <ele>42.799999237061</ele>
        <time>2021-04-22T09:24:25.000Z</time>
      </trkpt>
      <trkpt lat="47.34859" lon="-2.34238">
        <ele>42.200000762939</ele>
        <time>2021-04-22T09:24:26.000Z</time>
      </trkpt>
      <trkpt lat="47.34856" lon="-2.34238">
        <ele>41.799999237061</ele>
        <time>2021-04-22T09:24:27.000Z</time>
      </trkpt>
      <trkpt lat="47.34849" lon="-2.34237">
        <ele>41.400001525879</ele>
        <time>2021-04-22T09:24:29.000Z</time>
      </trkpt>
      <trkpt lat="47.34844" lon="-2.34237">
        <ele>40.799999237061</ele>
        <time>2021-04-22T09:24:30.000Z</time>
      </trkpt>
      <trkpt lat="47.34839" lon="-2.34236">
        <ele>40.400001525879</ele>
        <time>2021-04-22T09:24:31.000Z</time>
      </trkpt>
      <trkpt lat="47.34834" lon="-2.34236">
        <ele>40</ele>
        <time>2021-04-22T09:24:32.000Z</time>
      </trkpt>
      <trkpt lat="47.34828" lon="-2.34236">
        <ele>39.599998474121</ele>
        <time>2021-04-22T09:24:33.000Z</time>
      </trkpt>
      <trkpt lat="47.34815" lon="-2.34237">
        <ele>39.200000762939</ele>
        <time>2021-04-22T09:24:35.000Z</time>
      </trkpt>
      <trkpt lat="47.34809" lon="-2.34238">
        <ele>38.799999237061</ele>
        <time>2021-04-22T09:24:36.000Z</time>
      </trkpt>
      <trkpt lat="47.34802" lon="-2.34239">
        <ele>38.400001525879</ele>
        <time>2021-04-22T09:24:37.000Z</time>
      </trkpt>
      <trkpt lat="47.34796" lon="-2.34241">
        <ele>38</ele>
        <time>2021-04-22T09:24:38.000Z</time>
      </trkpt>
      <trkpt lat="47.3479" lon="-2.34243">
        <ele>37.400001525879</ele>
        <time>2021-04-22T09:24:39.000Z</time>
      </trkpt>
      <trkpt lat="47.34779" lon="-2.34246">
        <ele>37.400001525879</ele>
        <time>2021-04-22T09:24:41.000Z</time>
      </trkpt>
      <trkpt lat="47.34763" lon="-2.34249">
        <ele>37</ele>
        <time>2021-04-22T09:24:44.000Z</time>
      </trkpt>
      <trkpt lat="47.34758" lon="-2.3425">
        <ele>36.599998474121</ele>
        <time>2021-04-22T09:24:45.000Z</time>
      </trkpt>
      <trkpt lat="47.34753" lon="-2.34251">
        <ele>36.200000762939</ele>
        <time>2021-04-22T09:24:46.000Z</time>
      </trkpt>
      <trkpt lat="47.3475" lon="-2.34252">
        <ele>35.400001525879</ele>
        <time>2021-04-22T09:24:47.000Z</time>
      </trkpt>
      <trkpt lat="47.34747" lon="-2.34252">
        <ele>35.400001525879</ele>
        <time>2021-04-22T09:24:48.000Z</time>
      </trkpt>
      <trkpt lat="47.34742" lon="-2.34254">
        <ele>35</ele>
        <time>2021-04-22T09:24:50.000Z</time>
      </trkpt>
      <trkpt lat="47.34741" lon="-2.34254">
        <ele>34.599998474121</ele>
        <time>2021-04-22T09:24:51.000Z</time>
      </trkpt>
      <trkpt lat="47.3474" lon="-2.34253">
        <ele>34</ele>
        <time>2021-04-22T09:24:52.000Z</time>
      </trkpt>
      <trkpt lat="47.34739" lon="-2.34253">
        <ele>33.599998474121</ele>
        <time>2021-04-22T09:24:53.000Z</time>
      </trkpt>
      <trkpt lat="47.34733" lon="-2.34252">
        <ele>33.200000762939</ele>
        <time>2021-04-22T09:29:33.000Z</time>
      </trkpt>
      <trkpt lat="47.3473" lon="-2.34253">
        <ele>33.200000762939</ele>
        <time>2021-04-22T09:29:35.000Z</time>
      </trkpt>
      <trkpt lat="47.3471" lon="-2.34258">
        <ele>33.200000762939</ele>
        <time>2021-04-22T09:29:43.000Z</time>
      </trkpt>
      <trkpt lat="47.34692" lon="-2.34259">
        <ele>33.200000762939</ele>
        <time>2021-04-22T09:29:49.000Z</time>
      </trkpt>
      <trkpt lat="47.34685" lon="-2.34261">
        <ele>33.200000762939</ele>
        <time>2021-04-22T09:29:54.000Z</time>
      </trkpt>
      <trkpt lat="47.34684" lon="-2.34259">
        <ele>33.200000762939</ele>
        <time>2021-04-22T09:29:57.000Z</time>
      </trkpt>
      <trkpt lat="47.34674" lon="-2.34261">
        <ele>33.400001525879</ele>
        <time>2021-04-22T09:36:35.000Z</time>
      </trkpt>
      <trkpt lat="47.34673" lon="-2.34261">
        <ele>33.400001525879</ele>
        <time>2021-04-22T09:36:36.000Z</time>
      </trkpt>
      <trkpt lat="47.34671" lon="-2.3426">
        <ele>33.400001525879</ele>
        <time>2021-04-22T09:36:38.000Z</time>
      </trkpt>
      <trkpt lat="47.34667" lon="-2.34248">
        <ele>33.400001525879</ele>
        <time>2021-04-22T09:36:41.000Z</time>
      </trkpt>
      <trkpt lat="47.34666" lon="-2.34243">
        <ele>33.400001525879</ele>
        <time>2021-04-22T09:36:42.000Z</time>
      </trkpt>
      <trkpt lat="47.34665" lon="-2.34216">
        <ele>33.400001525879</ele>
        <time>2021-04-22T09:36:47.000Z</time>
      </trkpt>
      <trkpt lat="47.34666" lon="-2.34181">
        <ele>33.400001525879</ele>
        <time>2021-04-22T09:36:53.000Z</time>
      </trkpt>
      <trkpt lat="47.34668" lon="-2.34175">
        <ele>33.400001525879</ele>
        <time>2021-04-22T09:36:54.000Z</time>
      </trkpt>
      <trkpt lat="47.34671" lon="-2.34164">
        <ele>33.400001525879</ele>
        <time>2021-04-22T09:36:56.000Z</time>
      </trkpt>
      <trkpt lat="47.34673" lon="-2.34152">
        <ele>33.400001525879</ele>
        <time>2021-04-22T09:36:58.000Z</time>
      </trkpt>
      <trkpt lat="47.34667" lon="-2.34146">
        <ele>33.400001525879</ele>
        <time>2021-04-22T09:37:00.000Z</time>
      </trkpt>
      <trkpt lat="47.34658" lon="-2.34148">
        <ele>33.400001525879</ele>
        <time>2021-04-22T09:37:02.000Z</time>
      </trkpt>
      <trkpt lat="47.34654" lon="-2.34147">
        <ele>33.400001525879</ele>
        <time>2021-04-22T09:37:03.000Z</time>
      </trkpt>
      <trkpt lat="47.34637" lon="-2.34134">
        <ele>33.400001525879</ele>
        <time>2021-04-22T09:37:07.000Z</time>
      </trkpt>
      <trkpt lat="47.34629" lon="-2.34124">
        <ele>33.400001525879</ele>
        <time>2021-04-22T09:37:09.000Z</time>
      </trkpt>
      <trkpt lat="47.34623" lon="-2.34113">
        <ele>33.400001525879</ele>
        <time>2021-04-22T09:37:11.000Z</time>
      </trkpt>
      <trkpt lat="47.3462" lon="-2.34105">
        <ele>33.400001525879</ele>
        <time>2021-04-22T09:37:12.000Z</time>
      </trkpt>
      <trkpt lat="47.34615" lon="-2.34089">
        <ele>33</ele>
        <time>2021-04-22T09:37:14.000Z</time>
      </trkpt>
      <trkpt lat="47.34613" lon="-2.3408">
        <ele>32.599998474121</ele>
        <time>2021-04-22T09:37:15.000Z</time>
      </trkpt>
      <trkpt lat="47.34611" lon="-2.34072">
        <ele>32.200000762939</ele>
        <time>2021-04-22T09:37:16.000Z</time>
      </trkpt>
      <trkpt lat="47.34609" lon="-2.34063">
        <ele>31.799999237061</ele>
        <time>2021-04-22T09:37:17.000Z</time>
      </trkpt>
      <trkpt lat="47.34607" lon="-2.34054">
        <ele>31.39999961853</ele>
        <time>2021-04-22T09:37:18.000Z</time>
      </trkpt>
      <trkpt lat="47.34597" lon="-2.34002">
        <ele>31.39999961853</ele>
        <time>2021-04-22T09:37:24.000Z</time>
      </trkpt>
      <trkpt lat="47.34587" lon="-2.3395">
        <ele>31.39999961853</ele>
        <time>2021-04-22T09:37:30.000Z</time>
      </trkpt>
      <trkpt lat="47.34579" lon="-2.33927">
        <ele>31.39999961853</ele>
        <time>2021-04-22T09:37:33.000Z</time>
      </trkpt>
      <trkpt lat="47.34577" lon="-2.3392">
        <ele>30.60000038147</ele>
        <time>2021-04-22T09:37:34.000Z</time>
      </trkpt>
      <trkpt lat="47.34575" lon="-2.33913">
        <ele>30.200000762939</ele>
        <time>2021-04-22T09:37:35.000Z</time>
      </trkpt>
      <trkpt lat="47.34572" lon="-2.33907">
        <ele>29.799999237061</ele>
        <time>2021-04-22T09:37:36.000Z</time>
      </trkpt>
      <trkpt lat="47.3457" lon="-2.33901">
        <ele>29.39999961853</ele>
        <time>2021-04-22T09:37:37.000Z</time>
      </trkpt>
      <trkpt lat="47.34564" lon="-2.33883">
        <ele>29.39999961853</ele>
        <time>2021-04-22T09:37:40.000Z</time>
      </trkpt>
      <trkpt lat="47.34558" lon="-2.33871">
        <ele>29.39999961853</ele>
        <time>2021-04-22T09:37:42.000Z</time>
      </trkpt>
      <trkpt lat="47.34556" lon="-2.33864">
        <ele>29.39999961853</ele>
        <time>2021-04-22T09:37:43.000Z</time>
      </trkpt>
      <trkpt lat="47.34549" lon="-2.33837">
        <ele>29.39999961853</ele>
        <time>2021-04-22T09:37:47.000Z</time>
      </trkpt>
      <trkpt lat="47.3454" lon="-2.33791">
        <ele>29.799999237061</ele>
        <time>2021-04-22T09:37:54.000Z</time>
      </trkpt>
      <trkpt lat="47.34539" lon="-2.33784">
        <ele>30.200000762939</ele>
        <time>2021-04-22T09:37:55.000Z</time>
      </trkpt>
      <trkpt lat="47.34538" lon="-2.33778">
        <ele>30.60000038147</ele>
        <time>2021-04-22T09:37:56.000Z</time>
      </trkpt>
      <trkpt lat="47.34537" lon="-2.33772">
        <ele>31</ele>
        <time>2021-04-22T09:37:57.000Z</time>
      </trkpt>
      <trkpt lat="47.34536" lon="-2.33766">
        <ele>31.39999961853</ele>
        <time>2021-04-22T09:37:58.000Z</time>
      </trkpt>
      <trkpt lat="47.34535" lon="-2.33759">
        <ele>31.39999961853</ele>
        <time>2021-04-22T09:37:59.000Z</time>
      </trkpt>
      <trkpt lat="47.34533" lon="-2.33746">
        <ele>31.39999961853</ele>
        <time>2021-04-22T09:38:01.000Z</time>
      </trkpt>
      <trkpt lat="47.34531" lon="-2.33732">
        <ele>31.39999961853</ele>
        <time>2021-04-22T09:38:03.000Z</time>
      </trkpt>
      <trkpt lat="47.34525" lon="-2.33707">
        <ele>31.39999961853</ele>
        <time>2021-04-22T09:38:07.000Z</time>
      </trkpt>
      <trkpt lat="47.34519" lon="-2.3368">
        <ele>31.39999961853</ele>
        <time>2021-04-22T09:38:12.000Z</time>
      </trkpt>
      <trkpt lat="47.34512" lon="-2.33651">
        <ele>31.39999961853</ele>
        <time>2021-04-22T09:38:18.000Z</time>
      </trkpt>
      <trkpt lat="47.34511" lon="-2.33646">
        <ele>31</ele>
        <time>2021-04-22T09:38:19.000Z</time>
      </trkpt>
      <trkpt lat="47.3451" lon="-2.33641">
        <ele>30.60000038147</ele>
        <time>2021-04-22T09:38:20.000Z</time>
      </trkpt>
      <trkpt lat="47.3451" lon="-2.33637">
        <ele>30.200000762939</ele>
        <time>2021-04-22T09:38:21.000Z</time>
      </trkpt>
      <trkpt lat="47.34509" lon="-2.33632">
        <ele>29.799999237061</ele>
        <time>2021-04-22T09:38:22.000Z</time>
      </trkpt>
      <trkpt lat="47.34508" lon="-2.33627">
        <ele>29.39999961853</ele>
        <time>2021-04-22T09:38:23.000Z</time>
      </trkpt>
      <trkpt lat="47.34502" lon="-2.3359">
        <ele>29.39999961853</ele>
        <time>2021-04-22T09:38:31.000Z</time>
      </trkpt>
      <trkpt lat="47.34501" lon="-2.33586">
        <ele>29.39999961853</ele>
        <time>2021-04-22T09:38:34.000Z</time>
      </trkpt>
      <trkpt lat="47.34499" lon="-2.33583">
        <ele>29.39999961853</ele>
        <time>2021-04-22T09:38:42.000Z</time>
      </trkpt>
      <trkpt lat="47.34489" lon="-2.33562">
        <ele>29.39999961853</ele>
        <time>2021-04-22T09:38:49.000Z</time>
      </trkpt>
      <trkpt lat="47.34487" lon="-2.33538">
        <ele>29.39999961853</ele>
        <time>2021-04-22T09:38:54.000Z</time>
      </trkpt>
      <trkpt lat="47.34484" lon="-2.3352">
        <ele>29.39999961853</ele>
        <time>2021-04-22T09:38:59.000Z</time>
      </trkpt>
      <trkpt lat="47.34483" lon="-2.33512">
        <ele>29.39999961853</ele>
        <time>2021-04-22T09:39:01.000Z</time>
      </trkpt>
      <trkpt lat="47.3448" lon="-2.33491">
        <ele>29.39999961853</ele>
        <time>2021-04-22T09:39:05.000Z</time>
      </trkpt>
      <trkpt lat="47.34477" lon="-2.33461">
        <ele>29.39999961853</ele>
        <time>2021-04-22T09:39:11.000Z</time>
      </trkpt>
      <trkpt lat="47.34477" lon="-2.33457">
        <ele>29</ele>
        <time>2021-04-22T09:39:12.000Z</time>
      </trkpt>
      <trkpt lat="47.34477" lon="-2.33453">
        <ele>28</ele>
        <time>2021-04-22T09:39:13.000Z</time>
      </trkpt>
      <trkpt lat="47.34477" lon="-2.33449">
        <ele>27.60000038147</ele>
        <time>2021-04-22T09:39:14.000Z</time>
      </trkpt>
      <trkpt lat="47.34476" lon="-2.33445">
        <ele>27.200000762939</ele>
        <time>2021-04-22T09:39:15.000Z</time>
      </trkpt>
      <trkpt lat="47.34475" lon="-2.33437">
        <ele>27.200000762939</ele>
        <time>2021-04-22T09:39:17.000Z</time>
      </trkpt>
      <trkpt lat="47.34472" lon="-2.33413">
        <ele>27.200000762939</ele>
        <time>2021-04-22T09:39:23.000Z</time>
      </trkpt>
      <trkpt lat="47.34467" lon="-2.33386">
        <ele>27.200000762939</ele>
        <time>2021-04-22T09:39:29.000Z</time>
      </trkpt>
      <trkpt lat="47.34461" lon="-2.33353">
        <ele>27.200000762939</ele>
        <time>2021-04-22T09:39:36.000Z</time>
      </trkpt>
      <trkpt lat="47.34457" lon="-2.33318">
        <ele>27.200000762939</ele>
        <time>2021-04-22T09:39:44.000Z</time>
      </trkpt>
      <trkpt lat="47.34447" lon="-2.33303">
        <ele>27.200000762939</ele>
        <time>2021-04-22T09:39:50.000Z</time>
      </trkpt>
      <trkpt lat="47.34433" lon="-2.33295">
        <ele>27.200000762939</ele>
        <time>2021-04-22T09:39:55.000Z</time>
      </trkpt>
      <trkpt lat="47.34432" lon="-2.33291">
        <ele>27.200000762939</ele>
        <time>2021-04-22T09:39:56.000Z</time>
      </trkpt>
      <trkpt lat="47.34428" lon="-2.33278">
        <ele>27.200000762939</ele>
        <time>2021-04-22T09:40:00.000Z</time>
      </trkpt>
      <trkpt lat="47.34423" lon="-2.33246">
        <ele>27.200000762939</ele>
        <time>2021-04-22T09:40:06.000Z</time>
      </trkpt>
      <trkpt lat="47.34417" lon="-2.33211">
        <ele>26.799999237061</ele>
        <time>2021-04-22T09:40:11.000Z</time>
      </trkpt>
      <trkpt lat="47.34415" lon="-2.33205">
        <ele>26.39999961853</ele>
        <time>2021-04-22T09:40:12.000Z</time>
      </trkpt>
      <trkpt lat="47.34414" lon="-2.33199">
        <ele>25.799999237061</ele>
        <time>2021-04-22T09:40:13.000Z</time>
      </trkpt>
      <trkpt lat="47.34412" lon="-2.33192">
        <ele>25.39999961853</ele>
        <time>2021-04-22T09:40:14.000Z</time>
      </trkpt>
      <trkpt lat="47.34411" lon="-2.33185">
        <ele>25</ele>
        <time>2021-04-22T09:40:15.000Z</time>
      </trkpt>
      <trkpt lat="47.34405" lon="-2.33162">
        <ele>25</ele>
        <time>2021-04-22T09:40:19.000Z</time>
      </trkpt>
      <trkpt lat="47.34399" lon="-2.33139">
        <ele>25</ele>
        <time>2021-04-22T09:40:24.000Z</time>
      </trkpt>
      <trkpt lat="47.34397" lon="-2.33133">
        <ele>25</ele>
        <time>2021-04-22T09:40:25.000Z</time>
      </trkpt>
      <trkpt lat="47.34391" lon="-2.33106">
        <ele>24.60000038147</ele>
        <time>2021-04-22T09:40:30.000Z</time>
      </trkpt>
      <trkpt lat="47.3439" lon="-2.33102">
        <ele>24.200000762939</ele>
        <time>2021-04-22T09:40:31.000Z</time>
      </trkpt>
      <trkpt lat="47.34388" lon="-2.33097">
        <ele>23.799999237061</ele>
        <time>2021-04-22T09:40:32.000Z</time>
      </trkpt>
      <trkpt lat="47.34388" lon="-2.33092">
        <ele>23.39999961853</ele>
        <time>2021-04-22T09:40:33.000Z</time>
      </trkpt>
      <trkpt lat="47.34386" lon="-2.33088">
        <ele>23</ele>
        <time>2021-04-22T09:40:34.000Z</time>
      </trkpt>
      <trkpt lat="47.34384" lon="-2.33074">
        <ele>23</ele>
        <time>2021-04-22T09:40:37.000Z</time>
      </trkpt>
      <trkpt lat="47.34376" lon="-2.33039">
        <ele>23</ele>
        <time>2021-04-22T09:40:45.000Z</time>
      </trkpt>
      <trkpt lat="47.34373" lon="-2.33032">
        <ele>23</ele>
        <time>2021-04-22T09:40:47.000Z</time>
      </trkpt>
      <trkpt lat="47.3437" lon="-2.33031">
        <ele>23</ele>
        <time>2021-04-22T09:40:49.000Z</time>
      </trkpt>
      <trkpt lat="47.34363" lon="-2.33042">
        <ele>23</ele>
        <time>2021-04-22T09:40:54.000Z</time>
      </trkpt>
      <trkpt lat="47.34347" lon="-2.33047">
        <ele>23</ele>
        <time>2021-04-22T09:40:58.000Z</time>
      </trkpt>
      <trkpt lat="47.34343" lon="-2.33048">
        <ele>23</ele>
        <time>2021-04-22T09:40:59.000Z</time>
      </trkpt>
      <trkpt lat="47.34313" lon="-2.33059">
        <ele>23</ele>
        <time>2021-04-22T09:41:06.000Z</time>
      </trkpt>
      <trkpt lat="47.34299" lon="-2.33057">
        <ele>23</ele>
        <time>2021-04-22T09:41:10.000Z</time>
      </trkpt>
      <trkpt lat="47.34293" lon="-2.33049">
        <ele>23</ele>
        <time>2021-04-22T09:41:13.000Z</time>
      </trkpt>
      <trkpt lat="47.3429" lon="-2.33041">
        <ele>23</ele>
        <time>2021-04-22T09:41:15.000Z</time>
      </trkpt>
      <trkpt lat="47.34277" lon="-2.33015">
        <ele>23</ele>
        <time>2021-04-22T09:41:20.000Z</time>
      </trkpt>
      <trkpt lat="47.34275" lon="-2.3301">
        <ele>23</ele>
        <time>2021-04-22T09:41:21.000Z</time>
      </trkpt>
      <trkpt lat="47.34265" lon="-2.32988">
        <ele>23</ele>
        <time>2021-04-22T09:41:26.000Z</time>
      </trkpt>
      <trkpt lat="47.34262" lon="-2.32982">
        <ele>23</ele>
        <time>2021-04-22T09:41:31.000Z</time>
      </trkpt>
      <trkpt lat="47.34249" lon="-2.3295">
        <ele>23</ele>
        <time>2021-04-22T09:41:53.000Z</time>
      </trkpt>
      <trkpt lat="47.34246" lon="-2.32946">
        <ele>23</ele>
        <time>2021-04-22T09:41:55.000Z</time>
      </trkpt>
      <trkpt lat="47.34244" lon="-2.32944">
        <ele>23</ele>
        <time>2021-04-22T09:41:56.000Z</time>
      </trkpt>
      <trkpt lat="47.3424" lon="-2.32934">
        <ele>23</ele>
        <time>2021-04-22T09:42:01.000Z</time>
      </trkpt>
      <trkpt lat="47.34237" lon="-2.32927">
        <ele>23.799999237061</ele>
        <time>2021-04-22T09:42:06.000Z</time>
      </trkpt>
      <trkpt lat="47.34236" lon="-2.32926">
        <ele>24.200000762939</ele>
        <time>2021-04-22T09:42:07.000Z</time>
      </trkpt>
      <trkpt lat="47.34235" lon="-2.32924">
        <ele>24.60000038147</ele>
        <time>2021-04-22T09:42:08.000Z</time>
      </trkpt>
      <trkpt lat="47.34234" lon="-2.32921">
        <ele>25</ele>
        <time>2021-04-22T09:42:09.000Z</time>
      </trkpt>
      <trkpt lat="47.34225" lon="-2.32907">
        <ele>25</ele>
        <time>2021-04-22T09:42:15.000Z</time>
      </trkpt>
      <trkpt lat="47.34218" lon="-2.32892">
        <ele>25.39999961853</ele>
        <time>2021-04-22T09:42:19.000Z</time>
      </trkpt>
      <trkpt lat="47.34216" lon="-2.32889">
        <ele>25.799999237061</ele>
        <time>2021-04-22T09:42:20.000Z</time>
      </trkpt>
      <trkpt lat="47.34214" lon="-2.32885">
        <ele>26.200000762939</ele>
        <time>2021-04-22T09:42:21.000Z</time>
      </trkpt>
      <trkpt lat="47.34212" lon="-2.32882">
        <ele>26.60000038147</ele>
        <time>2021-04-22T09:42:22.000Z</time>
      </trkpt>
      <trkpt lat="47.3421" lon="-2.32877">
        <ele>27</ele>
        <time>2021-04-22T09:42:23.000Z</time>
      </trkpt>
      <trkpt lat="47.34203" lon="-2.32867">
        <ele>27</ele>
        <time>2021-04-22T09:42:26.000Z</time>
      </trkpt>
      <trkpt lat="47.34192" lon="-2.32845">
        <ele>27</ele>
        <time>2021-04-22T09:42:32.000Z</time>
      </trkpt>
      <trkpt lat="47.34188" lon="-2.32837">
        <ele>27.39999961853</ele>
        <time>2021-04-22T09:42:34.000Z</time>
      </trkpt>
      <trkpt lat="47.34187" lon="-2.32832">
        <ele>27.799999237061</ele>
        <time>2021-04-22T09:42:35.000Z</time>
      </trkpt>
      <trkpt lat="47.34185" lon="-2.32828">
        <ele>28.200000762939</ele>
        <time>2021-04-22T09:42:36.000Z</time>
      </trkpt>
      <trkpt lat="47.34184" lon="-2.32823">
        <ele>28.60000038147</ele>
        <time>2021-04-22T09:42:37.000Z</time>
      </trkpt>
      <trkpt lat="47.34183" lon="-2.32819">
        <ele>29</ele>
        <time>2021-04-22T09:42:38.000Z</time>
      </trkpt>
      <trkpt lat="47.34177" lon="-2.32797">
        <ele>29</ele>
        <time>2021-04-22T09:42:44.000Z</time>
      </trkpt>
      <trkpt lat="47.34174" lon="-2.32788">
        <ele>29</ele>
        <time>2021-04-22T09:42:46.000Z</time>
      </trkpt>
      <trkpt lat="47.34169" lon="-2.32772">
        <ele>29</ele>
        <time>2021-04-22T09:42:50.000Z</time>
      </trkpt>
      <trkpt lat="47.34168" lon="-2.3275">
        <ele>30</ele>
        <time>2021-04-22T09:42:55.000Z</time>
      </trkpt>
      <trkpt lat="47.34168" lon="-2.32743">
        <ele>30.39999961853</ele>
        <time>2021-04-22T09:42:56.000Z</time>
      </trkpt>
      <trkpt lat="47.34168" lon="-2.32738">
        <ele>30.799999237061</ele>
        <time>2021-04-22T09:42:57.000Z</time>
      </trkpt>
      <trkpt lat="47.34167" lon="-2.32732">
        <ele>31.39999961853</ele>
        <time>2021-04-22T09:42:58.000Z</time>
      </trkpt>
      <trkpt lat="47.34166" lon="-2.32698">
        <ele>31.39999961853</ele>
        <time>2021-04-22T09:43:03.000Z</time>
      </trkpt>
      <trkpt lat="47.34165" lon="-2.32691">
        <ele>31.39999961853</ele>
        <time>2021-04-22T09:43:04.000Z</time>
      </trkpt>
      <trkpt lat="47.3416" lon="-2.32663">
        <ele>31.39999961853</ele>
        <time>2021-04-22T09:43:08.000Z</time>
      </trkpt>
      <trkpt lat="47.34156" lon="-2.3262">
        <ele>31.39999961853</ele>
        <time>2021-04-22T09:43:14.000Z</time>
      </trkpt>
      <trkpt lat="47.34155" lon="-2.32612">
        <ele>31.39999961853</ele>
        <time>2021-04-22T09:43:15.000Z</time>
      </trkpt>
      <trkpt lat="47.34154" lon="-2.32581">
        <ele>31.39999961853</ele>
        <time>2021-04-22T09:43:21.000Z</time>
      </trkpt>
      <trkpt lat="47.34157" lon="-2.32554">
        <ele>31.39999961853</ele>
        <time>2021-04-22T09:43:26.000Z</time>
      </trkpt>
      <trkpt lat="47.34156" lon="-2.32523">
        <ele>31.39999961853</ele>
        <time>2021-04-22T09:43:32.000Z</time>
      </trkpt>
      <trkpt lat="47.34153" lon="-2.32482">
        <ele>31.39999961853</ele>
        <time>2021-04-22T09:43:39.000Z</time>
      </trkpt>
      <trkpt lat="47.34143" lon="-2.32452">
        <ele>31.39999961853</ele>
        <time>2021-04-22T09:43:44.000Z</time>
      </trkpt>
      <trkpt lat="47.34141" lon="-2.32446">
        <ele>31.39999961853</ele>
        <time>2021-04-22T09:43:45.000Z</time>
      </trkpt>
      <trkpt lat="47.34124" lon="-2.32396">
        <ele>31.39999961853</ele>
        <time>2021-04-22T09:43:53.000Z</time>
      </trkpt>
      <trkpt lat="47.34115" lon="-2.32361">
        <ele>31.39999961853</ele>
        <time>2021-04-22T09:43:58.000Z</time>
      </trkpt>
      <trkpt lat="47.34108" lon="-2.32339">
        <ele>31</ele>
        <time>2021-04-22T09:44:01.000Z</time>
      </trkpt>
      <trkpt lat="47.34107" lon="-2.32332">
        <ele>30.39999961853</ele>
        <time>2021-04-22T09:44:02.000Z</time>
      </trkpt>
      <trkpt lat="47.34105" lon="-2.32326">
        <ele>30</ele>
        <time>2021-04-22T09:44:03.000Z</time>
      </trkpt>
      <trkpt lat="47.34103" lon="-2.32317">
        <ele>29.60000038147</ele>
        <time>2021-04-22T09:44:04.000Z</time>
      </trkpt>
      <trkpt lat="47.34101" lon="-2.32308">
        <ele>29.200000762939</ele>
        <time>2021-04-22T09:44:05.000Z</time>
      </trkpt>
      <trkpt lat="47.34085" lon="-2.32249">
        <ele>29.200000762939</ele>
        <time>2021-04-22T09:44:12.000Z</time>
      </trkpt>
      <trkpt lat="47.34077" lon="-2.32233">
        <ele>28.799999237061</ele>
        <time>2021-04-22T09:44:14.000Z</time>
      </trkpt>
      <trkpt lat="47.34073" lon="-2.32227">
        <ele>28.39999961853</ele>
        <time>2021-04-22T09:44:15.000Z</time>
      </trkpt>
      <trkpt lat="47.34069" lon="-2.32222">
        <ele>28</ele>
        <time>2021-04-22T09:44:16.000Z</time>
      </trkpt>
      <trkpt lat="47.3406" lon="-2.32219">
        <ele>27.60000038147</ele>
        <time>2021-04-22T09:44:17.000Z</time>
      </trkpt>
      <trkpt lat="47.34052" lon="-2.32217">
        <ele>27.200000762939</ele>
        <time>2021-04-22T09:44:18.000Z</time>
      </trkpt>
      <trkpt lat="47.34044" lon="-2.32217">
        <ele>27.200000762939</ele>
        <time>2021-04-22T09:44:19.000Z</time>
      </trkpt>
      <trkpt lat="47.34038" lon="-2.32216">
        <ele>27.200000762939</ele>
        <time>2021-04-22T09:44:20.000Z</time>
      </trkpt>
      <trkpt lat="47.34025" lon="-2.32216">
        <ele>26.799999237061</ele>
        <time>2021-04-22T09:44:22.000Z</time>
      </trkpt>
      <trkpt lat="47.34019" lon="-2.32217">
        <ele>26.39999961853</ele>
        <time>2021-04-22T09:44:23.000Z</time>
      </trkpt>
      <trkpt lat="47.34013" lon="-2.32216">
        <ele>26</ele>
        <time>2021-04-22T09:44:24.000Z</time>
      </trkpt>
      <trkpt lat="47.34007" lon="-2.32217">
        <ele>25.60000038147</ele>
        <time>2021-04-22T09:44:25.000Z</time>
      </trkpt>
      <trkpt lat="47.34001" lon="-2.32217">
        <ele>25.200000762939</ele>
        <time>2021-04-22T09:44:26.000Z</time>
      </trkpt>
      <trkpt lat="47.33968" lon="-2.32218">
        <ele>25.200000762939</ele>
        <time>2021-04-22T09:44:32.000Z</time>
      </trkpt>
      <trkpt lat="47.33955" lon="-2.32214">
        <ele>25.200000762939</ele>
        <time>2021-04-22T09:44:35.000Z</time>
      </trkpt>
      <trkpt lat="47.33949" lon="-2.32208">
        <ele>25.200000762939</ele>
        <time>2021-04-22T09:44:37.000Z</time>
      </trkpt>
      <trkpt lat="47.33937" lon="-2.32203">
        <ele>25.200000762939</ele>
        <time>2021-04-22T09:44:40.000Z</time>
      </trkpt>
      <trkpt lat="47.33927" lon="-2.32204">
        <ele>25.200000762939</ele>
        <time>2021-04-22T09:44:42.000Z</time>
      </trkpt>
      <trkpt lat="47.33891" lon="-2.32205">
        <ele>25.200000762939</ele>
        <time>2021-04-22T09:44:49.000Z</time>
      </trkpt>
      <trkpt lat="47.33849" lon="-2.32206">
        <ele>25.200000762939</ele>
        <time>2021-04-22T09:44:56.000Z</time>
      </trkpt>
      <trkpt lat="47.33836" lon="-2.32207">
        <ele>25.200000762939</ele>
        <time>2021-04-22T09:44:58.000Z</time>
      </trkpt>
      <trkpt lat="47.3381" lon="-2.32209">
        <ele>25.200000762939</ele>
        <time>2021-04-22T09:45:02.000Z</time>
      </trkpt>
      <trkpt lat="47.3378" lon="-2.32214">
        <ele>25.200000762939</ele>
        <time>2021-04-22T09:45:06.000Z</time>
      </trkpt>
      <trkpt lat="47.33766" lon="-2.32219">
        <ele>25.200000762939</ele>
        <time>2021-04-22T09:45:08.000Z</time>
      </trkpt>
      <trkpt lat="47.33724" lon="-2.32244">
        <ele>25.200000762939</ele>
        <time>2021-04-22T09:45:15.000Z</time>
      </trkpt>
      <trkpt lat="47.33692" lon="-2.32259">
        <ele>25.60000038147</ele>
        <time>2021-04-22T09:45:20.000Z</time>
      </trkpt>
      <trkpt lat="47.33686" lon="-2.32263">
        <ele>26</ele>
        <time>2021-04-22T09:45:21.000Z</time>
      </trkpt>
      <trkpt lat="47.33679" lon="-2.32267">
        <ele>26.39999961853</ele>
        <time>2021-04-22T09:45:22.000Z</time>
      </trkpt>
      <trkpt lat="47.33673" lon="-2.32271">
        <ele>27.200000762939</ele>
        <time>2021-04-22T09:45:23.000Z</time>
      </trkpt>
      <trkpt lat="47.33647" lon="-2.32279">
        <ele>27.200000762939</ele>
        <time>2021-04-22T09:45:28.000Z</time>
      </trkpt>
      <trkpt lat="47.33633" lon="-2.32282">
        <ele>27.200000762939</ele>
        <time>2021-04-22T09:45:33.000Z</time>
      </trkpt>
      <trkpt lat="47.33616" lon="-2.32288">
        <ele>27.200000762939</ele>
        <time>2021-04-22T09:45:39.000Z</time>
      </trkpt>
      <trkpt lat="47.33591" lon="-2.32291">
        <ele>27.200000762939</ele>
        <time>2021-04-22T09:45:44.000Z</time>
      </trkpt>
      <trkpt lat="47.33553" lon="-2.32302">
        <ele>27.200000762939</ele>
        <time>2021-04-22T09:45:50.000Z</time>
      </trkpt>
      <trkpt lat="47.33547" lon="-2.32303">
        <ele>27.200000762939</ele>
        <time>2021-04-22T09:45:51.000Z</time>
      </trkpt>
      <trkpt lat="47.33518" lon="-2.32306">
        <ele>27.200000762939</ele>
        <time>2021-04-22T09:45:55.000Z</time>
      </trkpt>
      <trkpt lat="47.33488" lon="-2.3232">
        <ele>27.200000762939</ele>
        <time>2021-04-22T09:45:59.000Z</time>
      </trkpt>
      <trkpt lat="47.33481" lon="-2.32323">
        <ele>27.200000762939</ele>
        <time>2021-04-22T09:46:00.000Z</time>
      </trkpt>
      <trkpt lat="47.33439" lon="-2.32347">
        <ele>26.799999237061</ele>
        <time>2021-04-22T09:46:07.000Z</time>
      </trkpt>
      <trkpt lat="47.33433" lon="-2.32352">
        <ele>26.39999961853</ele>
        <time>2021-04-22T09:46:08.000Z</time>
      </trkpt>
      <trkpt lat="47.33427" lon="-2.32356">
        <ele>26</ele>
        <time>2021-04-22T09:46:09.000Z</time>
      </trkpt>
      <trkpt lat="47.33422" lon="-2.32361">
        <ele>25.60000038147</ele>
        <time>2021-04-22T09:46:10.000Z</time>
      </trkpt>
      <trkpt lat="47.33416" lon="-2.32366">
        <ele>25.200000762939</ele>
        <time>2021-04-22T09:46:11.000Z</time>
      </trkpt>
      <trkpt lat="47.33405" lon="-2.32375">
        <ele>25.200000762939</ele>
        <time>2021-04-22T09:46:13.000Z</time>
      </trkpt>
      <trkpt lat="47.33362" lon="-2.32415">
        <ele>25.200000762939</ele>
        <time>2021-04-22T09:46:21.000Z</time>
      </trkpt>
      <trkpt lat="47.33339" lon="-2.32446">
        <ele>25.200000762939</ele>
        <time>2021-04-22T09:46:26.000Z</time>
      </trkpt>
      <trkpt lat="47.33331" lon="-2.32456">
        <ele>25.200000762939</ele>
        <time>2021-04-22T09:46:28.000Z</time>
      </trkpt>
      <trkpt lat="47.33322" lon="-2.3246">
        <ele>25.200000762939</ele>
        <time>2021-04-22T09:46:30.000Z</time>
      </trkpt>
      <trkpt lat="47.33317" lon="-2.32462">
        <ele>25.60000038147</ele>
        <time>2021-04-22T09:46:31.000Z</time>
      </trkpt>
      <trkpt lat="47.33311" lon="-2.32465">
        <ele>26</ele>
        <time>2021-04-22T09:46:32.000Z</time>
      </trkpt>
      <trkpt lat="47.33306" lon="-2.32467">
        <ele>26.39999961853</ele>
        <time>2021-04-22T09:46:33.000Z</time>
      </trkpt>
      <trkpt lat="47.33301" lon="-2.3247">
        <ele>26.799999237061</ele>
        <time>2021-04-22T09:46:34.000Z</time>
      </trkpt>
      <trkpt lat="47.33295" lon="-2.32473">
        <ele>27.39999961853</ele>
        <time>2021-04-22T09:46:35.000Z</time>
      </trkpt>
      <trkpt lat="47.33253" lon="-2.32491">
        <ele>27.39999961853</ele>
        <time>2021-04-22T09:46:42.000Z</time>
      </trkpt>
      <trkpt lat="47.33203" lon="-2.32513">
        <ele>27.39999961853</ele>
        <time>2021-04-22T09:46:50.000Z</time>
      </trkpt>
      <trkpt lat="47.33172" lon="-2.32524">
        <ele>27.39999961853</ele>
        <time>2021-04-22T09:46:56.000Z</time>
      </trkpt>
      <trkpt lat="47.33155" lon="-2.32533">
        <ele>27.39999961853</ele>
        <time>2021-04-22T09:47:01.000Z</time>
      </trkpt>
      <trkpt lat="47.33143" lon="-2.3254">
        <ele>27.39999961853</ele>
        <time>2021-04-22T09:47:06.000Z</time>
      </trkpt>
      <trkpt lat="47.33134" lon="-2.32547">
        <ele>26.799999237061</ele>
        <time>2021-04-22T09:47:10.000Z</time>
      </trkpt>
      <trkpt lat="47.3313" lon="-2.3255">
        <ele>26.39999961853</ele>
        <time>2021-04-22T09:47:11.000Z</time>
      </trkpt>
      <trkpt lat="47.33126" lon="-2.32554">
        <ele>26</ele>
        <time>2021-04-22T09:47:12.000Z</time>
      </trkpt>
      <trkpt lat="47.33121" lon="-2.32558">
        <ele>25.60000038147</ele>
        <time>2021-04-22T09:47:13.000Z</time>
      </trkpt>
      <trkpt lat="47.33116" lon="-2.32561">
        <ele>25.200000762939</ele>
        <time>2021-04-22T09:47:14.000Z</time>
      </trkpt>
      <trkpt lat="47.331" lon="-2.32574">
        <ele>25.200000762939</ele>
        <time>2021-04-22T09:47:17.000Z</time>
      </trkpt>
      <trkpt lat="47.33084" lon="-2.32589">
        <ele>25.200000762939</ele>
        <time>2021-04-22T09:47:20.000Z</time>
      </trkpt>
      <trkpt lat="47.33067" lon="-2.32604">
        <ele>25.200000762939</ele>
        <time>2021-04-22T09:47:23.000Z</time>
      </trkpt>
      <trkpt lat="47.33025" lon="-2.32634">
        <ele>25.200000762939</ele>
        <time>2021-04-22T09:47:30.000Z</time>
      </trkpt>
      <trkpt lat="47.33005" lon="-2.32628">
        <ele>25.200000762939</ele>
        <time>2021-04-22T09:47:33.000Z</time>
      </trkpt>
      <trkpt lat="47.32999" lon="-2.32625">
        <ele>25.200000762939</ele>
        <time>2021-04-22T09:47:34.000Z</time>
      </trkpt>
      <trkpt lat="47.32992" lon="-2.32624">
        <ele>25.200000762939</ele>
        <time>2021-04-22T09:47:35.000Z</time>
      </trkpt>
      <trkpt lat="47.32981" lon="-2.32632">
        <ele>25.200000762939</ele>
        <time>2021-04-22T09:47:37.000Z</time>
      </trkpt>
      <trkpt lat="47.32958" lon="-2.32642">
        <ele>25.200000762939</ele>
        <time>2021-04-22T09:47:41.000Z</time>
      </trkpt>
      <trkpt lat="47.32953" lon="-2.32644">
        <ele>25.200000762939</ele>
        <time>2021-04-22T09:47:42.000Z</time>
      </trkpt>
      <trkpt lat="47.32929" lon="-2.32644">
        <ele>25.200000762939</ele>
        <time>2021-04-22T09:47:46.000Z</time>
      </trkpt>
      <trkpt lat="47.32924" lon="-2.32639">
        <ele>25.200000762939</ele>
        <time>2021-04-22T09:47:47.000Z</time>
      </trkpt>
      <trkpt lat="47.32917" lon="-2.32617">
        <ele>25.200000762939</ele>
        <time>2021-04-22T09:47:50.000Z</time>
      </trkpt>
      <trkpt lat="47.32917" lon="-2.32583">
        <ele>25.200000762939</ele>
        <time>2021-04-22T09:47:54.000Z</time>
      </trkpt>
      <trkpt lat="47.32917" lon="-2.32573">
        <ele>25.60000038147</ele>
        <time>2021-04-22T09:47:55.000Z</time>
      </trkpt>
      <trkpt lat="47.32917" lon="-2.32564">
        <ele>26</ele>
        <time>2021-04-22T09:47:56.000Z</time>
      </trkpt>
      <trkpt lat="47.32917" lon="-2.32555">
        <ele>26.60000038147</ele>
        <time>2021-04-22T09:47:57.000Z</time>
      </trkpt>
      <trkpt lat="47.32916" lon="-2.32546">
        <ele>27</ele>
        <time>2021-04-22T09:47:58.000Z</time>
      </trkpt>
      <trkpt lat="47.32915" lon="-2.32536">
        <ele>27.39999961853</ele>
        <time>2021-04-22T09:47:59.000Z</time>
      </trkpt>
      <trkpt lat="47.32914" lon="-2.32527">
        <ele>27.39999961853</ele>
        <time>2021-04-22T09:48:00.000Z</time>
      </trkpt>
      <trkpt lat="47.32909" lon="-2.32511">
        <ele>27.39999961853</ele>
        <time>2021-04-22T09:48:02.000Z</time>
      </trkpt>
      <trkpt lat="47.32901" lon="-2.32483">
        <ele>27.39999961853</ele>
        <time>2021-04-22T09:48:05.000Z</time>
      </trkpt>
      <trkpt lat="47.32894" lon="-2.32467">
        <ele>27.39999961853</ele>
        <time>2021-04-22T09:48:07.000Z</time>
      </trkpt>
      <trkpt lat="47.32886" lon="-2.32456">
        <ele>27.39999961853</ele>
        <time>2021-04-22T09:48:09.000Z</time>
      </trkpt>
      <trkpt lat="47.32859" lon="-2.3244">
        <ele>27.39999961853</ele>
        <time>2021-04-22T09:48:13.000Z</time>
      </trkpt>
      <trkpt lat="47.32822" lon="-2.3241">
        <ele>27.39999961853</ele>
        <time>2021-04-22T09:48:19.000Z</time>
      </trkpt>
      <trkpt lat="47.32787" lon="-2.32375">
        <ele>27.39999961853</ele>
        <time>2021-04-22T09:48:25.000Z</time>
      </trkpt>
      <trkpt lat="47.32745" lon="-2.32351">
        <ele>27.39999961853</ele>
        <time>2021-04-22T09:48:32.000Z</time>
      </trkpt>
      <trkpt lat="47.32695" lon="-2.32325">
        <ele>27.39999961853</ele>
        <time>2021-04-22T09:48:41.000Z</time>
      </trkpt>
      <trkpt lat="47.32656" lon="-2.32313">
        <ele>27.39999961853</ele>
        <time>2021-04-22T09:48:48.000Z</time>
      </trkpt>
      <trkpt lat="47.32646" lon="-2.32311">
        <ele>27.39999961853</ele>
        <time>2021-04-22T09:48:50.000Z</time>
      </trkpt>
      <trkpt lat="47.32618" lon="-2.3231">
        <ele>27.799999237061</ele>
        <time>2021-04-22T09:48:55.000Z</time>
      </trkpt>
      <trkpt lat="47.32612" lon="-2.32309">
        <ele>28.200000762939</ele>
        <time>2021-04-22T09:48:56.000Z</time>
      </trkpt>
      <trkpt lat="47.32607" lon="-2.32309">
        <ele>28.60000038147</ele>
        <time>2021-04-22T09:48:57.000Z</time>
      </trkpt>
      <trkpt lat="47.32602" lon="-2.32309">
        <ele>29</ele>
        <time>2021-04-22T09:48:58.000Z</time>
      </trkpt>
      <trkpt lat="47.32596" lon="-2.32309">
        <ele>29.39999961853</ele>
        <time>2021-04-22T09:48:59.000Z</time>
      </trkpt>
      <trkpt lat="47.32572" lon="-2.32313">
        <ele>29.39999961853</ele>
        <time>2021-04-22T09:49:04.000Z</time>
      </trkpt>
      <trkpt lat="47.32553" lon="-2.32315">
        <ele>29.39999961853</ele>
        <time>2021-04-22T09:49:09.000Z</time>
      </trkpt>
      <trkpt lat="47.32545" lon="-2.32316">
        <ele>29.39999961853</ele>
        <time>2021-04-22T09:49:11.000Z</time>
      </trkpt>
      <trkpt lat="47.32534" lon="-2.32314">
        <ele>29.39999961853</ele>
        <time>2021-04-22T09:49:15.000Z</time>
      </trkpt>
      <trkpt lat="47.32532" lon="-2.3231">
        <ele>29.39999961853</ele>
        <time>2021-04-22T09:49:17.000Z</time>
      </trkpt>
      <trkpt lat="47.32532" lon="-2.32302">
        <ele>29.39999961853</ele>
        <time>2021-04-22T09:49:19.000Z</time>
      </trkpt>
      <trkpt lat="47.32533" lon="-2.32292">
        <ele>29.39999961853</ele>
        <time>2021-04-22T09:49:21.000Z</time>
      </trkpt>
      <trkpt lat="47.32533" lon="-2.32285">
        <ele>29.39999961853</ele>
        <time>2021-04-22T09:49:22.000Z</time>
      </trkpt>
      <trkpt lat="47.32534" lon="-2.32272">
        <ele>29.39999961853</ele>
        <time>2021-04-22T09:49:24.000Z</time>
      </trkpt>
      <trkpt lat="47.32538" lon="-2.32238">
        <ele>29.39999961853</ele>
        <time>2021-04-22T09:49:28.000Z</time>
      </trkpt>
      <trkpt lat="47.32543" lon="-2.32219">
        <ele>29</ele>
        <time>2021-04-22T09:49:30.000Z</time>
      </trkpt>
      <trkpt lat="47.3255" lon="-2.32208">
        <ele>28.60000038147</ele>
        <time>2021-04-22T09:49:31.000Z</time>
      </trkpt>
      <trkpt lat="47.32552" lon="-2.32199">
        <ele>28</ele>
        <time>2021-04-22T09:49:32.000Z</time>
      </trkpt>
      <trkpt lat="47.32555" lon="-2.32191">
        <ele>27.60000038147</ele>
        <time>2021-04-22T09:49:33.000Z</time>
      </trkpt>
      <trkpt lat="47.32557" lon="-2.32184">
        <ele>27.200000762939</ele>
        <time>2021-04-22T09:49:34.000Z</time>
      </trkpt>
      <trkpt lat="47.32566" lon="-2.32159">
        <ele>27.200000762939</ele>
        <time>2021-04-22T09:49:38.000Z</time>
      </trkpt>
      <trkpt lat="47.32575" lon="-2.32131">
        <ele>27.200000762939</ele>
        <time>2021-04-22T09:49:42.000Z</time>
      </trkpt>
      <trkpt lat="47.32578" lon="-2.32119">
        <ele>27.200000762939</ele>
        <time>2021-04-22T09:49:44.000Z</time>
      </trkpt>
      <trkpt lat="47.32577" lon="-2.32097">
        <ele>27.200000762939</ele>
        <time>2021-04-22T09:49:48.000Z</time>
      </trkpt>
      <trkpt lat="47.3257" lon="-2.32094">
        <ele>27.60000038147</ele>
        <time>2021-04-22T09:49:50.000Z</time>
      </trkpt>
      <trkpt lat="47.32565" lon="-2.32094">
        <ele>28</ele>
        <time>2021-04-22T09:49:51.000Z</time>
      </trkpt>
      <trkpt lat="47.3256" lon="-2.32094">
        <ele>28.39999961853</ele>
        <time>2021-04-22T09:49:52.000Z</time>
      </trkpt>
      <trkpt lat="47.32555" lon="-2.32094">
        <ele>28.799999237061</ele>
        <time>2021-04-22T09:49:53.000Z</time>
      </trkpt>
      <trkpt lat="47.3255" lon="-2.32094">
        <ele>29.200000762939</ele>
        <time>2021-04-22T09:49:54.000Z</time>
      </trkpt>
      <trkpt lat="47.3252" lon="-2.32096">
        <ele>29.200000762939</ele>
        <time>2021-04-22T09:50:00.000Z</time>
      </trkpt>
      <trkpt lat="47.32476" lon="-2.32098">
        <ele>29.200000762939</ele>
        <time>2021-04-22T09:50:08.000Z</time>
      </trkpt>
      <trkpt lat="47.32427" lon="-2.321">
        <ele>29.200000762939</ele>
        <time>2021-04-22T09:50:17.000Z</time>
      </trkpt>
      <trkpt lat="47.32398" lon="-2.32103">
        <ele>29.200000762939</ele>
        <time>2021-04-22T09:50:23.000Z</time>
      </trkpt>
      <trkpt lat="47.32367" lon="-2.32105">
        <ele>29.200000762939</ele>
        <time>2021-04-22T09:50:30.000Z</time>
      </trkpt>
      <trkpt lat="47.32343" lon="-2.32102">
        <ele>29.200000762939</ele>
        <time>2021-04-22T09:50:36.000Z</time>
      </trkpt>
      <trkpt lat="47.32326" lon="-2.32103">
        <ele>29.200000762939</ele>
        <time>2021-04-22T09:50:40.000Z</time>
      </trkpt>
      <trkpt lat="47.32307" lon="-2.32101">
        <ele>29.60000038147</ele>
        <time>2021-04-22T09:50:44.000Z</time>
      </trkpt>
      <trkpt lat="47.32302" lon="-2.32101">
        <ele>30</ele>
        <time>2021-04-22T09:50:45.000Z</time>
      </trkpt>
      <trkpt lat="47.32297" lon="-2.321">
        <ele>30.39999961853</ele>
        <time>2021-04-22T09:50:46.000Z</time>
      </trkpt>
      <trkpt lat="47.32292" lon="-2.32101">
        <ele>30.799999237061</ele>
        <time>2021-04-22T09:50:47.000Z</time>
      </trkpt>
      <trkpt lat="47.32286" lon="-2.32101">
        <ele>31.200000762939</ele>
        <time>2021-04-22T09:50:48.000Z</time>
      </trkpt>
      <trkpt lat="47.32253" lon="-2.32104">
        <ele>31.200000762939</ele>
        <time>2021-04-22T09:50:54.000Z</time>
      </trkpt>
      <trkpt lat="47.32216" lon="-2.32114">
        <ele>31.200000762939</ele>
        <time>2021-04-22T09:51:01.000Z</time>
      </trkpt>
      <trkpt lat="47.32212" lon="-2.32115">
        <ele>31.200000762939</ele>
        <time>2021-04-22T09:51:04.000Z</time>
      </trkpt>
      <trkpt lat="47.32211" lon="-2.32116">
        <ele>30.799999237061</ele>
        <time>2021-04-22T09:51:05.000Z</time>
      </trkpt>
      <trkpt lat="47.3221" lon="-2.32116">
        <ele>30.39999961853</ele>
        <time>2021-04-22T09:51:06.000Z</time>
      </trkpt>
      <trkpt lat="47.32209" lon="-2.32117">
        <ele>30</ele>
        <time>2021-04-22T09:51:07.000Z</time>
      </trkpt>
      <trkpt lat="47.32207" lon="-2.32118">
        <ele>29.60000038147</ele>
        <time>2021-04-22T09:51:08.000Z</time>
      </trkpt>
      <trkpt lat="47.32205" lon="-2.32119">
        <ele>29.200000762939</ele>
        <time>2021-04-22T09:51:09.000Z</time>
      </trkpt>
      <trkpt lat="47.32201" lon="-2.32121">
        <ele>29.200000762939</ele>
        <time>2021-04-22T09:51:10.000Z</time>
      </trkpt>
      <trkpt lat="47.32187" lon="-2.32127">
        <ele>29.200000762939</ele>
        <time>2021-04-22T09:51:13.000Z</time>
      </trkpt>
      <trkpt lat="47.32182" lon="-2.32132">
        <ele>29.200000762939</ele>
        <time>2021-04-22T09:51:14.000Z</time>
      </trkpt>
      <trkpt lat="47.32144" lon="-2.32162">
        <ele>29.200000762939</ele>
        <time>2021-04-22T09:51:21.000Z</time>
      </trkpt>
      <trkpt lat="47.32119" lon="-2.32178">
        <ele>29.200000762939</ele>
        <time>2021-04-22T09:51:26.000Z</time>
      </trkpt>
      <trkpt lat="47.3208" lon="-2.32185">
        <ele>29.200000762939</ele>
        <time>2021-04-22T09:51:33.000Z</time>
      </trkpt>
      <trkpt lat="47.32052" lon="-2.32187">
        <ele>29.60000038147</ele>
        <time>2021-04-22T09:51:38.000Z</time>
      </trkpt>
      <trkpt lat="47.32047" lon="-2.32188">
        <ele>30.200000762939</ele>
        <time>2021-04-22T09:51:39.000Z</time>
      </trkpt>
      <trkpt lat="47.32042" lon="-2.32188">
        <ele>30.60000038147</ele>
        <time>2021-04-22T09:51:40.000Z</time>
      </trkpt>
      <trkpt lat="47.32036" lon="-2.32189">
        <ele>31</ele>
        <time>2021-04-22T09:51:41.000Z</time>
      </trkpt>
      <trkpt lat="47.3203" lon="-2.32189">
        <ele>31.39999961853</ele>
        <time>2021-04-22T09:51:42.000Z</time>
      </trkpt>
      <trkpt lat="47.32019" lon="-2.32192">
        <ele>31.39999961853</ele>
        <time>2021-04-22T09:51:44.000Z</time>
      </trkpt>
      <trkpt lat="47.32014" lon="-2.32195">
        <ele>31.39999961853</ele>
        <time>2021-04-22T09:51:45.000Z</time>
      </trkpt>
      <trkpt lat="47.3197" lon="-2.32236">
        <ele>31.39999961853</ele>
        <time>2021-04-22T09:51:54.000Z</time>
      </trkpt>
      <trkpt lat="47.31967" lon="-2.32241">
        <ele>31.799999237061</ele>
        <time>2021-04-22T09:51:55.000Z</time>
      </trkpt>
      <trkpt lat="47.31964" lon="-2.32246">
        <ele>32.200000762939</ele>
        <time>2021-04-22T09:51:56.000Z</time>
      </trkpt>
      <trkpt lat="47.31962" lon="-2.32251">
        <ele>32.599998474121</ele>
        <time>2021-04-22T09:51:57.000Z</time>
      </trkpt>
      <trkpt lat="47.31959" lon="-2.32257">
        <ele>33.599998474121</ele>
        <time>2021-04-22T09:51:58.000Z</time>
      </trkpt>
      <trkpt lat="47.31956" lon="-2.32261">
        <ele>33.599998474121</ele>
        <time>2021-04-22T09:51:59.000Z</time>
      </trkpt>
      <trkpt lat="47.31953" lon="-2.32264">
        <ele>34</ele>
        <time>2021-04-22T09:52:00.000Z</time>
      </trkpt>
      <trkpt lat="47.3195" lon="-2.32264">
        <ele>34.400001525879</ele>
        <time>2021-04-22T09:52:01.000Z</time>
      </trkpt>
      <trkpt lat="47.31949" lon="-2.32261">
        <ele>34.799999237061</ele>
        <time>2021-04-22T09:52:02.000Z</time>
      </trkpt>
      <trkpt lat="47.31948" lon="-2.32257">
        <ele>35.400001525879</ele>
        <time>2021-04-22T09:52:03.000Z</time>
      </trkpt>
      <trkpt lat="47.31948" lon="-2.32252">
        <ele>35.799999237061</ele>
        <time>2021-04-22T09:52:04.000Z</time>
      </trkpt>
      <trkpt lat="47.31948" lon="-2.32247">
        <ele>36.200000762939</ele>
        <time>2021-04-22T09:52:05.000Z</time>
      </trkpt>
      <trkpt lat="47.31949" lon="-2.32241">
        <ele>36.599998474121</ele>
        <time>2021-04-22T09:52:06.000Z</time>
      </trkpt>
      <trkpt lat="47.31951" lon="-2.32236">
        <ele>37</ele>
        <time>2021-04-22T09:52:07.000Z</time>
      </trkpt>
      <trkpt lat="47.31953" lon="-2.3223">
        <ele>37.400001525879</ele>
        <time>2021-04-22T09:52:08.000Z</time>
      </trkpt>
      <trkpt lat="47.31954" lon="-2.32225">
        <ele>37.799999237061</ele>
        <time>2021-04-22T09:52:09.000Z</time>
      </trkpt>
      <trkpt lat="47.31951" lon="-2.32216">
        <ele>37.799999237061</ele>
        <time>2021-04-22T09:52:11.000Z</time>
      </trkpt>
      <trkpt lat="47.31936" lon="-2.32212">
        <ele>37.799999237061</ele>
        <time>2021-04-22T09:52:15.000Z</time>
      </trkpt>
      <trkpt lat="47.31932" lon="-2.32211">
        <ele>37.799999237061</ele>
        <time>2021-04-22T09:52:16.000Z</time>
      </trkpt>
      <trkpt lat="47.31928" lon="-2.3221">
        <ele>38.200000762939</ele>
        <time>2021-04-22T09:52:17.000Z</time>
      </trkpt>
      <trkpt lat="47.31925" lon="-2.32209">
        <ele>38.599998474121</ele>
        <time>2021-04-22T09:52:18.000Z</time>
      </trkpt>
      <trkpt lat="47.31921" lon="-2.32208">
        <ele>39</ele>
        <time>2021-04-22T09:52:19.000Z</time>
      </trkpt>
      <trkpt lat="47.31917" lon="-2.32207">
        <ele>39.400001525879</ele>
        <time>2021-04-22T09:52:20.000Z</time>
      </trkpt>
      <trkpt lat="47.31913" lon="-2.32206">
        <ele>39.799999237061</ele>
        <time>2021-04-22T09:52:21.000Z</time>
      </trkpt>
      <trkpt lat="47.3191" lon="-2.32206">
        <ele>39.799999237061</ele>
        <time>2021-04-22T09:52:22.000Z</time>
      </trkpt>
      <trkpt lat="47.31899" lon="-2.32207">
        <ele>40.200000762939</ele>
        <time>2021-04-22T09:52:25.000Z</time>
      </trkpt>
      <trkpt lat="47.31896" lon="-2.32207">
        <ele>40.799999237061</ele>
        <time>2021-04-22T09:52:26.000Z</time>
      </trkpt>
      <trkpt lat="47.31893" lon="-2.32208">
        <ele>41.200000762939</ele>
        <time>2021-04-22T09:52:27.000Z</time>
      </trkpt>
      <trkpt lat="47.3189" lon="-2.32209">
        <ele>41.599998474121</ele>
        <time>2021-04-22T09:52:28.000Z</time>
      </trkpt>
      <trkpt lat="47.31886" lon="-2.3221">
        <ele>42</ele>
        <time>2021-04-22T09:52:29.000Z</time>
      </trkpt>
      <trkpt lat="47.31882" lon="-2.3221">
        <ele>42</ele>
        <time>2021-04-22T09:52:30.000Z</time>
      </trkpt>
      <trkpt lat="47.31867" lon="-2.32214">
        <ele>42</ele>
        <time>2021-04-22T09:52:34.000Z</time>
      </trkpt>
      <trkpt lat="47.31864" lon="-2.32215">
        <ele>42.400001525879</ele>
        <time>2021-04-22T09:52:35.000Z</time>
      </trkpt>
      <trkpt lat="47.3186" lon="-2.32216">
        <ele>42.799999237061</ele>
        <time>2021-04-22T09:52:36.000Z</time>
      </trkpt>
      <trkpt lat="47.31857" lon="-2.32217">
        <ele>43.400001525879</ele>
        <time>2021-04-22T09:52:37.000Z</time>
      </trkpt>
      <trkpt lat="47.31854" lon="-2.32219">
        <ele>43.799999237061</ele>
        <time>2021-04-22T09:52:38.000Z</time>
      </trkpt>
      <trkpt lat="47.31851" lon="-2.3222">
        <ele>44.200000762939</ele>
        <time>2021-04-22T09:52:39.000Z</time>
      </trkpt>
      <trkpt lat="47.31842" lon="-2.32222">
        <ele>44.200000762939</ele>
        <time>2021-04-22T09:52:42.000Z</time>
      </trkpt>
      <trkpt lat="47.31836" lon="-2.32224">
        <ele>44.599998474121</ele>
        <time>2021-04-22T09:52:44.000Z</time>
      </trkpt>
      <trkpt lat="47.31833" lon="-2.32224">
        <ele>45</ele>
        <time>2021-04-22T09:52:45.000Z</time>
      </trkpt>
      <trkpt lat="47.3183" lon="-2.32224">
        <ele>45.400001525879</ele>
        <time>2021-04-22T09:52:46.000Z</time>
      </trkpt>
      <trkpt lat="47.31828" lon="-2.32225">
        <ele>46.400001525879</ele>
        <time>2021-04-22T09:52:47.000Z</time>
      </trkpt>
      <trkpt lat="47.31824" lon="-2.32226">
        <ele>46.400001525879</ele>
        <time>2021-04-22T09:52:48.000Z</time>
      </trkpt>
      <trkpt lat="47.31809" lon="-2.32228">
        <ele>46.799999237061</ele>
        <time>2021-04-22T09:52:53.000Z</time>
      </trkpt>
      <trkpt lat="47.31806" lon="-2.32228">
        <ele>47.200000762939</ele>
        <time>2021-04-22T09:52:54.000Z</time>
      </trkpt>
      <trkpt lat="47.31802" lon="-2.32228">
        <ele>47.599998474121</ele>
        <time>2021-04-22T09:52:55.000Z</time>
      </trkpt>
      <trkpt lat="47.31799" lon="-2.32229">
        <ele>48</ele>
        <time>2021-04-22T09:52:56.000Z</time>
      </trkpt>
      <trkpt lat="47.31796" lon="-2.32229">
        <ele>48.400001525879</ele>
        <time>2021-04-22T09:52:57.000Z</time>
      </trkpt>
      <trkpt lat="47.31775" lon="-2.32233">
        <ele>48.400001525879</ele>
        <time>2021-04-22T09:53:03.000Z</time>
      </trkpt>
      <trkpt lat="47.31761" lon="-2.32234">
        <ele>48.799999237061</ele>
        <time>2021-04-22T09:53:07.000Z</time>
      </trkpt>
      <trkpt lat="47.31758" lon="-2.32236">
        <ele>49.200000762939</ele>
        <time>2021-04-22T09:53:08.000Z</time>
      </trkpt>
      <trkpt lat="47.31755" lon="-2.32239">
        <ele>49.599998474121</ele>
        <time>2021-04-22T09:53:09.000Z</time>
      </trkpt>
      <trkpt lat="47.31754" lon="-2.32244">
        <ele>50</ele>
        <time>2021-04-22T09:53:10.000Z</time>
      </trkpt>
      <trkpt lat="47.31752" lon="-2.32248">
        <ele>50.400001525879</ele>
        <time>2021-04-22T09:53:11.000Z</time>
      </trkpt>
      <trkpt lat="47.31752" lon="-2.32252">
        <ele>50.400001525879</ele>
        <time>2021-04-22T09:53:12.000Z</time>
      </trkpt>
      <trkpt lat="47.31753" lon="-2.3226">
        <ele>50.400001525879</ele>
        <time>2021-04-22T09:53:14.000Z</time>
      </trkpt>
      <trkpt lat="47.31757" lon="-2.32282">
        <ele>50.400001525879</ele>
        <time>2021-04-22T09:53:18.000Z</time>
      </trkpt>
      <trkpt lat="47.31758" lon="-2.32288">
        <ele>50.400001525879</ele>
        <time>2021-04-22T09:53:19.000Z</time>
      </trkpt>
      <trkpt lat="47.31771" lon="-2.32345">
        <ele>50.400001525879</ele>
        <time>2021-04-22T09:53:27.000Z</time>
      </trkpt>
      <trkpt lat="47.31781" lon="-2.32394">
        <ele>50</ele>
        <time>2021-04-22T09:53:33.000Z</time>
      </trkpt>
      <trkpt lat="47.31782" lon="-2.32403">
        <ele>49.599998474121</ele>
        <time>2021-04-22T09:53:34.000Z</time>
      </trkpt>
      <trkpt lat="47.31784" lon="-2.32412">
        <ele>49.200000762939</ele>
        <time>2021-04-22T09:53:35.000Z</time>
      </trkpt>
      <trkpt lat="47.31786" lon="-2.32422">
        <ele>48.799999237061</ele>
        <time>2021-04-22T09:53:36.000Z</time>
      </trkpt>
      <trkpt lat="47.31787" lon="-2.32431">
        <ele>48.400001525879</ele>
        <time>2021-04-22T09:53:37.000Z</time>
      </trkpt>
      <trkpt lat="47.31788" lon="-2.32449">
        <ele>48.400001525879</ele>
        <time>2021-04-22T09:53:39.000Z</time>
      </trkpt>
      <trkpt lat="47.31789" lon="-2.32456">
        <ele>48.400001525879</ele>
        <time>2021-04-22T09:53:40.000Z</time>
      </trkpt>
      <trkpt lat="47.31792" lon="-2.3247">
        <ele>48</ele>
        <time>2021-04-22T09:53:42.000Z</time>
      </trkpt>
      <trkpt lat="47.31793" lon="-2.32477">
        <ele>47.400001525879</ele>
        <time>2021-04-22T09:53:43.000Z</time>
      </trkpt>
      <trkpt lat="47.31795" lon="-2.32485">
        <ele>46.799999237061</ele>
        <time>2021-04-22T09:53:44.000Z</time>
      </trkpt>
      <trkpt lat="47.31796" lon="-2.32494">
        <ele>46.400001525879</ele>
        <time>2021-04-22T09:53:45.000Z</time>
      </trkpt>
      <trkpt lat="47.31798" lon="-2.32503">
        <ele>45.799999237061</ele>
        <time>2021-04-22T09:53:46.000Z</time>
      </trkpt>
      <trkpt lat="47.31799" lon="-2.32512">
        <ele>45.400001525879</ele>
        <time>2021-04-22T09:53:47.000Z</time>
      </trkpt>
      <trkpt lat="47.31801" lon="-2.3252">
        <ele>45</ele>
        <time>2021-04-22T09:53:48.000Z</time>
      </trkpt>
      <trkpt lat="47.31803" lon="-2.32529">
        <ele>44.599998474121</ele>
        <time>2021-04-22T09:53:49.000Z</time>
      </trkpt>
      <trkpt lat="47.31805" lon="-2.32537">
        <ele>44.200000762939</ele>
        <time>2021-04-22T09:53:50.000Z</time>
      </trkpt>
      <trkpt lat="47.31807" lon="-2.32546">
        <ele>43.799999237061</ele>
        <time>2021-04-22T09:53:51.000Z</time>
      </trkpt>
      <trkpt lat="47.31814" lon="-2.32575">
        <ele>43.400001525879</ele>
        <time>2021-04-22T09:53:54.000Z</time>
      </trkpt>
      <trkpt lat="47.31816" lon="-2.32585">
        <ele>43</ele>
        <time>2021-04-22T09:53:55.000Z</time>
      </trkpt>
      <trkpt lat="47.31819" lon="-2.32596">
        <ele>42.599998474121</ele>
        <time>2021-04-22T09:53:56.000Z</time>
      </trkpt>
      <trkpt lat="47.31821" lon="-2.32606">
        <ele>42.200000762939</ele>
        <time>2021-04-22T09:53:57.000Z</time>
      </trkpt>
      <trkpt lat="47.31824" lon="-2.32616">
        <ele>41.599998474121</ele>
        <time>2021-04-22T09:53:58.000Z</time>
      </trkpt>
      <trkpt lat="47.31831" lon="-2.32645">
        <ele>41.599998474121</ele>
        <time>2021-04-22T09:54:01.000Z</time>
      </trkpt>
      <trkpt lat="47.31849" lon="-2.32692">
        <ele>41.200000762939</ele>
        <time>2021-04-22T09:54:07.000Z</time>
      </trkpt>
      <trkpt lat="47.31853" lon="-2.327">
        <ele>40.799999237061</ele>
        <time>2021-04-22T09:54:08.000Z</time>
      </trkpt>
      <trkpt lat="47.31856" lon="-2.32708">
        <ele>40.400001525879</ele>
        <time>2021-04-22T09:54:09.000Z</time>
      </trkpt>
      <trkpt lat="47.31859" lon="-2.32717">
        <ele>40</ele>
        <time>2021-04-22T09:54:10.000Z</time>
      </trkpt>
      <trkpt lat="47.31861" lon="-2.32724">
        <ele>39.400001525879</ele>
        <time>2021-04-22T09:54:11.000Z</time>
      </trkpt>
      <trkpt lat="47.3187" lon="-2.32751">
        <ele>39.400001525879</ele>
        <time>2021-04-22T09:54:14.000Z</time>
      </trkpt>
      <trkpt lat="47.31879" lon="-2.32808">
        <ele>39.400001525879</ele>
        <time>2021-04-22T09:54:20.000Z</time>
      </trkpt>
      <trkpt lat="47.31881" lon="-2.32872">
        <ele>39.400001525879</ele>
        <time>2021-04-22T09:54:27.000Z</time>
      </trkpt>
      <trkpt lat="47.3188" lon="-2.3288">
        <ele>39</ele>
        <time>2021-04-22T09:54:28.000Z</time>
      </trkpt>
      <trkpt lat="47.3188" lon="-2.32889">
        <ele>38.599998474121</ele>
        <time>2021-04-22T09:54:29.000Z</time>
      </trkpt>
      <trkpt lat="47.3188" lon="-2.32897">
        <ele>38.200000762939</ele>
        <time>2021-04-22T09:54:30.000Z</time>
      </trkpt>
      <trkpt lat="47.3188" lon="-2.32905">
        <ele>37.599998474121</ele>
        <time>2021-04-22T09:54:31.000Z</time>
      </trkpt>
      <trkpt lat="47.3188" lon="-2.32913">
        <ele>37.200000762939</ele>
        <time>2021-04-22T09:54:32.000Z</time>
      </trkpt>
      <trkpt lat="47.3188" lon="-2.3293">
        <ele>37.200000762939</ele>
        <time>2021-04-22T09:54:34.000Z</time>
      </trkpt>
      <trkpt lat="47.31876" lon="-2.32972">
        <ele>37.200000762939</ele>
        <time>2021-04-22T09:54:39.000Z</time>
      </trkpt>
      <trkpt lat="47.31875" lon="-2.32982">
        <ele>37.200000762939</ele>
        <time>2021-04-22T09:54:40.000Z</time>
      </trkpt>
      <trkpt lat="47.31875" lon="-2.33019">
        <ele>37.200000762939</ele>
        <time>2021-04-22T09:54:44.000Z</time>
      </trkpt>
      <trkpt lat="47.31875" lon="-2.33068">
        <ele>37.200000762939</ele>
        <time>2021-04-22T09:54:50.000Z</time>
      </trkpt>
      <trkpt lat="47.31877" lon="-2.33099">
        <ele>37.200000762939</ele>
        <time>2021-04-22T09:54:54.000Z</time>
      </trkpt>
      <trkpt lat="47.31877" lon="-2.33105">
        <ele>37.200000762939</ele>
        <time>2021-04-22T09:54:55.000Z</time>
      </trkpt>
      <trkpt lat="47.31875" lon="-2.33151">
        <ele>37.599998474121</ele>
        <time>2021-04-22T09:55:03.000Z</time>
      </trkpt>
      <trkpt lat="47.31875" lon="-2.33157">
        <ele>38</ele>
        <time>2021-04-22T09:55:04.000Z</time>
      </trkpt>
      <trkpt lat="47.31874" lon="-2.33162">
        <ele>38.400001525879</ele>
        <time>2021-04-22T09:55:05.000Z</time>
      </trkpt>
      <trkpt lat="47.31874" lon="-2.33168">
        <ele>38.799999237061</ele>
        <time>2021-04-22T09:55:06.000Z</time>
      </trkpt>
      <trkpt lat="47.31873" lon="-2.33174">
        <ele>39.200000762939</ele>
        <time>2021-04-22T09:55:07.000Z</time>
      </trkpt>
      <trkpt lat="47.31869" lon="-2.33197">
        <ele>39.200000762939</ele>
        <time>2021-04-22T09:55:11.000Z</time>
      </trkpt>
      <trkpt lat="47.31865" lon="-2.33207">
        <ele>39.599998474121</ele>
        <time>2021-04-22T09:55:13.000Z</time>
      </trkpt>
      <trkpt lat="47.31863" lon="-2.33213">
        <ele>40</ele>
        <time>2021-04-22T09:55:14.000Z</time>
      </trkpt>
      <trkpt lat="47.31861" lon="-2.33221">
        <ele>40.599998474121</ele>
        <time>2021-04-22T09:55:15.000Z</time>
      </trkpt>
      <trkpt lat="47.31859" lon="-2.3323">
        <ele>41.400001525879</ele>
        <time>2021-04-22T09:55:16.000Z</time>
      </trkpt>
      <trkpt lat="47.31843" lon="-2.33265">
        <ele>41.400001525879</ele>
        <time>2021-04-22T09:55:22.000Z</time>
      </trkpt>
      <trkpt lat="47.31829" lon="-2.33281">
        <ele>41.400001525879</ele>
        <time>2021-04-22T09:55:26.000Z</time>
      </trkpt>
      <trkpt lat="47.31818" lon="-2.33291">
        <ele>41.799999237061</ele>
        <time>2021-04-22T09:55:29.000Z</time>
      </trkpt>
      <trkpt lat="47.31815" lon="-2.33294">
        <ele>42.200000762939</ele>
        <time>2021-04-22T09:55:30.000Z</time>
      </trkpt>
      <trkpt lat="47.31812" lon="-2.33299">
        <ele>42.599998474121</ele>
        <time>2021-04-22T09:55:31.000Z</time>
      </trkpt>
      <trkpt lat="47.31808" lon="-2.33302">
        <ele>43</ele>
        <time>2021-04-22T09:55:32.000Z</time>
      </trkpt>
      <trkpt lat="47.31806" lon="-2.33306">
        <ele>43.400001525879</ele>
        <time>2021-04-22T09:55:33.000Z</time>
      </trkpt>
      <trkpt lat="47.31799" lon="-2.33313">
        <ele>43.799999237061</ele>
        <time>2021-04-22T09:55:35.000Z</time>
      </trkpt>
      <trkpt lat="47.31796" lon="-2.33316">
        <ele>44.200000762939</ele>
        <time>2021-04-22T09:55:36.000Z</time>
      </trkpt>
      <trkpt lat="47.31793" lon="-2.33319">
        <ele>44.599998474121</ele>
        <time>2021-04-22T09:55:37.000Z</time>
      </trkpt>
      <trkpt lat="47.31789" lon="-2.33322">
        <ele>45</ele>
        <time>2021-04-22T09:55:38.000Z</time>
      </trkpt>
      <trkpt lat="47.31786" lon="-2.33324">
        <ele>45.400001525879</ele>
        <time>2021-04-22T09:55:39.000Z</time>
      </trkpt>
      <trkpt lat="47.31782" lon="-2.33324">
        <ele>45.400001525879</ele>
        <time>2021-04-22T09:55:40.000Z</time>
      </trkpt>
      <trkpt lat="47.31774" lon="-2.33322">
        <ele>45.799999237061</ele>
        <time>2021-04-22T09:55:42.000Z</time>
      </trkpt>
      <trkpt lat="47.31771" lon="-2.33319">
        <ele>46.400001525879</ele>
        <time>2021-04-22T09:55:43.000Z</time>
      </trkpt>
      <trkpt lat="47.31769" lon="-2.33315">
        <ele>46.799999237061</ele>
        <time>2021-04-22T09:55:44.000Z</time>
      </trkpt>
      <trkpt lat="47.31766" lon="-2.33311">
        <ele>47.200000762939</ele>
        <time>2021-04-22T09:55:45.000Z</time>
      </trkpt>
      <trkpt lat="47.31763" lon="-2.33307">
        <ele>47.599998474121</ele>
        <time>2021-04-22T09:55:46.000Z</time>
      </trkpt>
      <trkpt lat="47.31751" lon="-2.33281">
        <ele>47.599998474121</ele>
        <time>2021-04-22T09:55:52.000Z</time>
      </trkpt>
      <trkpt lat="47.31747" lon="-2.33267">
        <ele>48</ele>
        <time>2021-04-22T09:55:55.000Z</time>
      </trkpt>
      <trkpt lat="47.31746" lon="-2.33261">
        <ele>48.400001525879</ele>
        <time>2021-04-22T09:55:56.000Z</time>
      </trkpt>
      <trkpt lat="47.31745" lon="-2.33255">
        <ele>48.799999237061</ele>
        <time>2021-04-22T09:55:57.000Z</time>
      </trkpt>
      <trkpt lat="47.31745" lon="-2.33251">
        <ele>49.200000762939</ele>
        <time>2021-04-22T09:55:58.000Z</time>
      </trkpt>
      <trkpt lat="47.31743" lon="-2.33249">
        <ele>49.599998474121</ele>
        <time>2021-04-22T09:55:59.000Z</time>
      </trkpt>
      <trkpt lat="47.31737" lon="-2.3325">
        <ele>49.599998474121</ele>
        <time>2021-04-22T09:56:01.000Z</time>
      </trkpt>
      <trkpt lat="47.31708" lon="-2.33259">
        <ele>49.599998474121</ele>
        <time>2021-04-22T09:56:08.000Z</time>
      </trkpt>
      <trkpt lat="47.31698" lon="-2.33263">
        <ele>50</ele>
        <time>2021-04-22T09:56:11.000Z</time>
      </trkpt>
      <trkpt lat="47.31694" lon="-2.33264">
        <ele>50.400001525879</ele>
        <time>2021-04-22T09:56:12.000Z</time>
      </trkpt>
      <trkpt lat="47.3169" lon="-2.33265">
        <ele>50.799999237061</ele>
        <time>2021-04-22T09:56:13.000Z</time>
      </trkpt>
      <trkpt lat="47.31686" lon="-2.33267">
        <ele>51.200000762939</ele>
        <time>2021-04-22T09:56:14.000Z</time>
      </trkpt>
      <trkpt lat="47.31683" lon="-2.33269">
        <ele>51.599998474121</ele>
        <time>2021-04-22T09:56:15.000Z</time>
      </trkpt>
      <trkpt lat="47.31671" lon="-2.33274">
        <ele>51.599998474121</ele>
        <time>2021-04-22T09:56:18.000Z</time>
      </trkpt>
      <trkpt lat="47.31663" lon="-2.33278">
        <ele>51.599998474121</ele>
        <time>2021-04-22T09:56:20.000Z</time>
      </trkpt>
      <trkpt lat="47.31655" lon="-2.33281">
        <ele>51.599998474121</ele>
        <time>2021-04-22T09:56:22.000Z</time>
      </trkpt>
      <trkpt lat="47.31643" lon="-2.33288">
        <ele>52.200000762939</ele>
        <time>2021-04-22T09:56:25.000Z</time>
      </trkpt>
      <trkpt lat="47.31639" lon="-2.33289">
        <ele>52.599998474121</ele>
        <time>2021-04-22T09:56:26.000Z</time>
      </trkpt>
      <trkpt lat="47.31636" lon="-2.33291">
        <ele>53</ele>
        <time>2021-04-22T09:56:27.000Z</time>
      </trkpt>
      <trkpt lat="47.31632" lon="-2.33293">
        <ele>53.400001525879</ele>
        <time>2021-04-22T09:56:28.000Z</time>
      </trkpt>
      <trkpt lat="47.31627" lon="-2.33294">
        <ele>53.799999237061</ele>
        <time>2021-04-22T09:56:29.000Z</time>
      </trkpt>
      <trkpt lat="47.31614" lon="-2.333">
        <ele>53.799999237061</ele>
        <time>2021-04-22T09:56:32.000Z</time>
      </trkpt>
      <trkpt lat="47.31577" lon="-2.33323">
        <ele>53.799999237061</ele>
        <time>2021-04-22T09:56:40.000Z</time>
      </trkpt>
      <trkpt lat="47.31546" lon="-2.33339">
        <ele>53.799999237061</ele>
        <time>2021-04-22T09:56:46.000Z</time>
      </trkpt>
      <trkpt lat="47.31502" lon="-2.33362">
        <ele>53.799999237061</ele>
        <time>2021-04-22T09:56:54.000Z</time>
      </trkpt>
      <trkpt lat="47.31492" lon="-2.33368">
        <ele>53.799999237061</ele>
        <time>2021-04-22T09:56:56.000Z</time>
      </trkpt>
      <trkpt lat="47.31482" lon="-2.33367">
        <ele>53.799999237061</ele>
        <time>2021-04-22T09:56:58.000Z</time>
      </trkpt>
      <trkpt lat="47.31469" lon="-2.33349">
        <ele>53.799999237061</ele>
        <time>2021-04-22T09:57:01.000Z</time>
      </trkpt>
      <trkpt lat="47.31466" lon="-2.33342">
        <ele>53.799999237061</ele>
        <time>2021-04-22T09:57:02.000Z</time>
      </trkpt>
      <trkpt lat="47.31438" lon="-2.33291">
        <ele>53.799999237061</ele>
        <time>2021-04-22T09:57:09.000Z</time>
      </trkpt>
      <trkpt lat="47.31433" lon="-2.33286">
        <ele>53.799999237061</ele>
        <time>2021-04-22T09:57:10.000Z</time>
      </trkpt>
      <trkpt lat="47.31409" lon="-2.33266">
        <ele>53.799999237061</ele>
        <time>2021-04-22T09:57:14.000Z</time>
      </trkpt>
      <trkpt lat="47.31373" lon="-2.33239">
        <ele>53.799999237061</ele>
        <time>2021-04-22T09:57:20.000Z</time>
      </trkpt>
      <trkpt lat="47.31335" lon="-2.33211">
        <ele>53.799999237061</ele>
        <time>2021-04-22T09:57:26.000Z</time>
      </trkpt>
      <trkpt lat="47.31299" lon="-2.33178">
        <ele>53.799999237061</ele>
        <time>2021-04-22T09:57:32.000Z</time>
      </trkpt>
      <trkpt lat="47.31278" lon="-2.33163">
        <ele>53.799999237061</ele>
        <time>2021-04-22T09:57:35.000Z</time>
      </trkpt>
      <trkpt lat="47.31264" lon="-2.33157">
        <ele>53.799999237061</ele>
        <time>2021-04-22T09:57:37.000Z</time>
      </trkpt>
      <trkpt lat="47.3125" lon="-2.33153">
        <ele>53.799999237061</ele>
        <time>2021-04-22T09:57:39.000Z</time>
      </trkpt>
      <trkpt lat="47.31222" lon="-2.33151">
        <ele>53.799999237061</ele>
        <time>2021-04-22T09:57:43.000Z</time>
      </trkpt>
      <trkpt lat="47.31188" lon="-2.33163">
        <ele>53.799999237061</ele>
        <time>2021-04-22T09:57:48.000Z</time>
      </trkpt>
      <trkpt lat="47.31154" lon="-2.33186">
        <ele>53.799999237061</ele>
        <time>2021-04-22T09:57:54.000Z</time>
      </trkpt>
      <trkpt lat="47.3111" lon="-2.33213">
        <ele>53.799999237061</ele>
        <time>2021-04-22T09:58:02.000Z</time>
      </trkpt>
      <trkpt lat="47.31098" lon="-2.33236">
        <ele>53.799999237061</ele>
        <time>2021-04-22T09:58:05.000Z</time>
      </trkpt>
      <trkpt lat="47.31092" lon="-2.33253">
        <ele>53.799999237061</ele>
        <time>2021-04-22T09:58:07.000Z</time>
      </trkpt>
      <trkpt lat="47.3109" lon="-2.33269">
        <ele>53.799999237061</ele>
        <time>2021-04-22T09:58:09.000Z</time>
      </trkpt>
      <trkpt lat="47.31088" lon="-2.33312">
        <ele>53.799999237061</ele>
        <time>2021-04-22T09:58:14.000Z</time>
      </trkpt>
      <trkpt lat="47.31089" lon="-2.33385">
        <ele>53.799999237061</ele>
        <time>2021-04-22T09:58:22.000Z</time>
      </trkpt>
      <trkpt lat="47.31093" lon="-2.33451">
        <ele>54.200000762939</ele>
        <time>2021-04-22T09:58:29.000Z</time>
      </trkpt>
      <trkpt lat="47.31094" lon="-2.33461">
        <ele>54.799999237061</ele>
        <time>2021-04-22T09:58:30.000Z</time>
      </trkpt>
      <trkpt lat="47.31095" lon="-2.3347">
        <ele>55.200000762939</ele>
        <time>2021-04-22T09:58:31.000Z</time>
      </trkpt>
      <trkpt lat="47.31096" lon="-2.33479">
        <ele>56</ele>
        <time>2021-04-22T09:58:32.000Z</time>
      </trkpt>
      <trkpt lat="47.31101" lon="-2.33516">
        <ele>56</ele>
        <time>2021-04-22T09:58:36.000Z</time>
      </trkpt>
      <trkpt lat="47.31113" lon="-2.33578">
        <ele>56</ele>
        <time>2021-04-22T09:58:43.000Z</time>
      </trkpt>
      <trkpt lat="47.31115" lon="-2.33597">
        <ele>56</ele>
        <time>2021-04-22T09:58:45.000Z</time>
      </trkpt>
      <trkpt lat="47.31114" lon="-2.33626">
        <ele>56</ele>
        <time>2021-04-22T09:58:48.000Z</time>
      </trkpt>
      <trkpt lat="47.31106" lon="-2.33694">
        <ele>56</ele>
        <time>2021-04-22T09:58:55.000Z</time>
      </trkpt>
      <trkpt lat="47.31095" lon="-2.3376">
        <ele>56</ele>
        <time>2021-04-22T09:59:02.000Z</time>
      </trkpt>
      <trkpt lat="47.31078" lon="-2.33793">
        <ele>56</ele>
        <time>2021-04-22T09:59:06.000Z</time>
      </trkpt>
      <trkpt lat="47.31069" lon="-2.33818">
        <ele>56</ele>
        <time>2021-04-22T09:59:09.000Z</time>
      </trkpt>
      <trkpt lat="47.31066" lon="-2.33835">
        <ele>56</ele>
        <time>2021-04-22T09:59:11.000Z</time>
      </trkpt>
      <trkpt lat="47.3106" lon="-2.33904">
        <ele>56</ele>
        <time>2021-04-22T09:59:19.000Z</time>
      </trkpt>
      <trkpt lat="47.3106" lon="-2.3392">
        <ele>56</ele>
        <time>2021-04-22T09:59:21.000Z</time>
      </trkpt>
      <trkpt lat="47.3106" lon="-2.33932">
        <ele>56</ele>
        <time>2021-04-22T09:59:23.000Z</time>
      </trkpt>
      <trkpt lat="47.31059" lon="-2.33949">
        <ele>56</ele>
        <time>2021-04-22T09:59:28.000Z</time>
      </trkpt>
      <trkpt lat="47.31046" lon="-2.3395">
        <ele>56</ele>
        <time>2021-04-22T09:59:32.000Z</time>
      </trkpt>
      <trkpt lat="47.31026" lon="-2.33953">
        <ele>56</ele>
        <time>2021-04-22T09:59:38.000Z</time>
      </trkpt>
      <trkpt lat="47.31008" lon="-2.33957">
        <ele>56.400001525879</ele>
        <time>2021-04-22T09:59:43.000Z</time>
      </trkpt>
      <trkpt lat="47.31004" lon="-2.33957">
        <ele>56.799999237061</ele>
        <time>2021-04-22T09:59:44.000Z</time>
      </trkpt>
      <trkpt lat="47.31001" lon="-2.33958">
        <ele>57.200000762939</ele>
        <time>2021-04-22T09:59:45.000Z</time>
      </trkpt>
      <trkpt lat="47.30998" lon="-2.33958">
        <ele>58</ele>
        <time>2021-04-22T09:59:46.000Z</time>
      </trkpt>
      <trkpt lat="47.3097" lon="-2.3396">
        <ele>58</ele>
        <time>2021-04-22T09:59:53.000Z</time>
      </trkpt>
      <trkpt lat="47.30942" lon="-2.33954">
        <ele>58</ele>
        <time>2021-04-22T10:00:00.000Z</time>
      </trkpt>
      <trkpt lat="47.30934" lon="-2.33953">
        <ele>58</ele>
        <time>2021-04-22T10:00:02.000Z</time>
      </trkpt>
      <trkpt lat="47.30915" lon="-2.3395">
        <ele>58</ele>
        <time>2021-04-22T10:00:06.000Z</time>
      </trkpt>
      <trkpt lat="47.30893" lon="-2.33952">
        <ele>58</ele>
        <time>2021-04-22T10:00:12.000Z</time>
      </trkpt>
      <trkpt lat="47.30865" lon="-2.33956">
        <ele>58</ele>
        <time>2021-04-22T10:00:19.000Z</time>
      </trkpt>
      <trkpt lat="47.30832" lon="-2.33961">
        <ele>58</ele>
        <time>2021-04-22T10:00:27.000Z</time>
      </trkpt>
      <trkpt lat="47.30806" lon="-2.33968">
        <ele>58</ele>
        <time>2021-04-22T10:00:34.000Z</time>
      </trkpt>
      <trkpt lat="47.30785" lon="-2.33976">
        <ele>58</ele>
        <time>2021-04-22T10:00:40.000Z</time>
      </trkpt>
      <trkpt lat="47.30778" lon="-2.33991">
        <ele>58</ele>
        <time>2021-04-22T10:00:44.000Z</time>
      </trkpt>
      <trkpt lat="47.30772" lon="-2.34016">
        <ele>58</ele>
        <time>2021-04-22T10:00:50.000Z</time>
      </trkpt>
      <trkpt lat="47.30772" lon="-2.34039">
        <ele>58</ele>
        <time>2021-04-22T10:00:54.000Z</time>
      </trkpt>
      <trkpt lat="47.30771" lon="-2.34065">
        <ele>58</ele>
        <time>2021-04-22T10:00:58.000Z</time>
      </trkpt>
      <trkpt lat="47.30771" lon="-2.34073">
        <ele>58.400001525879</ele>
        <time>2021-04-22T10:00:59.000Z</time>
      </trkpt>
      <trkpt lat="47.3077" lon="-2.34081">
        <ele>58.799999237061</ele>
        <time>2021-04-22T10:01:00.000Z</time>
      </trkpt>
      <trkpt lat="47.3077" lon="-2.34089">
        <ele>59.799999237061</ele>
        <time>2021-04-22T10:01:01.000Z</time>
      </trkpt>
      <trkpt lat="47.3077" lon="-2.34097">
        <ele>60.200000762939</ele>
        <time>2021-04-22T10:01:02.000Z</time>
      </trkpt>
      <trkpt lat="47.30767" lon="-2.34139">
        <ele>60.200000762939</ele>
        <time>2021-04-22T10:01:07.000Z</time>
      </trkpt>
      <trkpt lat="47.30763" lon="-2.3419">
        <ele>60.200000762939</ele>
        <time>2021-04-22T10:01:13.000Z</time>
      </trkpt>
      <trkpt lat="47.30757" lon="-2.34215">
        <ele>60.200000762939</ele>
        <time>2021-04-22T10:01:17.000Z</time>
      </trkpt>
      <trkpt lat="47.30739" lon="-2.34227">
        <ele>60.200000762939</ele>
        <time>2021-04-22T10:01:22.000Z</time>
      </trkpt>
      <trkpt lat="47.30734" lon="-2.34246">
        <ele>60.200000762939</ele>
        <time>2021-04-22T10:01:27.000Z</time>
      </trkpt>
      <trkpt lat="47.30733" lon="-2.34247">
        <ele>60.200000762939</ele>
        <time>2021-04-22T10:01:28.000Z</time>
      </trkpt>
      <trkpt lat="47.30732" lon="-2.34247">
        <ele>60.200000762939</ele>
        <time>2021-04-22T10:01:30.000Z</time>
      </trkpt>
      <trkpt lat="47.3073" lon="-2.34253">
        <ele>60.200000762939</ele>
        <time>2021-04-22T10:01:36.000Z</time>
      </trkpt>
      <trkpt lat="47.30725" lon="-2.34269">
        <ele>60.200000762939</ele>
        <time>2021-04-22T10:01:41.000Z</time>
      </trkpt>
      <trkpt lat="47.30714" lon="-2.34286">
        <ele>60.200000762939</ele>
        <time>2021-04-22T10:01:45.000Z</time>
      </trkpt>
      <trkpt lat="47.30693" lon="-2.34317">
        <ele>60.200000762939</ele>
        <time>2021-04-22T10:01:51.000Z</time>
      </trkpt>
      <trkpt lat="47.30678" lon="-2.34347">
        <ele>60.200000762939</ele>
        <time>2021-04-22T10:01:55.000Z</time>
      </trkpt>
      <trkpt lat="47.30666" lon="-2.34367">
        <ele>60.599998474121</ele>
        <time>2021-04-22T10:01:58.000Z</time>
      </trkpt>
      <trkpt lat="47.30662" lon="-2.34373">
        <ele>61</ele>
        <time>2021-04-22T10:01:59.000Z</time>
      </trkpt>
      <trkpt lat="47.30657" lon="-2.3438">
        <ele>61.400001525879</ele>
        <time>2021-04-22T10:02:00.000Z</time>
      </trkpt>
      <trkpt lat="47.30652" lon="-2.34387">
        <ele>61.799999237061</ele>
        <time>2021-04-22T10:02:01.000Z</time>
      </trkpt>
      <trkpt lat="47.30647" lon="-2.34393">
        <ele>62.200000762939</ele>
        <time>2021-04-22T10:02:02.000Z</time>
      </trkpt>
      <trkpt lat="47.30623" lon="-2.34426">
        <ele>62.200000762939</ele>
        <time>2021-04-22T10:02:07.000Z</time>
      </trkpt>
      <trkpt lat="47.30584" lon="-2.34484">
        <ele>62.200000762939</ele>
        <time>2021-04-22T10:02:15.000Z</time>
      </trkpt>
      <trkpt lat="47.30557" lon="-2.3454">
        <ele>62.200000762939</ele>
        <time>2021-04-22T10:02:21.000Z</time>
      </trkpt>
      <trkpt lat="47.30531" lon="-2.34578">
        <ele>62.200000762939</ele>
        <time>2021-04-22T10:02:26.000Z</time>
      </trkpt>
      <trkpt lat="47.30511" lon="-2.34607">
        <ele>62.200000762939</ele>
        <time>2021-04-22T10:02:30.000Z</time>
      </trkpt>
      <trkpt lat="47.30502" lon="-2.34622">
        <ele>62.200000762939</ele>
        <time>2021-04-22T10:02:32.000Z</time>
      </trkpt>
      <trkpt lat="47.3049" lon="-2.34642">
        <ele>62.200000762939</ele>
        <time>2021-04-22T10:02:35.000Z</time>
      </trkpt>
      <trkpt lat="47.30481" lon="-2.34654">
        <ele>62.200000762939</ele>
        <time>2021-04-22T10:02:37.000Z</time>
      </trkpt>
      <trkpt lat="47.30445" lon="-2.34696">
        <ele>62.200000762939</ele>
        <time>2021-04-22T10:02:44.000Z</time>
      </trkpt>
      <trkpt lat="47.30425" lon="-2.34718">
        <ele>62.200000762939</ele>
        <time>2021-04-22T10:02:48.000Z</time>
      </trkpt>
      <trkpt lat="47.30397" lon="-2.34739">
        <ele>62.200000762939</ele>
        <time>2021-04-22T10:02:53.000Z</time>
      </trkpt>
      <trkpt lat="47.30363" lon="-2.34761">
        <ele>62.200000762939</ele>
        <time>2021-04-22T10:02:59.000Z</time>
      </trkpt>
      <trkpt lat="47.30339" lon="-2.34779">
        <ele>62.200000762939</ele>
        <time>2021-04-22T10:03:03.000Z</time>
      </trkpt>
      <trkpt lat="47.30334" lon="-2.34786">
        <ele>62.200000762939</ele>
        <time>2021-04-22T10:03:04.000Z</time>
      </trkpt>
      <trkpt lat="47.30313" lon="-2.34822">
        <ele>62.200000762939</ele>
        <time>2021-04-22T10:03:09.000Z</time>
      </trkpt>
      <trkpt lat="47.303" lon="-2.34845">
        <ele>62.200000762939</ele>
        <time>2021-04-22T10:03:13.000Z</time>
      </trkpt>
      <trkpt lat="47.30296" lon="-2.3485">
        <ele>62.200000762939</ele>
        <time>2021-04-22T10:03:14.000Z</time>
      </trkpt>
      <trkpt lat="47.30284" lon="-2.34858">
        <ele>62.200000762939</ele>
        <time>2021-04-22T10:03:16.000Z</time>
      </trkpt>
      <trkpt lat="47.30272" lon="-2.34866">
        <ele>62.200000762939</ele>
        <time>2021-04-22T10:03:18.000Z</time>
      </trkpt>
      <trkpt lat="47.30245" lon="-2.3488">
        <ele>62.200000762939</ele>
        <time>2021-04-22T10:03:22.000Z</time>
      </trkpt>
      <trkpt lat="47.3023" lon="-2.34889">
        <ele>62.200000762939</ele>
        <time>2021-04-22T10:03:24.000Z</time>
      </trkpt>
      <trkpt lat="47.30213" lon="-2.34905">
        <ele>62.200000762939</ele>
        <time>2021-04-22T10:03:27.000Z</time>
      </trkpt>
      <trkpt lat="47.30203" lon="-2.34927">
        <ele>62.200000762939</ele>
        <time>2021-04-22T10:03:30.000Z</time>
      </trkpt>
      <trkpt lat="47.30201" lon="-2.34935">
        <ele>62.200000762939</ele>
        <time>2021-04-22T10:03:31.000Z</time>
      </trkpt>
      <trkpt lat="47.302" lon="-2.34945">
        <ele>62.200000762939</ele>
        <time>2021-04-22T10:03:32.000Z</time>
      </trkpt>
      <trkpt lat="47.302" lon="-2.34956">
        <ele>62.200000762939</ele>
        <time>2021-04-22T10:03:33.000Z</time>
      </trkpt>
      <trkpt lat="47.30199" lon="-2.34967">
        <ele>61.799999237061</ele>
        <time>2021-04-22T10:03:34.000Z</time>
      </trkpt>
      <trkpt lat="47.30199" lon="-2.34978">
        <ele>61.400001525879</ele>
        <time>2021-04-22T10:03:35.000Z</time>
      </trkpt>
      <trkpt lat="47.30199" lon="-2.34989">
        <ele>61</ele>
        <time>2021-04-22T10:03:36.000Z</time>
      </trkpt>
      <trkpt lat="47.30199" lon="-2.35001">
        <ele>60.599998474121</ele>
        <time>2021-04-22T10:03:37.000Z</time>
      </trkpt>
      <trkpt lat="47.302" lon="-2.35013">
        <ele>60.200000762939</ele>
        <time>2021-04-22T10:03:38.000Z</time>
      </trkpt>
      <trkpt lat="47.302" lon="-2.35025">
        <ele>60.200000762939</ele>
        <time>2021-04-22T10:03:39.000Z</time>
      </trkpt>
      <trkpt lat="47.30201" lon="-2.35082">
        <ele>60.200000762939</ele>
        <time>2021-04-22T10:03:44.000Z</time>
      </trkpt>
      <trkpt lat="47.30201" lon="-2.35114">
        <ele>59.599998474121</ele>
        <time>2021-04-22T10:03:47.000Z</time>
      </trkpt>
      <trkpt lat="47.30201" lon="-2.35125">
        <ele>59.200000762939</ele>
        <time>2021-04-22T10:03:48.000Z</time>
      </trkpt>
      <trkpt lat="47.30202" lon="-2.35136">
        <ele>58.799999237061</ele>
        <time>2021-04-22T10:03:49.000Z</time>
      </trkpt>
      <trkpt lat="47.30202" lon="-2.35146">
        <ele>58.200000762939</ele>
        <time>2021-04-22T10:03:50.000Z</time>
      </trkpt>
      <trkpt lat="47.30202" lon="-2.35156">
        <ele>57.799999237061</ele>
        <time>2021-04-22T10:03:51.000Z</time>
      </trkpt>
      <trkpt lat="47.30199" lon="-2.35162">
        <ele>57.799999237061</ele>
        <time>2021-04-22T10:03:52.000Z</time>
      </trkpt>
      <trkpt lat="47.30196" lon="-2.35165">
        <ele>57</ele>
        <time>2021-04-22T10:03:53.000Z</time>
      </trkpt>
      <trkpt lat="47.30192" lon="-2.35167">
        <ele>56.599998474121</ele>
        <time>2021-04-22T10:03:54.000Z</time>
      </trkpt>
      <trkpt lat="47.30188" lon="-2.35169">
        <ele>56</ele>
        <time>2021-04-22T10:03:55.000Z</time>
      </trkpt>
      <trkpt lat="47.30183" lon="-2.35172">
        <ele>55.599998474121</ele>
        <time>2021-04-22T10:03:56.000Z</time>
      </trkpt>
      <trkpt lat="47.30178" lon="-2.35174">
        <ele>55.599998474121</ele>
        <time>2021-04-22T10:03:57.000Z</time>
      </trkpt>
      <trkpt lat="47.30168" lon="-2.35178">
        <ele>55.599998474121</ele>
        <time>2021-04-22T10:04:00.000Z</time>
      </trkpt>
      <trkpt lat="47.30166" lon="-2.3518">
        <ele>55.599998474121</ele>
        <time>2021-04-22T10:04:03.000Z</time>
      </trkpt>
      <trkpt lat="47.30162" lon="-2.35182">
        <ele>55.599998474121</ele>
        <time>2021-04-22T10:04:07.000Z</time>
      </trkpt>
      <trkpt lat="47.30159" lon="-2.35188">
        <ele>55.599998474121</ele>
        <time>2021-04-22T10:04:12.000Z</time>
      </trkpt>
      <trkpt lat="47.30159" lon="-2.35188">
        <ele>55.599998474121</ele>
        <time>2021-04-22T10:04:13.000Z</time>
      </trkpt>
      <trkpt lat="47.30149" lon="-2.35193">
        <ele>55.599998474121</ele>
        <time>2021-04-22T10:04:24.000Z</time>
      </trkpt>
      <trkpt lat="47.30144" lon="-2.35191">
        <ele>55.599998474121</ele>
        <time>2021-04-22T10:04:26.000Z</time>
      </trkpt>
      <trkpt lat="47.30135" lon="-2.35195">
        <ele>55.599998474121</ele>
        <time>2021-04-22T10:04:29.000Z</time>
      </trkpt>
      <trkpt lat="47.30131" lon="-2.35197">
        <ele>55.599998474121</ele>
        <time>2021-04-22T10:04:30.000Z</time>
      </trkpt>
      <trkpt lat="47.30113" lon="-2.35205">
        <ele>55.599998474121</ele>
        <time>2021-04-22T10:04:34.000Z</time>
      </trkpt>
      <trkpt lat="47.30103" lon="-2.35209">
        <ele>55.599998474121</ele>
        <time>2021-04-22T10:04:36.000Z</time>
      </trkpt>
      <trkpt lat="47.30093" lon="-2.35214">
        <ele>55.599998474121</ele>
        <time>2021-04-22T10:04:38.000Z</time>
      </trkpt>
      <trkpt lat="47.30078" lon="-2.3522">
        <ele>55.599998474121</ele>
        <time>2021-04-22T10:04:41.000Z</time>
      </trkpt>
      <trkpt lat="47.30074" lon="-2.35223">
        <ele>55.599998474121</ele>
        <time>2021-04-22T10:04:42.000Z</time>
      </trkpt>
      <trkpt lat="47.30055" lon="-2.35233">
        <ele>55.599998474121</ele>
        <time>2021-04-22T10:04:47.000Z</time>
      </trkpt>
      <trkpt lat="47.30032" lon="-2.35245">
        <ele>55.599998474121</ele>
        <time>2021-04-22T10:04:52.000Z</time>
      </trkpt>
      <trkpt lat="47.3003" lon="-2.35246">
        <ele>55.599998474121</ele>
        <time>2021-04-22T10:04:53.000Z</time>
      </trkpt>
      <trkpt lat="47.30021" lon="-2.35248">
        <ele>55.599998474121</ele>
        <time>2021-04-22T10:04:56.000Z</time>
      </trkpt>
      <trkpt lat="47.30018" lon="-2.35251">
        <ele>55.599998474121</ele>
        <time>2021-04-22T10:04:57.000Z</time>
      </trkpt>
      <trkpt lat="47.30002" lon="-2.35262">
        <ele>55.599998474121</ele>
        <time>2021-04-22T10:05:03.000Z</time>
      </trkpt>
      <trkpt lat="47.29999" lon="-2.35264">
        <ele>55.599998474121</ele>
        <time>2021-04-22T10:05:05.000Z</time>
      </trkpt>
      <trkpt lat="47.29998" lon="-2.35264">
        <ele>55.599998474121</ele>
        <time>2021-04-22T10:05:45.000Z</time>
      </trkpt>
      <trkpt lat="47.29989" lon="-2.35273">
        <ele>55.599998474121</ele>
        <time>2021-04-22T10:05:49.000Z</time>
      </trkpt>
      <trkpt lat="47.29968" lon="-2.35297">
        <ele>55.599998474121</ele>
        <time>2021-04-22T10:05:56.000Z</time>
      </trkpt>
      <trkpt lat="47.29952" lon="-2.35319">
        <ele>55.599998474121</ele>
        <time>2021-04-22T10:06:01.000Z</time>
      </trkpt>
      <trkpt lat="47.29945" lon="-2.35328">
        <ele>55.599998474121</ele>
        <time>2021-04-22T10:06:03.000Z</time>
      </trkpt>
      <trkpt lat="47.29912" lon="-2.3537">
        <ele>55.599998474121</ele>
        <time>2021-04-22T10:06:12.000Z</time>
      </trkpt>
      <trkpt lat="47.29884" lon="-2.35402">
        <ele>55.599998474121</ele>
        <time>2021-04-22T10:06:19.000Z</time>
      </trkpt>
      <trkpt lat="47.29854" lon="-2.35432">
        <ele>55.599998474121</ele>
        <time>2021-04-22T10:06:26.000Z</time>
      </trkpt>
      <trkpt lat="47.29837" lon="-2.35451">
        <ele>55.599998474121</ele>
        <time>2021-04-22T10:06:30.000Z</time>
      </trkpt>
      <trkpt lat="47.2983" lon="-2.35462">
        <ele>55.599998474121</ele>
        <time>2021-04-22T10:06:32.000Z</time>
      </trkpt>
      <trkpt lat="47.29829" lon="-2.35481">
        <ele>55.599998474121</ele>
        <time>2021-04-22T10:06:35.000Z</time>
      </trkpt>
      <trkpt lat="47.29832" lon="-2.355">
        <ele>55.599998474121</ele>
        <time>2021-04-22T10:06:38.000Z</time>
      </trkpt>
      <trkpt lat="47.29836" lon="-2.35512">
        <ele>55.599998474121</ele>
        <time>2021-04-22T10:06:40.000Z</time>
      </trkpt>
      <trkpt lat="47.29837" lon="-2.35518">
        <ele>56</ele>
        <time>2021-04-22T10:06:41.000Z</time>
      </trkpt>
      <trkpt lat="47.29839" lon="-2.35525">
        <ele>56.400001525879</ele>
        <time>2021-04-22T10:06:42.000Z</time>
      </trkpt>
      <trkpt lat="47.29841" lon="-2.35532">
        <ele>56.799999237061</ele>
        <time>2021-04-22T10:06:43.000Z</time>
      </trkpt>
      <trkpt lat="47.29843" lon="-2.35539">
        <ele>57.400001525879</ele>
        <time>2021-04-22T10:06:44.000Z</time>
      </trkpt>
      <trkpt lat="47.29845" lon="-2.35545">
        <ele>57.799999237061</ele>
        <time>2021-04-22T10:06:45.000Z</time>
      </trkpt>
      <trkpt lat="47.2985" lon="-2.35564">
        <ele>57.799999237061</ele>
        <time>2021-04-22T10:06:48.000Z</time>
      </trkpt>
      <trkpt lat="47.29861" lon="-2.35603">
        <ele>57.799999237061</ele>
        <time>2021-04-22T10:06:55.000Z</time>
      </trkpt>
      <trkpt lat="47.29862" lon="-2.35611">
        <ele>57.799999237061</ele>
        <time>2021-04-22T10:06:56.000Z</time>
      </trkpt>
      <trkpt lat="47.29871" lon="-2.35646">
        <ele>58.200000762939</ele>
        <time>2021-04-22T10:07:01.000Z</time>
      </trkpt>
      <trkpt lat="47.29872" lon="-2.35653">
        <ele>58.599998474121</ele>
        <time>2021-04-22T10:07:02.000Z</time>
      </trkpt>
      <trkpt lat="47.29873" lon="-2.3566">
        <ele>59</ele>
        <time>2021-04-22T10:07:03.000Z</time>
      </trkpt>
      <trkpt lat="47.29874" lon="-2.35667">
        <ele>59.400001525879</ele>
        <time>2021-04-22T10:07:04.000Z</time>
      </trkpt>
      <trkpt lat="47.29875" lon="-2.35674">
        <ele>59.799999237061</ele>
        <time>2021-04-22T10:07:05.000Z</time>
      </trkpt>
      <trkpt lat="47.29881" lon="-2.35699">
        <ele>59.799999237061</ele>
        <time>2021-04-22T10:07:09.000Z</time>
      </trkpt>
      <trkpt lat="47.29888" lon="-2.35733">
        <ele>59.799999237061</ele>
        <time>2021-04-22T10:07:16.000Z</time>
      </trkpt>
      <trkpt lat="47.29889" lon="-2.35759">
        <ele>59.799999237061</ele>
        <time>2021-04-22T10:07:21.000Z</time>
      </trkpt>
      <trkpt lat="47.29879" lon="-2.35766">
        <ele>59.799999237061</ele>
        <time>2021-04-22T10:07:24.000Z</time>
      </trkpt>
      <trkpt lat="47.29866" lon="-2.35773">
        <ele>59.799999237061</ele>
        <time>2021-04-22T10:07:27.000Z</time>
      </trkpt>
      <trkpt lat="47.29856" lon="-2.35777">
        <ele>59.799999237061</ele>
        <time>2021-04-22T10:07:29.000Z</time>
      </trkpt>
      <trkpt lat="47.29826" lon="-2.35788">
        <ele>59.799999237061</ele>
        <time>2021-04-22T10:07:35.000Z</time>
      </trkpt>
      <trkpt lat="47.29807" lon="-2.35794">
        <ele>60.200000762939</ele>
        <time>2021-04-22T10:07:39.000Z</time>
      </trkpt>
      <trkpt lat="47.29803" lon="-2.35796">
        <ele>60.599998474121</ele>
        <time>2021-04-22T10:07:40.000Z</time>
      </trkpt>
      <trkpt lat="47.29798" lon="-2.35798">
        <ele>61</ele>
        <time>2021-04-22T10:07:41.000Z</time>
      </trkpt>
      <trkpt lat="47.29793" lon="-2.358">
        <ele>61.400001525879</ele>
        <time>2021-04-22T10:07:42.000Z</time>
      </trkpt>
      <trkpt lat="47.29788" lon="-2.35801">
        <ele>61.799999237061</ele>
        <time>2021-04-22T10:07:43.000Z</time>
      </trkpt>
      <trkpt lat="47.29757" lon="-2.35812">
        <ele>61.799999237061</ele>
        <time>2021-04-22T10:07:49.000Z</time>
      </trkpt>
      <trkpt lat="47.29728" lon="-2.35827">
        <ele>61.799999237061</ele>
        <time>2021-04-22T10:07:54.000Z</time>
      </trkpt>
      <trkpt lat="47.29693" lon="-2.35846">
        <ele>61.799999237061</ele>
        <time>2021-04-22T10:07:59.000Z</time>
      </trkpt>
      <trkpt lat="47.29673" lon="-2.35854">
        <ele>61.799999237061</ele>
        <time>2021-04-22T10:08:02.000Z</time>
      </trkpt>
      <trkpt lat="47.29667" lon="-2.35859">
        <ele>61.400001525879</ele>
        <time>2021-04-22T10:08:03.000Z</time>
      </trkpt>
      <trkpt lat="47.29662" lon="-2.35865">
        <ele>61</ele>
        <time>2021-04-22T10:08:04.000Z</time>
      </trkpt>
      <trkpt lat="47.29656" lon="-2.35868">
        <ele>60.599998474121</ele>
        <time>2021-04-22T10:08:05.000Z</time>
      </trkpt>
      <trkpt lat="47.29649" lon="-2.35871">
        <ele>60.200000762939</ele>
        <time>2021-04-22T10:08:06.000Z</time>
      </trkpt>
      <trkpt lat="47.29643" lon="-2.35874">
        <ele>59.799999237061</ele>
        <time>2021-04-22T10:08:07.000Z</time>
      </trkpt>
      <trkpt lat="47.29616" lon="-2.35889">
        <ele>59.799999237061</ele>
        <time>2021-04-22T10:08:12.000Z</time>
      </trkpt>
      <trkpt lat="47.29588" lon="-2.35907">
        <ele>59.799999237061</ele>
        <time>2021-04-22T10:08:18.000Z</time>
      </trkpt>
      <trkpt lat="47.29572" lon="-2.35914">
        <ele>59.799999237061</ele>
        <time>2021-04-22T10:08:21.000Z</time>
      </trkpt>
      <trkpt lat="47.29556" lon="-2.35922">
        <ele>59.799999237061</ele>
        <time>2021-04-22T10:08:24.000Z</time>
      </trkpt>
      <trkpt lat="47.29523" lon="-2.35938">
        <ele>59.799999237061</ele>
        <time>2021-04-22T10:08:31.000Z</time>
      </trkpt>
      <trkpt lat="47.29509" lon="-2.35936">
        <ele>59.799999237061</ele>
        <time>2021-04-22T10:08:35.000Z</time>
      </trkpt>
      <trkpt lat="47.29504" lon="-2.35919">
        <ele>59.799999237061</ele>
        <time>2021-04-22T10:08:38.000Z</time>
      </trkpt>
      <trkpt lat="47.29501" lon="-2.35909">
        <ele>59.799999237061</ele>
        <time>2021-04-22T10:08:40.000Z</time>
      </trkpt>
      <trkpt lat="47.29496" lon="-2.35901">
        <ele>59.799999237061</ele>
        <time>2021-04-22T10:08:42.000Z</time>
      </trkpt>
      <trkpt lat="47.29492" lon="-2.359">
        <ele>59.799999237061</ele>
        <time>2021-04-22T10:08:43.000Z</time>
      </trkpt>
      <trkpt lat="47.29485" lon="-2.35901">
        <ele>59.799999237061</ele>
        <time>2021-04-22T10:08:45.000Z</time>
      </trkpt>
      <trkpt lat="47.29478" lon="-2.35902">
        <ele>59.799999237061</ele>
        <time>2021-04-22T10:08:47.000Z</time>
      </trkpt>
      <trkpt lat="47.29465" lon="-2.35904">
        <ele>59.799999237061</ele>
        <time>2021-04-22T10:08:50.000Z</time>
      </trkpt>
      <trkpt lat="47.29461" lon="-2.35905">
        <ele>59.799999237061</ele>
        <time>2021-04-22T10:08:51.000Z</time>
      </trkpt>
      <trkpt lat="47.29449" lon="-2.35911">
        <ele>59.799999237061</ele>
        <time>2021-04-22T10:08:55.000Z</time>
      </trkpt>
      <trkpt lat="47.2944" lon="-2.35921">
        <ele>59.799999237061</ele>
        <time>2021-04-22T10:08:59.000Z</time>
      </trkpt>
      <trkpt lat="47.29437" lon="-2.35919">
        <ele>59.799999237061</ele>
        <time>2021-04-22T10:09:00.000Z</time>
      </trkpt>
      <trkpt lat="47.2943" lon="-2.35908">
        <ele>59.799999237061</ele>
        <time>2021-04-22T10:09:03.000Z</time>
      </trkpt>
      <trkpt lat="47.29426" lon="-2.35904">
        <ele>59.799999237061</ele>
        <time>2021-04-22T10:09:04.000Z</time>
      </trkpt>
      <trkpt lat="47.2941" lon="-2.35883">
        <ele>59.799999237061</ele>
        <time>2021-04-22T10:09:09.000Z</time>
      </trkpt>
      <trkpt lat="47.29403" lon="-2.35876">
        <ele>59.799999237061</ele>
        <time>2021-04-22T10:09:11.000Z</time>
      </trkpt>
      <trkpt lat="47.29372" lon="-2.35842">
        <ele>59.799999237061</ele>
        <time>2021-04-22T10:09:19.000Z</time>
      </trkpt>
      <trkpt lat="47.29339" lon="-2.35815">
        <ele>59.799999237061</ele>
        <time>2021-04-22T10:09:26.000Z</time>
      </trkpt>
      <trkpt lat="47.29334" lon="-2.35811">
        <ele>59.799999237061</ele>
        <time>2021-04-22T10:09:27.000Z</time>
      </trkpt>
      <trkpt lat="47.29304" lon="-2.35783">
        <ele>59.799999237061</ele>
        <time>2021-04-22T10:09:34.000Z</time>
      </trkpt>
      <trkpt lat="47.2927" lon="-2.35753">
        <ele>59.799999237061</ele>
        <time>2021-04-22T10:09:41.000Z</time>
      </trkpt>
      <trkpt lat="47.29256" lon="-2.3574">
        <ele>59.799999237061</ele>
        <time>2021-04-22T10:09:45.000Z</time>
      </trkpt>
      <trkpt lat="47.29252" lon="-2.35742">
        <ele>59.799999237061</ele>
        <time>2021-04-22T10:09:46.000Z</time>
      </trkpt>
      <trkpt lat="47.29244" lon="-2.35762">
        <ele>59.799999237061</ele>
        <time>2021-04-22T10:09:49.000Z</time>
      </trkpt>
      <trkpt lat="47.29241" lon="-2.35767">
        <ele>59.799999237061</ele>
        <time>2021-04-22T10:09:50.000Z</time>
      </trkpt>
      <trkpt lat="47.29224" lon="-2.35789">
        <ele>59.799999237061</ele>
        <time>2021-04-22T10:09:54.000Z</time>
      </trkpt>
      <trkpt lat="47.2919" lon="-2.35824">
        <ele>59.799999237061</ele>
        <time>2021-04-22T10:10:01.000Z</time>
      </trkpt>
      <trkpt lat="47.29144" lon="-2.35864">
        <ele>59.799999237061</ele>
        <time>2021-04-22T10:10:10.000Z</time>
      </trkpt>
      <trkpt lat="47.29104" lon="-2.3591">
        <ele>59.799999237061</ele>
        <time>2021-04-22T10:10:18.000Z</time>
      </trkpt>
      <trkpt lat="47.29076" lon="-2.35943">
        <ele>59.799999237061</ele>
        <time>2021-04-22T10:10:24.000Z</time>
      </trkpt>
      <trkpt lat="47.29072" lon="-2.35948">
        <ele>59.799999237061</ele>
        <time>2021-04-22T10:10:25.000Z</time>
      </trkpt>
      <trkpt lat="47.29053" lon="-2.35968">
        <ele>59.799999237061</ele>
        <time>2021-04-22T10:10:29.000Z</time>
      </trkpt>
      <trkpt lat="47.2902" lon="-2.36">
        <ele>59.799999237061</ele>
        <time>2021-04-22T10:10:36.000Z</time>
      </trkpt>
      <trkpt lat="47.28991" lon="-2.36027">
        <ele>59.799999237061</ele>
        <time>2021-04-22T10:10:42.000Z</time>
      </trkpt>
      <trkpt lat="47.28956" lon="-2.36056">
        <ele>59.799999237061</ele>
        <time>2021-04-22T10:10:49.000Z</time>
      </trkpt>
      <trkpt lat="47.28917" lon="-2.3608">
        <ele>59.799999237061</ele>
        <time>2021-04-22T10:10:57.000Z</time>
      </trkpt>
      <trkpt lat="47.28903" lon="-2.3609">
        <ele>59.799999237061</ele>
        <time>2021-04-22T10:11:00.000Z</time>
      </trkpt>
      <trkpt lat="47.28894" lon="-2.36098">
        <ele>59.799999237061</ele>
        <time>2021-04-22T10:11:02.000Z</time>
      </trkpt>
      <trkpt lat="47.28885" lon="-2.36106">
        <ele>59.799999237061</ele>
        <time>2021-04-22T10:11:04.000Z</time>
      </trkpt>
      <trkpt lat="47.28869" lon="-2.36122">
        <ele>59.799999237061</ele>
        <time>2021-04-22T10:11:08.000Z</time>
      </trkpt>
      <trkpt lat="47.28837" lon="-2.36156">
        <ele>59.799999237061</ele>
        <time>2021-04-22T10:11:15.000Z</time>
      </trkpt>
      <trkpt lat="47.28813" lon="-2.36185">
        <ele>59.799999237061</ele>
        <time>2021-04-22T10:11:20.000Z</time>
      </trkpt>
      <trkpt lat="47.28782" lon="-2.36206">
        <ele>59.799999237061</ele>
        <time>2021-04-22T10:11:26.000Z</time>
      </trkpt>
      <trkpt lat="47.28751" lon="-2.36225">
        <ele>59.799999237061</ele>
        <time>2021-04-22T10:11:33.000Z</time>
      </trkpt>
      <trkpt lat="47.28748" lon="-2.36229">
        <ele>59.799999237061</ele>
        <time>2021-04-22T10:11:34.000Z</time>
      </trkpt>
      <trkpt lat="47.2874" lon="-2.36237">
        <ele>59.799999237061</ele>
        <time>2021-04-22T10:11:37.000Z</time>
      </trkpt>
      <trkpt lat="47.28735" lon="-2.36241">
        <ele>59.799999237061</ele>
        <time>2021-04-22T10:11:39.000Z</time>
      </trkpt>
      <trkpt lat="47.28728" lon="-2.36247">
        <ele>59.799999237061</ele>
        <time>2021-04-22T10:11:42.000Z</time>
      </trkpt>
      <trkpt lat="47.28717" lon="-2.36262">
        <ele>59.799999237061</ele>
        <time>2021-04-22T10:11:48.000Z</time>
      </trkpt>
      <trkpt lat="47.2871" lon="-2.36271">
        <ele>60.200000762939</ele>
        <time>2021-04-22T10:11:51.000Z</time>
      </trkpt>
      <trkpt lat="47.28708" lon="-2.36272">
        <ele>60.599998474121</ele>
        <time>2021-04-22T10:11:52.000Z</time>
      </trkpt>
      <trkpt lat="47.28705" lon="-2.36273">
        <ele>61</ele>
        <time>2021-04-22T10:11:53.000Z</time>
      </trkpt>
      <trkpt lat="47.28701" lon="-2.36274">
        <ele>61.599998474121</ele>
        <time>2021-04-22T10:11:54.000Z</time>
      </trkpt>
      <trkpt lat="47.28698" lon="-2.36275">
        <ele>62</ele>
        <time>2021-04-22T10:11:55.000Z</time>
      </trkpt>
      <trkpt lat="47.28688" lon="-2.36278">
        <ele>62.400001525879</ele>
        <time>2021-04-22T10:11:58.000Z</time>
      </trkpt>
      <trkpt lat="47.28685" lon="-2.36277">
        <ele>62.799999237061</ele>
        <time>2021-04-22T10:11:59.000Z</time>
      </trkpt>
      <trkpt lat="47.2868" lon="-2.36276">
        <ele>63.200000762939</ele>
        <time>2021-04-22T10:12:00.000Z</time>
      </trkpt>
      <trkpt lat="47.28677" lon="-2.36275">
        <ele>63.599998474121</ele>
        <time>2021-04-22T10:12:01.000Z</time>
      </trkpt>
      <trkpt lat="47.28675" lon="-2.36271">
        <ele>64</ele>
        <time>2021-04-22T10:12:02.000Z</time>
      </trkpt>
      <trkpt lat="47.28673" lon="-2.36267">
        <ele>64</ele>
        <time>2021-04-22T10:12:03.000Z</time>
      </trkpt>
      <trkpt lat="47.28672" lon="-2.36258">
        <ele>64</ele>
        <time>2021-04-22T10:12:05.000Z</time>
      </trkpt>
      <trkpt lat="47.28672" lon="-2.36248">
        <ele>64</ele>
        <time>2021-04-22T10:12:07.000Z</time>
      </trkpt>
      <trkpt lat="47.28671" lon="-2.36233">
        <ele>64.400001525879</ele>
        <time>2021-04-22T10:12:10.000Z</time>
      </trkpt>
      <trkpt lat="47.28671" lon="-2.36228">
        <ele>64.800003051758</ele>
        <time>2021-04-22T10:12:11.000Z</time>
      </trkpt>
      <trkpt lat="47.28671" lon="-2.36225">
        <ele>65.400001525879</ele>
        <time>2021-04-22T10:12:12.000Z</time>
      </trkpt>
      <trkpt lat="47.28671" lon="-2.36221">
        <ele>65.800003051758</ele>
        <time>2021-04-22T10:12:13.000Z</time>
      </trkpt>
      <trkpt lat="47.28671" lon="-2.36216">
        <ele>66.199996948242</ele>
        <time>2021-04-22T10:12:14.000Z</time>
      </trkpt>
      <trkpt lat="47.28666" lon="-2.36193">
        <ele>66.199996948242</ele>
        <time>2021-04-22T10:12:19.000Z</time>
      </trkpt>
      <trkpt lat="47.28654" lon="-2.36179">
        <ele>66.199996948242</ele>
        <time>2021-04-22T10:12:23.000Z</time>
      </trkpt>
      <trkpt lat="47.28644" lon="-2.3617">
        <ele>66.599998474121</ele>
        <time>2021-04-22T10:12:26.000Z</time>
      </trkpt>
      <trkpt lat="47.28642" lon="-2.36166">
        <ele>67.199996948242</ele>
        <time>2021-04-22T10:12:27.000Z</time>
      </trkpt>
      <trkpt lat="47.2864" lon="-2.36162">
        <ele>67.599998474121</ele>
        <time>2021-04-22T10:12:28.000Z</time>
      </trkpt>
      <trkpt lat="47.28638" lon="-2.36158">
        <ele>68</ele>
        <time>2021-04-22T10:12:29.000Z</time>
      </trkpt>
      <trkpt lat="47.28636" lon="-2.36155">
        <ele>68.400001525879</ele>
        <time>2021-04-22T10:12:30.000Z</time>
      </trkpt>
      <trkpt lat="47.28628" lon="-2.36147">
        <ele>68.400001525879</ele>
        <time>2021-04-22T10:12:33.000Z</time>
      </trkpt>
      <trkpt lat="47.28625" lon="-2.36147">
        <ele>68.400001525879</ele>
        <time>2021-04-22T10:12:34.000Z</time>
      </trkpt>
      <trkpt lat="47.28618" lon="-2.36153">
        <ele>68.400001525879</ele>
        <time>2021-04-22T10:12:37.000Z</time>
      </trkpt>
      <trkpt lat="47.28613" lon="-2.36158">
        <ele>68.400001525879</ele>
        <time>2021-04-22T10:12:39.000Z</time>
      </trkpt>
      <trkpt lat="47.28599" lon="-2.36159">
        <ele>68.400001525879</ele>
        <time>2021-04-22T10:12:44.000Z</time>
      </trkpt>
      <trkpt lat="47.28577" lon="-2.36156">
        <ele>68.400001525879</ele>
        <time>2021-04-22T10:12:50.000Z</time>
      </trkpt>
      <trkpt lat="47.28561" lon="-2.36162">
        <ele>68.400001525879</ele>
        <time>2021-04-22T10:12:54.000Z</time>
      </trkpt>
      <trkpt lat="47.28558" lon="-2.36159">
        <ele>68.400001525879</ele>
        <time>2021-04-22T10:12:55.000Z</time>
      </trkpt>
      <trkpt lat="47.28555" lon="-2.36155">
        <ele>68</ele>
        <time>2021-04-22T10:12:56.000Z</time>
      </trkpt>
      <trkpt lat="47.28553" lon="-2.3615">
        <ele>67.599998474121</ele>
        <time>2021-04-22T10:12:57.000Z</time>
      </trkpt>
      <trkpt lat="47.2855" lon="-2.36143">
        <ele>67.199996948242</ele>
        <time>2021-04-22T10:12:58.000Z</time>
      </trkpt>
      <trkpt lat="47.28548" lon="-2.36135">
        <ele>66.599998474121</ele>
        <time>2021-04-22T10:12:59.000Z</time>
      </trkpt>
      <trkpt lat="47.28545" lon="-2.36128">
        <ele>66.199996948242</ele>
        <time>2021-04-22T10:13:00.000Z</time>
      </trkpt>
      <trkpt lat="47.28543" lon="-2.3612">
        <ele>66.199996948242</ele>
        <time>2021-04-22T10:13:01.000Z</time>
      </trkpt>
      <trkpt lat="47.28538" lon="-2.36097">
        <ele>66.199996948242</ele>
        <time>2021-04-22T10:13:05.000Z</time>
      </trkpt>
      <trkpt lat="47.28526" lon="-2.36074">
        <ele>66.199996948242</ele>
        <time>2021-04-22T10:13:10.000Z</time>
      </trkpt>
      <trkpt lat="47.2852" lon="-2.36063">
        <ele>66.199996948242</ele>
        <time>2021-04-22T10:13:12.000Z</time>
      </trkpt>
      <trkpt lat="47.28513" lon="-2.36052">
        <ele>66.199996948242</ele>
        <time>2021-04-22T10:13:14.000Z</time>
      </trkpt>
      <trkpt lat="47.28508" lon="-2.36047">
        <ele>66.199996948242</ele>
        <time>2021-04-22T10:13:15.000Z</time>
      </trkpt>
      <trkpt lat="47.28495" lon="-2.36039">
        <ele>66.199996948242</ele>
        <time>2021-04-22T10:13:18.000Z</time>
      </trkpt>
      <trkpt lat="47.28475" lon="-2.36027">
        <ele>66.199996948242</ele>
        <time>2021-04-22T10:13:22.000Z</time>
      </trkpt>
      <trkpt lat="47.28467" lon="-2.36016">
        <ele>66.199996948242</ele>
        <time>2021-04-22T10:13:24.000Z</time>
      </trkpt>
      <trkpt lat="47.28457" lon="-2.35999">
        <ele>66.199996948242</ele>
        <time>2021-04-22T10:13:27.000Z</time>
      </trkpt>
      <trkpt lat="47.28443" lon="-2.35994">
        <ele>66.199996948242</ele>
        <time>2021-04-22T10:13:30.000Z</time>
      </trkpt>
      <trkpt lat="47.28428" lon="-2.36006">
        <ele>66.199996948242</ele>
        <time>2021-04-22T10:13:34.000Z</time>
      </trkpt>
      <trkpt lat="47.28424" lon="-2.36009">
        <ele>66.199996948242</ele>
        <time>2021-04-22T10:13:35.000Z</time>
      </trkpt>
      <trkpt lat="47.28406" lon="-2.36024">
        <ele>66.199996948242</ele>
        <time>2021-04-22T10:13:40.000Z</time>
      </trkpt>
      <trkpt lat="47.28379" lon="-2.36027">
        <ele>65.599998474121</ele>
        <time>2021-04-22T10:13:45.000Z</time>
      </trkpt>
      <trkpt lat="47.28372" lon="-2.36028">
        <ele>65.199996948242</ele>
        <time>2021-04-22T10:13:46.000Z</time>
      </trkpt>
      <trkpt lat="47.28366" lon="-2.36029">
        <ele>64.400001525879</ele>
        <time>2021-04-22T10:13:47.000Z</time>
      </trkpt>
      <trkpt lat="47.28359" lon="-2.36032">
        <ele>63.599998474121</ele>
        <time>2021-04-22T10:13:48.000Z</time>
      </trkpt>
      <trkpt lat="47.28352" lon="-2.36035">
        <ele>62.799999237061</ele>
        <time>2021-04-22T10:13:49.000Z</time>
      </trkpt>
      <trkpt lat="47.28346" lon="-2.36038">
        <ele>62</ele>
        <time>2021-04-22T10:13:50.000Z</time>
      </trkpt>
      <trkpt lat="47.2834" lon="-2.36042">
        <ele>61.200000762939</ele>
        <time>2021-04-22T10:13:51.000Z</time>
      </trkpt>
      <trkpt lat="47.28336" lon="-2.36046">
        <ele>60.200000762939</ele>
        <time>2021-04-22T10:13:52.000Z</time>
      </trkpt>
      <trkpt lat="47.28331" lon="-2.3605">
        <ele>59.400001525879</ele>
        <time>2021-04-22T10:13:53.000Z</time>
      </trkpt>
      <trkpt lat="47.28326" lon="-2.36053">
        <ele>59.400001525879</ele>
        <time>2021-04-22T10:13:54.000Z</time>
      </trkpt>
      <trkpt lat="47.28313" lon="-2.36051">
        <ele>59.400001525879</ele>
        <time>2021-04-22T10:13:57.000Z</time>
      </trkpt>
      <trkpt lat="47.28307" lon="-2.3605">
        <ele>59.400001525879</ele>
        <time>2021-04-22T10:13:58.000Z</time>
      </trkpt>
      <trkpt lat="47.28296" lon="-2.36046">
        <ele>59.400001525879</ele>
        <time>2021-04-22T10:14:00.000Z</time>
      </trkpt>
      <trkpt lat="47.28292" lon="-2.36043">
        <ele>59</ele>
        <time>2021-04-22T10:14:01.000Z</time>
      </trkpt>
      <trkpt lat="47.28288" lon="-2.36038">
        <ele>58.400001525879</ele>
        <time>2021-04-22T10:14:02.000Z</time>
      </trkpt>
      <trkpt lat="47.28284" lon="-2.36033">
        <ele>58</ele>
        <time>2021-04-22T10:14:03.000Z</time>
      </trkpt>
      <trkpt lat="47.28281" lon="-2.36028">
        <ele>57.200000762939</ele>
        <time>2021-04-22T10:14:04.000Z</time>
      </trkpt>
      <trkpt lat="47.28278" lon="-2.36022">
        <ele>56.599998474121</ele>
        <time>2021-04-22T10:14:05.000Z</time>
      </trkpt>
      <trkpt lat="47.28275" lon="-2.36015">
        <ele>56</ele>
        <time>2021-04-22T10:14:06.000Z</time>
      </trkpt>
      <trkpt lat="47.28274" lon="-2.36007">
        <ele>55.200000762939</ele>
        <time>2021-04-22T10:14:07.000Z</time>
      </trkpt>
      <trkpt lat="47.28273" lon="-2.35999">
        <ele>54.200000762939</ele>
        <time>2021-04-22T10:14:08.000Z</time>
      </trkpt>
      <trkpt lat="47.28272" lon="-2.35993">
        <ele>53.400001525879</ele>
        <time>2021-04-22T10:14:09.000Z</time>
      </trkpt>
      <trkpt lat="47.28271" lon="-2.35987">
        <ele>52</ele>
        <time>2021-04-22T10:14:10.000Z</time>
      </trkpt>
      <trkpt lat="47.28271" lon="-2.35982">
        <ele>51.200000762939</ele>
        <time>2021-04-22T10:14:11.000Z</time>
      </trkpt>
      <trkpt lat="47.2827" lon="-2.35977">
        <ele>50.400001525879</ele>
        <time>2021-04-22T10:14:12.000Z</time>
      </trkpt>
      <trkpt lat="47.28268" lon="-2.35971">
        <ele>49.599998474121</ele>
        <time>2021-04-22T10:14:13.000Z</time>
      </trkpt>
      <trkpt lat="47.28261" lon="-2.35955">
        <ele>49.599998474121</ele>
        <time>2021-04-22T10:14:16.000Z</time>
      </trkpt>
      <trkpt lat="47.28251" lon="-2.35928">
        <ele>49.599998474121</ele>
        <time>2021-04-22T10:14:22.000Z</time>
      </trkpt>
      <trkpt lat="47.28248" lon="-2.35919">
        <ele>50</ele>
        <time>2021-04-22T10:14:24.000Z</time>
      </trkpt>
      <trkpt lat="47.28246" lon="-2.35916">
        <ele>50.599998474121</ele>
        <time>2021-04-22T10:14:25.000Z</time>
      </trkpt>
      <trkpt lat="47.28242" lon="-2.35913">
        <ele>51</ele>
        <time>2021-04-22T10:14:26.000Z</time>
      </trkpt>
      <trkpt lat="47.28238" lon="-2.35914">
        <ele>51.400001525879</ele>
        <time>2021-04-22T10:14:27.000Z</time>
      </trkpt>
      <trkpt lat="47.28233" lon="-2.35915">
        <ele>51.799999237061</ele>
        <time>2021-04-22T10:14:28.000Z</time>
      </trkpt>
      <trkpt lat="47.28229" lon="-2.35914">
        <ele>51.799999237061</ele>
        <time>2021-04-22T10:14:29.000Z</time>
      </trkpt>
      <trkpt lat="47.2821" lon="-2.35907">
        <ele>51.799999237061</ele>
        <time>2021-04-22T10:14:33.000Z</time>
      </trkpt>
      <trkpt lat="47.28198" lon="-2.35904">
        <ele>51.400001525879</ele>
        <time>2021-04-22T10:14:36.000Z</time>
      </trkpt>
      <trkpt lat="47.28195" lon="-2.35904">
        <ele>51</ele>
        <time>2021-04-22T10:14:37.000Z</time>
      </trkpt>
      <trkpt lat="47.28191" lon="-2.35904">
        <ele>50.599998474121</ele>
        <time>2021-04-22T10:14:38.000Z</time>
      </trkpt>
      <trkpt lat="47.28188" lon="-2.35904">
        <ele>50.200000762939</ele>
        <time>2021-04-22T10:14:39.000Z</time>
      </trkpt>
      <trkpt lat="47.28185" lon="-2.35903">
        <ele>49.799999237061</ele>
        <time>2021-04-22T10:14:40.000Z</time>
      </trkpt>
      <trkpt lat="47.28176" lon="-2.35899">
        <ele>49.799999237061</ele>
        <time>2021-04-22T10:14:43.000Z</time>
      </trkpt>
      <trkpt lat="47.28151" lon="-2.3589">
        <ele>49.799999237061</ele>
        <time>2021-04-22T10:14:50.000Z</time>
      </trkpt>
      <trkpt lat="47.2814" lon="-2.3588">
        <ele>49.799999237061</ele>
        <time>2021-04-22T10:14:54.000Z</time>
      </trkpt>
      <trkpt lat="47.28135" lon="-2.35876">
        <ele>49.400001525879</ele>
        <time>2021-04-22T10:14:56.000Z</time>
      </trkpt>
      <trkpt lat="47.28133" lon="-2.35872">
        <ele>49</ele>
        <time>2021-04-22T10:14:57.000Z</time>
      </trkpt>
      <trkpt lat="47.28133" lon="-2.35867">
        <ele>48.599998474121</ele>
        <time>2021-04-22T10:14:58.000Z</time>
      </trkpt>
      <trkpt lat="47.28132" lon="-2.35863">
        <ele>47.799999237061</ele>
        <time>2021-04-22T10:14:59.000Z</time>
      </trkpt>
      <trkpt lat="47.2813" lon="-2.35857">
        <ele>48.200000762939</ele>
        <time>2021-04-22T10:15:01.000Z</time>
      </trkpt>
      <trkpt lat="47.28129" lon="-2.35855">
        <ele>48.599998474121</ele>
        <time>2021-04-22T10:15:02.000Z</time>
      </trkpt>
      <trkpt lat="47.28128" lon="-2.35854">
        <ele>49</ele>
        <time>2021-04-22T10:15:03.000Z</time>
      </trkpt>
      <trkpt lat="47.28126" lon="-2.35853">
        <ele>49.599998474121</ele>
        <time>2021-04-22T10:15:04.000Z</time>
      </trkpt>
      <trkpt lat="47.28125" lon="-2.35854">
        <ele>50</ele>
        <time>2021-04-22T10:15:05.000Z</time>
      </trkpt>
      <trkpt lat="47.28124" lon="-2.35852">
        <ele>50</ele>
        <time>2021-04-22T10:15:07.000Z</time>
      </trkpt>
      <trkpt lat="47.28121" lon="-2.35846">
        <ele>50.400001525879</ele>
        <time>2021-04-22T10:15:14.000Z</time>
      </trkpt>
      <trkpt lat="47.2812" lon="-2.35842">
        <ele>50</ele>
        <time>2021-04-22T10:15:15.000Z</time>
      </trkpt>
      <trkpt lat="47.28119" lon="-2.35838">
        <ele>49.799999237061</ele>
        <time>2021-04-22T10:15:16.000Z</time>
      </trkpt>
      <trkpt lat="47.28118" lon="-2.35834">
        <ele>49.400001525879</ele>
        <time>2021-04-22T10:15:17.000Z</time>
      </trkpt>
      <trkpt lat="47.28116" lon="-2.35832">
        <ele>49.200000762939</ele>
        <time>2021-04-22T10:15:18.000Z</time>
      </trkpt>
      <trkpt lat="47.28115" lon="-2.35831">
        <ele>48.799999237061</ele>
        <time>2021-04-22T10:15:19.000Z</time>
      </trkpt>
      <trkpt lat="47.28113" lon="-2.35831">
        <ele>48.400001525879</ele>
        <time>2021-04-22T10:15:20.000Z</time>
      </trkpt>
      <trkpt lat="47.28112" lon="-2.35831">
        <ele>48</ele>
        <time>2021-04-22T10:15:21.000Z</time>
      </trkpt>
      <trkpt lat="47.28111" lon="-2.3583">
        <ele>47.599998474121</ele>
        <time>2021-04-22T10:15:22.000Z</time>
      </trkpt>
      <trkpt lat="47.28109" lon="-2.35828">
        <ele>47.200000762939</ele>
        <time>2021-04-22T10:15:23.000Z</time>
      </trkpt>
      <trkpt lat="47.28107" lon="-2.35828">
        <ele>46.799999237061</ele>
        <time>2021-04-22T10:15:24.000Z</time>
      </trkpt>
      <trkpt lat="47.28099" lon="-2.35824">
        <ele>46.799999237061</ele>
        <time>2021-04-22T10:15:26.000Z</time>
      </trkpt>
      <trkpt lat="47.28093" lon="-2.35814">
        <ele>47.200000762939</ele>
        <time>2021-04-22T10:15:29.000Z</time>
      </trkpt>
      <trkpt lat="47.28092" lon="-2.3581">
        <ele>47.599998474121</ele>
        <time>2021-04-22T10:15:30.000Z</time>
      </trkpt>
      <trkpt lat="47.28092" lon="-2.35805">
        <ele>48.200000762939</ele>
        <time>2021-04-22T10:15:31.000Z</time>
      </trkpt>
      <trkpt lat="47.28091" lon="-2.35801">
        <ele>48.599998474121</ele>
        <time>2021-04-22T10:15:32.000Z</time>
      </trkpt>
      <trkpt lat="47.28091" lon="-2.35797">
        <ele>49</ele>
        <time>2021-04-22T10:15:33.000Z</time>
      </trkpt>
      <trkpt lat="47.28091" lon="-2.35793">
        <ele>49</ele>
        <time>2021-04-22T10:15:34.000Z</time>
      </trkpt>
      <trkpt lat="47.28093" lon="-2.35783">
        <ele>49</ele>
        <time>2021-04-22T10:15:36.000Z</time>
      </trkpt>
      <trkpt lat="47.28095" lon="-2.35759">
        <ele>49.400001525879</ele>
        <time>2021-04-22T10:15:40.000Z</time>
      </trkpt>
      <trkpt lat="47.28096" lon="-2.35755">
        <ele>49.799999237061</ele>
        <time>2021-04-22T10:15:41.000Z</time>
      </trkpt>
      <trkpt lat="47.28096" lon="-2.3575">
        <ele>50.200000762939</ele>
        <time>2021-04-22T10:15:42.000Z</time>
      </trkpt>
      <trkpt lat="47.28097" lon="-2.35747">
        <ele>50.599998474121</ele>
        <time>2021-04-22T10:15:43.000Z</time>
      </trkpt>
      <trkpt lat="47.28097" lon="-2.35743">
        <ele>51.200000762939</ele>
        <time>2021-04-22T10:15:44.000Z</time>
      </trkpt>
      <trkpt lat="47.28098" lon="-2.35723">
        <ele>51.200000762939</ele>
        <time>2021-04-22T10:15:48.000Z</time>
      </trkpt>
      <trkpt lat="47.28096" lon="-2.35695">
        <ele>51.200000762939</ele>
        <time>2021-04-22T10:15:53.000Z</time>
      </trkpt>
      <trkpt lat="47.28093" lon="-2.35686">
        <ele>51.200000762939</ele>
        <time>2021-04-22T10:15:54.000Z</time>
      </trkpt>
      <trkpt lat="47.28086" lon="-2.35653">
        <ele>50.599998474121</ele>
        <time>2021-04-22T10:15:59.000Z</time>
      </trkpt>
      <trkpt lat="47.28085" lon="-2.35646">
        <ele>50.200000762939</ele>
        <time>2021-04-22T10:16:00.000Z</time>
      </trkpt>
      <trkpt lat="47.28085" lon="-2.3564">
        <ele>49.599998474121</ele>
        <time>2021-04-22T10:16:01.000Z</time>
      </trkpt>
      <trkpt lat="47.28084" lon="-2.35636">
        <ele>49.200000762939</ele>
        <time>2021-04-22T10:16:02.000Z</time>
      </trkpt>
      <trkpt lat="47.28084" lon="-2.35633">
        <ele>48.599998474121</ele>
        <time>2021-04-22T10:16:03.000Z</time>
      </trkpt>
      <trkpt lat="47.28085" lon="-2.3563">
        <ele>47.799999237061</ele>
        <time>2021-04-22T10:16:04.000Z</time>
      </trkpt>
      <trkpt lat="47.28087" lon="-2.35629">
        <ele>47.200000762939</ele>
        <time>2021-04-22T10:16:05.000Z</time>
      </trkpt>
      <trkpt lat="47.28088" lon="-2.35629">
        <ele>46.599998474121</ele>
        <time>2021-04-22T10:16:06.000Z</time>
      </trkpt>
      <trkpt lat="47.28089" lon="-2.35629">
        <ele>46</ele>
        <time>2021-04-22T10:16:07.000Z</time>
      </trkpt>
      <trkpt lat="47.2809" lon="-2.35629">
        <ele>46</ele>
        <time>2021-04-22T10:16:08.000Z</time>
      </trkpt>
      <trkpt lat="47.2809" lon="-2.35629">
        <ele>46</ele>
        <time>2021-04-22T10:16:09.000Z</time>
      </trkpt>
      <trkpt lat="47.28085" lon="-2.35619">
        <ele>38</ele>
        <time>2021-04-22T10:36:28.000Z</time>
      </trkpt>
      <trkpt lat="47.28083" lon="-2.35617">
        <ele>38</ele>
        <time>2021-04-22T10:36:30.000Z</time>
      </trkpt>
      <trkpt lat="47.28076" lon="-2.35608">
        <ele>38</ele>
        <time>2021-04-22T10:36:36.000Z</time>
      </trkpt>
      <trkpt lat="47.28064" lon="-2.35592">
        <ele>38</ele>
        <time>2021-04-22T10:36:42.000Z</time>
      </trkpt>
      <trkpt lat="47.28049" lon="-2.35585">
        <ele>38</ele>
        <time>2021-04-22T10:36:46.000Z</time>
      </trkpt>
      <trkpt lat="47.28044" lon="-2.35583">
        <ele>38</ele>
        <time>2021-04-22T10:36:47.000Z</time>
      </trkpt>
      <trkpt lat="47.28031" lon="-2.35571">
        <ele>38</ele>
        <time>2021-04-22T10:36:50.000Z</time>
      </trkpt>
      <trkpt lat="47.28026" lon="-2.35567">
        <ele>38</ele>
        <time>2021-04-22T10:36:51.000Z</time>
      </trkpt>
      <trkpt lat="47.28012" lon="-2.35562">
        <ele>38</ele>
        <time>2021-04-22T10:36:54.000Z</time>
      </trkpt>
      <trkpt lat="47.28008" lon="-2.35559">
        <ele>37.599998474121</ele>
        <time>2021-04-22T10:36:55.000Z</time>
      </trkpt>
      <trkpt lat="47.28005" lon="-2.35555">
        <ele>37</ele>
        <time>2021-04-22T10:36:56.000Z</time>
      </trkpt>
      <trkpt lat="47.28002" lon="-2.3555">
        <ele>36.599998474121</ele>
        <time>2021-04-22T10:36:57.000Z</time>
      </trkpt>
      <trkpt lat="47.27999" lon="-2.35544">
        <ele>36.200000762939</ele>
        <time>2021-04-22T10:36:58.000Z</time>
      </trkpt>
      <trkpt lat="47.27997" lon="-2.35537">
        <ele>35.599998474121</ele>
        <time>2021-04-22T10:36:59.000Z</time>
      </trkpt>
      <trkpt lat="47.27994" lon="-2.35529">
        <ele>35.599998474121</ele>
        <time>2021-04-22T10:37:00.000Z</time>
      </trkpt>
      <trkpt lat="47.27987" lon="-2.35513">
        <ele>35.599998474121</ele>
        <time>2021-04-22T10:37:02.000Z</time>
      </trkpt>
      <trkpt lat="47.27972" lon="-2.3548">
        <ele>35.200000762939</ele>
        <time>2021-04-22T10:37:06.000Z</time>
      </trkpt>
      <trkpt lat="47.27967" lon="-2.35474">
        <ele>34.799999237061</ele>
        <time>2021-04-22T10:37:07.000Z</time>
      </trkpt>
      <trkpt lat="47.27961" lon="-2.35469">
        <ele>34.400001525879</ele>
        <time>2021-04-22T10:37:08.000Z</time>
      </trkpt>
      <trkpt lat="47.27956" lon="-2.35466">
        <ele>34</ele>
        <time>2021-04-22T10:37:09.000Z</time>
      </trkpt>
      <trkpt lat="47.27951" lon="-2.35463">
        <ele>33.400001525879</ele>
        <time>2021-04-22T10:37:10.000Z</time>
      </trkpt>
      <trkpt lat="47.27942" lon="-2.35457">
        <ele>33.400001525879</ele>
        <time>2021-04-22T10:37:12.000Z</time>
      </trkpt>
      <trkpt lat="47.27929" lon="-2.35445">
        <ele>33.400001525879</ele>
        <time>2021-04-22T10:37:15.000Z</time>
      </trkpt>
      <trkpt lat="47.27922" lon="-2.35434">
        <ele>33.400001525879</ele>
        <time>2021-04-22T10:37:17.000Z</time>
      </trkpt>
      <trkpt lat="47.27895" lon="-2.35394">
        <ele>33.400001525879</ele>
        <time>2021-04-22T10:37:25.000Z</time>
      </trkpt>
      <trkpt lat="47.27875" lon="-2.35371">
        <ele>33.400001525879</ele>
        <time>2021-04-22T10:37:30.000Z</time>
      </trkpt>
      <trkpt lat="47.27865" lon="-2.35365">
        <ele>33.400001525879</ele>
        <time>2021-04-22T10:37:32.000Z</time>
      </trkpt>
      <trkpt lat="47.27854" lon="-2.35365">
        <ele>33.400001525879</ele>
        <time>2021-04-22T10:37:34.000Z</time>
      </trkpt>
      <trkpt lat="47.27842" lon="-2.35365">
        <ele>33.400001525879</ele>
        <time>2021-04-22T10:37:36.000Z</time>
      </trkpt>
      <trkpt lat="47.27818" lon="-2.35368">
        <ele>33.400001525879</ele>
        <time>2021-04-22T10:37:40.000Z</time>
      </trkpt>
      <trkpt lat="47.27808" lon="-2.35365">
        <ele>33.400001525879</ele>
        <time>2021-04-22T10:37:42.000Z</time>
      </trkpt>
      <trkpt lat="47.27798" lon="-2.35347">
        <ele>33.400001525879</ele>
        <time>2021-04-22T10:37:45.000Z</time>
      </trkpt>
      <trkpt lat="47.27793" lon="-2.35327">
        <ele>33.400001525879</ele>
        <time>2021-04-22T10:37:47.000Z</time>
      </trkpt>
      <trkpt lat="47.27785" lon="-2.35292">
        <ele>33.400001525879</ele>
        <time>2021-04-22T10:37:51.000Z</time>
      </trkpt>
      <trkpt lat="47.27776" lon="-2.35239">
        <ele>33.400001525879</ele>
        <time>2021-04-22T10:37:57.000Z</time>
      </trkpt>
      <trkpt lat="47.27772" lon="-2.35215">
        <ele>33.400001525879</ele>
        <time>2021-04-22T10:38:00.000Z</time>
      </trkpt>
      <trkpt lat="47.27764" lon="-2.35204">
        <ele>33.400001525879</ele>
        <time>2021-04-22T10:38:02.000Z</time>
      </trkpt>
      <trkpt lat="47.27747" lon="-2.35205">
        <ele>33.400001525879</ele>
        <time>2021-04-22T10:38:05.000Z</time>
      </trkpt>
      <trkpt lat="47.27704" lon="-2.35219">
        <ele>33.400001525879</ele>
        <time>2021-04-22T10:38:13.000Z</time>
      </trkpt>
      <trkpt lat="47.27678" lon="-2.35223">
        <ele>33.400001525879</ele>
        <time>2021-04-22T10:38:18.000Z</time>
      </trkpt>
      <trkpt lat="47.27675" lon="-2.35219">
        <ele>33.400001525879</ele>
        <time>2021-04-22T10:38:19.000Z</time>
      </trkpt>
      <trkpt lat="47.27671" lon="-2.352">
        <ele>33.400001525879</ele>
        <time>2021-04-22T10:38:22.000Z</time>
      </trkpt>
      <trkpt lat="47.2767" lon="-2.35187">
        <ele>33.400001525879</ele>
        <time>2021-04-22T10:38:24.000Z</time>
      </trkpt>
      <trkpt lat="47.27666" lon="-2.35175">
        <ele>34</ele>
        <time>2021-04-22T10:38:26.000Z</time>
      </trkpt>
      <trkpt lat="47.27662" lon="-2.35172">
        <ele>34.400001525879</ele>
        <time>2021-04-22T10:38:27.000Z</time>
      </trkpt>
      <trkpt lat="47.27658" lon="-2.35171">
        <ele>34.799999237061</ele>
        <time>2021-04-22T10:38:28.000Z</time>
      </trkpt>
      <trkpt lat="47.27654" lon="-2.35171">
        <ele>35.799999237061</ele>
        <time>2021-04-22T10:38:29.000Z</time>
      </trkpt>
      <trkpt lat="47.2765" lon="-2.35171">
        <ele>35.799999237061</ele>
        <time>2021-04-22T10:38:30.000Z</time>
      </trkpt>
      <trkpt lat="47.27646" lon="-2.3517">
        <ele>35.799999237061</ele>
        <time>2021-04-22T10:38:31.000Z</time>
      </trkpt>
      <trkpt lat="47.27619" lon="-2.35172">
        <ele>35.799999237061</ele>
        <time>2021-04-22T10:38:37.000Z</time>
      </trkpt>
      <trkpt lat="47.27615" lon="-2.35172">
        <ele>36.200000762939</ele>
        <time>2021-04-22T10:38:38.000Z</time>
      </trkpt>
      <trkpt lat="47.27611" lon="-2.35171">
        <ele>36.599998474121</ele>
        <time>2021-04-22T10:38:39.000Z</time>
      </trkpt>
      <trkpt lat="47.27608" lon="-2.35168">
        <ele>37</ele>
        <time>2021-04-22T10:38:40.000Z</time>
      </trkpt>
      <trkpt lat="47.27607" lon="-2.35165">
        <ele>37.599998474121</ele>
        <time>2021-04-22T10:38:41.000Z</time>
      </trkpt>
      <trkpt lat="47.27606" lon="-2.35158">
        <ele>38</ele>
        <time>2021-04-22T10:38:42.000Z</time>
      </trkpt>
      <trkpt lat="47.27604" lon="-2.35145">
        <ele>38</ele>
        <time>2021-04-22T10:38:44.000Z</time>
      </trkpt>
      <trkpt lat="47.27594" lon="-2.35137">
        <ele>38</ele>
        <time>2021-04-22T10:38:47.000Z</time>
      </trkpt>
      <trkpt lat="47.27577" lon="-2.35137">
        <ele>38</ele>
        <time>2021-04-22T10:38:51.000Z</time>
      </trkpt>
      <trkpt lat="47.27572" lon="-2.35138">
        <ele>38</ele>
        <time>2021-04-22T10:38:52.000Z</time>
      </trkpt>
      <trkpt lat="47.27549" lon="-2.35141">
        <ele>38</ele>
        <time>2021-04-22T10:38:57.000Z</time>
      </trkpt>
      <trkpt lat="47.27539" lon="-2.35142">
        <ele>38</ele>
        <time>2021-04-22T10:38:59.000Z</time>
      </trkpt>
      <trkpt lat="47.27535" lon="-2.35141">
        <ele>38</ele>
        <time>2021-04-22T10:39:00.000Z</time>
      </trkpt>
      <trkpt lat="47.2752" lon="-2.35137">
        <ele>38</ele>
        <time>2021-04-22T10:39:03.000Z</time>
      </trkpt>
      <trkpt lat="47.27516" lon="-2.35135">
        <ele>38</ele>
        <time>2021-04-22T10:39:04.000Z</time>
      </trkpt>
      <trkpt lat="47.27503" lon="-2.35126">
        <ele>38</ele>
        <time>2021-04-22T10:39:08.000Z</time>
      </trkpt>
      <trkpt lat="47.27502" lon="-2.35122">
        <ele>38</ele>
        <time>2021-04-22T10:39:09.000Z</time>
      </trkpt>
      <trkpt lat="47.27502" lon="-2.35111">
        <ele>38</ele>
        <time>2021-04-22T10:39:11.000Z</time>
      </trkpt>
      <trkpt lat="47.27502" lon="-2.35063">
        <ele>38</ele>
        <time>2021-04-22T10:39:18.000Z</time>
      </trkpt>
      <trkpt lat="47.27501" lon="-2.35036">
        <ele>38</ele>
        <time>2021-04-22T10:39:22.000Z</time>
      </trkpt>
      <trkpt lat="47.275" lon="-2.35029">
        <ele>38</ele>
        <time>2021-04-22T10:39:23.000Z</time>
      </trkpt>
      <trkpt lat="47.27489" lon="-2.34986">
        <ele>38</ele>
        <time>2021-04-22T10:39:29.000Z</time>
      </trkpt>
      <trkpt lat="47.27486" lon="-2.3498">
        <ele>38</ele>
        <time>2021-04-22T10:39:30.000Z</time>
      </trkpt>
      <trkpt lat="47.27478" lon="-2.34958">
        <ele>38</ele>
        <time>2021-04-22T10:39:33.000Z</time>
      </trkpt>
      <trkpt lat="47.27475" lon="-2.3495">
        <ele>38</ele>
        <time>2021-04-22T10:39:34.000Z</time>
      </trkpt>
      <trkpt lat="47.27462" lon="-2.34903">
        <ele>38</ele>
        <time>2021-04-22T10:39:40.000Z</time>
      </trkpt>
      <trkpt lat="47.27459" lon="-2.3488">
        <ele>38</ele>
        <time>2021-04-22T10:39:43.000Z</time>
      </trkpt>
      <trkpt lat="47.27459" lon="-2.34864">
        <ele>38</ele>
        <time>2021-04-22T10:39:45.000Z</time>
      </trkpt>
      <trkpt lat="47.27458" lon="-2.34857">
        <ele>38</ele>
        <time>2021-04-22T10:39:46.000Z</time>
      </trkpt>
      <trkpt lat="47.27457" lon="-2.34829">
        <ele>38</ele>
        <time>2021-04-22T10:39:50.000Z</time>
      </trkpt>
      <trkpt lat="47.27456" lon="-2.34793">
        <ele>38</ele>
        <time>2021-04-22T10:39:55.000Z</time>
      </trkpt>
      <trkpt lat="47.27455" lon="-2.34786">
        <ele>38</ele>
        <time>2021-04-22T10:39:56.000Z</time>
      </trkpt>
      <trkpt lat="47.27453" lon="-2.34765">
        <ele>38</ele>
        <time>2021-04-22T10:39:59.000Z</time>
      </trkpt>
      <trkpt lat="47.27453" lon="-2.34751">
        <ele>38.400001525879</ele>
        <time>2021-04-22T10:40:01.000Z</time>
      </trkpt>
      <trkpt lat="47.27453" lon="-2.34744">
        <ele>38.799999237061</ele>
        <time>2021-04-22T10:40:02.000Z</time>
      </trkpt>
      <trkpt lat="47.27454" lon="-2.34737">
        <ele>39.200000762939</ele>
        <time>2021-04-22T10:40:03.000Z</time>
      </trkpt>
      <trkpt lat="47.27455" lon="-2.3473">
        <ele>39.599998474121</ele>
        <time>2021-04-22T10:40:04.000Z</time>
      </trkpt>
      <trkpt lat="47.27455" lon="-2.34723">
        <ele>40</ele>
        <time>2021-04-22T10:40:05.000Z</time>
      </trkpt>
      <trkpt lat="47.27456" lon="-2.3471">
        <ele>40</ele>
        <time>2021-04-22T10:40:07.000Z</time>
      </trkpt>
      <trkpt lat="47.27454" lon="-2.34665">
        <ele>40</ele>
        <time>2021-04-22T10:40:13.000Z</time>
      </trkpt>
      <trkpt lat="47.27452" lon="-2.34643">
        <ele>40.400001525879</ele>
        <time>2021-04-22T10:40:16.000Z</time>
      </trkpt>
      <trkpt lat="47.27452" lon="-2.34635">
        <ele>40.799999237061</ele>
        <time>2021-04-22T10:40:17.000Z</time>
      </trkpt>
      <trkpt lat="47.27451" lon="-2.34628">
        <ele>41.200000762939</ele>
        <time>2021-04-22T10:40:18.000Z</time>
      </trkpt>
      <trkpt lat="47.27451" lon="-2.34621">
        <ele>41.799999237061</ele>
        <time>2021-04-22T10:40:19.000Z</time>
      </trkpt>
      <trkpt lat="47.2745" lon="-2.34613">
        <ele>42.200000762939</ele>
        <time>2021-04-22T10:40:20.000Z</time>
      </trkpt>
      <trkpt lat="47.27442" lon="-2.34558">
        <ele>42.200000762939</ele>
        <time>2021-04-22T10:40:28.000Z</time>
      </trkpt>
      <trkpt lat="47.27429" lon="-2.34509">
        <ele>42.200000762939</ele>
        <time>2021-04-22T10:40:35.000Z</time>
      </trkpt>
      <trkpt lat="47.27424" lon="-2.34481">
        <ele>42.200000762939</ele>
        <time>2021-04-22T10:40:39.000Z</time>
      </trkpt>
      <trkpt lat="47.27424" lon="-2.34473">
        <ele>42.200000762939</ele>
        <time>2021-04-22T10:40:41.000Z</time>
      </trkpt>
      <trkpt lat="47.2742" lon="-2.34419">
        <ele>42.200000762939</ele>
        <time>2021-04-22T10:40:48.000Z</time>
      </trkpt>
      <trkpt lat="47.27416" lon="-2.34372">
        <ele>42.200000762939</ele>
        <time>2021-04-22T10:40:54.000Z</time>
      </trkpt>
      <trkpt lat="47.27414" lon="-2.3432">
        <ele>42.200000762939</ele>
        <time>2021-04-22T10:41:00.000Z</time>
      </trkpt>
      <trkpt lat="47.27413" lon="-2.34277">
        <ele>41.799999237061</ele>
        <time>2021-04-22T10:41:05.000Z</time>
      </trkpt>
      <trkpt lat="47.27413" lon="-2.34269">
        <ele>41.400001525879</ele>
        <time>2021-04-22T10:41:06.000Z</time>
      </trkpt>
      <trkpt lat="47.27413" lon="-2.34262">
        <ele>40.799999237061</ele>
        <time>2021-04-22T10:41:07.000Z</time>
      </trkpt>
      <trkpt lat="47.27413" lon="-2.34255">
        <ele>40.400001525879</ele>
        <time>2021-04-22T10:41:08.000Z</time>
      </trkpt>
      <trkpt lat="47.27413" lon="-2.3425">
        <ele>40</ele>
        <time>2021-04-22T10:41:09.000Z</time>
      </trkpt>
      <trkpt lat="47.27411" lon="-2.34245">
        <ele>40</ele>
        <time>2021-04-22T10:41:11.000Z</time>
      </trkpt>
      <trkpt lat="47.27403" lon="-2.34231">
        <ele>40</ele>
        <time>2021-04-22T10:41:16.000Z</time>
      </trkpt>
      <trkpt lat="47.27395" lon="-2.34203">
        <ele>40</ele>
        <time>2021-04-22T10:41:20.000Z</time>
      </trkpt>
      <trkpt lat="47.27392" lon="-2.34196">
        <ele>40</ele>
        <time>2021-04-22T10:41:21.000Z</time>
      </trkpt>
      <trkpt lat="47.27378" lon="-2.34182">
        <ele>40</ele>
        <time>2021-04-22T10:41:24.000Z</time>
      </trkpt>
      <trkpt lat="47.27373" lon="-2.34178">
        <ele>40</ele>
        <time>2021-04-22T10:41:25.000Z</time>
      </trkpt>
      <trkpt lat="47.27343" lon="-2.34159">
        <ele>40</ele>
        <time>2021-04-22T10:41:31.000Z</time>
      </trkpt>
      <trkpt lat="47.27302" lon="-2.34135">
        <ele>40</ele>
        <time>2021-04-22T10:41:39.000Z</time>
      </trkpt>
      <trkpt lat="47.27283" lon="-2.34121">
        <ele>40</ele>
        <time>2021-04-22T10:41:43.000Z</time>
      </trkpt>
      <trkpt lat="47.27273" lon="-2.34118">
        <ele>40</ele>
        <time>2021-04-22T10:41:45.000Z</time>
      </trkpt>
      <trkpt lat="47.27258" lon="-2.34117">
        <ele>40</ele>
        <time>2021-04-22T10:41:48.000Z</time>
      </trkpt>
      <trkpt lat="47.27242" lon="-2.3412">
        <ele>40</ele>
        <time>2021-04-22T10:41:51.000Z</time>
      </trkpt>
      <trkpt lat="47.27226" lon="-2.34123">
        <ele>40</ele>
        <time>2021-04-22T10:41:54.000Z</time>
      </trkpt>
      <trkpt lat="47.27208" lon="-2.34125">
        <ele>39.599998474121</ele>
        <time>2021-04-22T10:41:57.000Z</time>
      </trkpt>
      <trkpt lat="47.27203" lon="-2.34126">
        <ele>39.200000762939</ele>
        <time>2021-04-22T10:41:58.000Z</time>
      </trkpt>
      <trkpt lat="47.27197" lon="-2.34127">
        <ele>38.799999237061</ele>
        <time>2021-04-22T10:41:59.000Z</time>
      </trkpt>
      <trkpt lat="47.27192" lon="-2.34128">
        <ele>38.200000762939</ele>
        <time>2021-04-22T10:42:00.000Z</time>
      </trkpt>
      <trkpt lat="47.27187" lon="-2.34127">
        <ele>37.799999237061</ele>
        <time>2021-04-22T10:42:01.000Z</time>
      </trkpt>
      <trkpt lat="47.27182" lon="-2.34125">
        <ele>37.799999237061</ele>
        <time>2021-04-22T10:42:02.000Z</time>
      </trkpt>
      <trkpt lat="47.27176" lon="-2.34111">
        <ele>37.799999237061</ele>
        <time>2021-04-22T10:42:05.000Z</time>
      </trkpt>
      <trkpt lat="47.27171" lon="-2.34093">
        <ele>37.799999237061</ele>
        <time>2021-04-22T10:42:08.000Z</time>
      </trkpt>
      <trkpt lat="47.27168" lon="-2.34085">
        <ele>37.799999237061</ele>
        <time>2021-04-22T10:42:10.000Z</time>
      </trkpt>
      <trkpt lat="47.27168" lon="-2.34081">
        <ele>37.799999237061</ele>
        <time>2021-04-22T10:42:11.000Z</time>
      </trkpt>
      <trkpt lat="47.27169" lon="-2.34076">
        <ele>37.799999237061</ele>
        <time>2021-04-22T10:42:13.000Z</time>
      </trkpt>
      <trkpt lat="47.2717" lon="-2.34077">
        <ele>37.799999237061</ele>
        <time>2021-04-22T10:42:15.000Z</time>
      </trkpt>
      <trkpt lat="47.27171" lon="-2.34082">
        <ele>37.799999237061</ele>
        <time>2021-04-22T10:42:16.000Z</time>
      </trkpt>
      <trkpt lat="47.27175" lon="-2.3411">
        <ele>37.799999237061</ele>
        <time>2021-04-22T10:42:20.000Z</time>
      </trkpt>
      <trkpt lat="47.2717" lon="-2.34129">
        <ele>37.400001525879</ele>
        <time>2021-04-22T10:42:23.000Z</time>
      </trkpt>
      <trkpt lat="47.27166" lon="-2.34133">
        <ele>37</ele>
        <time>2021-04-22T10:42:24.000Z</time>
      </trkpt>
      <trkpt lat="47.27161" lon="-2.34136">
        <ele>36.599998474121</ele>
        <time>2021-04-22T10:42:25.000Z</time>
      </trkpt>
      <trkpt lat="47.27154" lon="-2.34138">
        <ele>36</ele>
        <time>2021-04-22T10:42:26.000Z</time>
      </trkpt>
      <trkpt lat="47.27147" lon="-2.3414">
        <ele>35.599998474121</ele>
        <time>2021-04-22T10:42:27.000Z</time>
      </trkpt>
      <trkpt lat="47.27126" lon="-2.34142">
        <ele>35.200000762939</ele>
        <time>2021-04-22T10:42:30.000Z</time>
      </trkpt>
      <trkpt lat="47.2712" lon="-2.34143">
        <ele>34.599998474121</ele>
        <time>2021-04-22T10:42:31.000Z</time>
      </trkpt>
      <trkpt lat="47.27114" lon="-2.34142">
        <ele>34.200000762939</ele>
        <time>2021-04-22T10:42:32.000Z</time>
      </trkpt>
      <trkpt lat="47.27109" lon="-2.34141">
        <ele>33.400001525879</ele>
        <time>2021-04-22T10:42:33.000Z</time>
      </trkpt>
      <trkpt lat="47.27105" lon="-2.3414">
        <ele>32.599998474121</ele>
        <time>2021-04-22T10:42:34.000Z</time>
      </trkpt>
      <trkpt lat="47.27101" lon="-2.34138">
        <ele>31.799999237061</ele>
        <time>2021-04-22T10:42:35.000Z</time>
      </trkpt>
      <trkpt lat="47.271" lon="-2.34132">
        <ele>31</ele>
        <time>2021-04-22T10:42:36.000Z</time>
      </trkpt>
      <trkpt lat="47.27099" lon="-2.34126">
        <ele>30.39999961853</ele>
        <time>2021-04-22T10:42:37.000Z</time>
      </trkpt>
      <trkpt lat="47.27096" lon="-2.341">
        <ele>30.39999961853</ele>
        <time>2021-04-22T10:42:41.000Z</time>
      </trkpt>
      <trkpt lat="47.27096" lon="-2.34088">
        <ele>30.39999961853</ele>
        <time>2021-04-22T10:42:43.000Z</time>
      </trkpt>
      <trkpt lat="47.27101" lon="-2.34054">
        <ele>30.39999961853</ele>
        <time>2021-04-22T10:42:49.000Z</time>
      </trkpt>
      <trkpt lat="47.27103" lon="-2.34039">
        <ele>30.799999237061</ele>
        <time>2021-04-22T10:42:52.000Z</time>
      </trkpt>
      <trkpt lat="47.27104" lon="-2.34034">
        <ele>31.200000762939</ele>
        <time>2021-04-22T10:42:53.000Z</time>
      </trkpt>
      <trkpt lat="47.27105" lon="-2.34028">
        <ele>31.60000038147</ele>
        <time>2021-04-22T10:42:54.000Z</time>
      </trkpt>
      <trkpt lat="47.27107" lon="-2.34023">
        <ele>32</ele>
        <time>2021-04-22T10:42:55.000Z</time>
      </trkpt>
      <trkpt lat="47.27108" lon="-2.34018">
        <ele>32.599998474121</ele>
        <time>2021-04-22T10:42:56.000Z</time>
      </trkpt>
      <trkpt lat="47.27111" lon="-2.33999">
        <ele>33</ele>
        <time>2021-04-22T10:42:59.000Z</time>
      </trkpt>
      <trkpt lat="47.27111" lon="-2.33993">
        <ele>33.400001525879</ele>
        <time>2021-04-22T10:43:00.000Z</time>
      </trkpt>
      <trkpt lat="47.27112" lon="-2.33986">
        <ele>34.400001525879</ele>
        <time>2021-04-22T10:43:01.000Z</time>
      </trkpt>
      <trkpt lat="47.27113" lon="-2.3398">
        <ele>34.799999237061</ele>
        <time>2021-04-22T10:43:02.000Z</time>
      </trkpt>
      <trkpt lat="47.27116" lon="-2.33961">
        <ele>35.200000762939</ele>
        <time>2021-04-22T10:43:06.000Z</time>
      </trkpt>
      <trkpt lat="47.27115" lon="-2.33958">
        <ele>35.599998474121</ele>
        <time>2021-04-22T10:43:07.000Z</time>
      </trkpt>
      <trkpt lat="47.27113" lon="-2.33957">
        <ele>36</ele>
        <time>2021-04-22T10:43:08.000Z</time>
      </trkpt>
      <trkpt lat="47.2711" lon="-2.33954">
        <ele>36.400001525879</ele>
        <time>2021-04-22T10:43:09.000Z</time>
      </trkpt>
      <trkpt lat="47.27107" lon="-2.33951">
        <ele>36.799999237061</ele>
        <time>2021-04-22T10:43:10.000Z</time>
      </trkpt>
      <trkpt lat="47.27104" lon="-2.33948">
        <ele>36.799999237061</ele>
        <time>2021-04-22T10:43:11.000Z</time>
      </trkpt>
      <trkpt lat="47.27094" lon="-2.33939">
        <ele>36.799999237061</ele>
        <time>2021-04-22T10:43:14.000Z</time>
      </trkpt>
      <trkpt lat="47.27068" lon="-2.33917">
        <ele>36.799999237061</ele>
        <time>2021-04-22T10:43:19.000Z</time>
      </trkpt>
      <trkpt lat="47.27055" lon="-2.33906">
        <ele>36.400001525879</ele>
        <time>2021-04-22T10:43:21.000Z</time>
      </trkpt>
      <trkpt lat="47.27048" lon="-2.33899">
        <ele>35.799999237061</ele>
        <time>2021-04-22T10:43:22.000Z</time>
      </trkpt>
      <trkpt lat="47.27041" lon="-2.33892">
        <ele>35.400001525879</ele>
        <time>2021-04-22T10:43:23.000Z</time>
      </trkpt>
      <trkpt lat="47.27034" lon="-2.33886">
        <ele>35</ele>
        <time>2021-04-22T10:43:24.000Z</time>
      </trkpt>
      <trkpt lat="47.27028" lon="-2.3388">
        <ele>34.400001525879</ele>
        <time>2021-04-22T10:43:25.000Z</time>
      </trkpt>
      <trkpt lat="47.27015" lon="-2.3387">
        <ele>34</ele>
        <time>2021-04-22T10:43:27.000Z</time>
      </trkpt>
      <trkpt lat="47.27007" lon="-2.33865">
        <ele>33.599998474121</ele>
        <time>2021-04-22T10:43:28.000Z</time>
      </trkpt>
      <trkpt lat="47.27" lon="-2.33861">
        <ele>33.200000762939</ele>
        <time>2021-04-22T10:43:29.000Z</time>
      </trkpt>
      <trkpt lat="47.26992" lon="-2.33857">
        <ele>32.799999237061</ele>
        <time>2021-04-22T10:43:30.000Z</time>
      </trkpt>
      <trkpt lat="47.26984" lon="-2.33853">
        <ele>32.400001525879</ele>
        <time>2021-04-22T10:43:31.000Z</time>
      </trkpt>
      <trkpt lat="47.26969" lon="-2.33845">
        <ele>32</ele>
        <time>2021-04-22T10:43:33.000Z</time>
      </trkpt>
      <trkpt lat="47.26962" lon="-2.3384">
        <ele>31.60000038147</ele>
        <time>2021-04-22T10:43:34.000Z</time>
      </trkpt>
      <trkpt lat="47.26954" lon="-2.33835">
        <ele>31</ele>
        <time>2021-04-22T10:43:35.000Z</time>
      </trkpt>
      <trkpt lat="47.26947" lon="-2.33829">
        <ele>30.39999961853</ele>
        <time>2021-04-22T10:43:36.000Z</time>
      </trkpt>
      <trkpt lat="47.2694" lon="-2.33824">
        <ele>30</ele>
        <time>2021-04-22T10:43:37.000Z</time>
      </trkpt>
      <trkpt lat="47.26934" lon="-2.33819">
        <ele>29.39999961853</ele>
        <time>2021-04-22T10:43:38.000Z</time>
      </trkpt>
      <trkpt lat="47.26929" lon="-2.3381">
        <ele>28.799999237061</ele>
        <time>2021-04-22T10:43:39.000Z</time>
      </trkpt>
      <trkpt lat="47.26926" lon="-2.33801">
        <ele>28.200000762939</ele>
        <time>2021-04-22T10:43:40.000Z</time>
      </trkpt>
      <trkpt lat="47.26925" lon="-2.33771">
        <ele>28.200000762939</ele>
        <time>2021-04-22T10:43:43.000Z</time>
      </trkpt>
      <trkpt lat="47.26928" lon="-2.33754">
        <ele>27.799999237061</ele>
        <time>2021-04-22T10:43:45.000Z</time>
      </trkpt>
      <trkpt lat="47.2693" lon="-2.33745">
        <ele>27.39999961853</ele>
        <time>2021-04-22T10:43:46.000Z</time>
      </trkpt>
      <trkpt lat="47.26932" lon="-2.33736">
        <ele>27</ele>
        <time>2021-04-22T10:43:47.000Z</time>
      </trkpt>
      <trkpt lat="47.26934" lon="-2.33728">
        <ele>26.39999961853</ele>
        <time>2021-04-22T10:43:48.000Z</time>
      </trkpt>
      <trkpt lat="47.26935" lon="-2.3372">
        <ele>26</ele>
        <time>2021-04-22T10:43:49.000Z</time>
      </trkpt>
      <trkpt lat="47.26936" lon="-2.33712">
        <ele>26</ele>
        <time>2021-04-22T10:43:50.000Z</time>
      </trkpt>
      <trkpt lat="47.26934" lon="-2.33695">
        <ele>26</ele>
        <time>2021-04-22T10:43:52.000Z</time>
      </trkpt>
      <trkpt lat="47.26931" lon="-2.3367">
        <ele>26</ele>
        <time>2021-04-22T10:43:55.000Z</time>
      </trkpt>
      <trkpt lat="47.26926" lon="-2.33644">
        <ele>26</ele>
        <time>2021-04-22T10:43:58.000Z</time>
      </trkpt>
      <trkpt lat="47.26918" lon="-2.33608">
        <ele>26</ele>
        <time>2021-04-22T10:44:02.000Z</time>
      </trkpt>
      <trkpt lat="47.26911" lon="-2.3359">
        <ele>26</ele>
        <time>2021-04-22T10:44:04.000Z</time>
      </trkpt>
      <trkpt lat="47.26904" lon="-2.33572">
        <ele>26</ele>
        <time>2021-04-22T10:44:06.000Z</time>
      </trkpt>
      <trkpt lat="47.26894" lon="-2.33545">
        <ele>26</ele>
        <time>2021-04-22T10:44:09.000Z</time>
      </trkpt>
      <trkpt lat="47.26889" lon="-2.33539">
        <ele>26</ele>
        <time>2021-04-22T10:44:10.000Z</time>
      </trkpt>
      <trkpt lat="47.26883" lon="-2.33533">
        <ele>25.60000038147</ele>
        <time>2021-04-22T10:44:11.000Z</time>
      </trkpt>
      <trkpt lat="47.26875" lon="-2.33531">
        <ele>25.200000762939</ele>
        <time>2021-04-22T10:44:12.000Z</time>
      </trkpt>
      <trkpt lat="47.26868" lon="-2.33532">
        <ele>24.799999237061</ele>
        <time>2021-04-22T10:44:13.000Z</time>
      </trkpt>
      <trkpt lat="47.2686" lon="-2.33534">
        <ele>24.39999961853</ele>
        <time>2021-04-22T10:44:14.000Z</time>
      </trkpt>
      <trkpt lat="47.26852" lon="-2.33537">
        <ele>24</ele>
        <time>2021-04-22T10:44:15.000Z</time>
      </trkpt>
      <trkpt lat="47.26845" lon="-2.33541">
        <ele>23.200000762939</ele>
        <time>2021-04-22T10:44:16.000Z</time>
      </trkpt>
      <trkpt lat="47.26839" lon="-2.33545">
        <ele>22.799999237061</ele>
        <time>2021-04-22T10:44:17.000Z</time>
      </trkpt>
      <trkpt lat="47.26832" lon="-2.33548">
        <ele>22.39999961853</ele>
        <time>2021-04-22T10:44:18.000Z</time>
      </trkpt>
      <trkpt lat="47.26825" lon="-2.33552">
        <ele>22</ele>
        <time>2021-04-22T10:44:19.000Z</time>
      </trkpt>
      <trkpt lat="47.26794" lon="-2.33563">
        <ele>22</ele>
        <time>2021-04-22T10:44:24.000Z</time>
      </trkpt>
      <trkpt lat="47.26778" lon="-2.33566">
        <ele>22</ele>
        <time>2021-04-22T10:44:28.000Z</time>
      </trkpt>
      <trkpt lat="47.26775" lon="-2.33551">
        <ele>22</ele>
        <time>2021-04-22T10:44:31.000Z</time>
      </trkpt>
      <trkpt lat="47.26774" lon="-2.33544">
        <ele>21.60000038147</ele>
        <time>2021-04-22T10:44:32.000Z</time>
      </trkpt>
      <trkpt lat="47.26773" lon="-2.33536">
        <ele>21.200000762939</ele>
        <time>2021-04-22T10:44:33.000Z</time>
      </trkpt>
      <trkpt lat="47.26772" lon="-2.33528">
        <ele>20.799999237061</ele>
        <time>2021-04-22T10:44:34.000Z</time>
      </trkpt>
      <trkpt lat="47.26771" lon="-2.33519">
        <ele>20.39999961853</ele>
        <time>2021-04-22T10:44:35.000Z</time>
      </trkpt>
      <trkpt lat="47.26769" lon="-2.33511">
        <ele>20</ele>
        <time>2021-04-22T10:44:36.000Z</time>
      </trkpt>
      <trkpt lat="47.26759" lon="-2.33446">
        <ele>20</ele>
        <time>2021-04-22T10:44:43.000Z</time>
      </trkpt>
      <trkpt lat="47.26753" lon="-2.33398">
        <ele>20</ele>
        <time>2021-04-22T10:44:48.000Z</time>
      </trkpt>
      <trkpt lat="47.26746" lon="-2.33343">
        <ele>20</ele>
        <time>2021-04-22T10:44:54.000Z</time>
      </trkpt>
      <trkpt lat="47.26745" lon="-2.33337">
        <ele>20</ele>
        <time>2021-04-22T10:44:55.000Z</time>
      </trkpt>
      <trkpt lat="47.2674" lon="-2.33333">
        <ele>20</ele>
        <time>2021-04-22T10:44:57.000Z</time>
      </trkpt>
      <trkpt lat="47.26724" lon="-2.33323">
        <ele>20</ele>
        <time>2021-04-22T10:45:02.000Z</time>
      </trkpt>
      <trkpt lat="47.26717" lon="-2.33315">
        <ele>20</ele>
        <time>2021-04-22T10:45:04.000Z</time>
      </trkpt>
      <trkpt lat="47.26714" lon="-2.33308">
        <ele>20</ele>
        <time>2021-04-22T10:45:05.000Z</time>
      </trkpt>
      <trkpt lat="47.26709" lon="-2.33277">
        <ele>20</ele>
        <time>2021-04-22T10:45:09.000Z</time>
      </trkpt>
      <trkpt lat="47.26708" lon="-2.33269">
        <ele>20</ele>
        <time>2021-04-22T10:45:10.000Z</time>
      </trkpt>
      <trkpt lat="47.26707" lon="-2.33255">
        <ele>20</ele>
        <time>2021-04-22T10:45:12.000Z</time>
      </trkpt>
      <trkpt lat="47.26704" lon="-2.33243">
        <ele>20</ele>
        <time>2021-04-22T10:45:14.000Z</time>
      </trkpt>
      <trkpt lat="47.267" lon="-2.33228">
        <ele>20</ele>
        <time>2021-04-22T10:45:17.000Z</time>
      </trkpt>
      <trkpt lat="47.26699" lon="-2.33216">
        <ele>20</ele>
        <time>2021-04-22T10:45:19.000Z</time>
      </trkpt>
      <trkpt lat="47.26693" lon="-2.33186">
        <ele>20</ele>
        <time>2021-04-22T10:45:24.000Z</time>
      </trkpt>
      <trkpt lat="47.26689" lon="-2.33177">
        <ele>20</ele>
        <time>2021-04-22T10:45:26.000Z</time>
      </trkpt>
      <trkpt lat="47.26686" lon="-2.33174">
        <ele>20</ele>
        <time>2021-04-22T10:45:27.000Z</time>
      </trkpt>
      <trkpt lat="47.26671" lon="-2.33168">
        <ele>20</ele>
        <time>2021-04-22T10:45:32.000Z</time>
      </trkpt>
      <trkpt lat="47.26656" lon="-2.33181">
        <ele>20</ele>
        <time>2021-04-22T10:45:36.000Z</time>
      </trkpt>
      <trkpt lat="47.26627" lon="-2.33211">
        <ele>20</ele>
        <time>2021-04-22T10:45:43.000Z</time>
      </trkpt>
      <trkpt lat="47.26599" lon="-2.3324">
        <ele>20</ele>
        <time>2021-04-22T10:45:49.000Z</time>
      </trkpt>
      <trkpt lat="47.26562" lon="-2.33275">
        <ele>20</ele>
        <time>2021-04-22T10:45:57.000Z</time>
      </trkpt>
      <trkpt lat="47.26539" lon="-2.333">
        <ele>20</ele>
        <time>2021-04-22T10:46:03.000Z</time>
      </trkpt>
      <trkpt lat="47.26537" lon="-2.333">
        <ele>20</ele>
        <time>2021-04-22T10:46:04.000Z</time>
      </trkpt>
      <trkpt lat="47.26534" lon="-2.33295">
        <ele>20</ele>
        <time>2021-04-22T10:46:06.000Z</time>
      </trkpt>
      <trkpt lat="47.26529" lon="-2.33285">
        <ele>20</ele>
        <time>2021-04-22T10:46:08.000Z</time>
      </trkpt>
      <trkpt lat="47.26525" lon="-2.33284">
        <ele>20</ele>
        <time>2021-04-22T10:46:09.000Z</time>
      </trkpt>
      <trkpt lat="47.26521" lon="-2.33285">
        <ele>20</ele>
        <time>2021-04-22T10:46:10.000Z</time>
      </trkpt>
      <trkpt lat="47.26506" lon="-2.33282">
        <ele>20</ele>
        <time>2021-04-22T10:46:14.000Z</time>
      </trkpt>
      <trkpt lat="47.26495" lon="-2.33281">
        <ele>20</ele>
        <time>2021-04-22T10:46:17.000Z</time>
      </trkpt>
      <trkpt lat="47.2649" lon="-2.3328">
        <ele>20</ele>
        <time>2021-04-22T10:46:18.000Z</time>
      </trkpt>
      <trkpt lat="47.26464" lon="-2.33274">
        <ele>20</ele>
        <time>2021-04-22T10:46:24.000Z</time>
      </trkpt>
      <trkpt lat="47.26443" lon="-2.3327">
        <ele>20</ele>
        <time>2021-04-22T10:46:29.000Z</time>
      </trkpt>
      <trkpt lat="47.26407" lon="-2.33266">
        <ele>20</ele>
        <time>2021-04-22T10:46:36.000Z</time>
      </trkpt>
      <trkpt lat="47.26391" lon="-2.33262">
        <ele>20</ele>
        <time>2021-04-22T10:46:39.000Z</time>
      </trkpt>
      <trkpt lat="47.26383" lon="-2.33252">
        <ele>20</ele>
        <time>2021-04-22T10:46:41.000Z</time>
      </trkpt>
      <trkpt lat="47.26378" lon="-2.33232">
        <ele>20</ele>
        <time>2021-04-22T10:46:44.000Z</time>
      </trkpt>
      <trkpt lat="47.26377" lon="-2.33225">
        <ele>20</ele>
        <time>2021-04-22T10:46:45.000Z</time>
      </trkpt>
      <trkpt lat="47.26376" lon="-2.33191">
        <ele>20</ele>
        <time>2021-04-22T10:46:49.000Z</time>
      </trkpt>
      <trkpt lat="47.26373" lon="-2.33128">
        <ele>20</ele>
        <time>2021-04-22T10:46:56.000Z</time>
      </trkpt>
      <trkpt lat="47.26372" lon="-2.33119">
        <ele>20</ele>
        <time>2021-04-22T10:46:57.000Z</time>
      </trkpt>
      <trkpt lat="47.26367" lon="-2.33075">
        <ele>20</ele>
        <time>2021-04-22T10:47:02.000Z</time>
      </trkpt>
      <trkpt lat="47.26365" lon="-2.32997">
        <ele>20</ele>
        <time>2021-04-22T10:47:11.000Z</time>
      </trkpt>
      <trkpt lat="47.26363" lon="-2.32984">
        <ele>20</ele>
        <time>2021-04-22T10:47:13.000Z</time>
      </trkpt>
      <trkpt lat="47.26358" lon="-2.32975">
        <ele>20</ele>
        <time>2021-04-22T10:47:15.000Z</time>
      </trkpt>
      <trkpt lat="47.26344" lon="-2.32954">
        <ele>20</ele>
        <time>2021-04-22T10:47:19.000Z</time>
      </trkpt>
      <trkpt lat="47.26338" lon="-2.32933">
        <ele>20</ele>
        <time>2021-04-22T10:47:22.000Z</time>
      </trkpt>
      <trkpt lat="47.26333" lon="-2.32918">
        <ele>20</ele>
        <time>2021-04-22T10:47:24.000Z</time>
      </trkpt>
      <trkpt lat="47.26316" lon="-2.32867">
        <ele>20</ele>
        <time>2021-04-22T10:47:31.000Z</time>
      </trkpt>
      <trkpt lat="47.26301" lon="-2.32856">
        <ele>20</ele>
        <time>2021-04-22T10:47:34.000Z</time>
      </trkpt>
      <trkpt lat="47.26284" lon="-2.32838">
        <ele>20</ele>
        <time>2021-04-22T10:47:38.000Z</time>
      </trkpt>
      <trkpt lat="47.26277" lon="-2.32814">
        <ele>20</ele>
        <time>2021-04-22T10:47:41.000Z</time>
      </trkpt>
      <trkpt lat="47.26272" lon="-2.32798">
        <ele>20</ele>
        <time>2021-04-22T10:47:43.000Z</time>
      </trkpt>
      <trkpt lat="47.26253" lon="-2.32757">
        <ele>20</ele>
        <time>2021-04-22T10:47:49.000Z</time>
      </trkpt>
      <trkpt lat="47.26226" lon="-2.32717">
        <ele>20</ele>
        <time>2021-04-22T10:47:56.000Z</time>
      </trkpt>
      <trkpt lat="47.26208" lon="-2.32689">
        <ele>20.39999961853</ele>
        <time>2021-04-22T10:48:01.000Z</time>
      </trkpt>
      <trkpt lat="47.26203" lon="-2.32684">
        <ele>20.799999237061</ele>
        <time>2021-04-22T10:48:02.000Z</time>
      </trkpt>
      <trkpt lat="47.26199" lon="-2.32679">
        <ele>21.200000762939</ele>
        <time>2021-04-22T10:48:03.000Z</time>
      </trkpt>
      <trkpt lat="47.26195" lon="-2.32674">
        <ele>21.60000038147</ele>
        <time>2021-04-22T10:48:04.000Z</time>
      </trkpt>
      <trkpt lat="47.26191" lon="-2.3267">
        <ele>22</ele>
        <time>2021-04-22T10:48:05.000Z</time>
      </trkpt>
      <trkpt lat="47.26168" lon="-2.32651">
        <ele>22</ele>
        <time>2021-04-22T10:48:10.000Z</time>
      </trkpt>
      <trkpt lat="47.26149" lon="-2.32641">
        <ele>22</ele>
        <time>2021-04-22T10:48:15.000Z</time>
      </trkpt>
      <trkpt lat="47.26123" lon="-2.32637">
        <ele>22</ele>
        <time>2021-04-22T10:48:21.000Z</time>
      </trkpt>
      <trkpt lat="47.26092" lon="-2.32639">
        <ele>22</ele>
        <time>2021-04-22T10:48:27.000Z</time>
      </trkpt>
      <trkpt lat="47.26043" lon="-2.32648">
        <ele>22</ele>
        <time>2021-04-22T10:48:36.000Z</time>
      </trkpt>
      <trkpt lat="47.26" lon="-2.32656">
        <ele>22</ele>
        <time>2021-04-22T10:48:44.000Z</time>
      </trkpt>
      <trkpt lat="47.25974" lon="-2.32657">
        <ele>21.60000038147</ele>
        <time>2021-04-22T10:48:49.000Z</time>
      </trkpt>
      <trkpt lat="47.25969" lon="-2.32656">
        <ele>21.200000762939</ele>
        <time>2021-04-22T10:48:50.000Z</time>
      </trkpt>
      <trkpt lat="47.25964" lon="-2.32658">
        <ele>20.799999237061</ele>
        <time>2021-04-22T10:48:51.000Z</time>
      </trkpt>
      <trkpt lat="47.2596" lon="-2.32659">
        <ele>20.39999961853</ele>
        <time>2021-04-22T10:48:52.000Z</time>
      </trkpt>
      <trkpt lat="47.25956" lon="-2.32658">
        <ele>20</ele>
        <time>2021-04-22T10:48:53.000Z</time>
      </trkpt>
      <trkpt lat="47.2594" lon="-2.32645">
        <ele>20</ele>
        <time>2021-04-22T10:48:57.000Z</time>
      </trkpt>
      <trkpt lat="47.25936" lon="-2.32639">
        <ele>20</ele>
        <time>2021-04-22T10:48:58.000Z</time>
      </trkpt>
      <trkpt lat="47.2592" lon="-2.32616">
        <ele>20</ele>
        <time>2021-04-22T10:49:02.000Z</time>
      </trkpt>
      <trkpt lat="47.25907" lon="-2.32599">
        <ele>20</ele>
        <time>2021-04-22T10:49:05.000Z</time>
      </trkpt>
      <trkpt lat="47.25893" lon="-2.32584">
        <ele>20</ele>
        <time>2021-04-22T10:49:08.000Z</time>
      </trkpt>
      <trkpt lat="47.2588" lon="-2.32572">
        <ele>20</ele>
        <time>2021-04-22T10:49:11.000Z</time>
      </trkpt>
      <trkpt lat="47.25876" lon="-2.32566">
        <ele>20</ele>
        <time>2021-04-22T10:49:12.000Z</time>
      </trkpt>
      <trkpt lat="47.2586" lon="-2.32544">
        <ele>20</ele>
        <time>2021-04-22T10:49:16.000Z</time>
      </trkpt>
      <trkpt lat="47.25839" lon="-2.32513">
        <ele>20</ele>
        <time>2021-04-22T10:49:22.000Z</time>
      </trkpt>
      <trkpt lat="47.25832" lon="-2.32504">
        <ele>20</ele>
        <time>2021-04-22T10:49:24.000Z</time>
      </trkpt>
      <trkpt lat="47.25824" lon="-2.32486">
        <ele>20</ele>
        <time>2021-04-22T10:49:28.000Z</time>
      </trkpt>
      <trkpt lat="47.25827" lon="-2.3248">
        <ele>20</ele>
        <time>2021-04-22T10:49:30.000Z</time>
      </trkpt>
      <trkpt lat="47.2583" lon="-2.3248">
        <ele>20</ele>
        <time>2021-04-22T10:49:31.000Z</time>
      </trkpt>
      <trkpt lat="47.2584" lon="-2.32479">
        <ele>20</ele>
        <time>2021-04-22T10:49:34.000Z</time>
      </trkpt>
      <trkpt lat="47.25845" lon="-2.3248">
        <ele>20</ele>
        <time>2021-04-22T10:49:35.000Z</time>
      </trkpt>
      <trkpt lat="47.2585" lon="-2.32481">
        <ele>20</ele>
        <time>2021-04-22T10:49:36.000Z</time>
      </trkpt>
      <trkpt lat="47.25869" lon="-2.32483">
        <ele>20</ele>
        <time>2021-04-22T10:49:40.000Z</time>
      </trkpt>
      <trkpt lat="47.2588" lon="-2.32481">
        <ele>20</ele>
        <time>2021-04-22T10:49:42.000Z</time>
      </trkpt>
      <trkpt lat="47.25889" lon="-2.32472">
        <ele>20</ele>
        <time>2021-04-22T10:49:45.000Z</time>
      </trkpt>
      <trkpt lat="47.25892" lon="-2.32463">
        <ele>20</ele>
        <time>2021-04-22T10:49:47.000Z</time>
      </trkpt>
      <trkpt lat="47.25897" lon="-2.32452">
        <ele>20</ele>
        <time>2021-04-22T10:49:49.000Z</time>
      </trkpt>
      <trkpt lat="47.25904" lon="-2.32442">
        <ele>20</ele>
        <time>2021-04-22T10:49:51.000Z</time>
      </trkpt>
      <trkpt lat="47.25921" lon="-2.32423">
        <ele>20</ele>
        <time>2021-04-22T10:49:55.000Z</time>
      </trkpt>
      <trkpt lat="47.25949" lon="-2.32385">
        <ele>20</ele>
        <time>2021-04-22T10:50:02.000Z</time>
      </trkpt>
      <trkpt lat="47.2598" lon="-2.32344">
        <ele>20</ele>
        <time>2021-04-22T10:50:10.000Z</time>
      </trkpt>
      <trkpt lat="47.26009" lon="-2.32305">
        <ele>20</ele>
        <time>2021-04-22T10:50:18.000Z</time>
      </trkpt>
      <trkpt lat="47.26037" lon="-2.32274">
        <ele>20</ele>
        <time>2021-04-22T10:50:25.000Z</time>
      </trkpt>
      <trkpt lat="47.26048" lon="-2.32261">
        <ele>20</ele>
        <time>2021-04-22T10:50:28.000Z</time>
      </trkpt>
      <trkpt lat="47.26058" lon="-2.32251">
        <ele>20</ele>
        <time>2021-04-22T10:50:31.000Z</time>
      </trkpt>
      <trkpt lat="47.26073" lon="-2.32229">
        <ele>20</ele>
        <time>2021-04-22T10:50:36.000Z</time>
      </trkpt>
      <trkpt lat="47.26076" lon="-2.32223">
        <ele>20</ele>
        <time>2021-04-22T10:50:37.000Z</time>
      </trkpt>
      <trkpt lat="47.26087" lon="-2.32207">
        <ele>20</ele>
        <time>2021-04-22T10:50:40.000Z</time>
      </trkpt>
      <trkpt lat="47.26099" lon="-2.32188">
        <ele>20</ele>
        <time>2021-04-22T10:50:43.000Z</time>
      </trkpt>
      <trkpt lat="47.26102" lon="-2.32182">
        <ele>20</ele>
        <time>2021-04-22T10:50:44.000Z</time>
      </trkpt>
      <trkpt lat="47.26115" lon="-2.32149">
        <ele>20</ele>
        <time>2021-04-22T10:50:49.000Z</time>
      </trkpt>
      <trkpt lat="47.26132" lon="-2.32101">
        <ele>20</ele>
        <time>2021-04-22T10:50:56.000Z</time>
      </trkpt>
      <trkpt lat="47.26145" lon="-2.3206">
        <ele>20</ele>
        <time>2021-04-22T10:51:02.000Z</time>
      </trkpt>
      <trkpt lat="47.26157" lon="-2.3203">
        <ele>20</ele>
        <time>2021-04-22T10:51:07.000Z</time>
      </trkpt>
      <trkpt lat="47.2616" lon="-2.32025">
        <ele>20</ele>
        <time>2021-04-22T10:51:08.000Z</time>
      </trkpt>
      <trkpt lat="47.26171" lon="-2.32019">
        <ele>20</ele>
        <time>2021-04-22T10:51:11.000Z</time>
      </trkpt>
      <trkpt lat="47.26178" lon="-2.32019">
        <ele>20</ele>
        <time>2021-04-22T10:51:13.000Z</time>
      </trkpt>
      <trkpt lat="47.26187" lon="-2.32023">
        <ele>20</ele>
        <time>2021-04-22T10:51:17.000Z</time>
      </trkpt>
      <trkpt lat="47.26191" lon="-2.32022">
        <ele>20</ele>
        <time>2021-04-22T10:51:19.000Z</time>
      </trkpt>
      <trkpt lat="47.26194" lon="-2.32018">
        <ele>20</ele>
        <time>2021-04-22T10:51:21.000Z</time>
      </trkpt>
      <trkpt lat="47.26197" lon="-2.32006">
        <ele>20</ele>
        <time>2021-04-22T10:51:24.000Z</time>
      </trkpt>
      <trkpt lat="47.26201" lon="-2.32002">
        <ele>20</ele>
        <time>2021-04-22T10:51:26.000Z</time>
      </trkpt>
      <trkpt lat="47.26206" lon="-2.31996">
        <ele>20</ele>
        <time>2021-04-22T10:51:28.000Z</time>
      </trkpt>
      <trkpt lat="47.2622" lon="-2.31976">
        <ele>20</ele>
        <time>2021-04-22T10:51:34.000Z</time>
      </trkpt>
      <trkpt lat="47.26224" lon="-2.31976">
        <ele>20</ele>
        <time>2021-04-22T10:51:35.000Z</time>
      </trkpt>
      <trkpt lat="47.26231" lon="-2.3197">
        <ele>20</ele>
        <time>2021-04-22T10:51:37.000Z</time>
      </trkpt>
      <trkpt lat="47.26237" lon="-2.31949">
        <ele>20</ele>
        <time>2021-04-22T10:51:41.000Z</time>
      </trkpt>
      <trkpt lat="47.26239" lon="-2.31946">
        <ele>20</ele>
        <time>2021-04-22T10:51:42.000Z</time>
      </trkpt>
      <trkpt lat="47.26249" lon="-2.31926">
        <ele>20</ele>
        <time>2021-04-22T10:51:47.000Z</time>
      </trkpt>
      <trkpt lat="47.2626" lon="-2.31903">
        <ele>20</ele>
        <time>2021-04-22T10:51:53.000Z</time>
      </trkpt>
      <trkpt lat="47.26265" lon="-2.319">
        <ele>20</ele>
        <time>2021-04-22T10:51:54.000Z</time>
      </trkpt>
      <trkpt lat="47.26274" lon="-2.31896">
        <ele>20</ele>
        <time>2021-04-22T10:51:56.000Z</time>
      </trkpt>
      <trkpt lat="47.26288" lon="-2.31881">
        <ele>20</ele>
        <time>2021-04-22T10:51:59.000Z</time>
      </trkpt>
      <trkpt lat="47.2629" lon="-2.31875">
        <ele>20</ele>
        <time>2021-04-22T10:52:00.000Z</time>
      </trkpt>
      <trkpt lat="47.26295" lon="-2.31836">
        <ele>20</ele>
        <time>2021-04-22T10:52:06.000Z</time>
      </trkpt>
      <trkpt lat="47.26301" lon="-2.31793">
        <ele>20</ele>
        <time>2021-04-22T10:52:13.000Z</time>
      </trkpt>
      <trkpt lat="47.26299" lon="-2.31745">
        <ele>20</ele>
        <time>2021-04-22T10:52:20.000Z</time>
      </trkpt>
      <trkpt lat="47.26299" lon="-2.31732">
        <ele>20</ele>
        <time>2021-04-22T10:52:22.000Z</time>
      </trkpt>
      <trkpt lat="47.26304" lon="-2.31714">
        <ele>20</ele>
        <time>2021-04-22T10:52:25.000Z</time>
      </trkpt>
      <trkpt lat="47.26316" lon="-2.31707">
        <ele>20</ele>
        <time>2021-04-22T10:52:28.000Z</time>
      </trkpt>
      <trkpt lat="47.26333" lon="-2.31691">
        <ele>20.39999961853</ele>
        <time>2021-04-22T10:52:33.000Z</time>
      </trkpt>
      <trkpt lat="47.26336" lon="-2.31688">
        <ele>20.799999237061</ele>
        <time>2021-04-22T10:52:34.000Z</time>
      </trkpt>
      <trkpt lat="47.26338" lon="-2.31686">
        <ele>21.200000762939</ele>
        <time>2021-04-22T10:52:35.000Z</time>
      </trkpt>
      <trkpt lat="47.26341" lon="-2.31683">
        <ele>21.60000038147</ele>
        <time>2021-04-22T10:52:36.000Z</time>
      </trkpt>
      <trkpt lat="47.26343" lon="-2.31681">
        <ele>22.200000762939</ele>
        <time>2021-04-22T10:52:37.000Z</time>
      </trkpt>
      <trkpt lat="47.26359" lon="-2.31672">
        <ele>22.60000038147</ele>
        <time>2021-04-22T10:52:42.000Z</time>
      </trkpt>
      <trkpt lat="47.26362" lon="-2.31671">
        <ele>23</ele>
        <time>2021-04-22T10:52:43.000Z</time>
      </trkpt>
      <trkpt lat="47.26366" lon="-2.31669">
        <ele>23.39999961853</ele>
        <time>2021-04-22T10:52:44.000Z</time>
      </trkpt>
      <trkpt lat="47.26369" lon="-2.31668">
        <ele>23.799999237061</ele>
        <time>2021-04-22T10:52:45.000Z</time>
      </trkpt>
      <trkpt lat="47.26373" lon="-2.31666">
        <ele>24.200000762939</ele>
        <time>2021-04-22T10:52:46.000Z</time>
      </trkpt>
      <trkpt lat="47.26381" lon="-2.31659">
        <ele>24.200000762939</ele>
        <time>2021-04-22T10:52:49.000Z</time>
      </trkpt>
      <trkpt lat="47.26398" lon="-2.31651">
        <ele>24.200000762939</ele>
        <time>2021-04-22T10:52:55.000Z</time>
      </trkpt>
      <trkpt lat="47.26406" lon="-2.31642">
        <ele>24.200000762939</ele>
        <time>2021-04-22T10:52:58.000Z</time>
      </trkpt>
      <trkpt lat="47.26406" lon="-2.31637">
        <ele>24.200000762939</ele>
        <time>2021-04-22T10:52:59.000Z</time>
      </trkpt>
      <trkpt lat="47.26408" lon="-2.31609">
        <ele>24.200000762939</ele>
        <time>2021-04-22T10:53:05.000Z</time>
      </trkpt>
      <trkpt lat="47.26409" lon="-2.31579">
        <ele>24.200000762939</ele>
        <time>2021-04-22T10:53:11.000Z</time>
      </trkpt>
      <trkpt lat="47.2641" lon="-2.3155">
        <ele>24.200000762939</ele>
        <time>2021-04-22T10:53:18.000Z</time>
      </trkpt>
      <trkpt lat="47.26413" lon="-2.31547">
        <ele>24.200000762939</ele>
        <time>2021-04-22T10:53:22.000Z</time>
      </trkpt>
    </trkseg>
  </trk>
</gpx>